Su Yang Bo 001 — 000000 — position and weather

sailwx.info

Track history (hours):
 
Tides and Currents Weather Stations Pressure Air Temp Water Temp Dewpoint Dewpoint Depression Visibility Wind Speed Wind Dir Waves Ship Positions

Su Yang Bo 001

Last reported at 2017-Oct-23 08:01 UTC. Time now 2017-Oct-23 08:11 UTC.
Position N 24°17' E 118°19'.

Length 50 m.

Type: Towing. MMSI: 200002069.

Date/timePositionNaut miles runAvg speedWind from/ knotsBaromVisibWave heightAir tempDewpointWater temp
2017-Oct-23 08:01N 24°17' E 118°19'461118636.0
2017-Oct-23 08:00N 31°27' E 121°28'5502.1
2017-Oct-23 08:00N 31°30' E 121°24'83991.6
2017-Oct-23 08:00N 31°24' E 121°31'66176738.3
2017-Oct-23 07:59N 22°56' E 113°36'6652395121.3
2017-Oct-23 07:59N 31°25' E 121°38'75327.5
2017-Oct-23 07:59N 31°22' E 121°30'665299222.2
2017-Oct-23 07:59N 22°49' E 113°34'5250.4
2017-Oct-23 07:58N 22°54' E 113°35'118042.6
2017-Oct-23 07:58N 22°45' E 113°30'676128006.2
2017-Oct-23 07:57N 31°20' E 121°41'277365.7
2017-Oct-23 07:57N 31°37' E 121°18'11544.9
2017-Oct-23 07:56N 31°28' E 121°25'65248888.7
2017-Oct-23 07:55N 23°06' E 113°37'10278053.3
2017-Oct-23 07:47N 38°46' E 121°39'103211826.1
2017-Oct-23 07:42N 23°06' E 113°25'65725726.9
2017-Oct-23 07:41N 31°22' E 121°30'6713982.5
2017-Oct-23 07:30N 22°45' E 113°30'675404768.4
2017-Oct-23 07:30N 31°22' E 121°35'460551726.8
2017-Oct-23 07:30N 24°17' E 118°19'463119053.6
2017-Oct-23 07:30N 31°29' E 121°26'6601188507.4
2017-Oct-23 07:30N 23°06' E 113°25'65976557.7
2017-Oct-23 07:30N 31°28' E 121°25'2261.3
2017-Oct-23 07:29N 31°30' E 121°24'674404524.8
2017-Oct-23 07:29N 22°18' E 114°09'49176637.1
2017-Oct-23 07:29N 22°56' E 113°36'6612378763.9
2017-Oct-23 07:29N 31°24' E 121°31'61306.9
2017-Oct-23 07:29N 31°25' E 121°38'671100716.6
2017-Oct-23 07:28N 22°49' E 113°34'66937058.3
2017-Oct-23 07:27N 31°20' E 121°41'271743.1
2017-Oct-23 07:26N 31°38' E 121°18'4298587.6
2017-Oct-23 07:23N 38°46' E 121°42'104036335.5
2017-Oct-23 07:22N 22°54' E 113°35'9103.9
2017-Oct-23 07:16N 22°46' E 113°39'6658555.0
2017-Oct-23 07:12N 31°22' E 121°30'739.1
2017-Oct-23 07:00N 31°25' E 121°38'3494.8
2017-Oct-23 07:00N 31°22' E 121°35'2212965.9
2017-Oct-23 07:00N 31°38' E 121°18'46937497.6
2017-Oct-23 06:59N 24°17' E 118°18'27169598.2
2017-Oct-23 06:59N 22°56' E 113°36'71770.4
2017-Oct-23 06:59N 22°49' E 113°34'667150067.1
2017-Oct-23 06:59N 31°24' E 121°31'6671199999.0
2017-Oct-23 06:58N 22°48' E 113°37'665478659.9
2017-Oct-23 06:58N 31°22' E 121°30'72132.8
2017-Oct-23 06:58N 31°28' E 121°25'3193.6
2017-Oct-23 06:57N 31°31' E 121°24'10859.5
2017-Oct-23 06:57N 31°22' E 121°30'101395.7
2017-Oct-23 06:56N 31°20' E 121°41'172952.7
2017-Oct-23 06:56N 31°30' E 121°24'66347739.4
2017-Oct-23 06:55N 22°54' E 113°35'48296.3
2017-Oct-23 06:45N 22°18' E 114°09'2551025.7
2017-Oct-23 06:31N 24°17' E 118°15'255152832.7
2017-Oct-23 06:30N 22°18' E 114°09'455790.4
2017-Oct-23 06:30N 22°50' E 113°35'667114262.6
2017-Oct-23 06:30N 31°30' E 121°24'21008.0
2017-Oct-23 06:29N 31°31' E 121°23'66168018.1
2017-Oct-23 06:29N 22°56' E 113°36'72754.0
2017-Oct-23 06:29N 22°49' E 113°34'66954745.2
2017-Oct-23 06:28N 31°20' E 121°41'2715978.4
2017-Oct-23 06:28N 31°38' E 121°18'11642.0
2017-Oct-23 06:27N 31°28' E 121°25'6264.7
2017-Oct-23 06:25N 31°24' E 121°31'662108393.8
2017-Oct-23 06:25N 22°54' E 113°35'66015745.7
2017-Oct-23 06:23N 31°22' E 121°30'4592219.5
2017-Oct-23 06:10N 24°19' E 118°07'4633398.1
2017-Oct-23 06:02N 31°25' E 121°33'3120.7
2017-Oct-23 06:00N 31°22' E 121°35'461236971.2
2017-Oct-23 06:00N 24°18' E 118°11'31256.1
2017-Oct-23 06:00N 24°19' E 118°08'26573424.9
2017-Oct-23 06:00N 22°53' E 113°34'664597741.9
2017-Oct-23 06:00N 31°28' E 121°25'115146.1
2017-Oct-23 06:00N 31°25' E 121°38'142083.4
2017-Oct-23 05:59N 31°31' E 121°23'66868661.3
2017-Oct-23 05:59N 22°49' E 113°34'6692408854.8
2017-Oct-23 05:59N 31°20' E 121°41'663119342.5
2017-Oct-23 05:58N 22°56' E 113°36'493046.0
2017-Oct-23 05:57N 22°18' E 114°09'67593399.8
2017-Oct-23 05:57N 31°25' E 121°33'4295.6
2017-Oct-23 05:56N 31°22' E 121°30'95253.0
2017-Oct-23 05:56N 31°30' E 121°24'8634.2
2017-Oct-23 05:55N 31°24' E 121°31'662119232.4
2017-Oct-23 05:55N 22°54' E 113°35'66511242.9
2017-Oct-23 05:52N 31°38' E 121°18'6771923.7
2017-Oct-23 05:30N 22°18' E 114°09'6752428767.8
2017-Oct-23 05:30N 31°20' E 121°40'82150.7
2017-Oct-23 05:30N 31°21' E 121°31'21109.9
2017-Oct-23 05:30N 31°23' E 121°30'104126.4
2017-Oct-23 05:30N 31°31' E 121°23'1410115.2
2017-Oct-23 05:30N 31°22' E 121°35'128723.5
2017-Oct-23 05:30N 31°30' E 121°24'2252.5
2017-Oct-23 05:29N 31°28' E 121°25'114495.9
2017-Oct-23 05:29N 31°38' E 121°18'67075355.3
2017-Oct-23 05:29N 22°49' E 113°34'667126373.2
2017-Oct-23 05:28N 31°24' E 121°31'6612378925.6
2017-Oct-23 05:28N 22°56' E 113°36'26285744.9
2017-Oct-23 05:28N 24°19' E 118°07'263157671.9
2017-Oct-23 05:28N 22°54' E 113°35'66727595.4
2017-Oct-23 05:27N 31°25' E 121°38'460.7
2017-Oct-23 05:23N 31°25' E 121°33'1 1.7
2017-Oct-23 05:00N 31°24' E 121°33'3322.9
2017-Oct-23 05:00N 31°22' E 121°35'143888.4
2017-Oct-23 05:00N 31°31' E 121°23'8705.7
2017-Oct-23 04:59N 31°38' E 121°18'2238755.9
2017-Oct-23 04:59N 31°25' E 121°38'3594.9
2017-Oct-23 04:59N 31°22' E 121°39'670804216.5
2017-Oct-23 04:59N 22°49' E 113°34'667400182.9
2017-Oct-23 04:59N 31°28' E 121°25'661237882.8
2017-Oct-23 04:58N 22°56' E 113°36'66174341.9
2017-Oct-23 04:58N 31°24' E 121°31'2192.4
2017-Oct-23 04:57N 31°25' E 121°33'9338.4
2017-Oct-23 04:56N 31°30' E 121°24'6636104.9
2017-Oct-23 04:49N 22°54' E 113°35'6622123.4
2017-Oct-23 04:30N 31°28' E 121°25'8718.4
2017-Oct-23 04:30N 31°24' E 121°34'56288.4
2017-Oct-23 04:30N 31°22' E 121°39'67040892.4
2017-Oct-23 04:29N 22°49' E 113°34'71458.0
2017-Oct-23 04:28N 22°56' E 113°36'662149045.4
2017-Oct-23 04:28N 31°25' E 121°33'6642390441.6
2017-Oct-23 04:28N 22°54' E 113°35'662132481.3
2017-Oct-23 04:28N 31°24' E 121°31'101442.0
2017-Oct-23 04:27N 31°31' E 121°23'8200.4
2017-Oct-23 04:25N 31°38' E 121°18'661476275.4
2017-Oct-23 04:25N 23°02' E 113°30'65725424.6
2017-Oct-23 04:23N 31°21' E 121°31'7206.4
2017-Oct-23 04:21N 31°25' E 121°38'13359.4
2017-Oct-23 04:19N 31°30' E 121°24'2 5.0
2017-Oct-23 04:00N 31°28' E 121°25'131557.6
2017-Oct-23 04:00N 31°22' E 121°39'6937.8
2017-Oct-23 03:59N 31°25' E 121°33'185502.2
2017-Oct-23 03:59N 31°37' E 121°18'81401.9
2017-Oct-23 03:59N 31°31' E 121°23'668400514.0
2017-Oct-23 03:59N 22°49' E 113°34'71458.0
2017-Oct-23 03:58N 22°56' E 113°36'659197554.0
2017-Oct-23 03:58N 31°21' E 121°31'101571.8
2017-Oct-23 03:58N 31°30' E 121°24'827658.2
2017-Oct-23 03:58N 31°24' E 121°31'2147.6
2017-Oct-23 03:57N 31°24' E 121°34'4212.2
2017-Oct-23 03:56N 31°25' E 121°38'66317942.7
2017-Oct-23 03:53N 23°05' E 113°28'65687473.0
2017-Oct-23 03:53N 31°26' E 121°25'574.2
2017-Oct-23 03:49N 31°31' E 121°24'6705119.3
2017-Oct-23 03:41N 22°44' E 113°39'261517.2
2017-Oct-23 03:40N 23°06' E 113°25'19112.7
2017-Oct-23 03:30N 22°50' E 113°34'670185484.7
2017-Oct-23 03:30N 31°37' E 121°18'113998.7
2017-Oct-23 03:30N 31°28' E 121°25'115881.2
2017-Oct-23 03:30N 31°25' E 121°38'155416.6
2017-Oct-23 03:29N 31°31' E 121°22'51281.9
2017-Oct-23 03:29N 31°26' E 121°23'7912.2
2017-Oct-23 03:29N 31°23' E 121°30'3536.5
2017-Oct-23 03:28N 31°25' E 121°33'66261145.2
2017-Oct-23 03:28N 22°56' E 113°36'661237890.3
2017-Oct-23 03:28N 31°24' E 121°31'71067.0
2017-Oct-23 03:27N 31°22' E 121°39'132292.3
2017-Oct-23 03:27N 31°30' E 121°26'82986.1
2017-Oct-23 03:27N 31°24' E 121°34'66424645.9
2017-Oct-23 03:25N 22°54' E 113°35'94138.8
2017-Oct-23 03:25N 22°46' E 113°38'66817185.9
2017-Oct-23 03:23N 31°30' E 121°24'8402.2
2017-Oct-23 03:21N 31°23' E 121°30'6734484.3
2017-Oct-23 03:12N 22°45' E 113°30'6743398.8
2017-Oct-23 03:01N 31°23' E 121°33'5849.5
2017-Oct-23 03:00N 31°22' E 121°39'6691205029.1
2017-Oct-23 03:00N 22°49' E 113°36'668267051.0
2017-Oct-23 03:00N 31°28' E 121°28'51042.6
2017-Oct-23 03:00N 31°24' E 121°31'611497.6
2017-Oct-23 03:00N 31°28' E 121°25'8692.3
2017-Oct-23 02:59N 31°25' E 121°33'9418.0
2017-Oct-23 02:58N 31°30' E 121°24'934143.5
2017-Oct-23 02:58N 31°24' E 121°34'6622384997.0
2017-Oct-23 02:58N 22°56' E 113°36'661594725.8
2017-Oct-23 02:58N 31°24' E 121°31'173896.0
2017-Oct-23 02:57N 31°37' E 121°18'4242.7
2017-Oct-23 02:56N 31°34' E 121°19'193353.4
2017-Oct-23 02:56N 31°25' E 121°38'818.9
2017-Oct-23 02:30N 31°27' E 121°29'667480388.6
2017-Oct-23 02:30N 22°50' E 113°35'669301083.3
2017-Oct-23 02:30N 31°22' E 121°39'101034.1
2017-Oct-23 02:30N 31°26' E 121°29'5305.2
2017-Oct-23 02:29N 31°24' E 121°34'192828.8
2017-Oct-23 02:28N 31°37' E 121°18'182644.5
2017-Oct-23 02:28N 31°25' E 121°33'414759.2
2017-Oct-23 02:28N 31°25' E 121°38'135000.0
2017-Oct-23 02:28N 31°30' E 121°24'661396852.0
2017-Oct-23 02:28N 22°56' E 113°36'66176736.4
2017-Oct-23 02:27N 31°28' E 121°25'622784.1
2017-Oct-23 02:27N 31°24' E 121°31'5388.0
2017-Oct-23 02:26N 31°22' E 121°36'66831252.9
2017-Oct-23 02:25N 22°46' E 113°39'6693860.6
2017-Oct-23 02:15N 31°20' E 121°39'6662800.9
2017-Oct-23 02:00N 22°53' E 113°34'664398694.4
2017-Oct-23 02:00N 31°28' E 121°27'135896.8
2017-Oct-23 02:00N 31°20' E 121°39'663397642.0
2017-Oct-23 02:00N 22°56' E 113°36'66127368.9
2017-Oct-23 01:59N 31°30' E 121°24'101118.1
2017-Oct-23 01:58N 31°37' E 121°18'1811018.6
2017-Oct-23 01:58N 31°25' E 121°33'099.5
2017-Oct-23 01:58N 31°24' E 121°34'2234.5
2017-Oct-23 01:57N 31°24' E 121°31'713340.1
2017-Oct-23 01:57N 31°22' E 121°39'35262.7
2017-Oct-23 01:57N 31°22' E 121°36'112638.8
2017-Oct-23 01:57N 31°28' E 121°25'11614.5
2017-Oct-23 01:56N 31°25' E 121°38'6725693.3
2017-Oct-23 01:49N 22°44' E 113°41'114289.8
2017-Oct-23 01:48N 22°45' E 113°30'6752255.3
2017-Oct-23 01:30N 31°20' E 121°39'72961.4
2017-Oct-23 01:30N 31°25' E 121°33'933260.7
2017-Oct-23 01:30N 31°29' E 121°24'81577.1
2017-Oct-23 01:30N 31°24' E 121°31'661475780.6
2017-Oct-23 01:30N 22°56' E 113°36'662340713.9
2017-Oct-23 01:30N 31°24' E 121°34'21092.5
2017-Oct-23 01:30N 31°25' E 121°32'663265231.1
2017-Oct-23 01:30N 22°57' E 113°33'66342594.8
2017-Oct-23 01:29N 31°30' E 121°24'151948.9
2017-Oct-23 01:28N 31°22' E 121°39'131609.2
2017-Oct-23 01:28N 31°28' E 121°25'11998.8
2017-Oct-23 01:27N 31°37' E 121°18'21938.5
2017-Oct-23 01:26N 31°25' E 121°38'31097.3
2017-Oct-23 01:25N 31°22' E 121°36'6609695.6
2017-Oct-23 01:21N 23°06' E 113°27'6499352.6
2017-Oct-23 01:17N 31°57' E 120°28'6425183.7
2017-Oct-23 01:10N 23°07' E 113°39'244100.6
2017-Oct-23 01:09N 22°45' E 113°30'16102.3
2017-Oct-23 01:00N 23°00' E 113°32'660139775.2
2017-Oct-23 01:00N 31°24' E 121°31'65696.0
2017-Oct-23 01:00N 31°28' E 121°25'141769.7
2017-Oct-23 00:59N 31°20' E 121°39'2446.1
2017-Oct-23 00:59N 31°22' E 121°39'714907.3
2017-Oct-23 00:58N 31°58' E 120°27'6610287.5
2017-Oct-23 00:58N 31°24' E 121°34'4835.7
2017-Oct-23 00:58N 31°25' E 121°38'3326.2
2017-Oct-23 00:57N 31°22' E 121°36'662158874.3
2017-Oct-23 00:57N 22°56' E 113°36'66282234.0
2017-Oct-23 00:56N 31°25' E 121°33'9367.5
2017-Oct-23 00:55N 31°30' E 121°24'65263422.4
2017-Oct-23 00:54N 23°06' E 113°38'1364.9
2017-Oct-23 00:43N 23°06' E 113°25'22410.8
2017-Oct-23 00:39N 22°45' E 113°30'67683951.5
2017-Oct-23 00:39N 31°37' E 121°18'6764764.4
2017-Oct-23 00:30N 22°45' E 113°30'675405198.9
2017-Oct-23 00:30N 31°20' E 121°39'81312.3
2017-Oct-23 00:30N 31°24' E 121°31'62203.2
2017-Oct-23 00:30N 31°25' E 121°38'12775.7
2017-Oct-23 00:29N 31°30' E 121°24'89072.7
2017-Oct-23 00:29N 31°25' E 121°31'63732.3
2017-Oct-23 00:29N 31°28' E 121°25'11929.1
2017-Oct-23 00:28N 31°37' E 121°18'6592373434.2
2017-Oct-23 00:28N 23°04' E 113°32'658118514.7
2017-Oct-23 00:28N 31°24' E 121°34'51436.2
2017-Oct-23 00:27N 31°22' E 121°39'6889.0
2017-Oct-23 00:27N 31°25' E 121°33'654107018.0
2017-Oct-23 00:27N 23°06' E 113°36'1064.5
2017-Oct-23 00:17N 22°56' E 113°36'6612291.8
2017-Oct-23 00:00N 31°24' E 121°31'81804.4
2017-Oct-23 00:00N 31°20' E 121°39'658131599.0
2017-Oct-22 23:59N 23°05' E 113°33'656131297.0
2017-Oct-22 23:59N 31°26' E 121°29'55604.6
2017-Oct-22 23:59N 31°24' E 121°34'934143.5
2017-Oct-22 23:59N 31°30' E 121°24'1211247.9
2017-Oct-22 23:59N 31°25' E 121°38'3289.0
2017-Oct-22 23:58N 31°22' E 121°39'1316095.0
2017-Oct-22 23:58N 31°28' E 121°25'8960.8
2017-Oct-22 23:58N 31°25' E 121°33'675115725.3
2017-Oct-22 23:57N 22°45' E 113°30'67633350.8
2017-Oct-22 23:56N 31°37' E 121°18'664477779.3
2017-Oct-22 23:56N 22°56' E 113°36'1267.2
2017-Oct-22 23:45N 23°06' E 113°27'6603932.8
2017-Oct-22 23:35N 31°22' E 121°36'6568950.5
2017-Oct-22 23:30N 23°05' E 113°33'2118734.4
2017-Oct-22 23:30N 22°45' E 113°30'677173997.1
2017-Oct-22 23:30N 31°22' E 121°39'3701.8
2017-Oct-22 23:30N 31°22' E 121°36'55690.9
2017-Oct-22 23:30N 31°24' E 121°31'2282.2
2017-Oct-22 23:29N 31°25' E 121°33'658182112.8
2017-Oct-22 23:29N 23°05' E 113°33'658197397.2
2017-Oct-22 23:29N 31°20' E 121°39'1614000.0
2017-Oct-22 23:29N 31°30' E 121°24'92277.1
2017-Oct-22 23:29N 31°24' E 121°34'8411.8
2017-Oct-22 23:27N 31°28' E 121°25'65869716.9
2017-Oct-22 23:27N 23°06' E 113°27'66331004.6
2017-Oct-22 23:26N 31°25' E 121°38'212198.8
2017-Oct-22 23:25N 31°37' E 121°18'6761645.0
2017-Oct-22 23:00N 22°45' E 113°30'675151781.7
2017-Oct-22 23:00N 31°22' E 121°36'31536.8
2017-Oct-22 23:00N 31°25' E 121°33'660594190.7
2017-Oct-22 23:00N 23°06' E 113°27'6591185392.0
2017-Oct-22 23:00N 31°24' E 121°31'61627.4
2017-Oct-22 23:00N 31°28' E 121°25'1141168.5
2017-Oct-22 23:00N 31°25' E 121°38'3632.1
2017-Oct-22 22:59N 31°22' E 121°39'158809.4
2017-Oct-22 22:59N 31°30' E 121°24'10242.1
2017-Oct-22 22:57N 31°24' E 121°34'101519.6
2017-Oct-22 22:57N 31°30' E 121°24'657118224.9
2017-Oct-22 22:56N 23°05' E 113°33'71217.0
2017-Oct-22 22:56N 23°06' E 113°25'7231.6
2017-Oct-22 22:54N 23°04' E 113°32'65910229.8
2017-Oct-22 22:50N 31°37' E 121°18'6612013.6
2017-Oct-22 22:30N 23°03' E 113°31'659169512.4
2017-Oct-22 22:30N 31°22' E 121°36'3657.9
2017-Oct-22 22:30N 31°22' E 121°39'78891.4
2017-Oct-22 22:30N 31°24' E 121°31'6615.8
2017-Oct-22 22:29N 31°28' E 121°25'115881.2
2017-Oct-22 22:29N 31°25' E 121°38'132153.4
2017-Oct-22 22:29N 31°30' E 121°24'10983.7
2017-Oct-22 22:28N 31°37' E 121°18'181836.0
2017-Oct-22 22:28N 31°25' E 121°33'675270027.4
2017-Oct-22 22:27N 22°45' E 113°30'81285.5
2017-Oct-22 22:27N 22°52' E 113°33'66727938.7
2017-Oct-22 22:26N 31°24' E 121°34'6611190035.9
2017-Oct-22 22:26N 23°06' E 113°25'725.4
2017-Oct-22 22:08N 23°05' E 113°33'10110.9
2017-Oct-22 22:02N 22°54' E 113°35'66620137.6
2017-Oct-22 22:00N 31°22' E 121°39'669114680.0
2017-Oct-22 22:00N 22°52' E 113°33'6691203365.9
2017-Oct-22 22:00N 31°37' E 121°18'1139951.2
2017-Oct-22 22:00N 31°28' E 121°25'81289.0
2017-Oct-22 22:00N 31°24' E 121°34'664140635.7
2017-Oct-22 21:59N 22°54' E 113°35'664398435.4
2017-Oct-22 21:59N 31°25' E 121°33'658182112.8
2017-Oct-22 21:59N 23°05' E 113°33'656590848.7
2017-Oct-22 21:59N 31°30' E 121°24'83502.3
2017-Oct-22 21:59N 31°24' E 121°31'611015.8
2017-Oct-22 21:59N 31°25' E 121°38'67829762.3
2017-Oct-22 21:57N 22°45' E 113°30'675105587.3
2017-Oct-22 21:57N 31°22' E 121°36'66017725.7
2017-Oct-22 21:55N 23°04' E 113°29'524.5
2017-Oct-22 21:43N 23°06' E 113°25'22103.0
2017-Oct-22 21:30N 22°45' E 113°30'124726.0
2017-Oct-22 21:30N 22°55' E 113°36'1346334.9
2017-Oct-22 21:30N 23°05' E 113°27'66195198.5
2017-Oct-22 21:30N 31°24' E 121°34'81058.8
2017-Oct-22 21:29N 31°28' E 121°25'1312068.7
2017-Oct-22 21:29N 31°22' E 121°39'61859.6
2017-Oct-22 21:29N 31°25' E 121°33'2366.9
2017-Oct-22 21:29N 31°24' E 121°31'82547.2
2017-Oct-22 21:29N 31°30' E 121°24'123182.7
2017-Oct-22 21:28N 31°22' E 121°36'661148650.7
2017-Oct-22 21:28N 23°06' E 113°25'17945.5
2017-Oct-22 21:27N 22°52' E 113°33'669171911.8
2017-Oct-22 21:27N 31°37' E 121°18'2176972.1
2017-Oct-22 21:27N 31°25' E 121°38'66344208.2
2017-Oct-22 21:26N 23°05' E 113°27'5106.5
2017-Oct-22 21:23N 23°05' E 113°33'6611749.7
2017-Oct-22 21:00N 31°25' E 121°38'670172345.5
2017-Oct-22 21:00N 22°52' E 113°33'667342977.5
2017-Oct-22 21:00N 31°22' E 121°36'66037703.2
2017-Oct-22 20:59N 23°05' E 113°27'659197565.5
2017-Oct-22 20:59N 31°24' E 121°31'22168.9
2017-Oct-22 20:59N 31°24' E 121°34'66151741.0
2017-Oct-22 20:58N 23°06' E 113°25'66359650.9
2017-Oct-22 20:57N 31°22' E 121°39'65116.2
2017-Oct-22 20:57N 31°25' E 121°33'68995366.6
2017-Oct-22 20:57N 22°46' E 113°05'3136820.7
2017-Oct-22 20:57N 22°57' E 113°36'663265326.5
2017-Oct-22 20:56N 31°37' E 121°18'111142.0
2017-Oct-22 20:56N 31°28' E 121°25'2559.3
2017-Oct-22 20:56N 31°30' E 121°24'15568.0
2017-Oct-22 20:54N 31°40' E 121°12'6589284.6
2017-Oct-22 20:50N 23°05' E 113°33'6577253.6
2017-Oct-22 20:44N 31°23' E 121°34'67419734.6
2017-Oct-22 20:42N 22°45' E 113°30'182769.4
2017-Oct-22 20:42N 23°02' E 113°23'6653405.0
2017-Oct-22 20:30N 31°23' E 121°35'665119786.3
2017-Oct-22 20:30N 23°02' E 113°22'669133753.4
2017-Oct-22 20:30N 31°25' E 121°38'6651197089.1
2017-Oct-22 20:30N 22°57' E 113°36'66241792.8
2017-Oct-22 20:29N 31°22' E 121°36'3215.2
2017-Oct-22 20:28N 31°24' E 121°34'1034356.4
2017-Oct-22 20:28N 31°30' E 121°24'152515.9
2017-Oct-22 20:27N 31°22' E 121°39'677487191.8
2017-Oct-22 20:27N 22°45' E 113°30'67546735.5
2017-Oct-22 20:27N 31°25' E 121°33'222672.4
2017-Oct-22 20:26N 31°39' E 121°14'1425338.7
2017-Oct-22 20:26N 31°28' E 121°25'66620139.7
2017-Oct-22 20:24N 22°52' E 113°33'66942977.7
2017-Oct-22 20:23N 31°37' E 121°18'68840615.2
2017-Oct-22 20:22N 22°45' E 113°07'262962.8
2017-Oct-22 20:22N 23°06' E 113°25'248.9
2017-Oct-22 20:19N 23°05' E 113°27'2168.3
2017-Oct-22 20:00N 22°45' E 113°30'81284.6
2017-Oct-22 20:00N 22°52' E 113°33'66692264.8
2017-Oct-22 20:00N 31°30' E 121°24'122968.7
2017-Oct-22 19:59N 31°22' E 121°36'5415.9
2017-Oct-22 19:59N 31°24' E 121°31'7888.9
2017-Oct-22 19:58N 31°22' E 121°39'2421516.2
2017-Oct-22 19:58N 31°38' E 121°18'213865.6
2017-Oct-22 19:58N 31°25' E 121°38'690354786.6
2017-Oct-22 19:58N 22°44' E 113°09'271553.5
2017-Oct-22 19:57N 22°57' E 113°36'1711971.1
2017-Oct-22 19:57N 23°03' E 113°19'665125975.7
2017-Oct-22 19:56N 31°28' E 121°25'8449.3
2017-Oct-22 19:55N 31°24' E 121°34'116.4
2017-Oct-22 19:53N 31°25' E 121°33'6712974.9
2017-Oct-22 19:40N 22°41' E 113°42'30190.8
2017-Oct-22 19:30N 23°06' E 113°25'661237842.6
2017-Oct-22 19:30N 31°22' E 121°36'3825.4
2017-Oct-22 19:30N 31°25' E 121°33'1627990.8
2017-Oct-22 19:30N 31°34' E 121°19'667184691.6
2017-Oct-22 19:29N 23°03' E 113°17'2023958.4
2017-Oct-22 19:29N 22°44' E 113°12'68482071.3
2017-Oct-22 19:29N 31°28' E 121°25'253.4
2017-Oct-22 19:27N 31°30' E 121°24'66188147.6
2017-Oct-22 19:27N 22°57' E 113°36'66470284.6
2017-Oct-22 19:26N 31°22' E 121°39'52333.8
2017-Oct-22 19:26N 31°24' E 121°34'4891.4
2017-Oct-22 19:26N 31°25' E 121°38'65508.9
2017-Oct-22 19:26N 31°24' E 121°31'17705.5
2017-Oct-22 19:24N 31°38' E 121°18'669601686.2
2017-Oct-22 19:24N 22°52' E 113°33'1096.5
2017-Oct-22 19:18N 22°43' E 113°40'10268.8
2017-Oct-22 19:15N 22°45' E 113°30'949.8
2017-Oct-22 19:04N 22°44' E 113°40'6699375.2
2017-Oct-22 19:00N 31°32' E 121°22'6672400923.1
2017-Oct-22 19:00N 22°52' E 113°33'670241297.7
2017-Oct-22 19:00N 31°25' E 121°38'665149636.1
2017-Oct-22 19:00N 22°57' E 113°36'663238794.9
2017-Oct-22 18:59N 31°38' E 121°18'685822056.2
2017-Oct-22 18:59N 22°45' E 113°14'233014.9
2017-Oct-22 18:59N 22°46' E 113°38'668109232.4
2017-Oct-22 18:59N 31°24' E 121°31'5213.0
2017-Oct-22 18:57N 31°22' E 121°36'32631.1
2017-Oct-22 18:57N 31°22' E 121°39'671142062.6
2017-Oct-22 18:57N 22°45' E 113°39'2589180.4
2017-Oct-22 18:57N 23°06' E 113°25'659474660.7
2017-Oct-22 18:57N 31°28' E 121°25'21497.3
2017-Oct-22 18:57N 31°30' E 121°24'9843.3
2017-Oct-22 18:56N 31°25' E 121°33'67526704.3
2017-Oct-22 18:55N 22°45' E 113°30'13231.5
2017-Oct-22 18:51N 22°53' E 113°18'67551701.9
2017-Oct-22 18:50N 31°24' E 121°34'3 9.1
2017-Oct-22 18:34N 31°23' E 121°36'66812150.1
2017-Oct-22 18:30N 22°49' E 113°36'726355.4
2017-Oct-22 18:30N 22°45' E 113°30'6771217971.4
2017-Oct-22 18:30N 31°22' E 121°39'148407.7
2017-Oct-22 18:30N 31°30' E 121°25'667240161.7
2017-Oct-22 18:30N 22°52' E 113°33'6701206426.8
2017-Oct-22 18:30N 31°25' E 121°38'1315223.5
2017-Oct-22 18:30N 31°30' E 121°24'2274.0
2017-Oct-22 18:30N 31°28' E 121°25'6591186643.8
2017-Oct-22 18:30N 23°06' E 113°25'66195187.8
2017-Oct-22 18:29N 31°25' E 121°33'2178.1
2017-Oct-22 18:29N 31°24' E 121°31'54779.4
2017-Oct-22 18:28N 31°23' E 121°37'669100323.6
2017-Oct-22 18:28N 22°48' E 113°37'668801988.7
2017-Oct-22 18:28N 31°24' E 121°34'683106944.3
2017-Oct-22 18:28N 22°47' E 113°13'684136808.7
2017-Oct-22 18:27N 31°38' E 121°18'222719.0
2017-Oct-22 18:27N 31°22' E 121°36'662148887.8
2017-Oct-22 18:27N 22°57' E 113°36'141453.3
2017-Oct-22 18:26N 22°54' E 113°21'6721805.1
2017-Oct-22 18:04N 31°42' E 121°09'68212583.3
2017-Oct-22 18:00N 22°47' E 113°15'1140562.0
2017-Oct-22 18:00N 22°54' E 113°24'104488.3
2017-Oct-22 18:00N 22°54' E 113°35'667400067.6
2017-Oct-22 18:00N 31°22' E 121°39'2410779.2
2017-Oct-22 18:00N 31°38' E 121°18'187388.9
2017-Oct-22 18:00N 31°25' E 121°33'667480525.1
2017-Oct-22 18:00N 22°51' E 113°35'6661198454.8
2017-Oct-22 18:00N 31°28' E 121°25'158.9
2017-Oct-22 17:59N 31°29' E 121°25'127128.3
2017-Oct-22 17:59N 31°25' E 121°38'66169937.9
2017-Oct-22 17:58N 23°05' E 113°33'656196797.6
2017-Oct-22 17:58N 31°24' E 121°31'81225.1
2017-Oct-22 17:58N 31°30' E 121°24'131071.6
2017-Oct-22 17:57N 31°22' E 121°36'3817.2
2017-Oct-22 17:57N 31°24' E 121°34'662297990.8
2017-Oct-22 17:57N 22°57' E 113°36'66529942.3
2017-Oct-22 17:55N 31°23' E 121°41'67848833.1
2017-Oct-22 17:54N 22°45' E 113°30'6752051.8
2017-Oct-22 17:35N 31°40' E 121°12'67329540.9
2017-Oct-22 17:33N 23°01' E 113°10'67214651.6
2017-Oct-22 17:31N 31°28' E 121°25'664597159.3
2017-Oct-22 17:30N 22°54' E 113°35'3944.1
2017-Oct-22 17:30N 22°57' E 113°35'662132494.8
2017-Oct-22 17:30N 31°40' E 121°12'680135985.4
2017-Oct-22 17:30N 22°47' E 113°18'6832458299.5
2017-Oct-22 17:30N 31°25' E 121°38'665478835.6
2017-Oct-22 17:30N 22°57' E 113°36'85758.4
2017-Oct-22 17:29N 22°55' E 113°27'63308.3
2017-Oct-22 17:29N 22°52' E 113°33'66770668.5
2017-Oct-22 17:29N 31°24' E 121°34'3559.1
2017-Oct-22 17:28N 31°22' E 121°36'5625.3
2017-Oct-22 17:28N 31°24' E 121°31'27472.7
2017-Oct-22 17:28N 31°25' E 121°33'9576.8
2017-Oct-22 17:27N 31°30' E 121°24'11035.2
2017-Oct-22 17:27N 31°29' E 121°25'10213.5
2017-Oct-22 17:24N 31°38' E 121°18'67514546.5
2017-Oct-22 17:21N 23°00' E 113°10'67810747.3
2017-Oct-22 17:17N 31°23' E 121°41'66499664.6
2017-Oct-22 17:17N 23°06' E 113°25'743.7
2017-Oct-22 17:07N 23°05' E 113°33'5660.3
2017-Oct-22 17:06N 23°05' E 113°27'6596701.7
2017-Oct-22 17:01N 31°29' E 121°25'659395398.5
2017-Oct-22 17:00N 23°05' E 113°27'124710.5
2017-Oct-22 17:00N 22°57' E 113°36'178726.5
2017-Oct-22 17:00N 22°48' E 113°20'1139775.8
2017-Oct-22 17:00N 22°53' E 113°30'65799.6
2017-Oct-22 17:00N 22°56' E 113°36'662170285.8
2017-Oct-22 17:00N 31°38' E 121°16'662132478.3
2017-Oct-22 17:00N 22°57' E 113°36'66291682.6
2017-Oct-22 16:59N 31°25' E 121°33'33095.3
2017-Oct-22 16:59N 31°22' E 121°36'3445.7
2017-Oct-22 16:59N 31°25' E 121°38'3842.8
2017-Oct-22 16:58N 31°22' E 121°39'65979115.5
2017-Oct-22 16:58N 23°05' E 113°33'656590361.5
2017-Oct-22 16:58N 31°24' E 121°31'31290.6
2017-Oct-22 16:58N 31°24' E 121°34'675135023.3
2017-Oct-22 16:57N 22°45' E 113°30'673134688.2
2017-Oct-22 16:57N 31°28' E 121°25'2262.9
2017-Oct-22 16:57N 31°30' E 121°24'666109035.7
2017-Oct-22 16:56N 22°52' E 113°33'669200555.8
2017-Oct-22 16:56N 31°38' E 121°18'258953.0
2017-Oct-22 16:56N 31°23' E 121°41'6641557.3
2017-Oct-22 16:30N 23°05' E 113°27'662297872.3
2017-Oct-22 16:30N 31°22' E 121°39'6692408009.6
2017-Oct-22 16:30N 22°52' E 113°33'6671200986.0
2017-Oct-22 16:30N 31°36' E 121°18'241889.3
2017-Oct-22 16:29N 31°23' E 121°41'671402341.8
2017-Oct-22 16:29N 22°52' E 113°33'1213863.8
2017-Oct-22 16:29N 22°47' E 113°22'169541.9
2017-Oct-22 16:29N 22°57' E 113°36'66262727.4
2017-Oct-22 16:29N 31°24' E 121°34'659474776.3
2017-Oct-22 16:29N 22°59' E 113°37'65891146.0
2017-Oct-22 16:28N 31°29' E 121°25'71461.9
2017-Oct-22 16:28N 31°24' E 121°31'62486.1
2017-Oct-22 16:28N 31°25' E 121°38'680244824.8
2017-Oct-22 16:27N 22°59' E 113°07'677135351.7
2017-Oct-22 16:27N 31°22' E 121°36'3688.8
2017-Oct-22 16:27N 31°25' E 121°33'83954.4
2017-Oct-22 16:27N 31°28' E 121°25'21004.6
2017-Oct-22 16:27N 31°30' E 121°24'66112461.4
2017-Oct-22 16:23N 22°57' E 113°36'66311265.2
2017-Oct-22 16:20N 31°38' E 121°18'6624202.5
2017-Oct-22 16:10N 23°06' E 113°25'6643980.0
2017-Oct-22 16:00N 31°23' E 121°41'666599344.4
2017-Oct-22 16:00N 22°56' E 113°36'662148946.0
2017-Oct-22 16:00N 31°34' E 121°20'151999.5
2017-Oct-22 16:00N 31°24' E 121°34'662183381.5
2017-Oct-22 15:59N 22°57' E 113°36'168148.6
2017-Oct-22 15:59N 22°45' E 113°24'1139567.9
2017-Oct-22 15:59N 22°52' E 113°33'39844.5
2017-Oct-22 15:59N 22°50' E 113°35'66889019.7
2017-Oct-22 15:59N 31°25' E 121°33'83697.8
2017-Oct-22 15:59N 31°29' E 121°25'660125014.0
2017-Oct-22 15:58N 23°06' E 113°25'663795350.2
2017-Oct-22 15:58N 31°22' E 121°39'3457.6
2017-Oct-22 15:58N 31°22' E 121°36'51153.7
2017-Oct-22 15:58N 31°24' E 121°31'6425.4
2017-Oct-22 15:57N 31°28' E 121°25'11768.3
2017-Oct-22 15:56N 31°37' E 121°18'101489.0
2017-Oct-22 15:56N 31°30' E 121°24'131012.2
2017-Oct-22 15:55N 31°25' E 121°38'66111948.9
2017-Oct-22 15:52N 23°05' E 113°33'20391.9
2017-Oct-22 15:48N 22°45' E 113°30'21863.2
2017-Oct-22 15:47N 23°05' E 113°27'2176.4
2017-Oct-22 15:31N 22°47' E 113°38'73568.8
2017-Oct-22 15:30N 22°53' E 113°34'66582575.2
2017-Oct-22 15:30N 31°22' E 121°36'312381.4
2017-Oct-22 15:30N 31°25' E 121°33'92191.8
2017-Oct-22 15:30N 31°29' E 121°25'666126161.9
2017-Oct-22 15:29N 22°52' E 113°33'666104292.5
2017-Oct-22 15:29N 31°29' E 121°25'676143213.2
2017-Oct-22 15:29N 22°44' E 113°26'6751214134.6
2017-Oct-22 15:29N 31°31' E 121°19'659197811.7
2017-Oct-22 15:28N 22°57' E 113°36'664238973.2
2017-Oct-22 15:28N 31°22' E 121°39'663477210.1
2017-Oct-22 15:28N 23°06' E 113°25'662148908.4
2017-Oct-22 15:28N 31°37' E 121°18'194851.5
2017-Oct-22 15:28N 31°24' E 121°34'77894.0
2017-Oct-22 15:28N 31°23' E 121°41'3112.8
2017-Oct-22 15:26N 31°25' E 121°38'131883.1
2017-Oct-22 15:25N 31°30' E 121°24'8605.3
2017-Oct-22 15:25N 31°24' E 121°31'673121212.3
2017-Oct-22 15:24N 22°45' E 113°30'1646.3
2017-Oct-22 15:04N 22°59' E 113°37'10180.3
2017-Oct-22 15:00N 22°49' E 113°36'726601.5
2017-Oct-22 15:00N 22°57' E 113°35'662125390.3
2017-Oct-22 15:00N 31°22' E 121°36'142260.1
2017-Oct-22 15:00N 31°30' E 121°22'676608069.1
2017-Oct-22 15:00N 22°44' E 113°26'679488851.2
2017-Oct-22 15:00N 31°22' E 121°39'669218927.3
2017-Oct-22 14:59N 22°52' E 113°33'66645260.3
2017-Oct-22 14:58N 31°30' E 121°24'10747.7
2017-Oct-22 14:58N 31°24' E 121°34'139.9
2017-Oct-22 14:57N 31°25' E 121°33'2666.7
2017-Oct-22 14:57N 31°24' E 121°31'72762.7
2017-Oct-22 14:57N 31°29' E 121°25'102079.5
2017-Oct-22 14:56N 31°37' E 121°18'212653.8
2017-Oct-22 14:56N 31°25' E 121°38'321.3
2017-Oct-22 14:46N 31°23' E 121°41'66341850.5
2017-Oct-22 14:45N 22°59' E 113°37'1394.1
2017-Oct-22 14:37N 23°06' E 113°25'6626339.9
2017-Oct-22 14:31N 31°21' E 121°39'2018376.6
2017-Oct-22 14:30N 31°33' E 121°20'661594622.6
2017-Oct-22 14:30N 22°57' E 113°35'155009.3
2017-Oct-22 14:30N 22°44' E 113°26'678222051.0
2017-Oct-22 14:30N 31°37' E 121°18'1967905.6
2017-Oct-22 14:30N 31°24' E 121°34'669344031.0
2017-Oct-22 14:30N 22°46' E 113°38'667184785.9
2017-Oct-22 14:30N 31°24' E 121°31'5205.3
2017-Oct-22 14:28N 31°22' E 121°36'3924.4
2017-Oct-22 14:28N 31°25' E 121°38'121695.2
2017-Oct-22 14:28N 31°29' E 121°25'141720.9
2017-Oct-22 14:27N 31°22' E 121°39'62061.2
2017-Oct-22 14:27N 31°25' E 121°33'66761597.4
2017-Oct-22 14:26N 22°52' E 113°33'66654518.1
2017-Oct-22 14:26N 31°30' E 121°24'6603959.1
2017-Oct-22 14:16N 23°06' E 113°25'6612596.7
2017-Oct-22 14:00N 31°21' E 121°38'42171.5
2017-Oct-22 14:00N 31°19' E 121°42'67712.9
2017-Oct-22 14:00N 31°25' E 121°38'6688.5
2017-Oct-22 14:00N 31°24' E 121°31'2649.9
2017-Oct-22 13:59N 31°25' E 121°33'1812784.0
2017-Oct-22 13:59N 31°36' E 121°17'6671200203.7
2017-Oct-22 13:59N 22°52' E 113°33'66657111.8
2017-Oct-22 13:59N 31°29' E 121°25'148.9
2017-Oct-22 13:58N 31°30' E 121°24'152517.5
2017-Oct-22 13:57N 31°22' E 121°39'241158.3
2017-Oct-22 13:56N 31°37' E 121°18'193395.3
2017-Oct-22 13:56N 31°24' E 121°34'66246751.9
2017-Oct-22 13:55N 22°57' E 113°35'161046.1
2017-Oct-22 13:54N 22°42' E 113°30'25580.5
2017-Oct-22 13:51N 23°06' E 113°25'6621862.7
2017-Oct-22 13:30N 31°20' E 121°40'2623406.4
2017-Oct-22 13:30N 31°37' E 121°18'172396.3
2017-Oct-22 13:30N 31°24' E 121°31'1311807.5
2017-Oct-22 13:30N 31°18' E 121°44'668240632.1
2017-Oct-22 13:29N 22°52' E 113°33'66732030.9
2017-Oct-22 13:28N 31°25' E 121°33'41067.4
2017-Oct-22 13:28N 31°25' E 121°38'135024.5
2017-Oct-22 13:28N 31°30' E 121°24'161.9
2017-Oct-22 13:27N 31°29' E 121°25'141348.8
2017-Oct-22 13:26N 31°22' E 121°39'5397.2
2017-Oct-22 13:25N 31°24' E 121°34'66259608.7
2017-Oct-22 13:25N 22°57' E 113°35'66127669.1
2017-Oct-22 13:23N 31°25' E 121°30'2379.9
2017-Oct-22 13:06N 31°41' E 121°10'35361.3
2017-Oct-22 13:01N 31°19' E 121°43'5736.7
2017-Oct-22 13:00N 31°22' E 121°39'81439.5
2017-Oct-22 13:00N 31°17' E 121°46'152243.0
2017-Oct-22 12:59N 31°24' E 121°31'666479322.9
2017-Oct-22 12:59N 22°52' E 113°33'67023654.8
2017-Oct-22 12:58N 31°25' E 121°38'121139.9
2017-Oct-22 12:57N 31°29' E 121°25'1018797.0
2017-Oct-22 12:57N 31°37' E 121°18'195658.8
2017-Oct-22 12:57N 31°24' E 121°34'1652.2
2017-Oct-22 12:57N 31°25' E 121°33'932452.2
2017-Oct-22 12:57N 31°30' E 121°24'6778616.5
2017-Oct-22 12:52N 22°36' E 113°36'10201.0
2017-Oct-22 12:49N 22°45' E 113°30'132636.4
2017-Oct-22 12:49N 22°57' E 113°35'6632158.4
2017-Oct-22 12:30N 31°18' E 121°43'183085.7
2017-Oct-22 12:30N 31°28' E 121°25'203911.5
2017-Oct-22 12:30N 31°17' E 121°44'668104609.1
2017-Oct-22 12:29N 22°52' E 113°33'670120646.3
2017-Oct-22 12:29N 31°25' E 121°38'4703.9
2017-Oct-22 12:29N 31°24' E 121°34'1122.3
2017-Oct-22 12:28N 31°25' E 121°33'1865995.7
2017-Oct-22 12:28N 31°37' E 121°18'10748.5
2017-Oct-22 12:28N 31°30' E 121°24'8337.4
2017-Oct-22 12:26N 31°24' E 121°31'7860.8
2017-Oct-22 12:26N 31°22' E 121°39'67764103.3
2017-Oct-22 12:25N 22°45' E 113°30'103808.9
2017-Oct-22 12:25N 22°54' E 113°29'12358.1
2017-Oct-22 12:23N 23°06' E 113°27'12602.1
2017-Oct-22 12:22N 22°57' E 113°35'14198.0
2017-Oct-22 12:18N 23°06' E 113°25'1381.1
2017-Oct-22 12:08N 22°59' E 113°37'6615430.6
2017-Oct-22 12:00N 31°16' E 121°46'713416.3
2017-Oct-22 12:00N 31°21' E 121°39'61056.1
2017-Oct-22 12:00N 31°25' E 121°33'41868.0
2017-Oct-22 12:00N 31°25' E 121°38'43343.6
2017-Oct-22 12:00N 31°24' E 121°34'66788989.3
2017-Oct-22 11:59N 22°52' E 113°33'152842.5
2017-Oct-22 11:59N 23°05' E 113°27'128833.6
2017-Oct-22 11:59N 22°53' E 113°30'666479571.9
2017-Oct-22 11:59N 31°28' E 121°25'21917.1
2017-Oct-22 11:59N 31°30' E 121°24'158813.2
2017-Oct-22 11:59N 31°22' E 121°39'67767664.6
2017-Oct-22 11:58N 22°45' E 113°30'132157.1
2017-Oct-22 11:58N 22°57' E 113°35'6618616.9
2017-Oct-22 11:53N 31°24' E 121°31'17167.0
2017-Oct-22 11:47N 31°37' E 121°18'6616035.1
2017-Oct-22 11:40N 22°59' E 113°37'6593993.7
2017-Oct-22 11:30N 31°23' E 121°35'71343.1
2017-Oct-22 11:30N 31°19' E 121°42'66135524.7
2017-Oct-22 11:29N 23°05' E 113°27'65942335.6
2017-Oct-22 11:28N 31°24' E 121°31'2649.5
2017-Oct-22 11:28N 31°25' E 121°33'129.6
2017-Oct-22 11:27N 31°24' E 121°34'83273.8
2017-Oct-22 11:27N 31°28' E 121°25'666199722.3
2017-Oct-22 11:26N 22°52' E 113°33'4409.9
2017-Oct-22 11:26N 22°53' E 113°30'667184616.4
2017-Oct-22 11:26N 31°30' E 121°24'151602.1
2017-Oct-22 11:25N 31°22' E 121°39'2414285.9
2017-Oct-22 11:25N 31°37' E 121°18'663140483.0
2017-Oct-22 11:25N 22°57' E 113°35'66513682.7
2017-Oct-22 11:22N 31°25' E 121°38'6787073.9
2017-Oct-22 11:16N 22°45' E 113°30'6752583.1
2017-Oct-22 11:00N 31°21' E 121°38'66838143.4
2017-Oct-22 10:59N 22°52' E 113°33'667600595.0
2017-Oct-22 10:59N 31°25' E 121°33'610306.2
2017-Oct-22 10:59N 31°22' E 121°39'662158860.5
2017-Oct-22 10:59N 23°05' E 113°27'66350792.9
2017-Oct-22 10:58N 31°25' E 121°38'712397.7
2017-Oct-22 10:58N 31°23' E 121°30'1479.2
2017-Oct-22 10:58N 31°24' E 121°31'661113251.6
2017-Oct-22 10:58N 22°57' E 113°35'66236126.5
2017-Oct-22 10:57N 31°24' E 121°34'66858634.7
2017-Oct-22 10:56N 22°53' E 113°30'667400004.8
2017-Oct-22 10:56N 31°30' E 121°24'215.6
2017-Oct-22 10:50N 31°28' E 121°25'11186.5
2017-Oct-22 10:46N 31°37' E 121°18'6766896.8
2017-Oct-22 10:40N 22°45' E 113°30'6744184.2
2017-Oct-22 10:31N 31°23' E 121°33'184.1
2017-Oct-22 10:30N 31°24' E 121°34'8263.2
2017-Oct-22 10:28N 31°28' E 121°25'81250.4
2017-Oct-22 10:27N 31°25' E 121°33'66735329.1
2017-Oct-22 10:26N 22°52' E 113°33'152572.7
2017-Oct-22 10:26N 23°05' E 113°27'66282168.7
2017-Oct-22 10:26N 31°22' E 121°39'677105910.6
2017-Oct-22 10:25N 22°45' E 113°30'161603.2
2017-Oct-22 10:25N 22°59' E 113°37'65824688.2
2017-Oct-22 10:23N 31°30' E 121°24'667800009.6
2017-Oct-22 10:23N 22°53' E 113°30'6712414177.1
2017-Oct-22 10:23N 31°25' E 121°38'6400.6
2017-Oct-22 10:22N 31°24' E 121°31'8234.0
2017-Oct-22 10:20N 31°23' E 121°40'66532779.9
2017-Oct-22 10:19N 22°57' E 113°35'65914917.9
2017-Oct-22 10:16N 31°20' E 121°33'22189.4
2017-Oct-22 10:09N 31°37' E 121°18'24169.0
2017-Oct-22 10:01N 31°22' E 121°39'74446.7
2017-Oct-22 10:00N 31°24' E 121°31'2177.3
2017-Oct-22 10:00N 31°22' E 121°30'82455.2
2017-Oct-22 09:59N 31°28' E 121°25'666266300.2
2017-Oct-22 09:59N 22°52' E 113°33'152456.7
2017-Oct-22 09:59N 23°05' E 113°27'126309.7
2017-Oct-22 09:59N 22°53' E 113°30'668300502.8
2017-Oct-22 09:59N 31°24' E 121°34'10513.5
2017-Oct-22 09:58N 31°30' E 121°24'9662.3
2017-Oct-22 09:57N 31°25' E 121°33'4311.3
2017-Oct-22 09:56N 31°25' E 121°38'67846047.0
2017-Oct-22 09:55N 22°45' E 113°30'674269628.2
2017-Oct-22 09:55N 31°30' E 121°24'65850426.6
2017-Oct-22 09:54N 22°59' E 113°37'368.7
2017-Oct-22 09:52N 22°57' E 113°35'66377038.0
2017-Oct-22 09:51N 31°37' E 121°18'2468.1
2017-Oct-22 09:30N 31°22' E 121°39'71334.3
2017-Oct-22 09:30N 31°24' E 121°31'64406.3
2017-Oct-22 09:30N 31°25' E 121°38'666239650.3
2017-Oct-22 09:30N 22°56' E 113°36'51183.9
2017-Oct-22 09:29N 22°52' E 113°33'4424.4
2017-Oct-22 09:29N 22°53' E 113°30'667300001.6
2017-Oct-22 09:29N 31°30' E 121°24'92317.1
2017-Oct-22 09:28N 31°25' E 121°33'125.1
2017-Oct-22 09:27N 31°24' E 121°34'84910.7
2017-Oct-22 09:27N 31°28' E 121°25'11501.2
2017-Oct-22 09:26N 31°37' E 121°18'67664067.4
2017-Oct-22 09:25N 22°45' E 113°30'1671.9
2017-Oct-22 09:12N 22°59' E 113°37'843.4
2017-Oct-22 09:00N 22°53' E 113°31'67068963.9
2017-Oct-22 09:00N 31°25' E 121°38'662298012.9
2017-Oct-22 09:00N 22°59' E 113°37'81840.9
2017-Oct-22 08:59N 22°52' E 113°33'667133466.5
2017-Oct-22 08:59N 31°25' E 121°33'1279.5
2017-Oct-22 08:59N 31°24' E 121°34'82678.6
2017-Oct-22 08:59N 31°28' E 121°25'132829.5
2017-Oct-22 08:58N 31°22' E 121°39'666299575.2
2017-Oct-22 08:58N 22°54' E 113°35'152585.2
2017-Oct-22 08:58N 23°06' E 113°25'66028968.4
2017-Oct-22 08:57N 31°30' E 121°24'101433.1
2017-Oct-22 08:56N 31°37' E 121°18'172394.4
2017-Oct-22 08:56N 31°24' E 121°31'65848370.4
2017-Oct-22 08:55N 23°06' E 113°27'6593667.2
2017-Oct-22 08:44N 31°25' E 121°31'6662876.2
2017-Oct-22 08:30N 22°52' E 113°33'666399382.4
2017-Oct-22 08:30N 31°28' E 121°25'42293.9
2017-Oct-22 08:30N 31°26' E 121°30'71042.3
2017-Oct-22 08:30N 31°25' E 121°38'47472.1
2017-Oct-22 08:30N 31°25' E 121°33'667150149.8
2017-Oct-22 08:29N 22°52' E 113°33'669218934.6
2017-Oct-22 08:29N 31°22' E 121°39'66644377.6
2017-Oct-22 08:28N 22°54' E 113°35'66361204.1
2017-Oct-22 08:28N 31°30' E 121°24'8252.4
2017-Oct-22 08:26N 31°24' E 121°31'266.7
2017-Oct-22 08:24N 31°24' E 121°34'65998915.5
2017-Oct-22 08:23N 22°59' E 113°37'65898726.2
2017-Oct-22 08:23N 31°31' E 121°23'837.1
2017-Oct-22 08:10N 31°37' E 121°18'1273.6
2017-Oct-22 08:00N 31°28' E 121°26'664265694.8
2017-Oct-22 08:00N 22°54' E 113°34'665598688.1
2017-Oct-22 08:00N 31°25' E 121°33'113.1
2017-Oct-22 07:58N 31°24' E 121°34'44458.1
2017-Oct-22 07:58N 31°25' E 121°38'21427.3
2017-Oct-22 07:55N 31°37' E 121°18'249519.3
2017-Oct-22 07:54N 31°22' E 121°39'13943.0
2017-Oct-22 07:54N 31°28' E 121°25'666133151.0
2017-Oct-22 07:53N 22°52' E 113°33'66668475.6
2017-Oct-22 07:53N 31°24' E 121°31'66370148.1
2017-Oct-22 07:52N 22°54' E 113°35'5774.5
2017-Oct-22 07:52N 22°59' E 113°37'65832914.8
2017-Oct-22 07:51N 31°30' E 121°24'232.0
2017-Oct-22 07:47N 31°31' E 121°23'6743931.9
2017-Oct-22 07:37N 22°45' E 113°30'12109.6
2017-Oct-22 07:30N 22°55' E 113°36'6611190452.8
2017-Oct-22 07:30N 31°30' E 121°23'101181.4
2017-Oct-22 07:30N 31°25' E 121°33'111956.1
2017-Oct-22 07:30N 31°31' E 121°23'666218012.2
2017-Oct-22 07:29N 22°52' E 113°33'670120641.8
2017-Oct-22 07:29N 31°25' E 121°38'4226.7
2017-Oct-22 07:28N 31°24' E 121°34'5263.1
2017-Oct-22 07:27N 31°22' E 121°39'66167987.8
2017-Oct-22 07:26N 22°59' E 113°37'65881646.0
2017-Oct-22 07:26N 31°24' E 121°31'6330.8
2017-Oct-22 07:25N 31°28' E 121°25'66195216.4
2017-Oct-22 07:24N 22°58' E 113°33'66442679.0
2017-Oct-22 07:23N 31°37' E 121°18'66150613.9
2017-Oct-22 07:22N 23°06' E 113°27'213795.5
2017-Oct-22 07:22N 22°45' E 113°30'67429956.0
2017-Oct-22 07:21N 31°30' E 121°24'65650278.1
2017-Oct-22 07:20N 23°05' E 113°33'516.1
2017-Oct-22 07:00N 23°05' E 113°27'658338621.1
2017-Oct-22 07:00N 31°32' E 121°20'661396463.4
2017-Oct-22 07:00N 22°56' E 113°36'66256767.2
2017-Oct-22 07:00N 31°25' E 121°33'667171599.8
2017-Oct-22 06:59N 22°52' E 113°33'669240828.0
2017-Oct-22 06:59N 31°22' E 121°39'71033.4
2017-Oct-22 06:59N 31°24' E 121°31'2142.9
2017-Oct-22 06:58N 31°24' E 121°34'106958.9
2017-Oct-22 06:58N 31°30' E 121°24'2104.8
2017-Oct-22 06:57N 31°28' E 121°25'11963.4
2017-Oct-22 06:56N 31°37' E 121°18'6601188855.3
2017-Oct-22 06:56N 22°59' E 113°37'662264900.3
2017-Oct-22 06:56N 31°25' E 121°38'14316.5
2017-Oct-22 06:53N 31°31' E 121°23'67444110.9
2017-Oct-22 06:52N 22°45' E 113°30'22181.4
2017-Oct-22 06:45N 23°06' E 113°25'6592744.7
2017-Oct-22 06:30N 31°34' E 121°18'66158055.0
2017-Oct-22 06:30N 22°56' E 113°36'662264951.1
2017-Oct-22 06:30N 31°24' E 121°34'660237703.5
2017-Oct-22 06:29N 23°06' E 113°27'1527527.4
2017-Oct-22 06:29N 22°52' E 113°33'667218396.9
2017-Oct-22 06:29N 31°25' E 121°33'185108.4
2017-Oct-22 06:29N 31°38' E 121°18'173120.1
2017-Oct-22 06:29N 31°24' E 121°31'6359.0
2017-Oct-22 06:28N 31°28' E 121°25'11787.9
2017-Oct-22 06:27N 31°25' E 121°38'3441.5
2017-Oct-22 06:26N 31°22' E 121°39'67732051.7
2017-Oct-22 06:25N 22°45' E 113°30'22919.7
2017-Oct-22 06:24N 23°06' E 113°25'13706.1
2017-Oct-22 06:23N 22°59' E 113°37'658158000.3
2017-Oct-22 06:22N 31°30' E 121°24'6611764.7
2017-Oct-22 06:00N 22°56' E 113°36'121775.1
2017-Oct-22 05:59N 23°06' E 113°27'1518338.4
2017-Oct-22 05:59N 22°52' E 113°33'667800295.4
2017-Oct-22 05:59N 31°36' E 121°17'2410766.4
2017-Oct-22 05:59N 31°22' E 121°39'2410772.2
2017-Oct-22 05:59N 31°38' E 121°18'184736.3
2017-Oct-22 05:59N 31°25' E 121°33'4445.0
2017-Oct-22 05:58N 31°25' E 121°38'63729.5
2017-Oct-22 05:58N 31°24' E 121°31'81120.7
2017-Oct-22 05:58N 31°30' E 121°24'21538.0
2017-Oct-22 05:58N 31°28' E 121°25'81637.5
2017-Oct-22 05:57N 31°24' E 121°34'23157.2
2017-Oct-22 05:49N 31°39' E 121°13'6672177.4
2017-Oct-22 05:30N 22°52' E 113°33'5548.4
2017-Oct-22 05:30N 22°56' E 113°36'661339781.8
2017-Oct-22 05:30N 31°28' E 121°25'132531.7
2017-Oct-22 05:29N 31°22' E 121°39'8404.7
2017-Oct-22 05:28N 31°24' E 121°31'2105.6
2017-Oct-22 05:27N 31°25' E 121°33'66150621.8
2017-Oct-22 05:26N 23°06' E 113°25'662140127.7
2017-Oct-22 05:26N 31°38' E 121°18'101043.3
2017-Oct-22 05:25N 31°30' E 121°24'13328.6
2017-Oct-22 05:23N 31°25' E 121°38'663217030.8
2017-Oct-22 05:23N 23°06' E 113°27'66045710.1
2017-Oct-22 05:22N 31°24' E 121°34'23287.3
2017-Oct-22 05:17N 31°39' E 121°13'65920286.4
2017-Oct-22 05:15N 23°04' E 113°29'1351.8
2017-Oct-22 05:00N 22°52' E 113°33'5478.6
2017-Oct-22 05:00N 22°56' E 113°36'66236679.0
2017-Oct-22 04:59N 31°25' E 121°33'6938.2
2017-Oct-22 04:58N 31°22' E 121°39'137989.8
2017-Oct-22 04:58N 31°28' E 121°25'112156.5
2017-Oct-22 04:58N 31°25' E 121°38'63196.4
2017-Oct-22 04:58N 31°24' E 121°31'2158.0
2017-Oct-22 04:57N 31°24' E 121°34'106941.1
2017-Oct-22 04:57N 31°30' E 121°24'10228.6
2017-Oct-22 04:54N 31°38' E 121°18'66145728.8
2017-Oct-22 04:53N 22°59' E 113°37'132527.2
2017-Oct-22 04:53N 23°06' E 113°25'66017603.7
2017-Oct-22 04:51N 31°38' E 121°14'65948449.1
2017-Oct-22 04:50N 23°06' E 113°27'65919784.0
2017-Oct-22 04:48N 31°39' E 121°13'6592253.0
2017-Oct-22 04:30N 22°59' E 113°37'89762.1
2017-Oct-22 04:30N 22°52' E 113°33'667800741.3
2017-Oct-22 04:30N 31°25' E 121°33'16741.0
2017-Oct-22 04:29N 31°35' E 121°19'168429.0
2017-Oct-22 04:29N 31°24' E 121°34'51438.3
2017-Oct-22 04:29N 31°22' E 121°39'271697.5
2017-Oct-22 04:28N 31°38' E 121°14'2036061.9
2017-Oct-22 04:28N 31°24' E 121°31'66138362.0
2017-Oct-22 04:27N 22°56' E 113°36'66191563.4
2017-Oct-22 04:26N 31°30' E 121°24'104907.9
2017-Oct-22 04:26N 31°38' E 121°18'111760.0
2017-Oct-22 04:26N 31°28' E 121°25'11359.4
2017-Oct-22 04:24N 31°25' E 121°38'66345044.4
2017-Oct-22 04:23N 23°06' E 113°27'1540.5
2017-Oct-22 04:00N 22°52' E 113°33'667109192.0
2017-Oct-22 04:00N 31°25' E 121°33'662103658.7
2017-Oct-22 04:00N 22°56' E 113°36'121067.2
2017-Oct-22 03:59N 23°06' E 113°27'659296459.0
2017-Oct-22 03:59N 31°30' E 121°24'2619.0
2017-Oct-22 03:59N 31°28' E 121°25'13577.5
2017-Oct-22 03:57N 31°22' E 121°39'661169958.1
2017-Oct-22 03:57N 22°59' E 113°37'65934909.2
2017-Oct-22 03:56N 31°24' E 121°34'41505.8
2017-Oct-22 03:56N 31°25' E 121°38'6366.8
2017-Oct-22 03:55N 31°24' E 121°31'1627999.4
2017-Oct-22 03:55N 31°36' E 121°18'8120.2
2017-Oct-22 03:50N 31°30' E 121°25'6759272.9
2017-Oct-22 03:46N 22°45' E 113°30'234219.0
2017-Oct-22 03:46N 22°47' E 113°04'68746674.8
2017-Oct-22 03:45N 31°39' E 121°13'1562.8
2017-Oct-22 03:30N 31°29' E 121°27'104571.3
2017-Oct-22 03:30N 31°25' E 121°38'174199.1
2017-Oct-22 03:30N 31°33' E 121°20'53052.8
2017-Oct-22 03:30N 31°30' E 121°24'661297554.4
2017-Oct-22 03:29N 22°56' E 113°36'66268088.9
2017-Oct-22 03:29N 31°39' E 121°13'236797.4
2017-Oct-22 03:29N 31°24' E 121°34'5889.5
2017-Oct-22 03:28N 31°22' E 121°39'6611189706.6
2017-Oct-22 03:28N 22°59' E 113°37'6591186754.1
2017-Oct-22 03:28N 31°25' E 121°33'8718.9
2017-Oct-22 03:28N 31°28' E 121°25'65576.9
2017-Oct-22 03:28N 31°24' E 121°31'666133146.4
2017-Oct-22 03:27N 22°52' E 113°33'151034.0
2017-Oct-22 03:26N 23°06' E 113°27'66019787.8
2017-Oct-22 03:24N 31°30' E 121°25'67517605.2
2017-Oct-22 03:22N 22°45' E 113°30'67516750.2
2017-Oct-22 03:20N 31°41' E 121°09'6863330.2
2017-Oct-22 03:07N 22°45' E 113°07'6876164.1
2017-Oct-22 03:01N 31°38' E 121°14'176977.8
2017-Oct-22 03:00N 31°27' E 121°29'3836.7
2017-Oct-22 03:00N 31°29' E 121°27'667800421.9
2017-Oct-22 03:00N 22°52' E 113°33'667266693.5
2017-Oct-22 03:00N 31°31' E 121°23'41459.2
2017-Oct-22 03:00N 31°28' E 121°25'65871805.6
2017-Oct-22 02:59N 23°06' E 113°27'663795486.4
2017-Oct-22 02:59N 31°25' E 121°38'13486.1
2017-Oct-22 02:58N 31°30' E 121°24'98103.7
2017-Oct-22 02:58N 31°25' E 121°33'2733.4
2017-Oct-22 02:58N 31°24' E 121°31'278.4
2017-Oct-22 02:56N 31°24' E 121°34'67569441.0
2017-Oct-22 02:55N 22°45' E 113°30'67619955.6
2017-Oct-22 02:53N 31°37' E 121°18'4143.7
2017-Oct-22 02:51N 31°39' E 121°13'66243330.2
2017-Oct-22 02:50N 22°56' E 113°36'27148.6
2017-Oct-22 02:39N 22°45' E 113°09'6894491.2
2017-Oct-22 02:30N 31°22' E 121°39'1017460.0
2017-Oct-22 02:30N 31°27' E 121°29'142873.3
2017-Oct-22 02:30N 31°37' E 121°18'101813.0
2017-Oct-22 02:30N 31°30' E 121°24'661183051.2
2017-Oct-22 02:29N 22°57' E 113°35'66592066.6
2017-Oct-22 02:29N 31°25' E 121°38'256973.4
2017-Oct-22 02:29N 31°39' E 121°13'2226998.7
2017-Oct-22 02:29N 31°24' E 121°34'2122.2
2017-Oct-22 02:28N 31°24' E 121°31'2397.2
2017-Oct-22 02:27N 31°25' E 121°33'81719.4
2017-Oct-22 02:27N 31°28' E 121°25'67322040.5
2017-Oct-22 02:25N 22°45' E 113°30'67456432.2
2017-Oct-22 02:24N 31°30' E 121°23'6595660.0
2017-Oct-22 02:17N 23°06' E 113°27'264098.2
2017-Oct-22 02:17N 22°44' E 113°11'2279.2
2017-Oct-22 02:00N 22°52' E 113°33'669120431.0
2017-Oct-22 02:00N 31°22' E 121°39'66270073.8
2017-Oct-22 01:59N 23°06' E 113°27'118252.2
2017-Oct-22 01:59N 22°57' E 113°35'662216493.8
2017-Oct-22 01:59N 31°25' E 121°31'621985.7
2017-Oct-22 01:59N 31°28' E 121°25'8920.1
2017-Oct-22 01:59N 31°24' E 121°34'68650378.0
2017-Oct-22 01:58N 22°44' E 113°12'684164156.0
2017-Oct-22 01:58N 31°24' E 121°31'8571.5
2017-Oct-22 01:57N 31°30' E 121°24'10930.5
2017-Oct-22 01:56N 31°37' E 121°18'915365.2
2017-Oct-22 01:56N 31°30' E 121°23'103294.8
2017-Oct-22 01:56N 31°25' E 121°33'22357.6
2017-Oct-22 01:52N 31°39' E 121°13'675607312.9
2017-Oct-22 01:52N 22°45' E 113°30'678110931.3
2017-Oct-22 01:52N 31°25' E 121°38'6643195.4
2017-Oct-22 01:39N 23°06' E 113°25'6634536.3
2017-Oct-22 01:31N 31°22' E 121°39'669150543.5
2017-Oct-22 01:30N 22°52' E 113°33'666199736.7
2017-Oct-22 01:30N 31°28' E 121°25'63767.2
2017-Oct-22 01:30N 31°24' E 121°31'66059438.8
2017-Oct-22 01:29N 22°57' E 113°35'111794.0
2017-Oct-22 01:29N 23°06' E 113°27'211581.9
2017-Oct-22 01:28N 22°45' E 113°30'678271167.3
2017-Oct-22 01:28N 31°25' E 121°38'41149.5
2017-Oct-22 01:28N 31°25' E 121°33'106040.4
2017-Oct-22 01:28N 31°30' E 121°23'1112731.8
2017-Oct-22 01:28N 31°24' E 121°34'68428319.6
2017-Oct-22 01:26N 22°44' E 113°14'685616705.2
2017-Oct-22 01:26N 31°37' E 121°18'101564.2
2017-Oct-22 01:26N 31°30' E 121°24'9316.3
2017-Oct-22 01:24N 31°22' E 121°30'22154.8
2017-Oct-22 01:16N 31°39' E 121°13'65915607.8
2017-Oct-22 01:13N 22°59' E 113°37'13197.2
2017-Oct-22 01:09N 23°06' E 113°25'17113.1
2017-Oct-22 01:00N 22°52' E 113°33'173303.8
2017-Oct-22 01:00N 23°06' E 113°25'659791287.7
2017-Oct-22 01:00N 31°24' E 121°31'82334.9
2017-Oct-22 01:00N 31°30' E 121°24'91908.2
2017-Oct-22 00:59N 31°25' E 121°33'183881.2
2017-Oct-22 00:59N 31°37' E 121°18'251050.1
2017-Oct-22 00:58N 31°21' E 121°39'1410142.9
2017-Oct-22 00:58N 31°28' E 121°25'66144042.9
2017-Oct-22 00:57N 22°56' E 113°36'31760.1
2017-Oct-22 00:57N 22°59' E 113°37'658124732.1
2017-Oct-22 00:56N 31°30' E 121°23'112010.3
2017-Oct-22 00:56N 31°24' E 121°34'684189412.4
2017-Oct-22 00:56N 22°46' E 113°13'68321961.1
2017-Oct-22 00:54N 31°39' E 121°13'65926080.5
2017-Oct-22 00:52N 23°06' E 113°27'21135.8
2017-Oct-22 00:43N 22°45' E 113°30'6743158.3
2017-Oct-22 00:30N 31°25' E 121°30'6661198992.7
2017-Oct-22 00:30N 22°52' E 113°33'6681201797.1
2017-Oct-22 00:30N 31°20' E 121°39'71672.3
2017-Oct-22 00:30N 31°25' E 121°33'661148731.0
2017-Oct-22 00:30N 23°06' E 113°25'1412457.8
2017-Oct-22 00:30N 22°56' E 113°36'662794302.6
2017-Oct-22 00:30N 31°39' E 121°13'68262936.2
2017-Oct-22 00:29N 22°47' E 113°13'68138323.4
2017-Oct-22 00:28N 31°30' E 121°23'141811.4
2017-Oct-22 00:27N 31°25' E 121°38'216996.3
2017-Oct-22 00:27N 31°37' E 121°18'19722.2
2017-Oct-22 00:26N 31°24' E 121°34'660139780.1
2017-Oct-22 00:25N 23°05' E 113°27'65859241.3
2017-Oct-22 00:25N 31°28' E 121°25'11279.0
2017-Oct-22 00:22N 31°20' E 121°33'672115137.9
2017-Oct-22 00:22N 22°45' E 113°30'16146.3
2017-Oct-22 00:16N 22°59' E 113°37'6594830.6
2017-Oct-22 00:07N 31°41' E 121°09'6635819.8
2017-Oct-22 00:00N 22°55' E 113°36'41642.2
2017-Oct-22 00:00N 22°59' E 113°37'2443227.4
2017-Oct-22 00:00N 22°47' E 113°15'682175346.1
2017-Oct-22 00:00N 31°24' E 121°34'111357.3
2017-Oct-22 00:00N 31°30' E 121°23'4702.0
2017-Oct-21 23:59N 31°28' E 121°27'1163.8
2017-Oct-21 23:59N 31°28' E 121°25'658118482.6
2017-Oct-21 23:58N 23°05' E 113°27'2814569.5
2017-Oct-21 23:58N 22°40' E 113°41'113402.3
2017-Oct-21 23:58N 22°45' E 113°30'67667627.6
2017-Oct-21 23:57N 31°37' E 121°18'1816495.1
2017-Oct-21 23:57N 31°25' E 121°33'667240241.3
2017-Oct-21 23:57N 22°52' E 113°33'66835344.7
2017-Oct-21 23:56N 31°20' E 121°39'4987.6
2017-Oct-21 23:56N 31°25' E 121°38'135024.5
2017-Oct-21 23:56N 31°30' E 121°24'10546.2
2017-Oct-21 23:55N 31°21' E 121°31'65733793.1
2017-Oct-21 23:53N 23°06' E 113°25'66028986.3
2017-Oct-21 23:52N 31°39' E 121°13'419.9
2017-Oct-21 23:40N 31°41' E 121°09'28185.1
2017-Oct-21 23:30N 31°23' E 121°35'668184925.7
2017-Oct-21 23:30N 22°52' E 113°33'1619533.7
2017-Oct-21 23:30N 22°47' E 113°16'67997761.1
2017-Oct-21 23:30N 31°28' E 121°25'113414.4
2017-Oct-21 23:30N 31°25' E 121°38'142413.6
2017-Oct-21 23:29N 31°30' E 121°23'22758.5
2017-Oct-21 23:29N 31°30' E 121°24'161298.3
2017-Oct-21 23:28N 31°20' E 121°39'661475594.4
2017-Oct-21 23:28N 23°05' E 113°27'660125077.0
2017-Oct-21 23:28N 31°25' E 121°33'1810999.3
2017-Oct-21 23:28N 31°37' E 121°18'665798319.5
2017-Oct-21 23:28N 22°54' E 113°35'66348715.3
2017-Oct-21 23:27N 31°30' E 121°23'121790.6
2017-Oct-21 23:27N 31°39' E 121°13'66081960.3
2017-Oct-21 23:26N 23°06' E 113°25'6605210.5
2017-Oct-21 23:19N 31°41' E 121°09'65951561.5
2017-Oct-21 23:18N 22°59' E 113°37'25609.8
2017-Oct-21 23:15N 22°34' E 113°38'6782701.5
2017-Oct-21 23:00N 31°28' E 121°25'128405.7
2017-Oct-21 23:00N 31°23' E 121°37'6682405308.9
2017-Oct-21 23:00N 22°52' E 113°33'1510680.3
2017-Oct-21 23:00N 22°47' E 113°18'67887174.2
2017-Oct-21 23:00N 31°33' E 121°19'65955196.0
2017-Oct-21 22:59N 23°06' E 113°25'664113826.9
2017-Oct-21 22:59N 31°25' E 121°38'67873954.7
2017-Oct-21 22:58N 22°45' E 113°30'674808866.5
2017-Oct-21 22:58N 31°30' E 121°23'179939.3
2017-Oct-21 22:58N 31°20' E 121°39'6642391761.2
2017-Oct-21 22:58N 22°54' E 113°35'663397863.9
2017-Oct-21 22:58N 31°30' E 121°24'9737.3
2017-Oct-21 22:57N 31°25' E 121°33'1816498.9
2017-Oct-21 22:57N 31°37' E 121°18'66023085.1
2017-Oct-21 22:55N 22°59' E 113°37'65919769.4
2017-Oct-21 22:53N 31°39' E 121°13'67981443.7
2017-Oct-21 22:53N 22°35' E 113°36'231347.0
2017-Oct-21 22:52N 22°58' E 113°33'14105.3
2017-Oct-21 22:44N 22°44' E 113°34'834.3
2017-Oct-21 22:30N 22°52' E 113°33'666399447.4
2017-Oct-21 22:30N 31°28' E 121°25'1312019.3
2017-Oct-21 22:30N 31°22' E 121°39'162468.4
2017-Oct-21 22:30N 31°30' E 121°23'829096.6
2017-Oct-21 22:30N 31°36' E 121°17'258050.7
2017-Oct-21 22:30N 31°20' E 121°39'258955.7
2017-Oct-21 22:29N 31°37' E 121°18'6602377760.8
2017-Oct-21 22:29N 22°59' E 113°37'659112968.2
2017-Oct-21 22:29N 31°39' E 121°13'132907.7
2017-Oct-21 22:29N 31°30' E 121°24'67478279.7
2017-Oct-21 22:28N 22°45' E 113°30'112391.1
2017-Oct-21 22:28N 22°55' E 113°35'667150036.6
2017-Oct-21 22:28N 31°25' E 121°38'4249.1
2017-Oct-21 22:27N 31°25' E 121°33'66499537.3
2017-Oct-21 22:26N 22°57' E 113°33'1288.2
2017-Oct-21 22:18N 22°45' E 113°31'22956.3
2017-Oct-21 22:17N 23°06' E 113°25'32211.3
2017-Oct-21 22:08N 22°35' E 113°29'18143.8
2017-Oct-21 22:00N 22°52' E 113°33'1243389.9
2017-Oct-21 22:00N 22°48' E 113°21'67664083.6
2017-Oct-21 22:00N 31°30' E 121°24'162657.2
2017-Oct-21 21:59N 31°20' E 121°39'4426.5
2017-Oct-21 21:59N 31°25' E 121°38'4574.7
2017-Oct-21 21:58N 31°25' E 121°33'664113816.8
2017-Oct-21 21:58N 22°55' E 113°35'662298052.6
2017-Oct-21 21:58N 31°28' E 121°25'156544.6
2017-Oct-21 21:58N 31°20' E 121°39'173403.6
2017-Oct-21 21:57N 31°30' E 121°23'13648.4
2017-Oct-21 21:56N 31°39' E 121°13'416023.7
2017-Oct-21 21:56N 31°37' E 121°18'660297222.2
2017-Oct-21 21:56N 22°59' E 113°37'6598595.9
2017-Oct-21 21:51N 31°39' E 121°13'66021035.0
2017-Oct-21 21:49N 23°06' E 113°25'22158.7
2017-Oct-21 21:41N 22°44' E 113°27'8535.6
2017-Oct-21 21:40N 22°36' E 113°24'1167.1
2017-Oct-21 21:30N 22°47' E 113°21'678101719.1
2017-Oct-21 21:30N 31°20' E 121°39'47824.5
2017-Oct-21 21:30N 31°25' E 121°38'51704.4
2017-Oct-21 21:30N 31°20' E 121°39'7834.7
2017-Oct-21 21:29N 31°25' E 121°33'678174251.0
2017-Oct-21 21:29N 22°44' E 113°25'677405972.3
2017-Oct-21 21:29N 31°30' E 121°23'160.7
2017-Oct-21 21:28N 31°30' E 121°24'66672693.4
2017-Oct-21 21:27N 22°52' E 113°33'669300843.2
2017-Oct-21 21:27N 31°37' E 121°18'11366.9
2017-Oct-21 21:25N 31°28' E 121°25'659593341.0
2017-Oct-21 21:25N 23°06' E 113°25'29104238.3
2017-Oct-21 21:25N 22°37' E 113°22'29763.1
2017-Oct-21 21:23N 23°05' E 113°27'111949.5
2017-Oct-21 21:23N 22°59' E 113°37'5318.1
2017-Oct-21 21:22N 22°55' E 113°35'111129.1
2017-Oct-21 21:21N 22°45' E 113°30'6721947.6
2017-Oct-21 21:00N 31°23' E 121°30'89059.1
2017-Oct-21 21:00N 31°21' E 121°39'668801564.3
2017-Oct-21 21:00N 22°52' E 113°33'667400399.5
2017-Oct-21 21:00N 31°25' E 121°33'678121986.6
2017-Oct-21 21:00N 22°47' E 113°21'131102.1
2017-Oct-21 20:59N 22°50' E 113°35'1211210.2
2017-Oct-21 20:59N 22°46' E 113°22'15632.3
2017-Oct-21 20:58N 22°55' E 113°35'665159630.2
2017-Oct-21 20:57N 31°37' E 121°18'111345.2
2017-Oct-21 20:57N 31°28' E 121°25'112156.5
2017-Oct-21 20:57N 31°25' E 121°38'131051.6
2017-Oct-21 20:56N 31°30' E 121°24'167178.7
2017-Oct-21 20:56N 31°20' E 121°39'6606042.9
2017-Oct-21 20:49N 22°59' E 113°37'6592085.4
2017-Oct-21 20:30N 31°30' E 121°25'15847.6
2017-Oct-21 20:29N 31°22' E 121°39'67935970.0
2017-Oct-21 20:28N 22°47' E 113°21'67613305.6
2017-Oct-21 20:25N 31°24' E 121°31'7608.1
2017-Oct-21 20:24N 31°28' E 121°25'666239668.5
2017-Oct-21 20:24N 22°52' E 113°33'31377.4
2017-Oct-21 20:24N 22°55' E 113°35'6642390153.7
2017-Oct-21 20:24N 31°25' E 121°33'91620.7
2017-Oct-21 20:24N 31°30' E 121°24'14434.9
2017-Oct-21 20:22N 31°41' E 121°13'305741.7
2017-Oct-21 20:21N 31°20' E 121°39'253801.0
2017-Oct-21 20:21N 31°38' E 121°18'211003.1
2017-Oct-21 20:20N 31°25' E 121°38'6625744.7
2017-Oct-21 20:13N 22°59' E 113°37'14152.2
2017-Oct-21 20:07N 22°45' E 113°39'66418391.1
2017-Oct-21 20:05N 31°17' E 121°34'32482.7
2017-Oct-21 20:01N 31°41' E 121°09'181202.4
2017-Oct-21 20:00N 31°29' E 121°25'1822.3
2017-Oct-21 20:00N 31°30' E 121°24'66391792.3
2017-Oct-21 20:00N 22°55' E 113°35'664140596.3
2017-Oct-21 20:00N 31°25' E 121°33'6716.2
2017-Oct-21 19:59N 31°22' E 121°39'67925478.5
2017-Oct-21 19:58N 22°47' E 113°21'677406215.0
2017-Oct-21 19:57N 31°41' E 121°09'3694.5
2017-Oct-21 19:57N 31°41' E 121°13'301212.1
2017-Oct-21 19:56N 31°20' E 121°39'669141646.9
2017-Oct-21 19:55N 22°47' E 113°37'670109633.3
2017-Oct-21 19:55N 31°37' E 121°18'214541.0
2017-Oct-21 19:55N 31°25' E 121°38'662340578.9
2017-Oct-21 19:55N 22°59' E 113°37'65826907.0
2017-Oct-21 19:53N 31°28' E 121°25'4386681.6
2017-Oct-21 19:49N 38°46' E 121°37'10423315.4
2017-Oct-21 19:30N 22°51' E 113°35'1346043.0
2017-Oct-21 19:30N 22°47' E 113°21'678610021.9
2017-Oct-21 19:30N 31°25' E 121°33'667800810.1
2017-Oct-21 19:30N 22°52' E 113°33'669401408.9
2017-Oct-21 19:30N 31°22' E 121°39'156624.0
2017-Oct-21 19:30N 31°30' E 121°24'663216962.0
2017-Oct-21 19:30N 22°55' E 113°35'66258162.6
2017-Oct-21 19:29N 31°24' E 121°31'61229.1
2017-Oct-21 19:29N 31°28' E 121°25'65826019.8
2017-Oct-21 19:27N 22°59' E 113°37'65943123.8
2017-Oct-21 19:26N 31°41' E 121°09'293905.3
2017-Oct-21 19:26N 31°25' E 121°38'5742.9
2017-Oct-21 19:26N 31°20' E 121°39'254578.3
2017-Oct-21 19:25N 31°38' E 121°18'4294333.6
2017-Oct-21 19:19N 38°46' E 121°36'1052126248.6
2017-Oct-21 19:19N 22°47' E 113°13'68432815.0
2017-Oct-21 19:18N 31°41' E 121°13'6893904.6
2017-Oct-21 19:07N 22°46' E 113°05'28828.6
2017-Oct-21 19:05N 23°05' E 113°27'15198.7
2017-Oct-21 19:00N 22°52' E 113°33'414781.4
2017-Oct-21 19:00N 22°55' E 113°36'1035532421.2
2017-Oct-21 19:00N 38°45' E 121°35'1031265144.5
2017-Oct-21 19:00N 22°59' E 113°37'51561.8
2017-Oct-21 19:00N 22°55' E 113°35'13881.4
2017-Oct-21 18:59N 23°05' E 113°27'658395064.9
2017-Oct-21 18:59N 31°28' E 121°25'67693620.4
2017-Oct-21 18:58N 22°47' E 113°21'67793681.6
2017-Oct-21 18:58N 31°29' E 121°24'91058.7
2017-Oct-21 18:57N 31°25' E 121°33'63437.0
2017-Oct-21 18:57N 31°22' E 121°39'85400.9
2017-Oct-21 18:57N 31°24' E 121°31'173474.4
2017-Oct-21 18:57N 31°38' E 121°18'251274.0
2017-Oct-21 18:56N 31°20' E 121°39'51898.4
2017-Oct-21 18:56N 31°25' E 121°38'13735.9
2017-Oct-21 18:55N 31°30' E 121°24'1463.9
2017-Oct-21 18:41N 31°41' E 121°13'6683707.5
2017-Oct-21 18:30N 22°52' E 113°33'69954.6
2017-Oct-21 18:30N 22°57' E 113°36'2335.3
2017-Oct-21 18:30N 22°55' E 113°35'66474728.2
2017-Oct-21 18:29N 31°20' E 121°39'71318.6
2017-Oct-21 18:29N 31°25' E 121°33'41868.0
2017-Oct-21 18:29N 31°25' E 121°38'131630.8
2017-Oct-21 18:28N 31°30' E 121°24'103162.0
2017-Oct-21 18:28N 31°38' E 121°18'171097.5
2017-Oct-21 18:27N 31°24' E 121°31'8578.3
2017-Oct-21 18:26N 31°22' E 121°39'66113916.1
2017-Oct-21 18:24N 22°59' E 113°37'65835875.7
2017-Oct-21 18:23N 31°28' E 121°25'676243413.1
2017-Oct-21 18:22N 22°47' E 113°21'67738057.2
2017-Oct-21 18:21N 31°30' E 121°24'15166.3
2017-Oct-21 18:16N 31°41' E 121°13'67523141.9
2017-Oct-21 18:14N 22°53' E 113°19'1667.4
2017-Oct-21 18:00N 22°57' E 113°36'619838.5
2017-Oct-21 18:00N 22°52' E 113°33'669185256.1
2017-Oct-21 18:00N 31°22' E 121°39'2712.3
2017-Oct-21 18:00N 31°20' E 121°39'1611368.8
2017-Oct-21 18:00N 31°30' E 121°24'663298266.2
2017-Oct-21 18:00N 22°55' E 113°35'665104107.9
2017-Oct-21 17:59N 31°38' E 121°18'6612377803.4
2017-Oct-21 17:59N 22°59' E 113°37'658295974.7
2017-Oct-21 17:59N 31°28' E 121°25'165783.8
2017-Oct-21 17:59N 31°41' E 121°13'22687.4
2017-Oct-21 17:57N 31°24' E 121°31'659296380.1
2017-Oct-21 17:57N 23°05' E 113°27'660792190.8
2017-Oct-21 17:57N 31°25' E 121°33'41245.4
2017-Oct-21 17:57N 31°25' E 121°38'6758967.2
2017-Oct-21 17:52N 22°54' E 113°22'7921.1
2017-Oct-21 17:52N 22°47' E 113°21'67734311.6
2017-Oct-21 17:51N 31°30' E 121°24'6661966.0
2017-Oct-21 17:30N 22°52' E 113°33'51392.5
2017-Oct-21 17:30N 22°57' E 113°36'663795626.6
2017-Oct-21 17:30N 31°41' E 121°13'167231.8
2017-Oct-21 17:30N 31°28' E 121°25'662340626.6
2017-Oct-21 17:30N 22°55' E 113°35'664265674.9
2017-Oct-21 17:30N 31°20' E 121°39'66071957.5
2017-Oct-21 17:29N 22°59' E 113°37'661339691.1
2017-Oct-21 17:29N 31°38' E 121°18'671219505.4
2017-Oct-21 17:29N 22°55' E 113°25'670401825.3
2017-Oct-21 17:29N 31°25' E 121°33'678106090.8
2017-Oct-21 17:28N 22°47' E 113°21'67990598.6
2017-Oct-21 17:28N 31°22' E 121°39'152622.9
2017-Oct-21 17:27N 31°30' E 121°24'71347.1
2017-Oct-21 17:27N 31°24' E 121°31'65945656.4
2017-Oct-21 17:26N 23°06' E 113°25'66069865.2
2017-Oct-21 17:26N 31°30' E 121°24'131305.1
2017-Oct-21 17:25N 31°25' E 121°38'6637774.8
2017-Oct-21 17:20N 23°06' E 113°27'65955182.0
2017-Oct-21 17:19N 31°41' E 121°09'6574958.6
2017-Oct-21 17:11N 23°05' E 113°32'1161.0
2017-Oct-21 17:01N 22°54' E 113°29'98020.4
2017-Oct-21 17:00N 22°58' E 113°37'829043.0
2017-Oct-21 17:00N 22°53' E 113°30'668171702.9
2017-Oct-21 17:00N 31°25' E 121°33'66485361.4
2017-Oct-21 17:00N 22°55' E 113°35'66356809.3
2017-Oct-21 16:59N 31°30' E 121°24'1035836.7
2017-Oct-21 16:59N 31°38' E 121°18'105791.1
2017-Oct-21 16:59N 31°30' E 121°24'1311434.4
2017-Oct-21 16:59N 31°24' E 121°37'1356.6
2017-Oct-21 16:59N 31°25' E 121°38'622172.1
2017-Oct-21 16:59N 31°24' E 121°31'8769.3
2017-Oct-21 16:58N 31°17' E 121°34'7741.1
2017-Oct-21 16:57N 31°22' E 121°39'131092.8
2017-Oct-21 16:57N 31°28' E 121°25'65853863.2
2017-Oct-21 16:56N 23°06' E 113°27'19898.7
2017-Oct-21 16:55N 22°47' E 113°21'6799655.8
2017-Oct-21 16:51N 31°41' E 121°13'6586338.3
2017-Oct-21 16:44N 23°05' E 113°32'6592877.7
2017-Oct-21 16:31N 31°24' E 121°37'667240276.8
2017-Oct-21 16:30N 22°53' E 113°34'667600099.1
2017-Oct-21 16:30N 31°41' E 121°13'668801956.8
2017-Oct-21 16:30N 22°52' E 113°32'666399489.5
2017-Oct-21 16:30N 31°24' E 121°31'660475433.6
2017-Oct-21 16:30N 22°56' E 113°37'9875.9
2017-Oct-21 16:29N 22°55' E 113°27'82255.4
2017-Oct-21 16:29N 22°54' E 113°35'660594402.8
2017-Oct-21 16:29N 31°21' E 121°32'211051.0
2017-Oct-21 16:28N 31°38' E 121°18'247859.8
2017-Oct-21 16:28N 31°22' E 121°39'152665.3
2017-Oct-21 16:27N 31°30' E 121°24'9798.2
2017-Oct-21 16:27N 31°25' E 121°33'92892.9
2017-Oct-21 16:27N 31°30' E 121°24'67797423.0
2017-Oct-21 16:26N 22°47' E 113°21'676608502.2
2017-Oct-21 16:26N 31°28' E 121°25'111781.4
2017-Oct-21 16:26N 31°25' E 121°38'66314465.4
2017-Oct-21 16:23N 23°06' E 113°27'6597040.8
2017-Oct-21 16:17N 31°41' E 121°09'65712254.6
2017-Oct-21 16:14N 23°05' E 113°32'216404.3
2017-Oct-21 16:14N 22°44' E 113°27'1148.6
2017-Oct-21 16:00N 22°54' E 113°24'1210653.8
2017-Oct-21 16:00N 22°50' E 113°36'6661198706.6
2017-Oct-21 16:00N 31°24' E 121°32'6661198758.5
2017-Oct-21 16:00N 22°50' E 113°35'41866.4
2017-Oct-21 16:00N 22°54' E 113°35'663596553.9
2017-Oct-21 16:00N 31°24' E 121°31'63167.2
2017-Oct-21 16:00N 31°25' E 121°38'131985.7
2017-Oct-21 16:00N 31°30' E 121°24'153807.6
2017-Oct-21 15:59N 31°22' E 121°39'659148378.8
2017-Oct-21 15:59N 23°05' E 113°32'7771.8
2017-Oct-21 15:59N 23°06' E 113°25'661118980.1
2017-Oct-21 15:58N 31°25' E 121°33'41940.5
2017-Oct-21 15:58N 31°24' E 121°37'222071.2
2017-Oct-21 15:57N 31°38' E 121°18'67953127.3
2017-Oct-21 15:57N 22°47' E 113°21'151656.2
2017-Oct-21 15:56N 22°54' E 113°35'66320056.1
2017-Oct-21 15:54N 31°30' E 121°24'117.2
2017-Oct-21 15:49N 31°28' E 121°25'6662116.0
2017-Oct-21 15:30N 22°50' E 113°36'32374.3
2017-Oct-21 15:30N 22°52' E 113°34'668267359.9
2017-Oct-21 15:30N 31°22' E 121°39'75399.7
2017-Oct-21 15:30N 31°24' E 121°31'61705.4
2017-Oct-21 15:30N 31°25' E 121°38'1421.4
2017-Oct-21 15:30N 31°24' E 121°37'4335.1
2017-Oct-21 15:29N 31°25' E 121°33'6581183958.7
2017-Oct-21 15:29N 23°05' E 113°32'656118091.1
2017-Oct-21 15:29N 31°28' E 121°25'2165.8
2017-Oct-21 15:28N 31°30' E 121°24'67743503.8
2017-Oct-21 15:27N 22°47' E 113°21'6234.7
2017-Oct-21 15:25N 22°53' E 113°20'1474.0
2017-Oct-21 15:14N 22°55' E 113°35'66535732.2
2017-Oct-21 15:13N 31°38' E 121°18'101690.4
2017-Oct-21 15:13N 31°29' E 121°24'6623264.1
2017-Oct-21 15:00N 22°55' E 113°36'1730097.5
2017-Oct-21 15:00N 22°52' E 113°18'1715196.4
2017-Oct-21 15:00N 22°50' E 113°36'669240824.4
2017-Oct-21 15:00N 31°20' E 121°41'104538.7
2017-Oct-21 15:00N 31°24' E 121°31'666239862.2
2017-Oct-21 15:00N 22°49' E 113°36'66866776.6
2017-Oct-21 14:59N 31°25' E 121°33'658112752.0
2017-Oct-21 14:59N 23°05' E 113°32'656181789.5
2017-Oct-21 14:59N 31°29' E 121°24'143475.6
2017-Oct-21 14:58N 31°22' E 121°39'241387.0
2017-Oct-21 14:57N 31°38' E 121°18'225589.7
2017-Oct-21 14:57N 31°24' E 121°37'131459.6
2017-Oct-21 14:57N 31°30' E 121°24'298.5
2017-Oct-21 14:56N 31°28' E 121°25'11137.0
2017-Oct-21 14:51N 31°25' E 121°38'6815556.6
2017-Oct-21 14:43N 22°47' E 113°21'1463.4
2017-Oct-21 14:31N 22°50' E 113°36'4486.2
2017-Oct-21 14:30N 22°46' E 113°38'66840737.5
2017-Oct-21 14:29N 31°29' E 121°25'12324.5
2017-Oct-21 14:27N 31°25' E 121°38'680111273.8
2017-Oct-21 14:26N 22°49' E 113°20'16273.3
2017-Oct-21 14:23N 22°57' E 113°36'85051.4
2017-Oct-21 14:23N 23°05' E 113°32'6583586.0
2017-Oct-21 14:12N 31°41' E 121°13'22113.3
2017-Oct-21 14:00N 31°24' E 121°31'151368.0
2017-Oct-21 13:59N 31°17' E 121°46'1412280.8
2017-Oct-21 13:59N 31°25' E 121°33'9364.6
2017-Oct-21 13:58N 31°30' E 121°24'13337.9
2017-Oct-21 13:56N 31°24' E 121°37'2299.1
2017-Oct-21 13:55N 31°22' E 121°39'24672.1
2017-Oct-21 13:53N 31°38' E 121°18'66225619.3
2017-Oct-21 13:51N 23°06' E 113°25'28219.1
2017-Oct-21 13:44N 22°43' E 113°43'20767.1
2017-Oct-21 13:42N 22°47' E 113°21'1996.9
2017-Oct-21 13:30N 23°06' E 113°25'194614.2
2017-Oct-21 13:30N 22°47' E 113°21'676608643.9
2017-Oct-21 13:30N 31°24' E 121°31'81448.4
2017-Oct-21 13:30N 31°30' E 121°24'13905.6
2017-Oct-21 13:29N 31°24' E 121°37'6642389766.6
2017-Oct-21 13:29N 22°57' E 113°36'66447803.8
2017-Oct-21 13:28N 31°17' E 121°46'113851.4
2017-Oct-21 13:28N 31°25' E 121°38'3268.0
2017-Oct-21 13:27N 31°22' E 121°39'6989.0
2017-Oct-21 13:27N 31°25' E 121°33'66937624.9
2017-Oct-21 13:26N 22°43' E 113°42'22465.2
2017-Oct-21 13:23N 22°48' E 113°19'677143354.2
2017-Oct-21 13:23N 31°29' E 121°25'6592377.0
2017-Oct-21 13:06N 23°06' E 113°27'20213.7
2017-Oct-21 13:00N 22°47' E 113°18'678244124.1
2017-Oct-21 13:00N 31°25' E 121°30'6625.9
2017-Oct-21 13:00N 31°30' E 121°24'659395440.1
2017-Oct-21 13:00N 23°06' E 113°27'1923006.6
2017-Oct-21 13:00N 22°47' E 113°21'680349547.1
2017-Oct-21 12:59N 31°17' E 121°46'103696.3
2017-Oct-21 12:59N 31°24' E 121°37'66488509.9
2017-Oct-21 12:59N 22°57' E 113°36'665598557.3
2017-Oct-21 12:59N 31°25' E 121°38'3282.8
2017-Oct-21 12:58N 31°22' E 121°39'14224.8
2017-Oct-21 12:54N 31°29' E 121°25'92627.1
2017-Oct-21 12:54N 31°25' E 121°33'675607523.0
2017-Oct-21 12:54N 22°45' E 113°30'591151.0
2017-Oct-21 12:51N 22°23' E 114°29'48726.1
2017-Oct-21 12:47N 22°43' E 113°42'6682429.0
2017-Oct-21 12:30N 31°28' E 121°27'674110260.2
2017-Oct-21 12:30N 22°45' E 113°30'1934572.1
2017-Oct-21 12:30N 23°04' E 113°30'6834821.9
2017-Oct-21 12:30N 22°22' E 114°27'7252011.3
2017-Oct-21 12:30N 22°47' E 113°14'681245214.6
2017-Oct-21 12:30N 31°30' E 121°24'1311307.3
2017-Oct-21 12:30N 31°25' E 121°38'4383.2
2017-Oct-21 12:29N 31°25' E 121°33'41217.1
2017-Oct-21 12:29N 31°24' E 121°37'67947041.4
2017-Oct-21 12:28N 22°47' E 113°21'68044487.8
2017-Oct-21 12:27N 31°17' E 121°46'8645.9
2017-Oct-21 12:26N 31°22' E 121°39'66411545.1
2017-Oct-21 12:23N 22°57' E 113°36'6617958.6
2017-Oct-21 12:18N 31°29' E 121°25'0 1.1
2017-Oct-21 12:00N 31°30' E 121°24'151039.7
2017-Oct-21 11:59N 31°22' E 121°39'66458288.6
2017-Oct-21 11:59N 22°57' E 113°36'162781.9
2017-Oct-21 11:58N 22°47' E 113°21'678110912.3
2017-Oct-21 11:58N 31°25' E 121°33'6592371833.4
2017-Oct-21 11:58N 23°04' E 113°32'65850369.7
2017-Oct-21 11:57N 31°29' E 121°25'121851.4
2017-Oct-21 11:57N 31°24' E 121°37'663113615.7
2017-Oct-21 11:57N 23°06' E 113°25'721673.2
2017-Oct-21 11:54N 22°19' E 114°24'66912485.3
2017-Oct-21 11:51N 31°25' E 121°38'11377.4
2017-Oct-21 11:49N 31°17' E 121°46'322953.2
2017-Oct-21 11:48N 31°38' E 121°18'1032.2
2017-Oct-21 11:30N 31°29' E 121°25'127411.5
2017-Oct-21 11:30N 31°25' E 121°38'1120.0
2017-Oct-21 11:29N 31°24' E 121°37'662595651.5
2017-Oct-21 11:29N 23°03' E 113°31'81747.6
2017-Oct-21 11:29N 22°57' E 113°36'7734.6
2017-Oct-21 11:28N 22°49' E 113°36'669803213.3
2017-Oct-21 11:28N 31°22' E 121°39'680143900.3
2017-Oct-21 11:28N 22°47' E 113°21'678135559.5
2017-Oct-21 11:28N 31°25' E 121°33'9470.3
2017-Oct-21 11:26N 31°30' E 121°24'660296931.9
2017-Oct-21 11:26N 23°06' E 113°25'2265.2
2017-Oct-21 11:06N 22°45' E 113°30'67613992.2
2017-Oct-21 11:03N 31°38' E 121°18'55993.3
2017-Oct-21 11:03N 31°41' E 121°13'67914895.4
2017-Oct-21 11:00N 22°47' E 113°21'680489260.9
2017-Oct-21 11:00N 31°22' E 121°39'668343525.2
2017-Oct-21 11:00N 22°53' E 113°34'666399769.1
2017-Oct-21 11:00N 31°25' E 121°33'81618.2
2017-Oct-21 11:00N 31°28' E 121°25'65956508.7
2017-Oct-21 10:59N 23°06' E 113°25'6621191279.4
2017-Oct-21 10:59N 31°38' E 121°18'101156.5
2017-Oct-21 10:59N 31°30' E 121°24'018.1
2017-Oct-21 10:57N 31°29' E 121°25'65927904.4
2017-Oct-21 10:56N 23°03' E 113°31'663119347.2
2017-Oct-21 10:56N 31°25' E 121°38'262115.9
2017-Oct-21 10:55N 31°41' E 121°13'271249.2
2017-Oct-21 10:54N 31°24' E 121°37'66443450.0
2017-Oct-21 10:53N 22°57' E 113°36'30955.9
2017-Oct-21 10:51N 22°46' E 113°05'23234.7
2017-Oct-21 10:45N 22°45' E 113°30'6742660.8
2017-Oct-21 10:30N 31°30' E 121°24'65950477.5
2017-Oct-21 10:29N 23°03' E 113°31'81643.8
2017-Oct-21 10:29N 22°57' E 113°36'66135492.4
2017-Oct-21 10:28N 31°28' E 121°25'111346.4
2017-Oct-21 10:27N 31°38' E 121°18'181699.4
2017-Oct-21 10:26N 31°25' E 121°33'68042925.2
2017-Oct-21 10:26N 22°42' E 113°24'681204392.6
2017-Oct-21 10:25N 31°24' E 121°37'2716.7
2017-Oct-21 10:25N 31°22' E 121°39'147450.9
2017-Oct-21 10:25N 31°29' E 121°25'677110715.0
2017-Oct-21 10:25N 22°47' E 113°21'19601.8
2017-Oct-21 10:23N 23°06' E 113°25'66024495.1
2017-Oct-21 10:21N 31°41' E 121°09'67512919.0
2017-Oct-21 10:18N 22°45' E 113°30'6782230.8
2017-Oct-21 10:00N 31°25' E 121°38'1311307.3
2017-Oct-21 10:00N 31°30' E 121°24'177688.5
2017-Oct-21 10:00N 31°41' E 121°09'323673.7
2017-Oct-21 09:59N 31°22' E 121°39'63433.9
2017-Oct-21 09:59N 31°25' E 121°33'92425.9
2017-Oct-21 09:59N 31°29' E 121°25'67656616.0
2017-Oct-21 09:58N 22°43' E 113°27'67994017.3
2017-Oct-21 09:58N 31°24' E 121°37'67769600.1
2017-Oct-21 09:57N 22°45' E 113°30'181536.2
2017-Oct-21 09:56N 23°03' E 113°31'8821.9
2017-Oct-21 09:56N 22°57' E 113°36'161498.0
2017-Oct-21 09:55N 22°47' E 113°21'679488772.6
2017-Oct-21 09:55N 31°38' E 121°18'11360.2
2017-Oct-21 09:53N 31°28' E 121°25'17194.3
2017-Oct-21 09:48N 31°19' E 121°42'3 9.0
2017-Oct-21 09:30N 31°21' E 121°39'678128457.0
2017-Oct-21 09:30N 22°48' E 113°21'116416.6
2017-Oct-21 09:30N 22°42' E 113°30'680144007.9
2017-Oct-21 09:30N 31°25' E 121°38'310134.0
2017-Oct-21 09:30N 31°22' E 121°39'2141.1
2017-Oct-21 09:29N 31°24' E 121°37'664597433.4
2017-Oct-21 09:29N 22°57' E 113°36'662216704.4
2017-Oct-21 09:29N 31°25' E 121°33'67527614.5
2017-Oct-21 09:27N 22°45' E 113°30'67471372.6
2017-Oct-21 09:27N 31°30' E 121°24'1163.5
2017-Oct-21 09:26N 31°30' E 121°24'1322.6
2017-Oct-21 09:26N 31°29' E 121°25'10458.8
2017-Oct-21 09:25N 31°38' E 121°18'6625306.7
2017-Oct-21 09:17N 23°06' E 113°25'27292.3
2017-Oct-21 09:12N 22°43' E 113°42'22190.7
2017-Oct-21 09:05N 23°03' E 113°31'6608362.1
2017-Oct-21 09:00N 31°23' E 121°35'24244.7
2017-Oct-21 09:00N 31°25' E 121°33'677135372.3
2017-Oct-21 09:00N 22°51' E 113°18'67652884.9
2017-Oct-21 08:59N 31°30' E 121°24'659237242.1
2017-Oct-21 08:59N 23°03' E 113°31'813852.5
2017-Oct-21 08:59N 22°57' E 113°36'66574819.1
2017-Oct-21 08:58N 31°25' E 121°38'672134431.9
2017-Oct-21 08:58N 22°44' E 113°41'11724.7
2017-Oct-21 08:57N 22°45' E 113°30'677406003.4
2017-Oct-21 08:57N 31°24' E 121°37'2172.5
2017-Oct-21 08:56N 31°22' E 121°39'14191.9
2017-Oct-21 08:52N 31°29' E 121°25'6731899.8
2017-Oct-21 08:30N 22°53' E 113°19'202789.2
2017-Oct-21 08:30N 22°45' E 113°39'671160981.7
2017-Oct-21 08:30N 31°24' E 121°37'13696.4
2017-Oct-21 08:29N 31°30' E 121°24'8874.3
2017-Oct-21 08:28N 31°23' E 121°30'7471.9
2017-Oct-21 08:27N 31°22' E 121°39'64120.6
2017-Oct-21 08:27N 31°25' E 121°33'910508.2
2017-Oct-21 08:27N 31°29' E 121°25'65923253.2
2017-Oct-21 08:25N 23°03' E 113°31'65015799.6
2017-Oct-21 08:23N 31°58' E 120°25'704091.3
2017-Oct-21 08:22N 31°25' E 121°38'67854233.5
2017-Oct-21 08:21N 22°45' E 113°30'13610.7
2017-Oct-21 08:20N 22°57' E 113°36'927.5
2017-Oct-21 08:00N 22°48' E 113°37'154972.7
2017-Oct-21 08:00N 22°54' E 113°22'67123219.9
2017-Oct-21 07:59N 31°29' E 121°25'9484.8
2017-Oct-21 07:57N 31°25' E 121°33'6322.1
2017-Oct-21 07:56N 31°22' E 121°39'2221.7
2017-Oct-21 07:56N 31°24' E 121°37'664477950.1
2017-Oct-21 07:56N 22°57' E 113°36'6611932.5
2017-Oct-21 07:55N 21°54' E 113°13'724108660.4
2017-Oct-21 07:55N 31°30' E 121°24'65952726.7
2017-Oct-21 07:54N 23°03' E 113°31'65027516.1
2017-Oct-21 07:53N 31°58' E 120°25'703570.3
2017-Oct-21 07:52N 31°25' E 121°38'3782724.4
2017-Oct-21 07:43N 37°42' E 121°09'3612954.5
2017-Oct-21 07:36N 31°41' E 121°13'5101.0
2017-Oct-21 07:33N 31°37' E 121°18'4125.7
2017-Oct-21 07:31N 31°39' E 121°14'66853434.8
2017-Oct-21 07:31N 22°50' E 113°35'132733.0
2017-Oct-21 07:30N 23°03' E 113°31'662397131.0
2017-Oct-21 07:30N 31°24' E 121°37'1291.0
2017-Oct-21 07:30N 31°25' E 121°38'704155.5
2017-Oct-21 07:29N 31°58' E 120°25'652293568.0
2017-Oct-21 07:29N 22°57' E 113°36'664119485.5
2017-Oct-21 07:28N 31°22' E 121°39'244304.7
2017-Oct-21 07:28N 31°37' E 121°18'18638.3
2017-Oct-21 07:26N 31°25' E 121°33'93617.1
2017-Oct-21 07:26N 31°30' E 121°24'0 7.8
2017-Oct-21 07:24N 31°29' E 121°25'13718.4
2017-Oct-21 07:23N 31°39' E 121°15'3636735.8
2017-Oct-21 07:19N 37°42' E 121°09'3616500.0
2017-Oct-21 07:16N 31°41' E 121°13'6682586.6
2017-Oct-21 07:00N 22°52' E 113°33'666199810.5
2017-Oct-21 07:00N 31°29' E 121°24'667342974.0
2017-Oct-21 07:00N 22°54' E 113°28'7284.9
2017-Oct-21 06:59N 22°57' E 113°36'66428114.2
2017-Oct-21 06:57N 31°22' E 121°39'662397135.4
2017-Oct-21 06:57N 23°03' E 113°31'66268079.6
2017-Oct-21 06:57N 31°24' E 121°37'133799.1
2017-Oct-21 06:56N 31°30' E 121°24'91364.2
2017-Oct-21 06:56N 31°25' E 121°33'47472.1
2017-Oct-21 06:56N 31°25' E 121°38'22380.8
2017-Oct-21 06:53N 31°38' E 121°18'3646826.8
2017-Oct-21 06:49N 37°42' E 121°09'36172220.6
2017-Oct-21 06:49N 31°41' E 121°13'6682156.3
2017-Oct-21 06:30N 22°53' E 113°31'0200.7
2017-Oct-21 06:30N 22°53' E 113°32'669802988.1
2017-Oct-21 06:30N 31°22' E 121°39'153550.7
2017-Oct-21 06:30N 31°30' E 121°24'0360.0
2017-Oct-21 06:30N 31°30' E 121°24'12271.9
2017-Oct-21 06:27N 31°24' E 121°37'66425975.5
2017-Oct-21 06:26N 22°57' E 113°36'66524682.8
2017-Oct-21 06:24N 31°25' E 121°38'68037096.4
2017-Oct-21 06:23N 22°54' E 113°13'67615705.2
2017-Oct-21 06:20N 31°34' E 121°20'15337.9
2017-Oct-21 06:18N 31°25' E 121°33'3785129.2
2017-Oct-21 06:13N 37°42' E 121°09'96434013.3
2017-Oct-21 06:12N 23°03' E 113°31'66139651.3
2017-Oct-21 06:11N 31°41' E 121°13'551.6
2017-Oct-21 06:05N 31°38' E 121°18'6678489.7
2017-Oct-21 06:00N 22°53' E 113°34'6681202084.0
2017-Oct-21 06:00N 31°24' E 121°37'121246.4
2017-Oct-21 06:00N 31°30' E 121°24'4345.9
2017-Oct-21 05:59N 31°32' E 121°22'121664.0
2017-Oct-21 05:59N 31°25' E 121°33'668480657.1
2017-Oct-21 05:58N 22°53' E 113°31'67157473.4
2017-Oct-21 05:58N 31°25' E 121°38'1315220.6
2017-Oct-21 05:58N 31°30' E 121°24'141849.4
2017-Oct-21 05:57N 31°41' E 121°13'29831.6
2017-Oct-21 05:55N 31°22' E 121°39'65946549.9
2017-Oct-21 05:54N 23°05' E 113°32'8294.5
2017-Oct-21 05:53N 22°57' E 113°36'96717859.9
2017-Oct-21 05:49N 37°42' E 121°09'3645139.8
2017-Oct-21 05:45N 31°38' E 121°18'3641907.6
2017-Oct-21 05:34N 37°42' E 121°09'96917974.6
2017-Oct-21 05:30N 22°55' E 113°36'665217505.8
2017-Oct-21 05:30N 31°22' E 121°39'663340856.2
2017-Oct-21 05:30N 23°05' E 113°26'662397121.7
2017-Oct-21 05:30N 31°38' E 121°18'226562.1
2017-Oct-21 05:30N 31°24' E 121°37'131624.4
2017-Oct-21 05:29N 31°31' E 121°25'166.9
2017-Oct-21 05:29N 31°30' E 121°24'667218155.9
2017-Oct-21 05:28N 22°53' E 113°31'67160347.1
2017-Oct-21 05:28N 31°25' E 121°38'663477436.5
2017-Oct-21 05:28N 23°03' E 113°31'65938259.7
2017-Oct-21 05:27N 31°30' E 121°24'37346302.7
2017-Oct-21 05:26N 37°42' E 121°09'96857138.2
2017-Oct-21 05:25N 22°57' E 113°35'66213023.5
2017-Oct-21 05:22N 31°25' E 121°33'65845535.1
2017-Oct-21 05:21N 23°05' E 113°32'1955.0
2017-Oct-21 05:01N 22°51' E 113°18'67662379.1
2017-Oct-21 05:00N 31°28' E 121°28'1120478.3
2017-Oct-21 05:00N 31°22' E 121°39'2267.6
2017-Oct-21 05:00N 31°24' E 121°37'66288217.3
2017-Oct-21 04:59N 22°57' E 113°38'202810.7
2017-Oct-21 04:59N 22°51' E 113°18'675135066.1
2017-Oct-21 04:59N 31°30' E 121°24'667184594.7
2017-Oct-21 04:58N 22°53' E 113°31'93728.2
2017-Oct-21 04:58N 23°03' E 113°31'661198348.4
2017-Oct-21 04:58N 31°38' E 121°18'182663.6
2017-Oct-21 04:58N 31°25' E 121°33'4290.9
2017-Oct-21 04:57N 31°25' E 121°38'122041.7
2017-Oct-21 04:56N 31°30' E 121°24'66131305.5
2017-Oct-21 04:55N 22°57' E 113°35'9673264.1
2017-Oct-21 04:37N 37°42' E 121°09'9728435.3
2017-Oct-21 04:30N 22°54' E 113°29'669602127.4
2017-Oct-21 04:30N 31°38' E 121°18'2414390.8
2017-Oct-21 04:30N 31°22' E 121°39'89360.8
2017-Oct-21 04:30N 31°25' E 121°31'63195.2
2017-Oct-21 04:30N 31°25' E 121°38'6662398909.0
2017-Oct-21 04:30N 22°55' E 113°36'66227101.1
2017-Oct-21 04:29N 31°30' E 121°24'37278776.1
2017-Oct-21 04:28N 37°42' E 121°09'964693871.4
2017-Oct-21 04:28N 23°03' E 113°31'659237211.9
2017-Oct-21 04:28N 31°30' E 121°24'12641.0
2017-Oct-21 04:27N 31°24' E 121°37'4165.7
2017-Oct-21 04:26N 31°25' E 121°33'71336652.9
2017-Oct-21 04:24N 22°13' E 113°07'375864.1
2017-Oct-21 04:24N 22°48' E 113°21'67636894.2
2017-Oct-21 04:23N 31°34' E 121°20'6602731.4
2017-Oct-21 04:08N 23°05' E 113°26'6635033.7
2017-Oct-21 04:00N 31°22' E 121°39'670482412.2
2017-Oct-21 04:00N 22°54' E 113°28'4886696.0
2017-Oct-21 04:00N 22°11' E 113°06'715183799.7
2017-Oct-21 04:00N 31°32' E 121°22'664398122.4
2017-Oct-21 04:00N 22°54' E 113°35'66540599.6
2017-Oct-21 03:59N 31°38' E 121°18'22550.5
2017-Oct-21 03:57N 31°24' E 121°37'4485.1
2017-Oct-21 03:56N 31°25' E 121°33'4439.3
2017-Oct-21 03:56N 31°25' E 121°38'66395475.4
2017-Oct-21 03:55N 23°03' E 113°31'96420170.5
2017-Oct-21 03:52N 37°42' E 121°09'3728222.6
2017-Oct-21 03:50N 31°30' E 121°24'66016267.0
2017-Oct-21 03:47N 23°05' E 113°26'2002515.1
2017-Oct-21 03:42N 21°17' E 110°25'85025726.2
2017-Oct-21 03:40N 31°20' E 121°33'1273.3
2017-Oct-21 03:30N 31°30' E 121°25'6691204136.4
2017-Oct-21 03:30N 22°55' E 113°26'91233.8
2017-Oct-21 03:30N 22°54' E 113°35'664341559.9
2017-Oct-21 03:30N 31°25' E 121°33'47561.0
2017-Oct-21 03:30N 31°25' E 121°38'3220.6
2017-Oct-21 03:29N 31°22' E 121°39'2113.4
2017-Oct-21 03:28N 31°24' E 121°37'661148636.7
2017-Oct-21 03:28N 23°04' E 113°32'65856370.2
2017-Oct-21 03:27N 31°30' E 121°24'10377.3
2017-Oct-21 03:25N 31°21' E 121°31'67378188.0
2017-Oct-21 03:25N 22°44' E 113°26'67846081.1
2017-Oct-21 03:24N 31°38' E 121°18'101737.3
2017-Oct-21 03:24N 31°30' E 121°24'3721667.7
2017-Oct-21 03:10N 37°42' E 121°09'3722283.3
2017-Oct-21 03:01N 31°30' E 121°24'663397622.4
2017-Oct-21 03:00N 22°55' E 113°35'1137828.5
2017-Oct-21 03:00N 22°54' E 113°24'669602463.1
2017-Oct-21 03:00N 31°24' E 121°32'1165.3
2017-Oct-21 03:00N 31°25' E 121°33'6226.7
2017-Oct-21 02:58N 31°22' E 121°39'66160977.4
2017-Oct-21 02:58N 23°04' E 113°32'6582367859.4
2017-Oct-21 02:58N 31°30' E 121°24'1345803.0
2017-Oct-21 02:58N 31°24' E 121°37'661340140.3
2017-Oct-21 02:58N 22°58' E 113°39'6636700.5
2017-Oct-21 02:52N 31°25' E 121°38'5197.9
2017-Oct-21 02:50N 31°24' E 121°32'6733321.3
2017-Oct-21 02:38N 22°45' E 113°31'6746139.0
2017-Oct-21 02:31N 31°27' E 121°29'67248359.8
2017-Oct-21 02:30N 22°54' E 113°22'672806658.0
2017-Oct-21 02:30N 31°23' E 121°35'6612379706.0
2017-Oct-21 02:30N 22°57' E 113°37'660475394.8
2017-Oct-21 02:30N 31°26' E 121°29'726007.0
2017-Oct-21 02:30N 31°23' E 121°37'72421.5
2017-Oct-21 02:30N 31°27' E 121°29'66252934.9
2017-Oct-21 02:29N 22°57' E 113°36'66123561.6
2017-Oct-21 02:28N 31°29' E 121°24'121012.9
2017-Oct-21 02:27N 31°24' E 121°37'11525.9
2017-Oct-21 02:27N 31°25' E 121°38'66428121.7
2017-Oct-21 02:25N 23°05' E 113°26'6471.4
2017-Oct-21 02:25N 23°04' E 113°32'193055.7
2017-Oct-21 02:24N 22°45' E 113°33'673110136.1
2017-Oct-21 02:24N 31°25' E 121°33'11449.2
2017-Oct-21 02:23N 31°31' E 121°23'842.1
2017-Oct-21 02:11N 31°38' E 121°18'24132.5
2017-Oct-21 02:00N 31°22' E 121°39'72811.8
2017-Oct-21 02:00N 31°25' E 121°31'673186408.1
2017-Oct-21 02:00N 22°53' E 113°19'172402.3
2017-Oct-21 02:00N 22°57' E 113°37'1369.1
2017-Oct-21 01:59N 22°57' E 113°36'664217251.0
2017-Oct-21 01:59N 31°22' E 121°39'3228.9
2017-Oct-21 01:58N 31°25' E 121°38'12794.2
2017-Oct-21 01:57N 31°29' E 121°25'65751456.1
2017-Oct-21 01:57N 23°04' E 113°32'65834817.1
2017-Oct-21 01:56N 31°30' E 121°24'660125029.8
2017-Oct-21 01:55N 23°05' E 113°26'663795324.1
2017-Oct-21 01:55N 31°24' E 121°37'22606.6
2017-Oct-21 01:53N 31°38' E 121°18'181184.4
2017-Oct-21 01:52N 31°25' E 121°33'6715892.5
2017-Oct-21 01:45N 22°44' E 113°37'2651338.1
2017-Oct-21 01:33N 24°09' E 118°10'2795716.3
2017-Oct-21 01:30N 22°53' E 113°17'6771218788.2
2017-Oct-21 01:30N 31°20' E 121°42'1864929.8
2017-Oct-21 01:30N 31°30' E 121°24'4721700547.1
2017-Oct-21 01:30N 24°10' E 118°10'26422068.8
2017-Oct-21 01:30N 23°04' E 113°32'661594519.9
2017-Oct-21 01:30N 31°18' E 121°44'306679.3
2017-Oct-21 01:29N 31°38' E 121°18'66246745.2
2017-Oct-21 01:29N 22°57' E 113°37'65794637.2
2017-Oct-21 01:28N 31°21' E 121°31'108950.9
2017-Oct-21 01:28N 31°29' E 121°25'143714.1
2017-Oct-21 01:28N 31°22' E 121°39'65984790.6
2017-Oct-21 01:27N 23°04' E 113°33'658338278.3
2017-Oct-21 01:27N 31°25' E 121°33'66242567.9
2017-Oct-21 01:26N 22°57' E 113°36'113156.0
2017-Oct-21 01:26N 23°05' E 113°28'66282178.4
2017-Oct-21 01:26N 31°24' E 121°37'1147.7
2017-Oct-21 01:25N 31°25' E 121°38'72925724.0
2017-Oct-21 01:23N 21°53' E 113°12'73416.8
2017-Oct-21 01:13N 23°05' E 113°26'2681296.9
2017-Oct-21 01:00N 24°12' E 118°10'465209447.6
2017-Oct-21 01:00N 31°17' E 121°44'317846.6
2017-Oct-21 01:00N 31°38' E 121°18'67787080.3
2017-Oct-21 01:00N 22°54' E 113°14'676105883.4
2017-Oct-21 00:59N 31°25' E 121°33'66864.7
2017-Oct-21 00:59N 31°22' E 121°39'75064.0
2017-Oct-21 00:59N 31°17' E 121°45'102681.3
2017-Oct-21 00:59N 31°25' E 121°38'664239003.2
2017-Oct-21 00:59N 22°57' E 113°37'8674.6
2017-Oct-21 00:58N 23°02' E 113°31'662397176.0
2017-Oct-21 00:58N 31°24' E 121°37'726186687.7
2017-Oct-21 00:58N 21°54' E 113°14'724651365.4
2017-Oct-21 00:58N 31°30' E 121°24'0285.3
2017-Oct-21 00:58N 31°29' E 121°25'6619152.7
2017-Oct-21 00:53N 22°57' E 113°36'12470.2
2017-Oct-21 00:52N 23°05' E 113°26'6604877.2
2017-Oct-21 00:44N 31°24' E 121°31'658147947.4
2017-Oct-21 00:43N 23°04' E 113°32'9627114.3
2017-Oct-21 00:35N 37°42' E 121°09'3804787.1
2017-Oct-21 00:30N 31°22' E 121°39'78177.4
2017-Oct-21 00:30N 31°17' E 121°45'662595908.5
2017-Oct-21 00:30N 22°57' E 113°37'662476528.1
2017-Oct-21 00:30N 31°19' E 121°41'46398037.4
2017-Oct-21 00:30N 24°16' E 118°10'465418053.6
2017-Oct-21 00:30N 31°25' E 121°30'661339849.3
2017-Oct-21 00:30N 22°60' E 113°31'665598447.2
2017-Oct-21 00:30N 31°25' E 121°38'37890725.2
2017-Oct-21 00:29N 37°42' E 121°09'96882981.8
2017-Oct-21 00:29N 22°57' E 113°36'66130904.8
2017-Oct-21 00:27N 31°29' E 121°25'12716.7
2017-Oct-21 00:26N 31°24' E 121°37'132263.9
2017-Oct-21 00:26N 31°30' E 121°24'72431774.1
2017-Oct-21 00:25N 21°54' E 113°14'726130716.5
2017-Oct-21 00:24N 31°38' E 121°18'68014738.2
2017-Oct-21 00:22N 22°54' E 113°11'67915766.8
2017-Oct-21 00:19N 31°25' E 121°33'6615934.5
2017-Oct-21 00:12N 23°05' E 113°26'6161.6
2017-Oct-21 00:10N 23°04' E 113°32'2641613.6
2017-Oct-21 00:00N 24°19' E 118°09'266106411.4
2017-Oct-21 00:00N 22°58' E 113°32'663265276.4
2017-Oct-21 00:00N 31°25' E 121°33'58697.0
2017-Oct-21 00:00N 31°21' E 121°37'33003.8
2017-Oct-21 00:00N 31°20' E 121°41'176182.2
2017-Oct-21 00:00N 31°30' E 121°24'133244.9
2017-Oct-21 00:00N 31°24' E 121°37'384115325.9
2017-Oct-20 23:59N 37°47' E 121°09'37871631.8
2017-Oct-20 23:59N 31°29' E 121°25'141241.8
2017-Oct-20 23:58N 31°22' E 121°39'663149105.7
2017-Oct-20 23:58N 22°57' E 113°37'679239.1
2017-Oct-20 23:58N 21°54' E 113°14'72744375.1
2017-Oct-20 23:57N 31°25' E 121°38'66227381.7
2017-Oct-20 23:55N 23°04' E 113°32'66032537.4
2017-Oct-20 23:54N 31°38' E 121°18'66329851.3
2017-Oct-20 23:53N 22°57' E 113°36'1296.7
2017-Oct-20 23:45N 23°05' E 113°26'6632684.1
2017-Oct-20 23:30N 31°22' E 121°39'21572.2
2017-Oct-20 23:30N 31°22' E 121°37'36086.2
2017-Oct-20 23:30N 31°23' E 121°33'101863.8
2017-Oct-20 23:30N 31°30' E 121°24'135026.4
2017-Oct-20 23:30N 31°25' E 121°38'66796063.3
2017-Oct-20 23:29N 22°56' E 113°33'666299642.4
2017-Oct-20 23:29N 31°24' E 121°37'62191.3
2017-Oct-20 23:29N 31°21' E 121°31'2035822.6
2017-Oct-20 23:29N 31°38' E 121°18'66056561.8
2017-Oct-20 23:28N 23°04' E 113°32'6592372008.8
2017-Oct-20 23:28N 31°25' E 121°33'66184986.8
2017-Oct-20 23:28N 22°57' E 113°37'142.0
2017-Oct-20 23:26N 22°57' E 113°36'663955.3
2017-Oct-20 23:25N 21°54' E 113°14'721125.7
2017-Oct-20 23:21N 23°05' E 113°26'65998898.4
2017-Oct-20 23:20N 31°30' E 121°23'38341786.1
2017-Oct-20 23:20N 37°53' E 121°08'38313403.6
2017-Oct-20 23:18N 31°29' E 121°25'930.2
2017-Oct-20 23:00N 31°23' E 121°32'6642390198.6
2017-Oct-20 23:00N 22°54' E 113°34'6641195550.7
2017-Oct-20 23:00N 31°30' E 121°24'66040967.6
2017-Oct-20 22:59N 22°57' E 113°37'663198808.9
2017-Oct-20 22:59N 31°22' E 121°39'8882.2
2017-Oct-20 22:59N 31°22' E 121°30'72031.2
2017-Oct-20 22:58N 31°25' E 121°38'41245.3
2017-Oct-20 22:58N 31°25' E 121°33'38869849.2
2017-Oct-20 22:58N 37°52' E 121°07'389280258.7
2017-Oct-20 22:58N 31°24' E 121°37'726373395.0
2017-Oct-20 22:58N 21°54' E 113°14'72072048.8
2017-Oct-20 22:57N 31°21' E 121°31'65828210.1
2017-Oct-20 22:56N 22°57' E 113°36'6611189844.7
2017-Oct-20 22:56N 31°29' E 121°25'10995.5
2017-Oct-20 22:55N 31°38' E 121°18'66014056.9
2017-Oct-20 22:52N 23°04' E 113°32'65716663.2
2017-Oct-20 22:50N 31°32' E 121°21'6597463.6
2017-Oct-20 22:45N 23°05' E 113°26'753.4
2017-Oct-20 22:37N 23°05' E 113°34'13126.5
2017-Oct-20 22:30N 22°52' E 113°34'663140294.9
2017-Oct-20 22:30N 31°21' E 121°30'1914039.7
2017-Oct-20 22:30N 31°38' E 121°18'243312.9
2017-Oct-20 22:30N 31°22' E 121°39'663265120.7
2017-Oct-20 22:29N 23°05' E 113°26'65757688.2
2017-Oct-20 22:29N 31°21' E 121°30'76635.4
2017-Oct-20 22:29N 31°25' E 121°38'725651.6
2017-Oct-20 22:29N 31°21' E 121°31'658592407.7
2017-Oct-20 22:29N 22°57' E 113°36'6642389800.4
2017-Oct-20 22:29N 31°24' E 121°37'661113244.7
2017-Oct-20 22:28N 23°04' E 113°32'656181529.2
2017-Oct-20 22:28N 31°20' E 121°34'653261204.3
2017-Oct-20 22:28N 23°05' E 113°34'932062.1
2017-Oct-20 22:28N 22°57' E 113°37'660182734.2
2017-Oct-20 22:28N 31°29' E 121°25'9525.6
2017-Oct-20 22:27N 31°25' E 121°33'916219.9
2017-Oct-20 22:27N 31°30' E 121°24'38398579.3
2017-Oct-20 22:26N 37°53' E 121°07'1152.3
2017-Oct-20 22:13N 37°42' E 121°09'103484561.6
2017-Oct-20 22:13N 21°54' E 113°14'60295.7
2017-Oct-20 22:00N 22°51' E 113°35'663596980.6
2017-Oct-20 22:00N 31°21' E 121°30'391703899.7
2017-Oct-20 22:00N 37°52' E 121°07'9751755645.6
2017-Oct-20 22:00N 22°57' E 113°37'9693487151.2
2017-Oct-20 22:00N 37°43' E 121°11'3821376376.7
2017-Oct-20 22:00N 31°21' E 121°31'101698.5
2017-Oct-20 22:00N 31°29' E 121°25'124039.5
2017-Oct-20 22:00N 31°24' E 121°37'2254.3
2017-Oct-20 21:59N 31°22' E 121°39'663298260.7
2017-Oct-20 21:59N 23°05' E 113°26'657337893.8
2017-Oct-20 21:59N 31°19' E 121°34'65894766.9
2017-Oct-20 21:59N 22°57' E 113°36'663159207.0
2017-Oct-20 21:58N 31°38' E 121°18'181052.5
2017-Oct-20 21:57N 31°25' E 121°33'4339.6
2017-Oct-20 21:57N 31°25' E 121°38'66221659.6
2017-Oct-20 21:55N 23°04' E 113°32'6584913.1
2017-Oct-20 21:47N 31°30' E 121°24'72410766.4
2017-Oct-20 21:43N 21°54' E 113°14'59291.3
2017-Oct-20 21:30N 22°49' E 113°36'66923858.4
2017-Oct-20 21:29N 31°22' E 121°39'1553014.1
2017-Oct-20 21:29N 31°30' E 121°24'661198354.0
2017-Oct-20 21:29N 22°57' E 113°36'66379603.5
2017-Oct-20 21:28N 31°38' E 121°18'185525.7
2017-Oct-20 21:28N 31°25' E 121°33'42676.6
2017-Oct-20 21:28N 31°24' E 121°37'11532.4
2017-Oct-20 21:28N 31°25' E 121°38'6642390064.5
2017-Oct-20 21:28N 22°57' E 113°37'658592497.0
2017-Oct-20 21:28N 31°23' E 121°30'65613422.3
2017-Oct-20 21:25N 23°04' E 113°32'65546227.4
2017-Oct-20 21:24N 31°21' E 121°30'9850.3
2017-Oct-20 21:23N 31°29' E 121°25'66011699.1
2017-Oct-20 21:20N 23°05' E 113°26'97011678.9
2017-Oct-20 21:15N 37°47' E 121°14'9744010.4
2017-Oct-20 21:00N 22°57' E 113°37'664341437.8
2017-Oct-20 21:00N 31°25' E 121°38'52704.9
2017-Oct-20 21:00N 31°25' E 121°33'6681202379.5
2017-Oct-20 21:00N 22°48' E 113°37'66488559.1
2017-Oct-20 21:00N 31°21' E 121°30'9654.1
2017-Oct-20 20:59N 31°29' E 121°25'1222217.2
2017-Oct-20 20:59N 31°24' E 121°37'663340834.2
2017-Oct-20 20:59N 23°05' E 113°26'66336152.8
2017-Oct-20 20:57N 31°22' E 121°39'15495.4
2017-Oct-20 20:56N 31°30' E 121°24'9456.9
2017-Oct-20 20:55N 31°25' E 121°33'38219915.3
2017-Oct-20 20:53N 37°46' E 121°14'3699346.2
2017-Oct-20 20:51N 31°37' E 121°18'66327760.7
2017-Oct-20 20:50N 22°57' E 113°36'8570.9
2017-Oct-20 20:49N 23°04' E 113°32'321.4
2017-Oct-20 20:42N 23°05' E 113°34'6553478.7
2017-Oct-20 20:30N 31°29' E 121°25'8798.0
2017-Oct-20 20:30N 31°25' E 121°33'656236313.2
2017-Oct-20 20:30N 23°05' E 113°34'192257.2
2017-Oct-20 20:29N 22°47' E 113°38'671172613.5
2017-Oct-20 20:29N 31°25' E 121°38'1282.4
2017-Oct-20 20:29N 31°24' E 121°37'6641194978.7
2017-Oct-20 20:29N 22°57' E 113°36'123692.4
2017-Oct-20 20:28N 23°05' E 113°26'6544.3
2017-Oct-20 20:28N 23°04' E 113°32'659263556.5
2017-Oct-20 20:28N 31°25' E 121°33'4535.0
2017-Oct-20 20:27N 31°21' E 121°30'82510.8
2017-Oct-20 20:27N 31°22' E 121°39'15869.1
2017-Oct-20 20:26N 31°30' E 121°24'72434282.4
2017-Oct-20 20:25N 21°54' E 113°14'7265045.6
2017-Oct-20 20:16N 31°37' E 121°18'2282.1
2017-Oct-20 20:00N 31°23' E 121°37'670160862.1
2017-Oct-20 20:00N 22°46' E 113°39'11701.4
2017-Oct-20 19:59N 22°57' E 113°37'1287.1
2017-Oct-20 19:59N 22°57' E 113°36'66169990.4
2017-Oct-20 19:58N 31°29' E 121°25'83789.2
2017-Oct-20 19:58N 31°25' E 121°33'725289820.1
2017-Oct-20 19:58N 21°54' E 113°14'7261306745.7
2017-Oct-20 19:58N 31°22' E 121°39'3191.4
2017-Oct-20 19:57N 31°25' E 121°38'65971920.8
2017-Oct-20 19:56N 23°05' E 113°34'65565525.9
2017-Oct-20 19:56N 31°30' E 121°24'98106.8
2017-Oct-20 19:56N 31°25' E 121°33'4289.2
2017-Oct-20 19:55N 31°21' E 121°30'65714422.1
2017-Oct-20 19:52N 23°05' E 113°26'66241065.5
2017-Oct-20 19:51N 31°37' E 121°18'660197892.9
2017-Oct-20 19:51N 23°04' E 113°32'6591910.4
2017-Oct-20 19:30N 31°22' E 121°36'3533.7
2017-Oct-20 19:30N 31°25' E 121°38'123420.7
2017-Oct-20 19:30N 31°29' E 121°25'91575.6
2017-Oct-20 19:29N 31°25' E 121°33'093.4
2017-Oct-20 19:29N 31°25' E 121°33'910394.0
2017-Oct-20 19:29N 31°30' E 121°24'66199175.6
2017-Oct-20 19:29N 22°57' E 113°36'1323.3
2017-Oct-20 19:28N 22°57' E 113°37'13569.5
2017-Oct-20 19:27N 22°44' E 113°40'2012297.0
2017-Oct-20 19:27N 23°04' E 113°32'66125851.2
2017-Oct-20 19:25N 31°22' E 121°39'24554.2
2017-Oct-20 19:23N 31°37' E 121°18'66241785.9
2017-Oct-20 19:22N 23°05' E 113°26'7265008.2
2017-Oct-20 19:22N 21°54' E 113°14'72012713.6
2017-Oct-20 19:18N 31°21' E 121°30'6662201.0
2017-Oct-20 19:00N 22°43' E 113°41'673302698.7
2017-Oct-20 19:00N 31°25' E 121°38'122117.2
2017-Oct-20 19:00N 31°29' E 121°25'9684.8
2017-Oct-20 18:59N 31°25' E 121°33'32286.4
2017-Oct-20 18:59N 31°22' E 121°36'123975.5
2017-Oct-20 18:59N 31°30' E 121°24'661264453.0
2017-Oct-20 18:58N 22°57' E 113°36'664217263.8
2017-Oct-20 18:58N 31°22' E 121°39'72672596.5
2017-Oct-20 18:58N 21°54' E 113°14'7232504.1
2017-Oct-20 18:58N 23°05' E 113°26'662216503.6
2017-Oct-20 18:57N 31°37' E 121°17'66071953.2
2017-Oct-20 18:57N 23°04' E 113°32'65513707.0
2017-Oct-20 18:54N 31°21' E 121°30'4119.3
2017-Oct-20 18:52N 31°25' E 121°33'6591793.1
2017-Oct-20 18:30N 23°04' E 113°32'659263426.9
2017-Oct-20 18:30N 31°22' E 121°36'55503.3
2017-Oct-20 18:30N 31°21' E 121°30'191706.0
2017-Oct-20 18:29N 31°37' E 121°17'103263.0
2017-Oct-20 18:29N 31°29' E 121°24'661132200.0
2017-Oct-20 18:28N 22°57' E 113°36'66176775.4
2017-Oct-20 18:28N 31°30' E 121°24'932766.5
2017-Oct-20 18:28N 31°25' E 121°33'0441.9
2017-Oct-20 18:28N 31°25' E 121°33'6608.8
2017-Oct-20 18:27N 31°22' E 121°39'663340812.9
2017-Oct-20 18:27N 22°57' E 113°37'671622.9
2017-Oct-20 18:25N 21°54' E 113°14'7271309057.2
2017-Oct-20 18:25N 31°25' E 121°38'67496999.7
2017-Oct-20 18:24N 22°41' E 113°42'25106.7
2017-Oct-20 18:10N 23°05' E 113°34'6563996.7
2017-Oct-20 18:00N 31°22' E 121°35'659112912.0
2017-Oct-20 18:00N 23°04' E 113°32'87342.0
2017-Oct-20 18:00N 22°57' E 113°37'664108639.3
2017-Oct-20 17:59N 31°25' E 121°38'66540580.7
2017-Oct-20 17:58N 22°57' E 113°36'66155339.4
2017-Oct-20 17:58N 31°30' E 121°24'7241302395.8
2017-Oct-20 17:58N 21°54' E 113°14'724868476.6
2017-Oct-20 17:58N 31°30' E 121°24'101020.1
2017-Oct-20 17:57N 31°37' E 121°17'662793963.6
2017-Oct-20 17:57N 23°05' E 113°26'66339765.7
2017-Oct-20 17:56N 31°22' E 121°39'62968.5
2017-Oct-20 17:56N 31°25' E 121°33'0398.1
2017-Oct-20 17:56N 31°25' E 121°33'6569888.1
2017-Oct-20 17:52N 23°05' E 113°34'6526313.3
2017-Oct-20 17:46N 31°21' E 121°30'6652821.1
2017-Oct-20 17:31N 22°45' E 113°39'0 8.8
2017-Oct-20 17:30N 22°45' E 113°39'669126772.3
2017-Oct-20 17:30N 31°24' E 121°33'65951547.5
2017-Oct-20 17:29N 23°04' E 113°32'81728.6
2017-Oct-20 17:29N 22°57' E 113°37'1129.2
2017-Oct-20 17:28N 22°57' E 113°36'66276907.9
2017-Oct-20 17:28N 31°25' E 121°33'725217366.5
2017-Oct-20 17:28N 21°54' E 113°14'726113624.8
2017-Oct-20 17:27N 31°22' E 121°39'61222.3
2017-Oct-20 17:27N 31°25' E 121°33'2173.3
2017-Oct-20 17:26N 31°24' E 121°31'8608.2
2017-Oct-20 17:26N 31°30' E 121°24'103232.7
2017-Oct-20 17:25N 31°21' E 121°30'103444.4
2017-Oct-20 17:25N 31°30' E 121°24'66025813.8
2017-Oct-20 17:24N 23°05' E 113°26'6564187.4
2017-Oct-20 17:14N 31°17' E 121°34'891.5
2017-Oct-20 17:09N 31°25' E 121°38'430.9
2017-Oct-20 17:00N 31°25' E 121°33'2690.3
2017-Oct-20 17:00N 31°24' E 121°31'667300068.2
2017-Oct-20 17:00N 22°48' E 113°37'161253.6
2017-Oct-20 16:59N 23°04' E 113°32'655168506.1
2017-Oct-20 16:59N 31°19' E 121°34'71126.9
2017-Oct-20 16:59N 31°25' E 121°38'664239006.4
2017-Oct-20 16:59N 22°57' E 113°37'1322.9
2017-Oct-20 16:58N 22°57' E 113°36'666245.3
2017-Oct-20 16:58N 21°54' E 113°14'726108891.2
2017-Oct-20 16:57N 31°22' E 121°39'66349707.5
2017-Oct-20 16:56N 23°05' E 113°26'66150620.8
2017-Oct-20 16:56N 31°25' E 121°33'18440.9
2017-Oct-20 16:53N 31°37' E 121°17'102038.1
2017-Oct-20 16:53N 31°30' E 121°24'0 4.6
2017-Oct-20 16:49N 31°30' E 121°24'9179.7
2017-Oct-20 16:46N 31°25' E 121°33'6848345.7
2017-Oct-20 16:41N 22°45' E 113°14'6804924.8
2017-Oct-20 16:33N 31°21' E 121°30'65718334.9
2017-Oct-20 16:31N 22°57' E 113°37'661198270.6
2017-Oct-20 16:30N 31°25' E 121°33'42581.6
2017-Oct-20 16:30N 31°22' E 121°30'6571183136.1
2017-Oct-20 16:30N 23°05' E 113°26'1715100.5
2017-Oct-20 16:30N 22°50' E 113°35'668141362.6
2017-Oct-20 16:30N 31°25' E 121°33'4211.1
2017-Oct-20 16:29N 31°21' E 121°30'103444.4
2017-Oct-20 16:29N 31°30' E 121°24'153083.8
2017-Oct-20 16:28N 31°22' E 121°39'15585.8
2017-Oct-20 16:27N 31°30' E 121°24'658102960.6
2017-Oct-20 16:26N 23°04' E 113°32'65791020.8
2017-Oct-20 16:26N 31°24' E 121°31'26330.3
2017-Oct-20 16:26N 31°25' E 121°33'4222.4
2017-Oct-20 16:25N 31°25' E 121°38'68734348.0
2017-Oct-20 16:24N 22°45' E 113°13'241142.7
2017-Oct-20 16:22N 22°57' E 113°36'663132632.2
2017-Oct-20 16:22N 31°37' E 121°17'726137559.0
2017-Oct-20 16:22N 21°54' E 113°14'74232.8
2017-Oct-20 16:03N 23°05' E 113°34'65621482.5
2017-Oct-20 16:01N 31°39' E 121°15'233692.8
2017-Oct-20 16:00N 31°23' E 121°34'665299447.9
2017-Oct-20 16:00N 22°53' E 113°34'662595782.3
2017-Oct-20 16:00N 31°21' E 121°30'108611.1
2017-Oct-20 16:00N 31°30' E 121°24'1214754.8
2017-Oct-20 16:00N 31°39' E 121°15'211200.9
2017-Oct-20 15:59N 31°25' E 121°33'661476002.2
2017-Oct-20 15:59N 22°57' E 113°37'1323562.1
2017-Oct-20 15:59N 23°05' E 113°26'66449796.8
2017-Oct-20 15:58N 31°25' E 121°38'41458.0
2017-Oct-20 15:58N 31°25' E 121°33'1816415.5
2017-Oct-20 15:58N 31°37' E 121°17'182770.8
2017-Oct-20 15:58N 31°24' E 121°31'7404.4
2017-Oct-20 15:56N 31°22' E 121°39'15502.8
2017-Oct-20 15:55N 31°30' E 121°24'65821725.5
2017-Oct-20 15:53N 23°04' E 113°32'8777.1
2017-Oct-20 15:52N 22°57' E 113°36'2226142.7
2017-Oct-20 15:52N 22°47' E 113°14'68232735.1
2017-Oct-20 15:51N 31°25' E 121°33'65611198.6
2017-Oct-20 15:47N 23°05' E 113°34'742439.0
2017-Oct-20 15:46N 21°54' E 113°14'7252874.1
2017-Oct-20 15:31N 31°36' E 121°17'2384597.8
2017-Oct-20 15:31N 31°22' E 121°39'682306675.1
2017-Oct-20 15:30N 22°47' E 113°17'681612861.5
2017-Oct-20 15:30N 31°37' E 121°17'182842.2
2017-Oct-20 15:30N 31°25' E 121°33'66545169.5
2017-Oct-20 15:29N 22°54' E 113°35'103971.3
2017-Oct-20 15:29N 23°04' E 113°32'658236807.7
2017-Oct-20 15:29N 31°30' E 121°24'13878.6
2017-Oct-20 15:28N 31°25' E 121°38'126417.8
2017-Oct-20 15:28N 31°30' E 121°24'910260.2
2017-Oct-20 15:28N 31°25' E 121°33'6681.4
2017-Oct-20 15:27N 31°22' E 121°39'725882.0
2017-Oct-20 15:27N 31°24' E 121°31'2422.4
2017-Oct-20 15:27N 31°25' E 121°33'6619405.3
2017-Oct-20 15:23N 23°05' E 113°26'121927.1
2017-Oct-20 15:22N 22°57' E 113°36'666244.7
2017-Oct-20 15:22N 21°54' E 113°14'742987.1
2017-Oct-20 15:20N 23°05' E 113°34'65283876.6
2017-Oct-20 15:20N 31°21' E 121°30'319.6
2017-Oct-20 15:11N 31°20' E 121°33'6613896.2
2017-Oct-20 15:01N 22°54' E 113°35'664478028.0
2017-Oct-20 15:00N 31°33' E 121°20'162675.0
2017-Oct-20 15:00N 31°21' E 121°32'67450566.9
2017-Oct-20 14:59N 22°48' E 113°20'679188100.5
2017-Oct-20 14:59N 31°18' E 121°43'658338291.4
2017-Oct-20 14:59N 23°05' E 113°34'659131861.8
2017-Oct-20 14:59N 31°25' E 121°38'3627.1
2017-Oct-20 14:58N 31°22' E 121°39'73235.3
2017-Oct-20 14:58N 31°24' E 121°31'661792795.4
2017-Oct-20 14:58N 22°57' E 113°36'1430.6
2017-Oct-20 14:58N 22°57' E 113°37'661140000.6
2017-Oct-20 14:58N 31°25' E 121°33'012.3
2017-Oct-20 14:56N 31°25' E 121°33'659197663.7
2017-Oct-20 14:56N 23°04' E 113°32'6719.5
2017-Oct-20 14:55N 23°05' E 113°26'66291608.9
2017-Oct-20 14:55N 31°37' E 121°18'182703.1
2017-Oct-20 14:55N 31°25' E 121°33'9993.3
2017-Oct-20 14:54N 31°30' E 121°24'044.0
2017-Oct-20 14:54N 31°30' E 121°24'72423472.3
2017-Oct-20 14:52N 21°54' E 113°14'72099752.5
2017-Oct-20 14:51N 31°21' E 121°30'1234.7
2017-Oct-20 14:30N 31°32' E 121°23'661183100.8
2017-Oct-20 14:30N 22°56' E 113°37'660169761.3
2017-Oct-20 14:30N 31°24' E 121°31'62664.9
2017-Oct-20 14:30N 31°25' E 121°38'41603.8
2017-Oct-20 14:30N 31°25' E 121°33'661297406.0
2017-Oct-20 14:29N 22°57' E 113°37'66232648.5
2017-Oct-20 14:28N 31°37' E 121°18'187305.5
2017-Oct-20 14:28N 31°25' E 121°33'66295327.5
2017-Oct-20 14:28N 22°57' E 113°35'664132736.8
2017-Oct-20 14:27N 31°22' E 121°39'66126721.7
2017-Oct-20 14:26N 23°04' E 113°32'65818352.0
2017-Oct-20 14:24N 31°29' E 121°24'6605173.8
2017-Oct-20 14:16N 23°05' E 113°26'728.9
2017-Oct-20 14:01N 23°05' E 113°34'221423.8
2017-Oct-20 14:00N 22°44' E 113°26'678221780.9
2017-Oct-20 14:00N 31°23' E 121°36'3226.9
2017-Oct-20 13:59N 31°25' E 121°33'91076.5
2017-Oct-20 13:59N 31°30' E 121°24'72437760.3
2017-Oct-20 13:58N 21°54' E 113°14'725217622.0
2017-Oct-20 13:57N 31°17' E 121°45'6621473.7
2017-Oct-20 13:30N 22°57' E 113°37'1553724.1
2017-Oct-20 13:30N 22°44' E 113°29'676135128.9
2017-Oct-20 13:30N 31°29' E 121°27'197734.2
2017-Oct-20 13:30N 31°17' E 121°45'61021.2
2017-Oct-20 13:30N 31°21' E 121°40'74993.2
2017-Oct-20 13:30N 31°25' E 121°33'183820.6
2017-Oct-20 13:29N 31°37' E 121°18'660103250.6
2017-Oct-20 13:29N 23°04' E 113°32'659395384.8
2017-Oct-20 13:29N 31°25' E 121°33'41567.7
2017-Oct-20 13:29N 31°25' E 121°38'6582.5
2017-Oct-20 13:28N 31°24' E 121°31'655392917.0
2017-Oct-20 13:28N 23°05' E 113°34'7415641.3
2017-Oct-20 13:28N 21°54' E 113°14'72687111.2
2017-Oct-20 13:27N 31°22' E 121°39'151602.1
2017-Oct-20 13:27N 31°30' E 121°24'9312.0
2017-Oct-20 13:25N 31°25' E 121°33'661125248.7
2017-Oct-20 13:25N 23°05' E 113°26'66015523.0
2017-Oct-20 13:22N 31°29' E 121°25'411.0
2017-Oct-20 13:00N 31°27' E 121°29'51239.8
2017-Oct-20 13:00N 31°25' E 121°33'103857.5
2017-Oct-20 13:00N 31°19' E 121°42'289117.6
2017-Oct-20 13:00N 31°37' E 121°18'675242977.3
2017-Oct-20 13:00N 22°45' E 113°31'6722420532.2
2017-Oct-20 13:00N 31°24' E 121°31'65242.4
2017-Oct-20 13:00N 31°25' E 121°38'6661198975.3
2017-Oct-20 13:00N 22°55' E 113°36'66335115.2
2017-Oct-20 12:58N 31°25' E 121°33'659593077.3
2017-Oct-20 12:58N 23°04' E 113°32'660396222.1
2017-Oct-20 12:58N 31°17' E 121°45'662183414.4
2017-Oct-20 12:58N 22°57' E 113°37'660148506.5
2017-Oct-20 12:58N 31°30' E 121°24'0142.6
2017-Oct-20 12:58N 31°29' E 121°25'7241302428.4
2017-Oct-20 12:58N 21°54' E 113°14'72635317.0
2017-Oct-20 12:56N 31°22' E 121°39'6414.1
2017-Oct-20 12:56N 31°25' E 121°33'66132592.8
2017-Oct-20 12:54N 23°05' E 113°26'6601658.3
2017-Oct-20 12:30N 31°25' E 121°30'1626.4
2017-Oct-20 12:30N 31°26' E 121°30'92716.3
2017-Oct-20 12:30N 31°22' E 121°39'72373.2
2017-Oct-20 12:30N 31°17' E 121°44'67473494.8
2017-Oct-20 12:29N 22°44' E 113°34'67234057.2
2017-Oct-20 12:28N 31°29' E 121°25'6601187763.7
2017-Oct-20 12:28N 22°57' E 113°37'66285156.1
2017-Oct-20 12:28N 31°17' E 121°45'7251305667.0
2017-Oct-20 12:28N 21°54' E 113°14'7242605461.5
2017-Oct-20 12:28N 31°30' E 121°24'102283.5
2017-Oct-20 12:27N 31°37' E 121°18'183591.4
2017-Oct-20 12:27N 31°25' E 121°33'661595004.0
2017-Oct-20 12:27N 23°05' E 113°26'145414.6
2017-Oct-20 12:27N 22°54' E 113°35'664159369.9
2017-Oct-20 12:27N 31°25' E 121°33'4281.4
2017-Oct-20 12:26N 31°25' E 121°38'41494.3
2017-Oct-20 12:26N 31°25' E 121°33'65910781.9
2017-Oct-20 12:22N 23°04' E 113°32'6581823.9
2017-Oct-20 12:00N 31°28' E 121°27'51456.1
2017-Oct-20 12:00N 31°25' E 121°32'83011.3
2017-Oct-20 12:00N 31°29' E 121°25'660791668.4
2017-Oct-20 12:00N 23°05' E 113°26'6601187780.7
2017-Oct-20 12:00N 31°30' E 121°24'6632387475.4
2017-Oct-20 12:00N 22°54' E 113°35'664341506.9
2017-Oct-20 12:00N 31°25' E 121°33'4943.5
2017-Oct-20 11:59N 31°25' E 121°38'213499.5
2017-Oct-20 11:59N 31°37' E 121°18'181220.9
2017-Oct-20 11:58N 31°25' E 121°33'123674.1
2017-Oct-20 11:58N 31°17' E 121°45'660792227.7
2017-Oct-20 11:58N 23°04' E 113°32'2014404.6
2017-Oct-20 11:58N 22°44' E 113°37'6732421109.8
2017-Oct-20 11:58N 31°22' E 121°39'726326686.4
2017-Oct-20 11:58N 21°54' E 113°14'725100436.6
2017-Oct-20 11:57N 31°17' E 121°45'13570.3
2017-Oct-20 11:56N 31°25' E 121°33'66112525.9
2017-Oct-20 11:53N 22°57' E 113°37'3 8.2
2017-Oct-20 11:30N 22°54' E 113°35'101910.2
2017-Oct-20 11:30N 23°04' E 113°32'661264256.3
2017-Oct-20 11:30N 31°22' E 121°39'3914.7
2017-Oct-20 11:30N 31°20' E 121°41'6696.7
2017-Oct-20 11:29N 31°25' E 121°38'66442679.4
2017-Oct-20 11:28N 22°57' E 113°37'661793060.8
2017-Oct-20 11:28N 31°25' E 121°33'185404.1
2017-Oct-20 11:28N 31°37' E 121°18'183139.4
2017-Oct-20 11:28N 31°25' E 121°33'93942.1
2017-Oct-20 11:27N 31°29' E 121°25'222097.4
2017-Oct-20 11:27N 31°17' E 121°45'658157884.2
2017-Oct-20 11:27N 23°05' E 113°34'655785562.8
2017-Oct-20 11:27N 31°29' E 121°24'164.5
2017-Oct-20 11:26N 31°30' E 121°24'91357.8
2017-Oct-20 11:26N 31°25' E 121°33'72549214.7
2017-Oct-20 11:25N 21°54' E 113°14'723877.4
2017-Oct-20 11:24N 23°05' E 113°26'614.7
2017-Oct-20 11:00N 23°02' E 113°31'6632388474.1
2017-Oct-20 11:00N 31°25' E 121°38'3379.1
2017-Oct-20 11:00N 31°22' E 121°37'132932.7
2017-Oct-20 11:00N 31°30' E 121°24'91007.4
2017-Oct-20 10:59N 31°25' E 121°33'83790.7
2017-Oct-20 10:59N 31°29' E 121°25'221521.7
2017-Oct-20 10:58N 31°17' E 121°45'66274512.1
2017-Oct-20 10:58N 22°57' E 113°37'67240215.6
2017-Oct-20 10:58N 21°54' E 113°14'72645059.6
2017-Oct-20 10:57N 31°22' E 121°39'63657.7
2017-Oct-20 10:57N 31°25' E 121°33'117792.4
2017-Oct-20 10:57N 31°31' E 121°22'11461.1
2017-Oct-20 10:55N 31°25' E 121°33'66244975.4
2017-Oct-20 10:54N 22°57' E 113°36'12812.3
2017-Oct-20 10:53N 23°05' E 113°26'6631721.6
2017-Oct-20 10:30N 31°22' E 121°39'71734.8
2017-Oct-20 10:30N 31°17' E 121°45'108909.4
2017-Oct-20 10:30N 31°25' E 121°38'51652.1
2017-Oct-20 10:30N 31°24' E 121°32'14286.9
2017-Oct-20 10:30N 31°25' E 121°33'017.4
2017-Oct-20 10:29N 31°25' E 121°33'92402.3
2017-Oct-20 10:29N 31°30' E 121°24'66081934.6
2017-Oct-20 10:28N 22°57' E 113°37'61507.6
2017-Oct-20 10:28N 23°01' E 113°32'6913076.3
2017-Oct-20 10:28N 21°54' E 113°14'724372572.8
2017-Oct-20 10:28N 31°25' E 121°33'662108349.9
2017-Oct-20 10:27N 22°57' E 113°36'66172108.2
2017-Oct-20 10:27N 31°29' E 121°25'668141518.9
2017-Oct-20 10:26N 22°45' E 113°39'244028.8
2017-Oct-20 10:26N 23°05' E 113°26'58221.7
2017-Oct-20 10:10N 22°10' E 113°06'71722452.9
2017-Oct-20 10:08N 31°37' E 121°18'31231.9
2017-Oct-20 10:00N 31°17' E 121°45'663198969.2
2017-Oct-20 10:00N 22°57' E 113°36'66239082.1
2017-Oct-20 09:59N 31°25' E 121°33'6952.0
2017-Oct-20 09:59N 31°22' E 121°39'6902.6
2017-Oct-20 09:58N 31°25' E 121°33'661125257.5
2017-Oct-20 09:58N 23°01' E 113°32'148147.4
2017-Oct-20 09:58N 22°48' E 113°37'92907.1
2017-Oct-20 09:58N 22°57' E 113°37'67240215.6
2017-Oct-20 09:58N 21°54' E 113°14'724868492.7
2017-Oct-20 09:58N 31°30' E 121°24'018.1
2017-Oct-20 09:57N 31°29' E 121°25'66052777.9
2017-Oct-20 09:56N 23°05' E 113°26'6621565.7
2017-Oct-20 09:30N 31°20' E 121°41'91348.0
2017-Oct-20 09:30N 31°25' E 121°33'667600673.4
2017-Oct-20 09:30N 22°51' E 113°34'6680.0
2017-Oct-20 09:29N 22°57' E 113°36'1256.7
2017-Oct-20 09:29N 22°57' E 113°37'66074253.2
2017-Oct-20 09:29N 31°30' E 121°24'91046.8
2017-Oct-20 09:28N 31°25' E 121°33'91433.5
2017-Oct-20 09:28N 31°29' E 121°25'724651214.2
2017-Oct-20 09:28N 21°54' E 113°14'6916564.7
2017-Oct-20 09:27N 23°01' E 113°32'66335088.5
2017-Oct-20 09:26N 31°22' E 121°39'31678.9
2017-Oct-20 09:26N 31°25' E 121°38'4458.3
2017-Oct-20 09:26N 31°25' E 121°33'66112588.7
2017-Oct-20 09:22N 23°05' E 113°26'6631805.0
2017-Oct-20 09:00N 31°22' E 121°39'669481965.5
2017-Oct-20 09:00N 22°53' E 113°31'66896151.8
2017-Oct-20 09:00N 31°22' E 121°37'414574.5
2017-Oct-20 09:00N 31°25' E 121°33'0653.9
2017-Oct-20 09:00N 31°25' E 121°33'66244148.4
2017-Oct-20 08:59N 22°57' E 113°36'66169987.3
2017-Oct-20 08:58N 31°29' E 121°25'660395834.2
2017-Oct-20 08:58N 23°05' E 113°26'726835.9
2017-Oct-20 08:58N 21°54' E 113°14'724868487.2
2017-Oct-20 08:58N 31°30' E 121°24'931313.2
2017-Oct-20 08:58N 31°25' E 121°33'4154.2
2017-Oct-20 08:56N 31°25' E 121°38'3843009.8
2017-Oct-20 08:48N 37°47' E 121°05'9763276.0
2017-Oct-20 08:30N 22°55' E 113°27'6692407523.2
2017-Oct-20 08:30N 31°25' E 121°33'661169972.4
2017-Oct-20 08:30N 22°57' E 113°37'660339358.7
2017-Oct-20 08:30N 31°29' E 121°25'669120500.9
2017-Oct-20 08:30N 22°42' E 113°41'669803091.5
2017-Oct-20 08:30N 31°24' E 121°32'38226997.4
2017-Oct-20 08:29N 37°45' E 121°07'38126400.2
2017-Oct-20 08:28N 31°25' E 121°33'62177.0
2017-Oct-20 08:28N 31°22' E 121°39'33357.9
2017-Oct-20 08:28N 31°25' E 121°38'66453119.7
2017-Oct-20 08:27N 23°01' E 113°32'66052800.5
2017-Oct-20 08:26N 31°30' E 121°24'104291.4
2017-Oct-20 08:26N 31°37' E 121°18'663596779.2
2017-Oct-20 08:26N 22°57' E 113°36'66236676.8
2017-Oct-20 08:25N 31°25' E 121°33'725217363.6
2017-Oct-20 08:25N 21°54' E 113°14'721613.3
2017-Oct-20 08:22N 23°05' E 113°26'9656642.7
2017-Oct-20 08:13N 37°44' E 121°08'9625860.3
2017-Oct-20 08:03N 23°05' E 113°34'19396.3
2017-Oct-20 08:00N 22°46' E 113°38'165747.8
2017-Oct-20 08:00N 22°54' E 113°23'97494815.4
2017-Oct-20 08:00N 37°42' E 121°09'965165495.6
2017-Oct-20 07:59N 23°01' E 113°32'661108174.4
2017-Oct-20 07:59N 31°25' E 121°33'662794565.7
2017-Oct-20 07:59N 22°57' E 113°36'1244.4
2017-Oct-20 07:59N 22°57' E 113°37'66446863.7
2017-Oct-20 07:58N 31°25' E 121°38'727523622.9
2017-Oct-20 07:58N 21°54' E 113°14'726108892.6
2017-Oct-20 07:57N 31°37' E 121°18'182318.1
2017-Oct-20 07:57N 31°25' E 121°33'0382.2
2017-Oct-20 07:57N 31°25' E 121°33'6724.7
2017-Oct-20 07:56N 31°22' E 121°39'152032.5
2017-Oct-20 07:56N 31°30' E 121°24'66035992.9
2017-Oct-20 07:55N 23°05' E 113°26'7978.9
2017-Oct-20 07:54N 23°05' E 113°34'734.1
2017-Oct-20 07:42N 22°59' E 113°37'65819745.3
2017-Oct-20 07:40N 31°29' E 121°25'1499.0
2017-Oct-20 07:31N 31°39' E 121°13'66744486.4
2017-Oct-20 07:30N 22°50' E 113°35'11601.3
2017-Oct-20 07:29N 23°01' E 113°32'661148739.7
2017-Oct-20 07:29N 31°25' E 121°33'661793204.6
2017-Oct-20 07:29N 22°57' E 113°37'1854.7
2017-Oct-20 07:29N 22°57' E 113°36'661183086.6
2017-Oct-20 07:29N 31°30' E 121°24'93914.1
2017-Oct-20 07:29N 31°25' E 121°33'4364.5
2017-Oct-20 07:28N 31°25' E 121°38'727218176.2
2017-Oct-20 07:28N 21°54' E 113°14'6010731.2
2017-Oct-20 07:27N 22°53' E 113°19'676243304.8
2017-Oct-20 07:27N 31°22' E 121°39'247807.4
2017-Oct-20 07:27N 31°37' E 121°18'65712996.8
2017-Oct-20 07:24N 23°05' E 113°34'655131018.7
2017-Oct-20 07:24N 31°29' E 121°25'187882.4
2017-Oct-20 07:24N 31°16' E 121°12'6427630.2
2017-Oct-20 07:18N 23°05' E 113°26'661103478.2
2017-Oct-20 07:18N 31°25' E 121°33'6595149.4
2017-Oct-20 07:10N 22°59' E 113°37'527.4
2017-Oct-20 07:00N 22°55' E 113°36'665341821.0
2017-Oct-20 07:00N 31°22' E 121°38'6451.4
2017-Oct-20 07:00N 31°25' E 121°33'211157.2
2017-Oct-20 06:59N 31°17' E 121°11'255939.3
2017-Oct-20 06:58N 31°25' E 121°38'4603.0
2017-Oct-20 06:58N 31°25' E 121°33'725652095.0
2017-Oct-20 06:58N 21°54' E 113°14'726100510.0
2017-Oct-20 06:57N 31°37' E 121°17'66327436.0
2017-Oct-20 06:56N 22°57' E 113°36'662595897.5
2017-Oct-20 06:56N 31°25' E 121°33'67620098.7
2017-Oct-20 06:54N 22°54' E 113°16'205117.0
2017-Oct-20 06:54N 23°05' E 113°34'5252.0
2017-Oct-20 06:52N 23°01' E 113°32'51474.5
2017-Oct-20 06:52N 22°59' E 113°37'658139400.7
2017-Oct-20 06:52N 31°30' E 121°24'66051638.6
2017-Oct-20 06:51N 23°05' E 113°26'1234.9
2017-Oct-20 06:30N 22°57' E 113°36'6621190921.5
2017-Oct-20 06:30N 31°23' E 121°34'111673.8
2017-Oct-20 06:30N 31°29' E 121°24'1017891.2
2017-Oct-20 06:30N 31°37' E 121°17'662595778.6
2017-Oct-20 06:30N 22°57' E 113°37'224075.6
2017-Oct-20 06:30N 22°35' E 113°36'67846965.9
2017-Oct-20 06:29N 31°25' E 121°33'097.9
2017-Oct-20 06:29N 31°25' E 121°33'4373.3
2017-Oct-20 06:28N 31°25' E 121°38'727145451.7
2017-Oct-20 06:28N 21°54' E 113°14'705507399.6
2017-Oct-20 06:28N 31°17' E 121°08'64164076.0
2017-Oct-20 06:27N 23°05' E 113°26'66031255.4
2017-Oct-20 06:26N 31°30' E 121°24'660131999.7
2017-Oct-20 06:25N 23°01' E 113°32'538.4
2017-Oct-20 06:17N 22°57' E 113°36'328.2
2017-Oct-20 06:11N 22°59' E 113°37'6583657.3
2017-Oct-20 06:00N 31°30' E 121°24'212838.8
2017-Oct-20 06:00N 31°17' E 121°06'2544856.1
2017-Oct-20 06:00N 31°23' E 121°34'66188181.0
2017-Oct-20 05:59N 22°57' E 113°36'662340524.8
2017-Oct-20 05:59N 31°25' E 121°33'66169998.4
2017-Oct-20 05:58N 22°57' E 113°37'675111.0
2017-Oct-20 05:58N 21°54' E 113°14'72753430.9
2017-Oct-20 05:57N 31°25' E 121°38'664298794.1
2017-Oct-20 05:57N 23°05' E 113°26'7306.0
2017-Oct-20 05:55N 23°01' E 113°32'5380.2
2017-Oct-20 05:55N 22°59' E 113°37'66066028.7
2017-Oct-20 05:54N 31°37' E 121°17'66323176.6
2017-Oct-20 05:52N 22°57' E 113°36'662183329.3
2017-Oct-20 05:52N 31°25' E 121°33'9103.8
2017-Oct-20 05:47N 31°30' E 121°24'1459.4
2017-Oct-20 05:33N 31°39' E 121°13'66115444.8
2017-Oct-20 05:30N 22°57' E 113°37'1521.8
2017-Oct-20 05:30N 22°57' E 113°36'39794.0
2017-Oct-20 05:30N 22°59' E 113°37'659296371.4
2017-Oct-20 05:30N 31°23' E 121°34'11456.7
2017-Oct-20 05:29N 31°30' E 121°24'660118802.1
2017-Oct-20 05:28N 23°01' E 113°32'66188157.2
2017-Oct-20 05:28N 31°25' E 121°33'725163024.8
2017-Oct-20 05:28N 21°54' E 113°14'72421527.6
2017-Oct-20 05:26N 31°30' E 121°24'66179318.5
2017-Oct-20 05:25N 22°57' E 113°36'66579805.4
2017-Oct-20 05:25N 31°25' E 121°38'490.6
2017-Oct-20 05:22N 31°25' E 121°33'12227.8
2017-Oct-20 05:19N 31°32' E 121°22'66032116.9
2017-Oct-20 05:17N 23°05' E 113°26'6604624.5
2017-Oct-20 05:09N 31°39' E 121°13'6634812.9
2017-Oct-20 05:00N 22°55' E 113°36'2300.2
2017-Oct-20 05:00N 22°57' E 113°37'638135061.1
2017-Oct-20 05:00N 31°17' E 121°02'2327463.7
2017-Oct-20 05:00N 31°30' E 121°24'125615.6
2017-Oct-20 05:00N 31°25' E 121°38'41213.7
2017-Oct-20 04:59N 31°23' E 121°34'72428629.9
2017-Oct-20 04:58N 21°54' E 113°14'662357.4
2017-Oct-20 04:56N 22°57' E 113°36'662158905.8
2017-Oct-20 04:56N 31°25' E 121°33'91978.5
2017-Oct-20 04:56N 31°30' E 121°24'660158403.8
2017-Oct-20 04:55N 23°01' E 113°32'66151728.6
2017-Oct-20 04:55N 31°25' E 121°33'6618747.4
2017-Oct-20 04:50N 23°05' E 113°26'12135.8
2017-Oct-20 04:45N 22°59' E 113°37'6604527.8
2017-Oct-20 04:36N 31°37' E 121°17'6687174.4
2017-Oct-20 04:30N 22°52' E 113°34'66875107.8
2017-Oct-20 04:30N 31°37' E 121°17'186550.6
2017-Oct-20 04:30N 31°25' E 121°33'1417097.9
2017-Oct-20 04:30N 31°11' E 121°28'646465462.7
2017-Oct-20 04:30N 22°59' E 113°37'3310.8
2017-Oct-20 04:29N 22°57' E 113°36'1133.2
2017-Oct-20 04:28N 22°57' E 113°37'62744.7
2017-Oct-20 04:28N 23°01' E 113°32'661594520.9
2017-Oct-20 04:28N 31°23' E 121°34'4423.9
2017-Oct-20 04:28N 31°25' E 121°38'727523622.9
2017-Oct-20 04:28N 21°54' E 113°14'72424834.9
2017-Oct-20 04:26N 31°25' E 121°33'661475860.7
2017-Oct-20 04:26N 23°05' E 113°26'66067872.5
2017-Oct-20 04:25N 31°30' E 121°24'011.4
2017-Oct-20 04:24N 31°30' E 121°24'1026.1
2017-Oct-20 04:00N 31°24' E 121°34'661264548.7
2017-Oct-20 04:00N 22°57' E 113°37'660125057.4
2017-Oct-20 04:00N 31°30' E 121°24'66158041.5
2017-Oct-20 03:59N 22°57' E 113°36'83803.7
2017-Oct-20 03:59N 22°48' E 113°37'592633.7
2017-Oct-20 03:58N 21°54' E 113°14'72421527.6
2017-Oct-20 03:56N 31°30' E 121°24'660118783.7
2017-Oct-20 03:55N 23°01' E 113°32'66164316.8
2017-Oct-20 03:55N 31°25' E 121°33'028.7
2017-Oct-20 03:54N 31°25' E 121°33'4505.8
2017-Oct-20 03:54N 31°25' E 121°38'137830.5
2017-Oct-20 03:54N 31°14' E 121°30'252348.5
2017-Oct-20 03:53N 31°36' E 121°18'149.4
2017-Oct-20 03:51N 31°37' E 121°17'27253.3
2017-Oct-20 03:45N 31°12' E 121°30'282661.4
2017-Oct-20 03:44N 31°38' E 121°16'6613997.9
2017-Oct-20 03:34N 23°05' E 113°26'6619486.0
2017-Oct-20 03:30N 31°24' E 121°34'166524.8
2017-Oct-20 03:30N 31°34' E 121°19'156654.4
2017-Oct-20 03:30N 31°25' E 121°33'41120.0
2017-Oct-20 03:30N 31°25' E 121°38'66572560.4
2017-Oct-20 03:29N 22°57' E 113°35'654112031.2
2017-Oct-20 03:29N 31°15' E 121°30'652391369.6
2017-Oct-20 03:29N 22°57' E 113°37'61098.5
2017-Oct-20 03:28N 23°01' E 113°32'66164316.8
2017-Oct-20 03:28N 31°25' E 121°33'7241303847.2
2017-Oct-20 03:28N 21°54' E 113°14'725652407.4
2017-Oct-20 03:28N 31°36' E 121°17'2438.1
2017-Oct-20 03:27N 31°35' E 121°19'74247.0
2017-Oct-20 03:27N 31°30' E 121°24'0 4.1
2017-Oct-20 03:23N 31°30' E 121°24'545.1
2017-Oct-20 03:16N 31°33' E 121°20'6687134.9
2017-Oct-20 03:10N 22°47' E 113°38'6697850.0
2017-Oct-20 03:05N 31°37' E 121°17'342.6
2017-Oct-20 03:00N 31°34' E 121°19'31946.5
2017-Oct-20 03:00N 31°37' E 121°17'662216648.4
2017-Oct-20 03:00N 22°57' E 113°37'660339664.7
2017-Oct-20 03:00N 31°32' E 121°22'1221156.5
2017-Oct-20 03:00N 31°25' E 121°33'122662.8
2017-Oct-20 03:00N 31°32' E 121°22'131849.5
2017-Oct-20 02:59N 31°24' E 121°34'663216842.5
2017-Oct-20 02:59N 22°57' E 113°35'662103638.8
2017-Oct-20 02:59N 31°25' E 121°33'4364.5
2017-Oct-20 02:58N 31°25' E 121°38'727145450.8
2017-Oct-20 02:58N 21°54' E 113°14'6913082.9
2017-Oct-20 02:57N 23°01' E 113°32'66091381.6
2017-Oct-20 02:57N 31°30' E 121°24'019.0
2017-Oct-20 02:56N 31°30' E 121°24'9110.6
2017-Oct-20 02:51N 31°22' E 121°30'12287.0
2017-Oct-20 02:49N 31°32' E 121°22'65917830.7
2017-Oct-20 02:46N 22°59' E 113°37'36138.0
2017-Oct-20 02:31N 22°50' E 112°59'688309475.1
2017-Oct-20 02:31N 31°33' E 121°21'143613.3
2017-Oct-20 02:30N 31°24' E 121°34'104114.2
2017-Oct-20 02:30N 31°30' E 121°25'083.5
2017-Oct-20 02:30N 31°31' E 121°25'664398149.7
2017-Oct-20 02:30N 22°55' E 113°36'348735.0
2017-Oct-20 02:30N 22°50' E 112°59'688309673.0
2017-Oct-20 02:30N 31°31' E 121°24'197.5
2017-Oct-20 02:29N 31°30' E 121°24'6601187757.6
2017-Oct-20 02:29N 22°57' E 113°37'66060923.7
2017-Oct-20 02:28N 31°30' E 121°24'724162836.2
2017-Oct-20 02:28N 21°54' E 113°14'6913082.1
2017-Oct-20 02:27N 23°01' E 113°32'661793123.9
2017-Oct-20 02:27N 31°25' E 121°33'4411.2
2017-Oct-20 02:27N 31°25' E 121°38'4320.0
2017-Oct-20 02:26N 31°25' E 121°33'18611.3
2017-Oct-20 02:24N 31°37' E 121°18'2191.6
2017-Oct-20 02:10N 31°23' E 121°35'66014566.4
2017-Oct-20 02:08N 23°04' E 113°29'206014.9
2017-Oct-20 02:07N 22°45' E 113°24'67822383.9
2017-Oct-20 02:06N 31°39' E 121°13'22361.5
2017-Oct-20 02:02N 31°22' E 121°30'7297.3
2017-Oct-20 02:00N 31°29' E 121°27'12337.5
2017-Oct-20 02:00N 31°28' E 121°28'103116.2
2017-Oct-20 02:00N 31°25' E 121°38'6672401806.6
2017-Oct-20 02:00N 22°54' E 113°35'664239084.7
2017-Oct-20 02:00N 31°22' E 121°36'6611189553.1
2017-Oct-20 02:00N 22°57' E 113°37'661118952.0
2017-Oct-20 02:00N 31°29' E 121°27'285.3
2017-Oct-20 01:58N 31°29' E 121°24'72468546.3
2017-Oct-20 01:58N 21°54' E 113°14'6913080.7
2017-Oct-20 01:57N 23°01' E 113°32'661339921.1
2017-Oct-20 01:57N 31°25' E 121°33'9849.3
2017-Oct-20 01:57N 31°30' E 121°24'687617886.7
2017-Oct-20 01:57N 22°49' E 113°02'688154840.8
2017-Oct-20 01:56N 31°24' E 121°34'2204.6
2017-Oct-20 01:56N 31°25' E 121°33'112032.0
2017-Oct-20 01:56N 31°31' E 121°23'6765406.1
2017-Oct-20 01:48N 22°44' E 113°27'6786797.8
2017-Oct-20 01:42N 31°37' E 121°18'18180.1
2017-Oct-20 01:36N 31°22' E 121°30'557.5
2017-Oct-20 01:30N 31°27' E 121°29'1585.9
2017-Oct-20 01:30N 31°26' E 121°30'6612378046.4
2017-Oct-20 01:30N 23°01' E 113°32'6611189321.2
2017-Oct-20 01:30N 31°27' E 121°29'664239031.9
2017-Oct-20 01:30N 22°54' E 113°35'66553166.9
2017-Oct-20 01:29N 31°24' E 121°34'2472.3
2017-Oct-20 01:29N 31°25' E 121°33'1119222.1
2017-Oct-20 01:29N 31°31' E 121°23'66064209.1
2017-Oct-20 01:29N 22°57' E 113°37'66161054.1
2017-Oct-20 01:28N 31°20' E 121°40'725186335.8
2017-Oct-20 01:28N 21°54' E 113°14'7272618114.5
2017-Oct-20 01:28N 31°25' E 121°38'4364.5
2017-Oct-20 01:27N 31°25' E 121°33'68828786.5
2017-Oct-20 01:25N 22°47' E 113°04'68468381.2
2017-Oct-20 01:25N 31°21' E 121°30'65753758.1
2017-Oct-20 01:24N 23°05' E 113°26'66010065.9
2017-Oct-20 01:20N 31°30' E 121°24'0 7.6
2017-Oct-20 01:18N 31°29' E 121°25'10276.3
2017-Oct-20 01:16N 31°37' E 121°18'20166.0
2017-Oct-20 01:09N 31°21' E 121°31'217.0
2017-Oct-20 01:03N 31°23' E 121°30'45119581.6
2017-Oct-20 01:02N 24°22' E 118°25'45526400.9
2017-Oct-20 01:00N 31°26' E 121°30'12343.3
2017-Oct-20 01:00N 31°26' E 121°31'32683.5
2017-Oct-20 01:00N 31°23' E 121°30'658592102.2
2017-Oct-20 01:00N 23°01' E 113°32'6612381108.2
2017-Oct-20 01:00N 31°24' E 121°34'665113935.7
2017-Oct-20 01:00N 22°54' E 113°35'66139001.8
2017-Oct-20 00:59N 31°22' E 121°30'42524.0
2017-Oct-20 00:59N 31°25' E 121°33'72976.9
2017-Oct-20 00:59N 31°20' E 121°40'54324.8
2017-Oct-20 00:59N 31°25' E 121°38'217013.6
2017-Oct-20 00:58N 31°37' E 121°18'72654448.8
2017-Oct-20 00:58N 21°54' E 113°14'675338.1
2017-Oct-20 00:57N 22°57' E 113°37'660339391.0
2017-Oct-20 00:57N 31°31' E 121°23'11418.7
2017-Oct-20 00:55N 31°25' E 121°33'66117488.3
2017-Oct-20 00:53N 23°02' E 113°31'66014390.3
2017-Oct-20 00:50N 31°29' E 121°25'6846185.1
2017-Oct-20 00:44N 22°37' E 113°23'164555.9
2017-Oct-20 00:43N 22°45' E 113°07'6862470513.5
2017-Oct-20 00:43N 31°30' E 121°24'45811440.2
2017-Oct-20 00:41N 24°21' E 118°23'4552602.9
2017-Oct-20 00:30N 31°25' E 121°31'662125352.1
2017-Oct-20 00:30N 22°56' E 113°36'662125383.3
2017-Oct-20 00:30N 31°29' E 121°25'82336.9
2017-Oct-20 00:30N 31°25' E 121°33'66259570.3
2017-Oct-20 00:29N 22°59' E 113°32'662397256.9
2017-Oct-20 00:29N 31°25' E 121°33'1119228.3
2017-Oct-20 00:29N 31°31' E 121°23'186520.0
2017-Oct-20 00:29N 31°20' E 121°40'61177.6
2017-Oct-20 00:28N 31°24' E 121°34'203351.6
2017-Oct-20 00:28N 31°37' E 121°18'1712269.1
2017-Oct-20 00:28N 31°25' E 121°32'724153335.4
2017-Oct-20 00:28N 21°54' E 113°14'7272618131.9
2017-Oct-20 00:28N 31°25' E 121°38'458137474.5
2017-Oct-20 00:27N 24°21' E 118°22'27726978.5
2017-Oct-20 00:27N 23°01' E 113°32'660339426.9
2017-Oct-20 00:27N 31°30' E 121°24'660148507.5
2017-Oct-20 00:26N 22°57' E 113°37'65913398.1
2017-Oct-20 00:23N 31°23' E 121°30'68517235.2
2017-Oct-20 00:21N 22°45' E 113°09'6874659.9
2017-Oct-20 00:12N 31°40' E 121°14'23116.3
2017-Oct-20 00:00N 31°24' E 121°33'21167.2
2017-Oct-20 00:00N 31°24' E 121°31'14720.1
2017-Oct-20 00:00N 31°24' E 121°33'725326137.5
2017-Oct-20 00:00N 21°53' E 113°13'31757076.7
2017-Oct-20 00:00N 24°20' E 118°19'46028064.6
2017-Oct-19 23:59N 31°25' E 121°38'211541.3
2017-Oct-19 23:58N 31°37' E 121°18'173642.4
2017-Oct-19 23:58N 31°24' E 121°31'655336672.0
2017-Oct-19 23:58N 23°05' E 113°34'657157612.6
2017-Oct-19 23:57N 31°24' E 121°34'121191.4
2017-Oct-19 23:57N 31°31' E 121°23'104341.5
2017-Oct-19 23:57N 31°25' E 121°32'661237955.1
2017-Oct-19 23:56N 22°59' E 113°34'6622381423.2
2017-Oct-19 23:56N 31°25' E 121°33'661340015.9
2017-Oct-19 23:56N 23°01' E 113°32'660131998.5
2017-Oct-19 23:56N 31°30' E 121°24'048.7
2017-Oct-19 23:56N 31°29' E 121°25'66170019.7
2017-Oct-19 23:55N 22°56' E 113°36'2460.6
2017-Oct-19 23:55N 22°57' E 113°37'6603550.5
2017-Oct-19 23:44N 31°25' E 121°30'211110.4
2017-Oct-19 23:43N 31°40' E 121°14'2097.9
2017-Oct-19 23:31N 31°26' E 121°29'1134.0
2017-Oct-19 23:30N 31°26' E 121°29'460552279.1
2017-Oct-19 23:30N 24°18' E 118°16'461331834.8
2017-Oct-19 23:30N 31°27' E 121°28'41051.3
2017-Oct-19 23:30N 31°23' E 121°30'3475.4
2017-Oct-19 23:30N 31°25' E 121°33'661216375.3
2017-Oct-19 23:29N 23°01' E 113°32'664113826.7
2017-Oct-19 23:29N 31°25' E 121°38'3385.1
2017-Oct-19 23:28N 31°24' E 121°34'661793624.2
2017-Oct-19 23:28N 22°57' E 113°37'6601187859.9
2017-Oct-19 23:28N 31°31' E 121°23'661119042.7
2017-Oct-19 23:28N 22°56' E 113°36'661113267.3
2017-Oct-19 23:28N 31°24' E 121°31'1720573.0
2017-Oct-19 23:28N 31°37' E 121°18'686117575.1
2017-Oct-19 23:27N 22°44' E 113°13'68577080.1
2017-Oct-19 23:27N 31°24' E 121°33'96678.7
2017-Oct-19 23:27N 31°30' E 121°24'0560.3
2017-Oct-19 23:27N 31°29' E 121°25'3724202.3
2017-Oct-19 23:21N 37°42' E 121°10'9655649.6
2017-Oct-19 23:11N 22°59' E 113°37'6583725.6
2017-Oct-19 23:01N 31°28' E 121°26'375168536.6
2017-Oct-19 23:00N 37°42' E 121°14'989444863.7
2017-Oct-19 23:00N 22°45' E 113°13'289130257.2
2017-Oct-19 23:00N 24°17' E 118°13'265953774.9
2017-Oct-19 23:00N 22°57' E 113°37'661396661.8
2017-Oct-19 23:00N 31°24' E 121°33'4936.1
2017-Oct-19 23:00N 31°25' E 121°38'142348.5
2017-Oct-19 22:59N 31°30' E 121°23'659593371.4
2017-Oct-19 22:59N 23°01' E 113°32'66036544.4
2017-Oct-19 22:58N 31°29' E 121°25'107196.2
2017-Oct-19 22:58N 31°24' E 121°34'663265117.8
2017-Oct-19 22:58N 22°56' E 113°36'661148663.3
2017-Oct-19 22:58N 31°24' E 121°31'84574.5
2017-Oct-19 22:58N 31°30' E 121°24'9480.3
2017-Oct-19 22:57N 31°25' E 121°33'65964159.8
2017-Oct-19 22:56N 22°59' E 113°37'6581184818.5
2017-Oct-19 22:56N 31°31' E 121°23'8686.0
2017-Oct-19 22:55N 31°37' E 121°18'6631608.4
2017-Oct-19 22:30N 22°56' E 113°36'263315761.4
2017-Oct-19 22:30N 24°15' E 118°09'823740918.8
2017-Oct-19 22:30N 37°42' E 121°19'3721340020.1
2017-Oct-19 22:30N 31°30' E 121°23'68161307.6
2017-Oct-19 22:30N 22°47' E 113°13'2512612.5
2017-Oct-19 22:30N 22°57' E 113°37'66074252.7
2017-Oct-19 22:29N 31°30' E 121°24'10695.7
2017-Oct-19 22:28N 31°24' E 121°34'21414.0
2017-Oct-19 22:28N 31°25' E 121°33'186475.1
2017-Oct-19 22:28N 31°37' E 121°18'175165.7
2017-Oct-19 22:28N 31°24' E 121°31'916250.1
2017-Oct-19 22:28N 31°30' E 121°22'1609.9
2017-Oct-19 22:28N 31°31' E 121°23'11967.5
2017-Oct-19 22:27N 31°24' E 121°33'4184.8
2017-Oct-19 22:26N 31°25' E 121°38'66454326.4
2017-Oct-19 22:25N 23°01' E 113°32'6609578.4
2017-Oct-19 22:21N 31°29' E 121°25'3722234.3
2017-Oct-19 22:11N 37°42' E 121°09'9685656.9
2017-Oct-19 22:00N 22°56' E 113°36'973583678.8
2017-Oct-19 22:00N 37°42' E 121°21'370221768.0
2017-Oct-19 22:00N 31°32' E 121°20'680306150.7
2017-Oct-19 22:00N 22°47' E 113°15'2320645.5
2017-Oct-19 22:00N 22°57' E 113°37'66485358.8
2017-Oct-19 22:00N 31°25' E 121°38'3531.7
2017-Oct-19 21:59N 31°24' E 121°34'11172.7
2017-Oct-19 21:59N 31°24' E 121°33'111493.7
2017-Oct-19 21:59N 31°30' E 121°22'21566.8
2017-Oct-19 21:59N 31°30' E 121°24'084.6
2017-Oct-19 21:58N 31°29' E 121°25'373191782.8
2017-Oct-19 21:58N 37°42' E 121°11'37843869.9
2017-Oct-19 21:58N 31°25' E 121°33'21004.9
2017-Oct-19 21:58N 31°24' E 121°31'46854334.2
2017-Oct-19 21:57N 24°13' E 118°06'2616669.1
2017-Oct-19 21:55N 23°01' E 113°32'66220367.3
2017-Oct-19 21:53N 31°37' E 121°18'6601809.2
2017-Oct-19 21:31N 22°59' E 113°37'3306.9
2017-Oct-19 21:30N 22°56' E 113°36'660594323.8
2017-Oct-19 21:30N 31°30' E 121°22'724442.4
2017-Oct-19 21:30N 31°35' E 121°17'679188168.4
2017-Oct-19 21:30N 22°47' E 113°17'6791222566.0
2017-Oct-19 21:30N 31°29' E 121°25'050.0
2017-Oct-19 21:30N 31°30' E 121°24'660169720.5
2017-Oct-19 21:29N 22°57' E 113°37'971582727.4
2017-Oct-19 21:29N 37°43' E 121°19'36521559.0
2017-Oct-19 21:28N 31°37' E 121°18'2119263.0
2017-Oct-19 21:28N 31°25' E 121°38'662125476.5
2017-Oct-19 21:28N 22°59' E 113°37'659395659.8
2017-Oct-19 21:28N 31°24' E 121°33'2927.0
2017-Oct-19 21:28N 31°24' E 121°31'2468.5
2017-Oct-19 21:27N 31°25' E 121°33'2944.6
2017-Oct-19 21:27N 31°24' E 121°34'121260.2
2017-Oct-19 21:27N 31°31' E 121°23'37355948.7
2017-Oct-19 21:26N 37°44' E 121°17'9673453.0
2017-Oct-19 21:10N 23°03' E 113°36'637.9
2017-Oct-19 21:00N 22°57' E 113°37'9731167260.3
2017-Oct-19 21:00N 37°44' E 121°19'9741753097.6
2017-Oct-19 21:00N 22°56' E 113°36'182796.8
2017-Oct-19 21:00N 22°47' E 113°19'6792442657.2
2017-Oct-19 21:00N 31°38' E 121°14'121845.4
2017-Oct-19 21:00N 31°30' E 121°24'37395969.4
2017-Oct-19 20:59N 37°43' E 121°20'378113469.8
2017-Oct-19 20:59N 31°25' E 121°33'112261.4
2017-Oct-19 20:59N 31°31' E 121°23'171.3
2017-Oct-19 20:58N 31°30' E 121°22'6592372048.7
2017-Oct-19 20:58N 23°01' E 113°32'659263778.4
2017-Oct-19 20:58N 31°24' E 121°31'74424.7
2017-Oct-19 20:58N 31°29' E 121°25'121084.8
2017-Oct-19 20:57N 31°25' E 121°38'4195.0
2017-Oct-19 20:56N 31°24' E 121°33'197.7
2017-Oct-19 20:55N 31°24' E 121°34'20540.7
2017-Oct-19 20:53N 31°37' E 121°18'65956449.9
2017-Oct-19 20:52N 23°02' E 113°36'413.5
2017-Oct-19 20:36N 22°59' E 113°37'9729742.7
2017-Oct-19 20:30N 37°44' E 121°21'375674848.3
2017-Oct-19 20:30N 31°29' E 121°25'658789819.6
2017-Oct-19 20:30N 22°59' E 113°37'192785.6
2017-Oct-19 20:30N 22°48' E 113°21'168130.4
2017-Oct-19 20:30N 22°56' E 113°36'663265013.6
2017-Oct-19 20:30N 31°24' E 121°33'1119423.7
2017-Oct-19 20:30N 31°30' E 121°22'659182477.7
2017-Oct-19 20:29N 22°57' E 113°37'660215974.6
2017-Oct-19 20:29N 31°31' E 121°23'8377.3
2017-Oct-19 20:28N 31°37' E 121°18'662264761.2
2017-Oct-19 20:28N 23°01' E 113°32'9691744596.4
2017-Oct-19 20:28N 37°43' E 121°17'379227346.0
2017-Oct-19 20:28N 31°24' E 121°31'8444.8
2017-Oct-19 20:27N 31°30' E 121°24'101676.5
2017-Oct-19 20:26N 31°24' E 121°34'3465.3
2017-Oct-19 20:26N 31°25' E 121°38'6615675.5
2017-Oct-19 20:19N 23°02' E 113°36'6582111.2
2017-Oct-19 20:00N 31°24' E 121°34'660169633.3
2017-Oct-19 20:00N 22°59' E 113°37'22444.4
2017-Oct-19 20:00N 22°57' E 113°37'971582666.9
2017-Oct-19 20:00N 37°44' E 121°15'9721166809.4
2017-Oct-19 20:00N 22°56' E 113°36'66041707.5
2017-Oct-19 19:59N 31°30' E 121°22'3751349679.0
2017-Oct-19 19:59N 37°45' E 121°23'9901782169.6
2017-Oct-19 19:59N 22°46' E 113°23'68154472.2
2017-Oct-19 19:58N 31°25' E 121°38'126353.9
2017-Oct-19 19:58N 31°29' E 121°25'660475087.8
2017-Oct-19 19:58N 23°01' E 113°32'661595032.0
2017-Oct-19 19:58N 31°25' E 121°33'21755.1
2017-Oct-19 19:58N 31°24' E 121°31'81150.3
2017-Oct-19 19:57N 31°30' E 121°24'2225.8
2017-Oct-19 19:57N 31°31' E 121°23'66968765.6
2017-Oct-19 19:56N 22°18' E 114°22'622424.0
2017-Oct-19 19:55N 23°02' E 113°36'6592356.6
2017-Oct-19 19:38N 31°37' E 121°18'968.7
2017-Oct-19 19:30N 31°30' E 121°22'6591186096.8
2017-Oct-19 19:30N 22°57' E 113°37'970109170.0
2017-Oct-19 19:30N 37°44' E 121°14'986887542.3
2017-Oct-19 19:30N 22°45' E 113°25'6772435996.2
2017-Oct-19 19:30N 31°30' E 121°24'376450672.4
2017-Oct-19 19:30N 37°45' E 121°23'993325036.4
2017-Oct-19 19:30N 22°20' E 114°25'584386.3
2017-Oct-19 19:29N 22°56' E 113°36'661103488.5
2017-Oct-19 19:28N 31°31' E 121°23'66079184.6
2017-Oct-19 19:28N 23°01' E 113°32'662476567.1
2017-Oct-19 19:28N 31°37' E 121°18'2125725.1
2017-Oct-19 19:28N 31°25' E 121°38'622375.0
2017-Oct-19 19:28N 31°24' E 121°31'3409.2
2017-Oct-19 19:27N 31°24' E 121°34'1146.6
2017-Oct-19 19:27N 31°24' E 121°33'160.8
2017-Oct-19 19:26N 31°25' E 121°33'895.7
2017-Oct-19 19:21N 31°29' E 121°25'6611915.5
2017-Oct-19 19:00N 22°57' E 113°36'5971198.6
2017-Oct-19 19:00N 22°23' E 114°29'589982.3
2017-Oct-19 19:00N 22°57' E 113°37'662170230.1
2017-Oct-19 19:00N 31°37' E 121°18'196699.3
2017-Oct-19 18:59N 31°24' E 121°33'933368.7
2017-Oct-19 18:59N 31°30' E 121°24'2287.9
2017-Oct-19 18:59N 31°31' E 121°23'676135136.9
2017-Oct-19 18:59N 22°44' E 113°27'680143933.6
2017-Oct-19 18:58N 31°25' E 121°38'3587.7
2017-Oct-19 18:58N 31°24' E 121°34'125295.2
2017-Oct-19 18:58N 31°30' E 121°22'659197673.6
2017-Oct-19 18:58N 23°01' E 113°32'9721166874.7
2017-Oct-19 18:58N 37°45' E 121°20'376676477.5
2017-Oct-19 18:58N 31°29' E 121°25'8259.0
2017-Oct-19 18:56N 31°25' E 121°33'2109.5
2017-Oct-19 18:55N 31°24' E 121°31'3812203.1
2017-Oct-19 18:44N 37°45' E 121°16'9719343.1
2017-Oct-19 18:38N 22°59' E 113°37'6584978.8
2017-Oct-19 18:30N 31°31' E 121°23'655786383.3
2017-Oct-19 18:30N 23°05' E 113°34'659263751.1
2017-Oct-19 18:30N 31°25' E 121°38'42370.9
2017-Oct-19 18:30N 31°24' E 121°33'1460.4
2017-Oct-19 18:30N 31°24' E 121°34'1214120.6
2017-Oct-19 18:30N 31°30' E 121°22'655336737.1
2017-Oct-19 18:30N 22°27' E 114°32'5916426.0
2017-Oct-19 18:29N 22°57' E 113°37'161620.8
2017-Oct-19 18:29N 22°44' E 113°27'67539203.3
2017-Oct-19 18:28N 31°24' E 121°31'172299.8
2017-Oct-19 18:27N 31°37' E 121°18'6632386625.3
2017-Oct-19 18:27N 22°57' E 113°36'5363.3
2017-Oct-19 18:26N 23°01' E 113°32'660103277.8
2017-Oct-19 18:26N 31°29' E 121°25'3778525.4
2017-Oct-19 18:23N 37°46' E 121°15'38110019.9
2017-Oct-19 18:21N 31°25' E 121°33'92846.4
2017-Oct-19 18:21N 31°30' E 121°24'6585629.0
2017-Oct-19 18:14N 22°59' E 113°37'314.8
2017-Oct-19 18:00N 22°56' E 113°36'662298072.6
2017-Oct-19 18:00N 31°30' E 121°25'661216259.7
2017-Oct-19 18:00N 22°57' E 113°37'6756.0
2017-Oct-19 17:59N 23°01' E 113°32'660593936.0
2017-Oct-19 17:59N 31°30' E 121°24'94193.1
2017-Oct-19 17:59N 31°24' E 121°33'67790248.4
2017-Oct-19 17:59N 22°44' E 113°27'680349555.4
2017-Oct-19 17:59N 31°25' E 121°38'6414.4
2017-Oct-19 17:58N 31°24' E 121°31'74493.6
2017-Oct-19 17:58N 31°29' E 121°24'2145.0
2017-Oct-19 17:57N 31°30' E 121°22'12941.6
2017-Oct-19 17:56N 31°24' E 121°34'2236.1
2017-Oct-19 17:56N 31°25' E 121°33'18281.5
2017-Oct-19 17:52N 31°37' E 121°17'1849.4
2017-Oct-19 17:30N 31°25' E 121°33'64086.1
2017-Oct-19 17:30N 31°28' E 121°27'1017244.7
2017-Oct-19 17:30N 31°25' E 121°38'135073.5
2017-Oct-19 17:30N 31°30' E 121°24'66391832.3
2017-Oct-19 17:29N 22°54' E 113°35'662113514.6
2017-Oct-19 17:29N 31°30' E 121°22'675809679.1
2017-Oct-19 17:29N 22°44' E 113°27'677203144.2
2017-Oct-19 17:29N 31°24' E 121°34'661148805.5
2017-Oct-19 17:28N 22°57' E 113°37'65971925.4
2017-Oct-19 17:28N 31°24' E 121°31'81174.6
2017-Oct-19 17:27N 31°30' E 121°24'91819.1
2017-Oct-19 17:27N 31°24' E 121°33'66161028.6
2017-Oct-19 17:26N 23°01' E 113°32'515.7
2017-Oct-19 17:08N 23°05' E 113°34'6565021.4
2017-Oct-19 17:00N 31°26' E 121°30'156156.9
2017-Oct-19 17:00N 31°37' E 121°17'66288272.2
2017-Oct-19 17:00N 22°57' E 113°37'6985.0
2017-Oct-19 16:59N 23°01' E 113°32'660263997.0
2017-Oct-19 16:59N 31°30' E 121°24'655262125.5
2017-Oct-19 16:59N 23°05' E 113°34'656337624.4
2017-Oct-19 16:59N 31°24' E 121°33'677187443.9
2017-Oct-19 16:59N 22°44' E 113°27'675485807.5
2017-Oct-19 16:59N 31°30' E 121°22'126025.7
2017-Oct-19 16:59N 31°24' E 121°34'2145.1
2017-Oct-19 16:58N 31°25' E 121°33'41306.5
2017-Oct-19 16:58N 31°25' E 121°38'66718615.7
2017-Oct-19 16:56N 22°54' E 113°35'66359672.2
2017-Oct-19 16:55N 31°30' E 121°24'6583263.6
2017-Oct-19 16:43N 22°59' E 113°37'6593180.5
2017-Oct-19 16:30N 31°24' E 121°33'91166.5
2017-Oct-19 16:30N 31°30' E 121°24'66076643.7
2017-Oct-19 16:29N 23°01' E 113°32'62520.1
2017-Oct-19 16:29N 22°57' E 113°37'662125432.3
2017-Oct-19 16:29N 31°37' E 121°17'678187696.2
2017-Oct-19 16:29N 22°44' E 113°27'203930.6
2017-Oct-19 16:28N 23°02' E 113°36'65891071.2
2017-Oct-19 16:28N 31°24' E 121°33'41777.2
2017-Oct-19 16:28N 31°25' E 121°38'14897.1
2017-Oct-19 16:27N 31°30' E 121°22'2264.6
2017-Oct-19 16:27N 31°30' E 121°24'9809.0
2017-Oct-19 16:26N 31°25' E 121°33'664119569.7
2017-Oct-19 16:26N 22°54' E 113°35'66541968.6
2017-Oct-19 16:25N 31°24' E 121°34'6606578.3
2017-Oct-19 16:19N 22°59' E 113°37'2 6.8
2017-Oct-19 16:00N 22°57' E 113°37'662793806.9
2017-Oct-19 16:00N 31°23' E 121°36'66240368.2
2017-Oct-19 15:59N 23°01' E 113°32'66159498.8
2017-Oct-19 15:59N 31°37' E 121°16'677812417.5
2017-Oct-19 15:59N 22°44' E 113°27'676486583.8
2017-Oct-19 15:59N 31°30' E 121°24'043.1
2017-Oct-19 15:58N 31°30' E 121°24'95125.4
2017-Oct-19 15:58N 31°25' E 121°33'4784.0
2017-Oct-19 15:58N 31°25' E 121°38'3514.7
2017-Oct-19 15:57N 31°24' E 121°34'12526.9
2017-Oct-19 15:56N 31°30' E 121°22'115517.6
2017-Oct-19 15:56N 31°24' E 121°33'664103938.6
2017-Oct-19 15:56N 22°55' E 113°35'115463.5
2017-Oct-19 15:55N 23°05' E 113°34'797.9
2017-Oct-19 15:51N 22°59' E 113°37'66012577.2
2017-Oct-19 15:48N 31°37' E 121°17'2584.6
2017-Oct-19 15:30N 31°21' E 121°40'227363.2
2017-Oct-19 15:30N 31°35' E 121°19'659790641.5
2017-Oct-19 15:30N 22°59' E 113°37'658139377.1
2017-Oct-19 15:30N 31°30' E 121°24'660113114.5
2017-Oct-19 15:29N 23°01' E 113°32'659197661.8
2017-Oct-19 15:29N 31°30' E 121°22'67571439.7
2017-Oct-19 15:29N 22°44' E 113°27'1611345.5
2017-Oct-19 15:29N 22°57' E 113°37'33538.4
2017-Oct-19 15:29N 22°55' E 113°35'664170817.1
2017-Oct-19 15:28N 31°24' E 121°34'33775.8
2017-Oct-19 15:28N 31°25' E 121°38'4560.0
2017-Oct-19 15:28N 31°25' E 121°33'9458.4
2017-Oct-19 15:27N 31°30' E 121°24'9764.3
2017-Oct-19 15:26N 31°25' E 121°33'6703597.6
2017-Oct-19 15:15N 22°45' E 113°40'1249.2
2017-Oct-19 15:01N 22°56' E 113°36'66285099.9
2017-Oct-19 15:00N 31°30' E 121°24'197794.2
2017-Oct-19 15:00N 31°19' E 121°43'119633.9
2017-Oct-19 15:00N 31°25' E 121°33'41425.5
2017-Oct-19 15:00N 31°25' E 121°38'1730346.2
2017-Oct-19 15:00N 31°32' E 121°20'659197638.6
2017-Oct-19 14:59N 23°01' E 113°32'171304.3
2017-Oct-19 14:59N 22°44' E 113°27'162836.4
2017-Oct-19 14:58N 22°57' E 113°37'661793615.3
2017-Oct-19 14:58N 31°24' E 121°34'12731.7
2017-Oct-19 14:57N 31°30' E 121°22'11327.0
2017-Oct-19 14:55N 31°25' E 121°33'9197.1
2017-Oct-19 14:53N 31°30' E 121°24'66812456.1
2017-Oct-19 14:49N 22°46' E 113°38'2 5.7
2017-Oct-19 14:30N 22°48' E 113°37'14821.6
2017-Oct-19 14:29N 23°01' E 113°32'64533.4
2017-Oct-19 14:29N 22°57' E 113°37'66076615.3
2017-Oct-19 14:29N 31°31' E 121°22'676221083.4
2017-Oct-19 14:29N 22°44' E 113°27'68047055.5
2017-Oct-19 14:28N 31°25' E 121°38'133512.5
2017-Oct-19 14:28N 31°30' E 121°24'657472701.4
2017-Oct-19 14:27N 23°02' E 113°36'656196915.5
2017-Oct-19 14:27N 31°30' E 121°24'10683.8
2017-Oct-19 14:26N 31°24' E 121°34'145.8
2017-Oct-19 14:25N 31°24' E 121°33'19377.9
2017-Oct-19 14:22N 31°37' E 121°18'8563.4
2017-Oct-19 14:21N 31°42' E 121°10'65937680.7
2017-Oct-19 14:20N 22°59' E 113°37'65950509.8
2017-Oct-19 14:19N 31°25' E 121°33'65634252.1
2017-Oct-19 14:18N 23°05' E 113°34'9118.4
2017-Oct-19 14:14N 22°57' E 113°36'624.8
2017-Oct-19 14:01N 23°01' E 113°32'5817.7
2017-Oct-19 14:00N 23°05' E 113°34'1613993.8
2017-Oct-19 14:00N 22°50' E 113°35'668104532.2
2017-Oct-19 14:00N 31°24' E 121°33'9710.0
2017-Oct-19 13:59N 31°29' E 121°24'122493.1
2017-Oct-19 13:59N 31°25' E 121°38'1517845.6
2017-Oct-19 13:59N 31°31' E 121°22'7666.6
2017-Oct-19 13:58N 31°37' E 121°18'662340472.1
2017-Oct-19 13:58N 22°57' E 113°37'66161046.5
2017-Oct-19 13:57N 31°24' E 121°34'67745141.8
2017-Oct-19 13:56N 22°44' E 113°27'151050.4
2017-Oct-19 13:55N 22°57' E 113°36'663170364.6
2017-Oct-19 13:55N 31°41' E 121°12'241067.3
2017-Oct-19 13:54N 31°25' E 121°33'9160.6
2017-Oct-19 13:51N 31°30' E 121°24'7155181.1
2017-Oct-19 13:42N 22°09' E 113°06'7153631.3
2017-Oct-19 13:31N 31°29' E 121°25'714257056.7
2017-Oct-19 13:30N 22°11' E 113°06'5497696.1
2017-Oct-19 13:30N 22°57' E 113°37'63618.2
2017-Oct-19 13:30N 22°52' E 113°34'92294.4
2017-Oct-19 13:30N 23°00' E 113°31'661148704.8
2017-Oct-19 13:30N 31°30' E 121°24'101473.9
2017-Oct-19 13:29N 31°24' E 121°34'67752994.8
2017-Oct-19 13:29N 22°44' E 113°27'67665727.1
2017-Oct-19 13:28N 31°31' E 121°22'12756.6
2017-Oct-19 13:27N 31°24' E 121°33'1200.7
2017-Oct-19 13:27N 31°25' E 121°33'4979.8
2017-Oct-19 13:27N 31°25' E 121°38'211000.7
2017-Oct-19 13:25N 31°37' E 121°18'6636802.5
2017-Oct-19 13:19N 22°57' E 113°36'322.4
2017-Oct-19 13:12N 22°59' E 113°37'526.2
2017-Oct-19 13:01N 22°56' E 113°33'2172.9
2017-Oct-19 13:00N 22°54' E 113°34'665342159.1
2017-Oct-19 13:00N 31°25' E 121°33'9589.0
2017-Oct-19 12:59N 31°30' E 121°24'66038952.2
2017-Oct-19 12:58N 22°57' E 113°37'66445095.2
2017-Oct-19 12:57N 31°25' E 121°38'3858.6
2017-Oct-19 12:57N 31°24' E 121°34'1194.9
2017-Oct-19 12:56N 31°24' E 121°33'67750766.9
2017-Oct-19 12:55N 22°44' E 113°27'157502.6
2017-Oct-19 12:55N 22°57' E 113°36'66331008.6
2017-Oct-19 12:54N 31°37' E 121°18'1017711.7
2017-Oct-19 12:54N 31°29' E 121°25'3106.0
2017-Oct-19 12:53N 31°31' E 121°22'67414444.5
2017-Oct-19 12:50N 22°54' E 113°16'2066.6
2017-Oct-19 12:32N 23°02' E 113°36'65827227.8
2017-Oct-19 12:30N 31°24' E 121°34'239359.0
2017-Oct-19 12:30N 31°39' E 121°13'6642389912.0
2017-Oct-19 12:30N 22°56' E 113°33'41047.4
2017-Oct-19 12:30N 22°52' E 113°34'6465.5
2017-Oct-19 12:29N 22°57' E 113°37'661113331.9
2017-Oct-19 12:29N 31°24' E 121°33'677105944.5
2017-Oct-19 12:28N 22°44' E 113°27'123226.0
2017-Oct-19 12:28N 22°53' E 113°18'67425556.4
2017-Oct-19 12:27N 31°30' E 121°24'9664.2
2017-Oct-19 12:26N 31°25' E 121°33'41742.0
2017-Oct-19 12:26N 31°25' E 121°38'1222242.6
2017-Oct-19 12:26N 31°29' E 121°25'66199160.2
2017-Oct-19 12:25N 22°57' E 113°36'66195173.1
2017-Oct-19 12:25N 31°31' E 121°22'6568119.3
2017-Oct-19 12:20N 23°02' E 113°36'659107761.9
2017-Oct-19 12:20N 31°37' E 121°18'6692081.6
2017-Oct-19 12:00N 22°49' E 113°36'94188.0
2017-Oct-19 12:00N 22°42' E 113°29'67793807.5
2017-Oct-19 12:00N 31°24' E 121°34'31861.1
2017-Oct-19 12:00N 31°25' E 121°38'121140.4
2017-Oct-19 11:59N 31°29' E 121°25'6611189872.3
2017-Oct-19 11:59N 22°59' E 113°32'163288.7
2017-Oct-19 11:59N 22°50' E 113°18'676135215.4
2017-Oct-19 11:58N 31°30' E 121°24'66048491.9
2017-Oct-19 11:58N 22°57' E 113°37'662132412.4
2017-Oct-19 11:57N 31°37' E 121°18'18719.5
2017-Oct-19 11:56N 31°25' E 121°33'66270125.6
2017-Oct-19 11:55N 22°57' E 113°36'66299346.5
2017-Oct-19 11:55N 31°24' E 121°33'128363.0
2017-Oct-19 11:55N 31°31' E 121°22'6582155.5
2017-Oct-19 11:36N 22°59' E 113°37'13126.5
2017-Oct-19 11:30N 22°46' E 113°38'1346163.1
2017-Oct-19 11:30N 22°59' E 113°37'204421.0
2017-Oct-19 11:30N 22°40' E 113°33'2213212.9
2017-Oct-19 11:30N 23°02' E 113°31'659791299.2
2017-Oct-19 11:30N 31°29' E 121°25'815162.8
2017-Oct-19 11:30N 31°25' E 121°33'661396654.9
2017-Oct-19 11:30N 22°57' E 113°37'661108180.5
2017-Oct-19 11:29N 31°24' E 121°33'67733863.4
2017-Oct-19 11:28N 22°49' E 113°20'678609778.8
2017-Oct-19 11:28N 31°24' E 121°34'205856.5
2017-Oct-19 11:28N 31°37' E 121°18'213502.9
2017-Oct-19 11:28N 31°25' E 121°38'66517476.5
2017-Oct-19 11:25N 22°57' E 113°36'66123792.2
2017-Oct-19 11:24N 31°31' E 121°22'220.7
2017-Oct-19 11:17N 31°30' E 121°24'6712466.8
2017-Oct-19 11:01N 22°40' E 113°42'41135.7
2017-Oct-19 11:00N 22°43' E 113°40'6701205813.4
2017-Oct-19 11:00N 31°24' E 121°33'659139642.6
2017-Oct-19 11:00N 22°59' E 113°37'2163.9
2017-Oct-19 10:59N 22°57' E 113°37'66015134.4
2017-Oct-19 10:57N 31°30' E 121°24'101419.0
2017-Oct-19 10:56N 31°24' E 121°34'3293.9
2017-Oct-19 10:56N 31°25' E 121°38'21517.2
2017-Oct-19 10:53N 31°37' E 121°18'713274.9
2017-Oct-19 10:53N 31°31' E 121°22'31865.8
2017-Oct-19 10:53N 31°29' E 121°25'66148565.8
2017-Oct-19 10:52N 22°57' E 113°36'8152.6
2017-Oct-19 10:49N 23°04' E 113°32'658236944.8
2017-Oct-19 10:49N 31°25' E 121°33'131075.5
2017-Oct-19 10:48N 31°17' E 121°44'6795169.3
2017-Oct-19 10:40N 22°46' E 113°23'16170.2
2017-Oct-19 10:34N 22°43' E 113°40'19293.6
2017-Oct-19 10:30N 23°02' E 113°36'65690854.0
2017-Oct-19 10:30N 31°31' E 121°22'712744.2
2017-Oct-19 10:30N 31°37' E 121°18'679162955.2
2017-Oct-19 10:30N 22°45' E 113°23'677143329.6
2017-Oct-19 10:29N 31°29' E 121°25'66975218.6
2017-Oct-19 10:29N 22°44' E 113°40'67075342.5
2017-Oct-19 10:28N 31°24' E 121°33'662183399.4
2017-Oct-19 10:28N 22°57' E 113°36'663103830.8
2017-Oct-19 10:28N 31°16' E 121°46'662794604.1
2017-Oct-19 10:28N 22°57' E 113°37'66179330.4
2017-Oct-19 10:27N 31°25' E 121°33'25667.4
2017-Oct-19 10:27N 31°24' E 121°34'3129.8
2017-Oct-19 10:26N 31°25' E 121°38'13962.5
2017-Oct-19 10:25N 31°30' E 121°24'65828902.4
2017-Oct-19 10:24N 22°59' E 113°37'6581702.5
2017-Oct-19 10:00N 31°34' E 121°18'276531.3
2017-Oct-19 10:00N 31°18' E 121°44'202942.5
2017-Oct-19 10:00N 31°30' E 121°24'91007.0
2017-Oct-19 09:59N 31°25' E 121°33'4290.3
2017-Oct-19 09:58N 31°25' E 121°38'664398341.3
2017-Oct-19 09:58N 22°57' E 113°37'661198330.9
2017-Oct-19 09:58N 31°24' E 121°33'678121951.6
2017-Oct-19 09:58N 22°44' E 113°26'67659380.0
2017-Oct-19 09:57N 31°29' E 121°25'10654.4
2017-Oct-19 09:56N 31°24' E 121°34'6633034.5
2017-Oct-19 09:43N 22°57' E 113°36'393.0
2017-Oct-19 09:41N 22°59' E 113°37'66010904.8
2017-Oct-19 09:38N 31°37' E 121°18'6675599.0
2017-Oct-19 09:30N 22°53' E 113°34'667109093.4
2017-Oct-19 09:30N 31°20' E 121°40'289953.1
2017-Oct-19 09:30N 31°38' E 121°15'224373.2
2017-Oct-19 09:30N 31°24' E 121°34'66074214.0
2017-Oct-19 09:29N 22°59' E 113°37'659593481.2
2017-Oct-19 09:29N 31°24' E 121°33'193717.8
2017-Oct-19 09:29N 31°37' E 121°18'212082.8
2017-Oct-19 09:28N 31°25' E 121°38'6652394280.7
2017-Oct-19 09:28N 22°57' E 113°36'662476829.4
2017-Oct-19 09:28N 31°25' E 121°33'662340356.2
2017-Oct-19 09:28N 22°56' E 113°37'66120684.1
2017-Oct-19 09:26N 31°30' E 121°24'0 1.1
2017-Oct-19 09:08N 31°29' E 121°25'6768979.3
2017-Oct-19 09:04N 22°43' E 113°28'6778956.2
2017-Oct-19 08:59N 31°22' E 121°35'66249675.2
2017-Oct-19 08:58N 22°56' E 113°36'1439.1
2017-Oct-19 08:58N 22°55' E 113°36'4174.1
2017-Oct-19 08:57N 22°59' E 113°37'97065873.1
2017-Oct-19 08:56N 37°49' E 121°05'38513738.2
2017-Oct-19 08:54N 31°24' E 121°34'10922.1
2017-Oct-19 08:54N 31°30' E 121°24'91391.9
2017-Oct-19 08:53N 31°24' E 121°33'66232218.8
2017-Oct-19 08:52N 22°57' E 113°36'665184175.4
2017-Oct-19 08:52N 31°25' E 121°38'68013523.7
2017-Oct-19 08:49N 22°43' E 113°28'67636869.2
2017-Oct-19 08:48N 31°29' E 121°25'6642300.1
2017-Oct-19 08:30N 22°54' E 113°35'32313.6
2017-Oct-19 08:30N 22°57' E 113°36'662476935.4
2017-Oct-19 08:30N 31°24' E 121°34'663132506.3
2017-Oct-19 08:30N 22°57' E 113°36'66099018.8
2017-Oct-19 08:29N 31°24' E 121°31'257.2
2017-Oct-19 08:27N 31°24' E 121°33'65981859.5
2017-Oct-19 08:27N 22°59' E 113°37'66299334.1
2017-Oct-19 08:26N 31°25' E 121°38'13611.3
2017-Oct-19 08:25N 31°30' E 121°24'014.0
2017-Oct-19 08:24N 31°29' E 121°25'67622531.2
2017-Oct-19 08:22N 22°43' E 113°28'9879421.3
2017-Oct-19 08:15N 37°47' E 121°05'38336305.3
2017-Oct-19 08:15N 31°25' E 121°33'18137.1
2017-Oct-19 08:07N 31°37' E 121°18'6636104.8
2017-Oct-19 08:00N 22°57' E 113°36'154241.7
2017-Oct-19 08:00N 22°44' E 113°26'152024.6
2017-Oct-19 08:00N 22°57' E 113°36'6612379706.6
2017-Oct-19 08:00N 31°29' E 121°25'0560.3
2017-Oct-19 08:00N 31°30' E 121°24'132380.5
2017-Oct-19 07:59N 31°25' E 121°38'41002.9
2017-Oct-19 07:59N 31°24' E 121°33'1183.5
2017-Oct-19 07:59N 31°25' E 121°33'181853.8
2017-Oct-19 07:58N 31°37' E 121°18'36818158.9
2017-Oct-19 07:57N 37°45' E 121°07'38224565.3
2017-Oct-19 07:56N 31°24' E 121°34'38110243.1
2017-Oct-19 07:54N 37°45' E 121°08'3664621.2
2017-Oct-19 07:49N 31°39' E 121°13'6672134.7
2017-Oct-19 07:30N 22°53' E 113°32'51377.2
2017-Oct-19 07:30N 22°57' E 113°36'66299321.9
2017-Oct-19 07:30N 31°25' E 121°33'662198678.9
2017-Oct-19 07:30N 22°57' E 113°36'64272226.5
2017-Oct-19 07:29N 31°17' E 121°08'235558.8
2017-Oct-19 07:29N 31°24' E 121°33'41755.1
2017-Oct-19 07:29N 31°25' E 121°38'681816627.0
2017-Oct-19 07:29N 22°47' E 113°22'98295527.0
2017-Oct-19 07:28N 37°42' E 121°09'37320021.0
2017-Oct-19 07:27N 31°29' E 121°25'073.4
2017-Oct-19 07:27N 31°30' E 121°24'101842.9
2017-Oct-19 07:26N 31°24' E 121°34'2487977.6
2017-Oct-19 07:26N 31°40' E 121°13'5125.6
2017-Oct-19 07:24N 31°38' E 121°18'6858562.5
2017-Oct-19 07:19N 22°45' E 113°14'721.1
2017-Oct-19 07:00N 22°50' E 113°19'174400.2
2017-Oct-19 07:00N 22°57' E 113°36'72220.3
2017-Oct-19 07:00N 22°54' E 113°29'66840770.0
2017-Oct-19 06:59N 31°25' E 121°33'2131.8
2017-Oct-19 06:58N 31°24' E 121°34'11172.7
2017-Oct-19 06:58N 31°24' E 121°33'261317.9
2017-Oct-19 06:57N 31°17' E 121°05'215892.2
2017-Oct-19 06:57N 31°30' E 121°24'13779.5
2017-Oct-19 06:56N 31°25' E 121°38'66519309.9
2017-Oct-19 06:54N 22°57' E 113°36'66119506.8
2017-Oct-19 06:52N 31°29' E 121°25'6815011.6
2017-Oct-19 06:43N 22°47' E 113°14'6814222.0
2017-Oct-19 06:34N 31°39' E 121°13'65916029.7
2017-Oct-19 06:31N 22°59' E 113°37'11824.2
2017-Oct-19 06:30N 22°55' E 113°26'66868739.2
2017-Oct-19 06:30N 31°30' E 121°24'661119017.7
2017-Oct-19 06:29N 22°57' E 113°36'665149651.3
2017-Oct-19 06:29N 31°25' E 121°38'665265986.5
2017-Oct-19 06:29N 22°57' E 113°36'66212679.5
2017-Oct-19 06:26N 31°25' E 121°33'2142.0
2017-Oct-19 06:25N 31°24' E 121°34'660395805.5
2017-Oct-19 06:25N 22°59' E 113°37'65811176.3
2017-Oct-19 06:22N 31°29' E 121°25'9377.4
2017-Oct-19 06:20N 31°24' E 121°33'19111.8
2017-Oct-19 06:10N 31°38' E 121°17'4328.2
2017-Oct-19 06:09N 31°39' E 121°13'1 6.0
2017-Oct-19 06:01N 31°40' E 121°13'672151099.2
2017-Oct-19 06:00N 22°54' E 113°23'126048.4
2017-Oct-19 06:00N 22°57' E 113°36'66164303.9
2017-Oct-19 06:00N 31°29' E 121°25'1424740.6
2017-Oct-19 06:00N 31°40' E 121°14'221757.3
2017-Oct-19 05:59N 31°25' E 121°33'91010.0
2017-Oct-19 05:58N 31°30' E 121°24'10521.0
2017-Oct-19 05:57N 31°24' E 121°34'66358175.7
2017-Oct-19 05:56N 22°57' E 113°36'66547888.1
2017-Oct-19 05:56N 31°25' E 121°38'4364.7
2017-Oct-19 05:55N 31°24' E 121°33'233248.8
2017-Oct-19 05:55N 31°40' E 121°13'6574470.2
2017-Oct-19 05:46N 23°05' E 113°34'65723203.8
2017-Oct-19 05:44N 31°38' E 121°17'6829447.4
2017-Oct-19 05:40N 22°47' E 113°15'231191.2
2017-Oct-19 05:39N 22°59' E 113°37'320.2
2017-Oct-19 05:30N 22°57' E 113°36'661108143.1
2017-Oct-19 05:30N 31°29' E 121°24'98177.1
2017-Oct-19 05:30N 31°24' E 121°33'65971934.8
2017-Oct-19 05:29N 22°59' E 113°37'32088.6
2017-Oct-19 05:29N 22°57' E 113°36'6631194122.3
2017-Oct-19 05:29N 31°38' E 121°17'182877.4
2017-Oct-19 05:29N 31°25' E 121°33'67365518.6
2017-Oct-19 05:28N 22°54' E 113°20'67265399.0
2017-Oct-19 05:28N 31°30' E 121°24'68020058.8
2017-Oct-19 05:26N 22°47' E 113°16'6841230903.9
2017-Oct-19 05:26N 31°25' E 121°38'3384.9
2017-Oct-19 05:25N 31°24' E 121°34'24448.9
2017-Oct-19 05:22N 31°40' E 121°13'441278.2
2017-Oct-19 05:20N 31°58' E 120°26'6478527.1
2017-Oct-19 05:15N 23°05' E 113°34'1976.7
2017-Oct-19 05:00N 22°53' E 113°18'1658921.9
2017-Oct-19 05:00N 22°56' E 113°36'66362785.3
2017-Oct-19 05:00N 31°25' E 121°33'66266231.1
2017-Oct-19 04:59N 22°57' E 113°36'1831567.5
2017-Oct-19 04:59N 22°48' E 113°19'67793786.3
2017-Oct-19 04:59N 31°30' E 121°24'10479.2
2017-Oct-19 04:57N 31°24' E 121°34'202175.5
2017-Oct-19 04:57N 31°38' E 121°17'191365.2
2017-Oct-19 04:56N 31°24' E 121°33'4947.9
2017-Oct-19 04:56N 31°25' E 121°38'133263.4
2017-Oct-19 04:56N 31°30' E 121°24'13106.4
2017-Oct-19 04:48N 31°40' E 121°14'6662268.4
2017-Oct-19 04:30N 22°54' E 113°35'121349.1
2017-Oct-19 04:30N 23°05' E 113°34'659593391.7
2017-Oct-19 04:30N 31°25' E 121°38'680244759.3
2017-Oct-19 04:30N 22°50' E 113°19'5341.3
2017-Oct-19 04:29N 22°54' E 113°16'676811217.6
2017-Oct-19 04:29N 31°40' E 121°14'663596742.7
2017-Oct-19 04:29N 22°57' E 113°36'659131809.6
2017-Oct-19 04:28N 31°31' E 121°19'7993.5
2017-Oct-19 04:28N 31°38' E 121°17'187358.5
2017-Oct-19 04:28N 31°25' E 121°33'235886.0
2017-Oct-19 04:28N 31°40' E 121°13'148541.9
2017-Oct-19 04:27N 31°30' E 121°24'91245.6
2017-Oct-19 04:27N 31°25' E 121°33'9419.6
2017-Oct-19 04:26N 31°30' E 121°24'101133.3
2017-Oct-19 04:25N 31°24' E 121°34'660198095.4
2017-Oct-19 04:25N 22°60' E 113°35'535.6
2017-Oct-19 04:16N 23°05' E 113°33'31148.1
2017-Oct-19 04:04N 22°34' E 113°37'16281.4
2017-Oct-19 04:00N 22°50' E 113°35'668343386.0
2017-Oct-19 04:00N 31°24' E 121°34'67635781.6
2017-Oct-19 03:59N 22°53' E 113°18'676270248.6
2017-Oct-19 03:59N 31°25' E 121°33'663198826.8
2017-Oct-19 03:59N 22°58' E 113°32'3810.2
2017-Oct-19 03:59N 22°57' E 113°36'665266020.5
2017-Oct-19 03:58N 31°25' E 121°38'679222216.1
2017-Oct-19 03:58N 22°54' E 113°15'67731240.5
2017-Oct-19 03:57N 31°38' E 121°17'191176.7
2017-Oct-19 03:56N 31°25' E 121°33'91770.0
2017-Oct-19 03:56N 31°30' E 121°24'22135.4
2017-Oct-19 03:56N 31°31' E 121°23'658197455.1
2017-Oct-19 03:55N 22°59' E 113°37'65814273.6
2017-Oct-19 03:53N 31°30' E 121°24'6671773.6
2017-Oct-19 03:30N 22°48' E 113°37'66889100.0
2017-Oct-19 03:30N 31°25' E 121°33'662297951.5
2017-Oct-19 03:29N 22°57' E 113°35'121914.3
2017-Oct-19 03:29N 22°54' E 113°23'14862.3
2017-Oct-19 03:28N 22°59' E 113°37'658148091.3
2017-Oct-19 03:28N 31°31' E 121°23'121062.1
2017-Oct-19 03:27N 31°24' E 121°34'101125.6
2017-Oct-19 03:27N 31°30' E 121°24'93514.7
2017-Oct-19 03:26N 31°25' E 121°33'4435.6
2017-Oct-19 03:26N 31°25' E 121°38'679135798.7
2017-Oct-19 03:26N 22°54' E 113°15'67614577.4
2017-Oct-19 03:23N 31°40' E 121°13'67723439.8
2017-Oct-19 03:21N 22°18' E 114°09'67421294.6
2017-Oct-19 03:19N 31°30' E 121°24'1075.1
2017-Oct-19 03:11N 31°38' E 121°17'6827819.4
2017-Oct-19 03:06N 22°42' E 113°24'13144.5
2017-Oct-19 03:00N 22°55' E 113°27'669150503.6
2017-Oct-19 03:00N 31°25' E 121°33'68066203.2
2017-Oct-19 02:59N 22°42' E 113°24'4819088.0
2017-Oct-19 02:59N 22°18' E 114°09'675607594.8
2017-Oct-19 02:59N 31°24' E 121°34'2212.0
2017-Oct-19 02:59N 31°25' E 121°33'234848.2
2017-Oct-19 02:58N 31°40' E 121°13'14840.7
2017-Oct-19 02:57N 31°30' E 121°24'675110431.6
2017-Oct-19 02:57N 22°54' E 113°15'67997775.1
2017-Oct-19 02:57N 31°25' E 121°38'665170982.1
2017-Oct-19 02:56N 22°57' E 113°35'663103810.7
2017-Oct-19 02:56N 31°38' E 121°17'657147919.7
2017-Oct-19 02:56N 23°05' E 113°34'6551179272.7
2017-Oct-19 02:56N 31°30' E 121°24'67662381.0
2017-Oct-19 02:55N 22°44' E 113°27'1022.9
2017-Oct-19 02:30N 22°53' E 113°31'668171684.1
2017-Oct-19 02:30N 31°25' E 121°33'4789.8
2017-Oct-19 02:30N 31°25' E 121°38'665133025.6
2017-Oct-19 02:29N 22°57' E 113°35'66295376.2
2017-Oct-19 02:29N 31°25' E 121°33'9241.9
2017-Oct-19 02:27N 31°30' E 121°24'0560.3
2017-Oct-19 02:27N 31°30' E 121°24'67533742.8
2017-Oct-19 02:26N 22°54' E 113°15'676608763.9
2017-Oct-19 02:25N 31°24' E 121°34'20182.0
2017-Oct-19 02:19N 31°38' E 121°18'67914814.6
2017-Oct-19 02:16N 22°43' E 113°27'23236.9
2017-Oct-19 02:10N 23°05' E 113°34'6574021.2
2017-Oct-19 02:01N 31°40' E 121°13'678106097.9
2017-Oct-19 02:00N 22°44' E 113°27'680188321.6
2017-Oct-19 02:00N 31°25' E 121°38'221259.3
2017-Oct-19 01:59N 31°38' E 121°18'1816441.7
2017-Oct-19 01:59N 31°25' E 121°33'144.3
2017-Oct-19 01:58N 31°24' E 121°33'66780085.2
2017-Oct-19 01:58N 22°52' E 113°33'5226.7
2017-Oct-19 01:56N 22°57' E 113°35'66342595.4
2017-Oct-19 01:55N 31°24' E 121°34'67641985.3
2017-Oct-19 01:54N 22°54' E 113°15'67532385.7
2017-Oct-19 01:53N 31°30' E 121°24'0 4.6
2017-Oct-19 01:50N 31°30' E 121°24'65565524.5
2017-Oct-19 01:49N 23°05' E 113°34'653130662.6
2017-Oct-19 01:49N 31°23' E 121°30'13304.4
2017-Oct-19 01:46N 31°32' E 121°20'1298.7
2017-Oct-19 01:39N 31°26' E 121°07'6524539.8
2017-Oct-19 01:30N 22°53' E 113°34'666217895.2
2017-Oct-19 01:30N 31°24' E 121°33'4789.8
2017-Oct-19 01:30N 31°25' E 121°38'51110.5
2017-Oct-19 01:29N 31°24' E 121°32'661132255.6
2017-Oct-19 01:29N 22°57' E 113°35'661103473.1
2017-Oct-19 01:29N 31°29' E 121°25'103996.6
2017-Oct-19 01:29N 31°24' E 121°34'2157.7
2017-Oct-19 01:28N 31°25' E 121°33'131178.9
2017-Oct-19 01:27N 31°32' E 121°20'4445.8
2017-Oct-19 01:27N 31°30' E 121°24'10911.8
2017-Oct-19 01:26N 31°38' E 121°18'41701.5
2017-Oct-19 01:26N 31°40' E 121°14'12302.9
2017-Oct-19 01:24N 31°31' E 121°23'67532380.1
2017-Oct-19 01:22N 22°54' E 113°15'1793.9
2017-Oct-19 01:12N 22°45' E 113°30'6759922.1
2017-Oct-19 01:08N 31°40' E 121°13'66010110.4
2017-Oct-19 01:04N 22°59' E 113°37'712283.0
2017-Oct-19 01:04N 23°05' E 113°34'138.2
2017-Oct-19 01:02N 23°05' E 113°33'66036024.2
2017-Oct-19 01:01N 31°25' E 121°38'41559.8
2017-Oct-19 01:00N 31°24' E 121°33'1271.4
2017-Oct-19 01:00N 31°24' E 121°34'674173360.5
2017-Oct-19 01:00N 22°45' E 113°31'101482.7
2017-Oct-19 01:00N 22°54' E 113°35'664239191.3
2017-Oct-19 00:59N 31°25' E 121°33'102809.3
2017-Oct-19 00:59N 31°30' E 121°23'661594776.9
2017-Oct-19 00:59N 22°57' E 113°35'66022213.3
2017-Oct-19 00:57N 31°32' E 121°20'4472.0
2017-Oct-19 00:57N 31°30' E 121°24'013.3
2017-Oct-19 00:55N 31°29' E 121°25'14277.6
2017-Oct-19 00:52N 31°40' E 121°14'36310901.5
2017-Oct-19 00:50N 37°43' E 121°10'36812606.8
2017-Oct-19 00:49N 31°36' E 121°16'350.7
2017-Oct-19 00:45N 31°38' E 121°18'5359.0
2017-Oct-19 00:45N 31°40' E 121°13'67636884.7
2017-Oct-19 00:43N 22°54' E 113°15'21570.3
2017-Oct-19 00:41N 22°59' E 113°37'751.2
2017-Oct-19 00:33N 23°05' E 113°34'20724007.9
2017-Oct-19 00:33N 21°04' E 110°33'85621409.4
2017-Oct-19 00:30N 31°25' E 121°31'176851.8
2017-Oct-19 00:30N 31°38' E 121°18'413624.0
2017-Oct-19 00:30N 31°40' E 121°14'4373.5
2017-Oct-19 00:30N 31°36' E 121°16'664597496.5
2017-Oct-19 00:30N 22°54' E 113°35'976270160.3
2017-Oct-19 00:29N 37°46' E 121°13'11462063388.9
2017-Oct-19 00:29N 21°05' E 110°33'861774524.8
2017-Oct-19 00:29N 31°25' E 121°38'665159630.7
2017-Oct-19 00:29N 22°57' E 113°35'661594781.2
2017-Oct-19 00:29N 31°30' E 121°23'121110.8
2017-Oct-19 00:28N 31°24' E 121°34'673115402.0
2017-Oct-19 00:28N 22°44' E 113°34'201864.4
2017-Oct-19 00:27N 22°54' E 113°15'675127840.2
2017-Oct-19 00:27N 31°29' E 121°25'015.7
2017-Oct-19 00:26N 31°30' E 121°24'65525643.5
2017-Oct-19 00:24N 23°05' E 113°34'7364.6
2017-Oct-19 00:23N 22°59' E 113°37'66033941.2
2017-Oct-19 00:22N 31°40' E 121°13'67929429.6
2017-Oct-19 00:21N 22°45' E 113°24'6783186.4
2017-Oct-19 00:08N 31°25' E 121°33'539.6
2017-Oct-19 00:00N 31°27' E 121°27'676608147.4
2017-Oct-19 00:00N 22°44' E 113°27'676405537.7
2017-Oct-19 00:00N 31°30' E 121°24'663298505.5
2017-Oct-19 00:00N 22°54' E 113°35'20223490.1
2017-Oct-18 23:59N 21°06' E 110°31'20491694.0
2017-Oct-18 23:59N 22°57' E 113°35'978391024.4
2017-Oct-18 23:59N 37°50' E 121°16'38673173.9
2017-Oct-18 23:58N 31°24' E 121°34'67657978.3
2017-Oct-18 23:58N 22°54' E 113°15'675173499.7
2017-Oct-18 23:58N 31°29' E 121°25'122779.8
2017-Oct-18 23:57N 31°25' E 121°38'662113526.3
2017-Oct-18 23:57N 22°59' E 113°37'660139757.8
2017-Oct-18 23:57N 31°40' E 121°13'23358.3
2017-Oct-18 23:53N 31°25' E 121°33'2279256.1
2017-Oct-18 23:53N 31°40' E 121°14'451.6
2017-Oct-18 23:48N 31°38' E 121°18'9350.7
2017-Oct-18 23:47N 31°30' E 121°23'67034948.2
2017-Oct-18 23:46N 22°44' E 113°37'6702609.1
2017-Oct-18 23:30N 31°29' E 121°24'66346786.9
2017-Oct-18 23:30N 22°54' E 113°35'983272319.1
2017-Oct-18 23:29N 37°53' E 121°18'994357997.9
2017-Oct-18 23:29N 22°44' E 113°30'133227.2
2017-Oct-18 23:29N 22°57' E 113°35'665266051.2
2017-Oct-18 23:29N 31°25' E 121°38'135652.6
2017-Oct-18 23:29N 31°30' E 121°24'658263333.4
2017-Oct-18 23:28N 22°59' E 113°37'65926377.0
2017-Oct-18 23:27N 31°25' E 121°33'670104866.2
2017-Oct-18 23:27N 22°45' E 113°38'670134043.5
2017-Oct-18 23:26N 31°24' E 121°34'101894.3
2017-Oct-18 23:26N 31°29' E 121°25'771.0
2017-Oct-18 23:20N 31°25' E 121°31'211093.9
2017-Oct-18 23:19N 31°40' E 121°14'4344.4
2017-Oct-18 23:18N 31°38' E 121°18'67713389.6
2017-Oct-18 23:15N 22°54' E 113°15'67638641.1
2017-Oct-18 23:14N 31°40' E 121°13'3612235.5
2017-Oct-18 23:04N 37°42' E 121°09'97615340.9
2017-Oct-18 23:00N 22°47' E 113°37'667600577.7
2017-Oct-18 23:00N 31°32' E 121°21'103847.2
2017-Oct-18 23:00N 31°26' E 121°29'66356844.7
2017-Oct-18 23:00N 22°54' E 113°35'92843.5
2017-Oct-18 22:59N 22°45' E 113°32'121435.5
2017-Oct-18 22:59N 22°57' E 113°35'665478892.2
2017-Oct-18 22:59N 31°25' E 121°38'3319.0
2017-Oct-18 22:58N 31°24' E 121°34'242514.9
2017-Oct-18 22:58N 31°40' E 121°13'5486.5
2017-Oct-18 22:57N 31°38' E 121°18'677121845.6
2017-Oct-18 22:57N 22°54' E 113°15'978140838.7
2017-Oct-18 22:56N 37°42' E 121°10'37253620.7
2017-Oct-18 22:56N 31°30' E 121°24'7228.3
2017-Oct-18 22:54N 31°25' E 121°30'7156.2
2017-Oct-18 22:52N 31°29' E 121°25'14671.3
2017-Oct-18 22:50N 31°40' E 121°14'223774.1
2017-Oct-18 22:50N 31°25' E 121°33'65943961.7
2017-Oct-18 22:49N 22°59' E 113°37'6582146.3
2017-Oct-18 22:31N 31°31' E 121°23'66766670.9
2017-Oct-18 22:30N 22°49' E 113°36'6671200731.6
2017-Oct-18 22:30N 31°35' E 121°18'1611856.8
2017-Oct-18 22:30N 31°25' E 121°33'5787.3
2017-Oct-18 22:30N 31°27' E 121°28'663795681.7
2017-Oct-18 22:30N 22°54' E 113°35'193333.0
2017-Oct-18 22:29N 22°54' E 113°15'676221308.2
2017-Oct-18 22:29N 31°40' E 121°13'1410335.3
2017-Oct-18 22:29N 31°30' E 121°24'661297554.8
2017-Oct-18 22:29N 22°57' E 113°35'661396675.9
2017-Oct-18 22:29N 31°28' E 121°27'37752182.3
2017-Oct-18 22:28N 37°45' E 121°15'375450293.4
2017-Oct-18 22:28N 31°29' E 121°25'658103019.2
2017-Oct-18 22:28N 22°59' E 113°37'662216732.1
2017-Oct-18 22:28N 31°25' E 121°38'3177.2
2017-Oct-18 22:27N 31°24' E 121°34'675105669.1
2017-Oct-18 22:26N 22°18' E 114°09'6779676.8
2017-Oct-18 22:22N 31°38' E 121°18'436.0
2017-Oct-18 22:16N 31°40' E 121°14'6602606.0
2017-Oct-18 22:01N 22°59' E 113°37'974219081.8
2017-Oct-18 22:00N 37°47' E 121°19'981883303.7
2017-Oct-18 22:00N 22°52' E 113°34'667171404.4
2017-Oct-18 22:00N 31°38' E 121°14'66495636.3
2017-Oct-18 22:00N 22°54' E 113°35'66454361.3
2017-Oct-18 21:59N 31°25' E 121°33'6621192170.7
2017-Oct-18 21:59N 22°57' E 113°35'661182967.3
2017-Oct-18 21:59N 31°29' E 121°24'103637.4
2017-Oct-18 21:58N 31°38' E 121°18'222109.9
2017-Oct-18 21:58N 31°25' E 121°38'679407399.0
2017-Oct-18 21:58N 22°54' E 113°15'67549582.3
2017-Oct-18 21:57N 31°30' E 121°24'101053.4
2017-Oct-18 21:56N 31°24' E 121°34'10345.9
2017-Oct-18 21:55N 31°29' E 121°25'14150.5
2017-Oct-18 21:49N 31°40' E 121°14'11092.7
2017-Oct-18 21:49N 31°40' E 121°13'6652160.2
2017-Oct-18 21:30N 22°55' E 113°34'51039.1
2017-Oct-18 21:30N 22°59' E 113°37'662183388.7
2017-Oct-18 21:30N 31°25' E 121°38'66792384.3
2017-Oct-18 21:30N 22°54' E 113°35'66646080.7
2017-Oct-18 21:29N 31°38' E 121°18'188236.7
2017-Oct-18 21:29N 31°25' E 121°33'2250.5
2017-Oct-18 21:28N 31°24' E 121°34'66316116.8
2017-Oct-18 21:26N 22°57' E 113°35'979135544.6
2017-Oct-18 21:25N 37°49' E 121°21'379683071.8
2017-Oct-18 21:25N 31°30' E 121°24'141569.0
2017-Oct-18 21:25N 31°40' E 121°14'151.9
2017-Oct-18 21:24N 31°40' E 121°13'15238.5
2017-Oct-18 21:20N 31°29' E 121°25'617.6
2017-Oct-18 21:00N 31°26' E 121°30'662595821.2
2017-Oct-18 21:00N 22°58' E 113°32'664183775.2
2017-Oct-18 21:00N 31°24' E 121°34'101439.2
2017-Oct-18 21:00N 31°29' E 121°25'146209.4
2017-Oct-18 21:00N 31°40' E 121°14'665399137.6
2017-Oct-18 21:00N 22°54' E 113°35'98276885.1
2017-Oct-18 20:59N 37°50' E 121°23'9801176016.0
2017-Oct-18 20:59N 22°57' E 113°35'66322510.4
2017-Oct-18 20:57N 31°37' E 121°18'9451.6
2017-Oct-18 20:56N 31°30' E 121°24'134111.8
2017-Oct-18 20:56N 31°25' E 121°38'66264433.9
2017-Oct-18 20:55N 22°59' E 113°37'6581607.6
2017-Oct-18 20:30N 31°28' E 121°26'2316.2
2017-Oct-18 20:30N 31°30' E 121°24'66399503.2
2017-Oct-18 20:30N 22°54' E 113°35'6651196418.2
2017-Oct-18 20:29N 31°24' E 121°34'222352.2
2017-Oct-18 20:29N 31°38' E 121°15'662148980.0
2017-Oct-18 20:29N 22°57' E 113°35'66359677.6
2017-Oct-18 20:28N 31°40' E 121°14'662264856.4
2017-Oct-18 20:28N 23°01' E 113°31'66491995.7
2017-Oct-18 20:27N 31°25' E 121°38'66241825.8
2017-Oct-18 20:26N 22°59' E 113°37'65824427.4
2017-Oct-18 20:25N 31°29' E 121°25'3827430.4
2017-Oct-18 20:22N 37°51' E 121°25'3712201.5
2017-Oct-18 20:12N 31°40' E 121°13'6603494.0
2017-Oct-18 20:00N 22°59' E 113°37'65869632.5
2017-Oct-18 20:00N 31°30' E 121°23'663170397.1
2017-Oct-18 20:00N 22°54' E 113°35'663199005.0
2017-Oct-18 19:59N 31°30' E 121°24'109217.6
2017-Oct-18 19:59N 31°24' E 121°34'66366258.1
2017-Oct-18 19:59N 22°57' E 113°35'663596775.7
2017-Oct-18 19:59N 31°40' E 121°14'252778.2
2017-Oct-18 19:58N 31°25' E 121°38'12211.8
2017-Oct-18 19:55N 31°29' E 121°25'65916485.8
2017-Oct-18 19:52N 23°02' E 113°31'98041017.5
2017-Oct-18 19:51N 37°52' E 121°26'373191895.9
2017-Oct-18 19:51N 31°39' E 121°13'1 6.1
2017-Oct-18 19:40N 31°40' E 121°13'67311264.0
2017-Oct-18 19:36N 22°41' E 113°41'6706799.2
2017-Oct-18 19:30N 31°32' E 121°20'658296056.1
2017-Oct-18 19:30N 22°59' E 113°37'658296169.3
2017-Oct-18 19:30N 31°29' E 121°25'383275490.7
2017-Oct-18 19:30N 37°52' E 121°24'388697523.8
2017-Oct-18 19:30N 31°25' E 121°38'1322614.6
2017-Oct-18 19:30N 31°30' E 121°24'663199005.0
2017-Oct-18 19:30N 22°54' E 113°35'3172.4
2017-Oct-18 19:29N 22°57' E 113°35'7588.4
2017-Oct-18 19:28N 23°02' E 113°31'66114510.5
2017-Oct-18 19:25N 31°24' E 121°34'243030.3
2017-Oct-18 19:25N 31°40' E 121°14'6714655.5
2017-Oct-18 19:16N 22°44' E 113°40'6702567.0
2017-Oct-18 19:00N 31°24' E 121°34'66546918.0
2017-Oct-18 19:00N 22°54' E 113°35'66337313.2
2017-Oct-18 18:58N 31°30' E 121°24'13279.1
2017-Oct-18 18:56N 31°25' E 121°38'66432283.4
2017-Oct-18 18:55N 23°02' E 113°31'171935.3
2017-Oct-18 18:54N 22°47' E 113°38'10425.9
2017-Oct-18 18:53N 22°57' E 113°35'3957.8
2017-Oct-18 18:52N 22°59' E 113°37'66028631.5
2017-Oct-18 18:51N 31°40' E 121°14'565.5
2017-Oct-18 18:47N 31°36' E 121°17'949.3
2017-Oct-18 18:36N 31°29' E 121°25'81089.1
2017-Oct-18 18:35N 31°25' E 121°32'6618228.2
2017-Oct-18 18:30N 23°02' E 113°31'132583.8
2017-Oct-18 18:30N 22°50' E 113°35'670219436.2
2017-Oct-18 18:30N 31°25' E 121°38'13717.8
2017-Oct-18 18:29N 31°30' E 121°24'65874058.7
2017-Oct-18 18:28N 22°59' E 113°37'66031246.4
2017-Oct-18 18:27N 31°24' E 121°34'665132933.6
2017-Oct-18 18:27N 22°54' E 113°35'66410868.8
2017-Oct-18 18:23N 31°25' E 121°32'67622740.7
2017-Oct-18 18:21N 22°54' E 113°15'19730.6
2017-Oct-18 18:20N 22°57' E 113°35'66124526.9
2017-Oct-18 18:18N 31°30' E 121°23'238.5
2017-Oct-18 18:15N 31°29' E 121°25'6642644.4
2017-Oct-18 18:00N 22°54' E 113°34'81528.4
2017-Oct-18 18:00N 23°02' E 113°31'660395720.0
2017-Oct-18 18:00N 31°30' E 121°24'663140464.1
2017-Oct-18 18:00N 22°54' E 113°35'3166.1
2017-Oct-18 17:59N 22°57' E 113°35'3229.4
2017-Oct-18 17:58N 22°59' E 113°37'66237248.6
2017-Oct-18 17:57N 31°25' E 121°38'31116.7
2017-Oct-18 17:57N 31°24' E 121°34'10367.0
2017-Oct-18 17:55N 31°29' E 121°25'8200.0
2017-Oct-18 17:53N 31°25' E 121°32'67652901.1
2017-Oct-18 17:52N 22°54' E 113°15'6749128.2
2017-Oct-18 17:47N 31°30' E 121°23'65511121.4
2017-Oct-18 17:44N 23°05' E 113°34'65732854.7
2017-Oct-18 17:43N 31°40' E 121°14'6694520.8
2017-Oct-18 17:34N 22°48' E 113°37'66912095.4
2017-Oct-18 17:30N 31°24' E 121°34'663198883.4
2017-Oct-18 17:30N 22°58' E 113°33'661595253.6
2017-Oct-18 17:30N 31°29' E 121°25'6581185155.0
2017-Oct-18 17:30N 22°59' E 113°37'5525.0
2017-Oct-18 17:30N 22°54' E 113°35'6631193945.1
2017-Oct-18 17:29N 31°30' E 121°24'66128677.9
2017-Oct-18 17:28N 22°57' E 113°35'66538007.3
2017-Oct-18 17:27N 31°25' E 121°38'264744.9
2017-Oct-18 17:27N 31°40' E 121°13'1513128.8
2017-Oct-18 17:27N 31°29' E 121°24'14885.6
2017-Oct-18 17:26N 31°40' E 121°14'669104700.9
2017-Oct-18 17:25N 22°49' E 113°36'14468.5
2017-Oct-18 17:24N 23°02' E 113°31'16761.5
2017-Oct-18 17:22N 22°54' E 113°15'21449.1
2017-Oct-18 17:19N 23°05' E 113°34'57194.8
2017-Oct-18 17:02N 22°18' E 114°09'67528252.4
2017-Oct-18 17:01N 31°29' E 121°27'66439836.9
2017-Oct-18 17:00N 22°54' E 113°35'667480398.1
2017-Oct-18 16:59N 31°25' E 121°38'670804086.0
2017-Oct-18 16:59N 22°52' E 113°34'668343298.7
2017-Oct-18 16:59N 31°24' E 121°34'662340259.5
2017-Oct-18 16:59N 22°57' E 113°37'9623.8
2017-Oct-18 16:58N 23°05' E 113°34'42606.0
2017-Oct-18 16:58N 23°01' E 113°35'42241.8
2017-Oct-18 16:58N 22°57' E 113°35'66322512.6
2017-Oct-18 16:56N 31°40' E 121°13'233710.6
2017-Oct-18 16:56N 31°25' E 121°32'22970.7
2017-Oct-18 16:55N 31°40' E 121°14'14686.0
2017-Oct-18 16:53N 31°30' E 121°24'6758493.5
2017-Oct-18 16:49N 22°54' E 113°15'67569420.3
2017-Oct-18 16:48N 31°30' E 121°24'3811992.8
2017-Oct-18 16:37N 37°50' E 121°02'998133080.4
2017-Oct-18 16:36N 22°18' E 114°09'6757044.7
2017-Oct-18 16:30N 31°24' E 121°34'6642389214.4
2017-Oct-18 16:30N 22°55' E 113°36'6631192773.3
2017-Oct-18 16:30N 31°27' E 121°29'667300190.2
2017-Oct-18 16:30N 22°53' E 113°30'5408.5
2017-Oct-18 16:30N 22°54' E 113°35'66388424.9
2017-Oct-18 16:29N 31°30' E 121°24'12623.8
2017-Oct-18 16:28N 31°25' E 121°38'1322835.2
2017-Oct-18 16:28N 31°30' E 121°24'9591.6
2017-Oct-18 16:27N 31°25' E 121°32'67654077.9
2017-Oct-18 16:26N 22°54' E 113°15'19990.2
2017-Oct-18 16:25N 22°57' E 113°35'49309.4
2017-Oct-18 16:16N 22°18' E 114°09'571247.6
2017-Oct-18 16:13N 23°05' E 113°34'1257.6
2017-Oct-18 16:00N 22°53' E 113°34'664149451.1
2017-Oct-18 16:00N 31°24' E 121°31'667120100.2
2017-Oct-18 16:00N 22°55' E 113°27'71178.0
2017-Oct-18 16:00N 22°54' E 113°35'4713109.2
2017-Oct-18 15:59N 22°18' E 114°09'572046.1
2017-Oct-18 15:58N 23°05' E 113°34'95185.8
2017-Oct-18 15:58N 22°57' E 113°35'663159012.4
2017-Oct-18 15:57N 31°24' E 121°34'101093.5
2017-Oct-18 15:57N 31°30' E 121°24'0280.2
2017-Oct-18 15:57N 31°30' E 121°24'8710.5
2017-Oct-18 15:56N 31°25' E 121°32'5207.2
2017-Oct-18 15:55N 31°25' E 121°38'26478.5
2017-Oct-18 15:51N 31°40' E 121°14'0 7.8
2017-Oct-18 15:49N 31°40' E 121°13'22273.0
2017-Oct-18 15:44N 31°22' E 121°29'67210749.9
2017-Oct-18 15:40N 22°54' E 113°15'304668.4
2017-Oct-18 15:40N 22°37' E 113°42'29346.5
2017-Oct-18 15:35N 23°04' E 113°29'2146.8
2017-Oct-18 15:34N 23°03' E 113°31'7120.7
2017-Oct-18 15:31N 22°57' E 113°35'91728.6
2017-Oct-18 15:30N 23°05' E 113°34'147206.6
2017-Oct-18 15:30N 22°51' E 113°35'148545.5
2017-Oct-18 15:30N 22°39' E 113°42'328929.0
2017-Oct-18 15:30N 22°18' E 114°09'4710024.7
2017-Oct-18 15:30N 22°54' E 113°35'10933.3
2017-Oct-18 15:29N 22°55' E 113°25'67025139.3
2017-Oct-18 15:27N 31°24' E 121°34'10739.9
2017-Oct-18 15:26N 31°30' E 121°24'675105616.1
2017-Oct-18 15:26N 22°54' E 113°15'67686911.5
2017-Oct-18 15:26N 31°25' E 121°32'66079211.5
2017-Oct-18 15:25N 23°03' E 113°31'663113682.2
2017-Oct-18 15:25N 31°25' E 121°38'26543.4
2017-Oct-18 15:22N 31°40' E 121°14'1 3.7
2017-Oct-18 15:08N 31°40' E 121°13'24186.4
2017-Oct-18 15:00N 31°24' E 121°34'673151315.1
2017-Oct-18 15:00N 22°54' E 113°22'121946.6
2017-Oct-18 15:00N 22°54' E 113°35'5933.0
2017-Oct-18 14:59N 22°49' E 113°36'66875126.8
2017-Oct-18 14:59N 31°25' E 121°32'67165276.4
2017-Oct-18 14:58N 22°42' E 113°41'236804.3
2017-Oct-18 14:58N 23°03' E 113°31'663795775.3
2017-Oct-18 14:58N 31°25' E 121°38'665171032.9
2017-Oct-18 14:58N 22°57' E 113°35'66341144.0
2017-Oct-18 14:57N 31°40' E 121°13'141004.9
2017-Oct-18 14:56N 31°30' E 121°24'13720.7
2017-Oct-18 14:55N 31°40' E 121°14'67626761.5
2017-Oct-18 14:53N 22°54' E 113°15'675809717.7
2017-Oct-18 14:53N 31°30' E 121°24'67417849.7
2017-Oct-18 14:51N 22°18' E 114°09'57178.5
2017-Oct-18 14:32N 23°06' E 113°36'1937.4
2017-Oct-18 14:00N 22°47' E 113°38'66852276.5
2017-Oct-18 14:00N 31°30' E 121°24'675347101.3
2017-Oct-18 14:00N 22°54' E 113°15'1913411.5
2017-Oct-18 14:00N 22°54' E 113°35'665170911.5
2017-Oct-18 13:59N 31°24' E 121°34'10426.4
2017-Oct-18 13:58N 31°30' E 121°24'82130.8
2017-Oct-18 13:58N 31°25' E 121°32'662297952.3
2017-Oct-18 13:57N 22°57' E 113°35'66554419.6
2017-Oct-18 13:57N 31°25' E 121°38'2622954.3
2017-Oct-18 13:57N 31°40' E 121°14'431.8
2017-Oct-18 13:49N 31°41' E 121°09'6562814.0
2017-Oct-18 13:35N 23°05' E 113°34'6578600.7
2017-Oct-18 13:30N 31°40' E 121°14'6692408215.0
2017-Oct-18 13:30N 22°49' E 113°36'67180500.5
2017-Oct-18 13:30N 31°25' E 121°38'66788962.6
2017-Oct-18 13:30N 22°54' E 113°35'66344220.4
2017-Oct-18 13:29N 31°30' E 121°24'101001.3
2017-Oct-18 13:28N 31°24' E 121°34'67742785.9
2017-Oct-18 13:27N 22°54' E 113°13'67693562.2
2017-Oct-18 13:27N 31°30' E 121°24'8149.0
2017-Oct-18 13:23N 31°25' E 121°32'66011996.5
2017-Oct-18 13:20N 23°04' E 113°29'423.5
2017-Oct-18 13:10N 23°00' E 113°31'1064.0
2017-Oct-18 13:00N 22°51' E 113°34'668184942.7
2017-Oct-18 13:00N 31°24' E 121°34'663113622.4
2017-Oct-18 13:00N 22°59' E 113°31'61278.4
2017-Oct-18 13:00N 22°54' E 113°35'358.6
2017-Oct-18 12:57N 22°57' E 113°35'9588.8
2017-Oct-18 12:56N 23°04' E 113°29'663397721.3
2017-Oct-18 12:56N 31°25' E 121°38'135025.5
2017-Oct-18 12:56N 31°30' E 121°24'8134.0
2017-Oct-18 12:52N 31°25' E 121°32'6567137.7
2017-Oct-18 12:46N 23°05' E 113°34'1350.3
2017-Oct-18 12:30N 22°52' E 113°33'66661507.6
2017-Oct-18 12:30N 31°30' E 121°24'663199004.9
2017-Oct-18 12:30N 22°54' E 113°35'3273.7
2017-Oct-18 12:29N 22°56' E 113°33'667133372.4
2017-Oct-18 12:29N 31°25' E 121°38'5156.8
2017-Oct-18 12:27N 31°25' E 121°32'2601.8
2017-Oct-18 12:27N 31°24' E 121°34'66314907.8
2017-Oct-18 12:24N 22°57' E 113°35'6613876.0
2017-Oct-18 12:14N 31°29' E 121°25'839.3
2017-Oct-18 12:02N 31°23' E 121°31'66534206.3
2017-Oct-18 12:00N 22°52' E 113°33'44881.8
2017-Oct-18 12:00N 22°55' E 113°36'1100.7
2017-Oct-18 12:00N 22°54' E 113°35'662140232.8
2017-Oct-18 11:59N 31°24' E 121°31'84936.0
2017-Oct-18 11:59N 31°30' E 121°24'10636.3
2017-Oct-18 11:58N 31°24' E 121°34'31861.9
2017-Oct-18 11:58N 31°25' E 121°38'269489.9
2017-Oct-18 11:58N 31°40' E 121°13'231569.9
2017-Oct-18 11:57N 31°25' E 121°32'8613.1
2017-Oct-18 11:56N 31°29' E 121°25'6605548.5
2017-Oct-18 11:49N 23°06' E 113°25'6602122.1
2017-Oct-18 11:31N 31°23' E 121°34'667150048.0
2017-Oct-18 11:30N 22°51' E 113°34'1159.5
2017-Oct-18 11:30N 22°52' E 113°33'31565.9
2017-Oct-18 11:30N 22°54' E 113°35'087.9
2017-Oct-18 11:30N 22°54' E 113°35'66424399.1
2017-Oct-18 11:28N 31°25' E 121°32'516781.2
2017-Oct-18 11:28N 31°25' E 121°38'3116.4
2017-Oct-18 11:26N 31°24' E 121°34'66132174.2
2017-Oct-18 11:25N 23°06' E 113°25'66024482.2
2017-Oct-18 11:23N 31°29' E 121°25'0373.6
2017-Oct-18 11:23N 31°30' E 121°24'66120331.2
2017-Oct-18 11:21N 23°00' E 113°31'4109.2
2017-Oct-18 11:19N 23°01' E 113°36'1278.0
2017-Oct-18 11:10N 22°55' E 113°25'6704360.9
2017-Oct-18 11:01N 31°25' E 121°32'4958.3
2017-Oct-18 11:00N 31°22' E 121°36'6691204263.7
2017-Oct-18 11:00N 22°55' E 113°26'81208.7
2017-Oct-18 11:00N 22°52' E 113°33'3770.4
2017-Oct-18 11:00N 22°54' E 113°35'517765.6
2017-Oct-18 11:00N 22°58' E 113°32'666479569.7
2017-Oct-18 11:00N 31°25' E 121°38'3745.1
2017-Oct-18 10:59N 31°24' E 121°34'103273.1
2017-Oct-18 10:59N 31°29' E 121°25'667109217.5
2017-Oct-18 10:59N 22°49' E 113°34'121087.7
2017-Oct-18 10:58N 23°01' E 113°36'112450.4
2017-Oct-18 10:58N 23°06' E 113°25'15849.2
2017-Oct-18 10:57N 22°54' E 113°35'66337311.0
2017-Oct-18 10:56N 31°30' E 121°24'1437.4
2017-Oct-18 10:34N 31°40' E 121°14'66910747.8
2017-Oct-18 10:30N 22°54' E 113°29'5793.2
2017-Oct-18 10:30N 22°52' E 113°33'666399729.1
2017-Oct-18 10:30N 31°29' E 121°25'663477553.8
2017-Oct-18 10:30N 22°55' E 113°33'23730.3
2017-Oct-18 10:30N 22°55' E 113°35'66727908.9
2017-Oct-18 10:28N 31°25' E 121°38'661170040.4
2017-Oct-18 10:28N 23°01' E 113°36'658338371.4
2017-Oct-18 10:28N 31°22' E 121°36'2842.8
2017-Oct-18 10:28N 31°24' E 121°34'661297613.6
2017-Oct-18 10:28N 23°06' E 113°25'6611189535.1
2017-Oct-18 10:28N 31°25' E 121°32'66439851.9
2017-Oct-18 10:27N 22°54' E 113°35'52818.2
2017-Oct-18 10:26N 22°49' E 113°34'66812649.2
2017-Oct-18 10:23N 31°30' E 121°24'1455.4
2017-Oct-18 10:09N 31°40' E 121°14'66110252.9
2017-Oct-18 10:05N 23°03' E 113°31'66110616.0
2017-Oct-18 10:01N 31°40' E 121°13'66155351.6
2017-Oct-18 10:00N 23°06' E 113°25'661475810.7
2017-Oct-18 10:00N 31°25' E 121°32'667114378.5
2017-Oct-18 10:00N 22°52' E 113°33'3677.4
2017-Oct-18 10:00N 22°54' E 113°35'66470297.8
2017-Oct-18 09:59N 31°22' E 121°36'660107969.2
2017-Oct-18 09:59N 23°03' E 113°31'1424332.5
2017-Oct-18 09:59N 22°49' E 113°34'667120138.4
2017-Oct-18 09:58N 31°29' E 121°25'1424882.3
2017-Oct-18 09:58N 31°40' E 121°14'668802008.4
2017-Oct-18 09:58N 22°53' E 113°31'6681202250.7
2017-Oct-18 09:58N 31°24' E 121°34'102634.5
2017-Oct-18 09:58N 31°30' E 121°24'657591591.7
2017-Oct-18 09:58N 23°01' E 113°36'5905.6
2017-Oct-18 09:58N 22°56' E 113°36'66561412.8
2017-Oct-18 09:57N 31°25' E 121°38'26397.0
2017-Oct-18 09:53N 31°40' E 121°13'2875.9
2017-Oct-18 09:30N 31°22' E 121°38'6632387862.0
2017-Oct-18 09:30N 22°56' E 113°36'142415.5
2017-Oct-18 09:30N 23°06' E 113°25'164231.5
2017-Oct-18 09:30N 22°52' E 113°33'3570.4
2017-Oct-18 09:30N 22°54' E 113°35'5306.7
2017-Oct-18 09:29N 22°49' E 113°34'5685.1
2017-Oct-18 09:28N 22°53' E 113°31'66770577.0
2017-Oct-18 09:28N 31°30' E 121°24'13545.0
2017-Oct-18 09:26N 31°25' E 121°38'32790.4
2017-Oct-18 09:26N 31°24' E 121°34'23314.6
2017-Oct-18 09:26N 31°25' E 121°32'6589079.2
2017-Oct-18 09:22N 23°01' E 113°36'6572365830.2
2017-Oct-18 09:22N 31°29' E 121°25'15511.5
2017-Oct-18 09:20N 31°40' E 121°13'1 5.0
2017-Oct-18 09:10N 31°40' E 121°14'30191.5
2017-Oct-18 09:00N 31°21' E 121°40'1035877.1
2017-Oct-18 09:00N 31°25' E 121°30'657157794.3
2017-Oct-18 09:00N 23°01' E 113°35'101590.3
2017-Oct-18 09:00N 22°52' E 113°33'1659221.9
2017-Oct-18 09:00N 23°06' E 113°25'660593837.0
2017-Oct-18 09:00N 31°30' E 121°24'10635.9
2017-Oct-18 08:59N 31°24' E 121°34'66868700.5
2017-Oct-18 08:58N 22°53' E 113°31'103430.3
2017-Oct-18 08:58N 23°03' E 113°31'9396.5
2017-Oct-18 08:57N 22°54' E 113°35'51504.0
2017-Oct-18 08:56N 22°49' E 113°34'67262008.1
2017-Oct-18 08:56N 31°25' E 121°38'6641573.5
2017-Oct-18 08:30N 22°59' E 113°34'6641195861.5
2017-Oct-18 08:30N 31°25' E 121°38'131809.5
2017-Oct-18 08:30N 31°30' E 121°24'6612381104.9
2017-Oct-18 08:30N 22°56' E 113°36'52596.8
2017-Oct-18 08:30N 22°52' E 113°33'666266484.0
2017-Oct-18 08:30N 31°29' E 121°25'663298439.6
2017-Oct-18 08:30N 22°54' E 113°35'663198964.0
2017-Oct-18 08:29N 31°28' E 121°26'8527.1
2017-Oct-18 08:28N 31°24' E 121°34'97676.9
2017-Oct-18 08:28N 31°19' E 121°43'669240838.7
2017-Oct-18 08:28N 22°53' E 113°31'66836426.5
2017-Oct-18 08:27N 31°38' E 121°15'66942269.3
2017-Oct-18 08:26N 22°49' E 113°34'9796841.9
2017-Oct-18 08:18N 37°46' E 121°07'3701295.9
2017-Oct-18 08:00N 31°37' E 121°17'3010744.0
2017-Oct-18 08:00N 31°17' E 121°43'664199302.7
2017-Oct-18 08:00N 22°57' E 113°33'51219.7
2017-Oct-18 08:00N 22°52' E 113°33'6661199170.0
2017-Oct-18 08:00N 31°29' E 121°25'663298435.4
2017-Oct-18 08:00N 22°54' E 113°35'66339800.7
2017-Oct-18 07:59N 31°30' E 121°24'1346404.1
2017-Oct-18 07:59N 31°39' E 121°14'365328145.6
2017-Oct-18 07:59N 37°44' E 121°09'38062226.1
2017-Oct-18 07:58N 31°24' E 121°34'668601116.6
2017-Oct-18 07:58N 22°53' E 113°31'67089394.3
2017-Oct-18 07:58N 31°25' E 121°38'663119358.3
2017-Oct-18 07:57N 23°03' E 113°31'8907.6
2017-Oct-18 07:57N 22°56' E 113°36'7615.2
2017-Oct-18 07:56N 22°49' E 113°34'1994.8
2017-Oct-18 07:44N 23°06' E 113°25'1462.8
2017-Oct-18 07:30N 22°54' E 113°34'668400792.9
2017-Oct-18 07:30N 31°25' E 121°38'670126990.7
2017-Oct-18 07:30N 22°52' E 113°33'1113229.5
2017-Oct-18 07:30N 23°03' E 113°31'659790917.5
2017-Oct-18 07:30N 31°30' E 121°24'661198425.5
2017-Oct-18 07:30N 22°56' E 113°36'661297568.4
2017-Oct-18 07:30N 31°29' E 121°25'663298435.4
2017-Oct-18 07:30N 22°54' E 113°35'66516970.2
2017-Oct-18 07:27N 31°24' E 121°34'66945455.9
2017-Oct-18 07:26N 22°49' E 113°34'6708705.0
2017-Oct-18 07:22N 31°17' E 121°44'27344.7
2017-Oct-18 07:17N 31°34' E 121°19'6662422.0
2017-Oct-18 07:00N 22°52' E 113°34'667200078.3
2017-Oct-18 07:00N 31°24' E 121°34'666299711.1
2017-Oct-18 07:00N 22°53' E 113°34'2263.4
2017-Oct-18 07:00N 22°52' E 113°33'666299796.8
2017-Oct-18 07:00N 31°29' E 121°25'18956.2
2017-Oct-18 06:59N 31°19' E 121°41'6646.1
2017-Oct-18 06:58N 31°25' E 121°38'132153.4
2017-Oct-18 06:58N 31°30' E 121°24'4581.6
2017-Oct-18 06:57N 31°33' E 121°21'66270057.7
2017-Oct-18 06:57N 22°56' E 113°36'7120.7
2017-Oct-18 06:53N 22°49' E 113°34'14361.3
2017-Oct-18 06:51N 23°03' E 113°31'22108.5
2017-Oct-18 06:39N 22°43' E 113°41'1183.2
2017-Oct-18 06:30N 22°51' E 113°34'667184722.2
2017-Oct-18 06:30N 31°31' E 121°23'165590.2
2017-Oct-18 06:30N 31°22' E 121°38'668114463.1
2017-Oct-18 06:30N 22°52' E 113°33'51821.6
2017-Oct-18 06:30N 22°56' E 113°36'66185019.5
2017-Oct-18 06:29N 31°29' E 121°25'668480791.4
2017-Oct-18 06:29N 22°49' E 113°34'669141715.6
2017-Oct-18 06:29N 31°24' E 121°34'3171.8
2017-Oct-18 06:28N 31°25' E 121°38'13364.7
2017-Oct-18 06:26N 31°30' E 121°24'66928997.8
2017-Oct-18 06:24N 22°45' E 113°39'19200.3
2017-Oct-18 06:18N 23°03' E 113°31'6602206.9
2017-Oct-18 06:00N 31°29' E 121°26'668480987.2
2017-Oct-18 06:00N 22°48' E 113°37'668126655.8
2017-Oct-18 06:00N 31°24' E 121°34'668133540.2
2017-Oct-18 06:00N 22°52' E 113°33'52026.2
2017-Oct-18 06:00N 22°56' E 113°36'66144091.4
2017-Oct-18 05:59N 31°30' E 121°24'667266928.9
2017-Oct-18 05:59N 22°48' E 113°37'5286.8
2017-Oct-18 05:57N 22°51' E 113°34'67038301.8
2017-Oct-18 05:56N 31°25' E 121°38'12390.0
2017-Oct-18 05:55N 31°29' E 121°25'6688870.6
2017-Oct-18 05:50N 22°49' E 113°34'11248.1
2017-Oct-18 05:47N 22°40' E 113°41'6732889.7
2017-Oct-18 05:33N 31°41' E 121°10'66613615.4
2017-Oct-18 05:31N 22°53' E 113°34'665299403.8
2017-Oct-18 05:30N 31°27' E 121°29'66763181.0
2017-Oct-18 05:30N 22°52' E 113°33'667800558.8
2017-Oct-18 05:30N 31°41' E 121°10'662264860.0
2017-Oct-18 05:30N 22°56' E 113°36'66057916.3
2017-Oct-18 05:29N 31°23' E 121°30'82003.0
2017-Oct-18 05:29N 31°30' E 121°24'1315118.5
2017-Oct-18 05:29N 31°25' E 121°38'1214868.8
2017-Oct-18 05:29N 31°29' E 121°24'6662398275.0
2017-Oct-18 05:28N 22°52' E 113°33'66840063.5
2017-Oct-18 05:27N 31°24' E 121°34'66931288.1
2017-Oct-18 05:26N 22°49' E 113°34'19984.9
2017-Oct-18 05:25N 23°06' E 113°25'24595.4
2017-Oct-18 05:23N 22°44' E 113°37'98618590.1
2017-Oct-18 05:19N 37°49' E 121°13'3841205.4
2017-Oct-18 05:00N 31°25' E 121°31'84614.6
2017-Oct-18 05:00N 31°29' E 121°24'0387.2
2017-Oct-18 05:00N 31°30' E 121°24'661340051.1
2017-Oct-18 05:00N 22°57' E 113°36'51193.8
2017-Oct-18 05:00N 22°52' E 113°33'51301.2
2017-Oct-18 05:00N 22°56' E 113°36'7807.4
2017-Oct-18 04:59N 22°49' E 113°34'672345473.5
2017-Oct-18 04:59N 31°25' E 121°38'676143111.4
2017-Oct-18 04:59N 22°45' E 113°33'75084.8
2017-Oct-18 04:58N 22°52' E 113°33'66817169.4
2017-Oct-18 04:56N 31°24' E 121°34'3847091.3
2017-Oct-18 04:53N 37°48' E 121°15'969166108.1
2017-Oct-18 04:53N 23°05' E 113°33'727.0
2017-Oct-18 04:37N 23°06' E 113°25'8305.0
2017-Oct-18 04:35N 23°05' E 113°34'96019643.1
2017-Oct-18 04:32N 37°42' E 121°09'96835915.9
2017-Oct-18 04:30N 22°57' E 113°36'5434.6
2017-Oct-18 04:30N 22°52' E 113°33'51301.2
2017-Oct-18 04:30N 22°56' E 113°36'135978.3
2017-Oct-18 04:29N 22°44' E 113°29'981185932.7
2017-Oct-18 04:29N 37°42' E 121°09'973103034.6
2017-Oct-18 04:28N 22°52' E 113°33'668184898.8
2017-Oct-18 04:28N 31°24' E 121°34'38326035.1
2017-Oct-18 04:27N 37°47' E 121°17'37738806.9
2017-Oct-18 04:27N 31°30' E 121°24'13801.4
2017-Oct-18 04:26N 31°25' E 121°38'6596705.0
2017-Oct-18 04:20N 23°05' E 113°34'123.9
2017-Oct-18 04:16N 23°05' E 113°33'6563531.8
2017-Oct-18 04:05N 31°30' E 121°24'66359707.9
2017-Oct-18 04:05N 22°54' E 113°35'230.0
2017-Oct-18 04:01N 22°56' E 113°36'976585589.7
2017-Oct-18 04:00N 37°46' E 121°19'976501695.8
2017-Oct-18 04:00N 22°57' E 113°36'972318271.7
2017-Oct-18 04:00N 37°46' E 121°12'978160006.2
2017-Oct-18 04:00N 22°52' E 113°33'3142.3
2017-Oct-18 03:59N 22°54' E 113°35'1322831.6
2017-Oct-18 03:59N 22°43' E 113°28'1017715.5
2017-Oct-18 03:58N 22°52' E 113°33'66715695.4
2017-Oct-18 03:56N 31°35' E 121°18'204687.5
2017-Oct-18 03:56N 31°25' E 121°38'681111439.9
2017-Oct-18 03:55N 22°36' E 113°35'678187887.8
2017-Oct-18 03:55N 31°24' E 121°34'65814182.9
2017-Oct-18 03:52N 23°05' E 113°33'15112.1
2017-Oct-18 03:44N 22°49' E 113°34'667600607.6
2017-Oct-18 03:44N 31°30' E 121°24'042.3
2017-Oct-18 03:44N 31°30' E 121°24'65947415.0
2017-Oct-18 03:43N 23°03' E 113°31'65837621.9
2017-Oct-18 03:42N 31°31' E 121°23'6613380.5
2017-Oct-18 03:30N 22°57' E 113°36'51186.3
2017-Oct-18 03:30N 22°52' E 113°33'670482562.6
2017-Oct-18 03:30N 31°25' E 121°38'16971.1
2017-Oct-18 03:29N 31°33' E 121°21'667300000.5
2017-Oct-18 03:28N 22°52' E 113°33'3460.3
2017-Oct-18 03:28N 22°54' E 113°35'66482375.1
2017-Oct-18 03:28N 31°30' E 121°24'2199.8
2017-Oct-18 03:27N 31°31' E 121°23'12763.7
2017-Oct-18 03:26N 31°24' E 121°34'10249.9
2017-Oct-18 03:24N 31°30' E 121°24'37836735.9
2017-Oct-18 03:23N 37°47' E 121°14'975350982.6
2017-Oct-18 03:23N 22°56' E 113°36'9872.6
2017-Oct-18 03:22N 23°05' E 113°33'15672.5
2017-Oct-18 03:21N 22°49' E 113°34'1962.5
2017-Oct-18 03:03N 23°06' E 113°25'14337.7
2017-Oct-18 03:00N 22°57' E 113°36'6621191450.6
2017-Oct-18 03:00N 31°31' E 121°24'66880182.8
2017-Oct-18 03:00N 22°49' E 113°34'2634.3
2017-Oct-18 03:00N 22°52' E 113°33'666399724.1
2017-Oct-18 03:00N 31°31' E 121°23'2155.9
2017-Oct-18 02:59N 31°30' E 121°24'134568.8
2017-Oct-18 02:59N 31°25' E 121°38'670150804.0
2017-Oct-18 02:58N 22°52' E 113°33'54153.3
2017-Oct-18 02:58N 22°56' E 113°36'93785.7
2017-Oct-18 02:58N 23°05' E 113°33'111694.2
2017-Oct-18 02:58N 22°54' E 113°35'663159213.0
2017-Oct-18 02:58N 31°30' E 121°24'10281.1
2017-Oct-18 02:55N 31°24' E 121°34'6618472.0
2017-Oct-18 02:51N 23°06' E 113°25'9708102.7
2017-Oct-18 02:44N 37°47' E 121°17'9179321.4
2017-Oct-18 02:38N 22°31' E 120°18'3725036.9
2017-Oct-18 02:33N 22°51' E 113°35'374.6
2017-Oct-18 02:30N 22°54' E 113°35'2749.7
2017-Oct-18 02:30N 22°57' E 113°36'371333832.5
2017-Oct-18 02:30N 22°32' E 120°17'540114253.1
2017-Oct-18 02:30N 31°28' E 121°27'6682404855.1
2017-Oct-18 02:30N 22°49' E 113°34'6711208370.4
2017-Oct-18 02:30N 31°25' E 121°38'670219345.1
2017-Oct-18 02:30N 22°52' E 113°33'66838152.1
2017-Oct-18 02:29N 31°24' E 121°34'1036240.9
2017-Oct-18 02:29N 31°30' E 121°24'666266484.8
2017-Oct-18 02:28N 22°52' E 113°33'51850.1
2017-Oct-18 02:28N 22°56' E 113°36'97679883.5
2017-Oct-18 02:28N 37°47' E 121°18'98144713.6
2017-Oct-18 02:26N 22°51' E 113°34'66627259.1
2017-Oct-18 02:25N 31°30' E 121°24'66032095.9
2017-Oct-18 02:24N 23°06' E 113°25'66021200.2
2017-Oct-18 02:22N 31°31' E 121°23'855.9
2017-Oct-18 02:13N 31°37' E 121°17'65794547.7
2017-Oct-18 02:13N 23°05' E 113°34'115.7
2017-Oct-18 02:07N 23°05' E 113°33'301420.9
2017-Oct-18 02:06N 22°36' E 113°43'1 7.5
2017-Oct-18 02:00N 22°37' E 113°43'6732421749.7
2017-Oct-18 02:00N 31°26' E 121°30'667799887.1
2017-Oct-18 02:00N 22°52' E 113°32'31529.0
2017-Oct-18 02:00N 22°54' E 113°35'3158.8
2017-Oct-18 01:59N 22°57' E 113°36'9761171655.2
2017-Oct-18 01:59N 37°47' E 121°21'98298187.1
2017-Oct-18 01:58N 22°52' E 113°33'6662398906.1
2017-Oct-18 01:58N 31°30' E 121°24'662216581.8
2017-Oct-18 01:58N 22°56' E 113°36'93781.1
2017-Oct-18 01:58N 23°05' E 113°33'132228.2
2017-Oct-18 01:58N 22°52' E 113°33'670185601.0
2017-Oct-18 01:58N 31°25' E 121°38'385.8
2017-Oct-18 01:55N 31°24' E 121°34'29103086.2
2017-Oct-18 01:55N 31°42' E 121°09'66019648.0
2017-Oct-18 01:53N 23°06' E 113°25'66162580.6
2017-Oct-18 01:53N 31°36' E 121°18'67613298.8
2017-Oct-18 01:50N 22°54' E 113°14'19648.2
2017-Oct-18 01:48N 22°49' E 113°34'6678998.0
2017-Oct-18 01:43N 31°30' E 121°24'958.5
2017-Oct-18 01:34N 31°24' E 121°32'6679411.1
2017-Oct-18 01:30N 22°54' E 113°30'982442035.3
2017-Oct-18 01:30N 37°47' E 121°23'980235200.2
2017-Oct-18 01:30N 22°54' E 113°35'34823.3
2017-Oct-18 01:30N 22°57' E 113°36'197572.5
2017-Oct-18 01:30N 22°40' E 113°46'669601820.1
2017-Oct-18 01:30N 31°24' E 121°33'67543366.8
2017-Oct-18 01:29N 22°53' E 113°17'1513511.7
2017-Oct-18 01:29N 22°52' E 113°33'666114206.2
2017-Oct-18 01:28N 31°30' E 121°24'66685652.2
2017-Oct-18 01:28N 22°52' E 113°33'975250775.9
2017-Oct-18 01:28N 37°43' E 121°11'38059453.7
2017-Oct-18 01:27N 31°24' E 121°34'3124.5
2017-Oct-18 01:26N 31°25' E 121°38'66169937.9
2017-Oct-18 01:25N 23°05' E 113°33'91440.6
2017-Oct-18 01:25N 22°56' E 113°36'661396786.5
2017-Oct-18 01:25N 31°30' E 121°24'66710824.2
2017-Oct-18 01:21N 22°49' E 113°34'66817684.9
2017-Oct-18 01:19N 31°22' E 121°35'271281.4
2017-Oct-18 01:17N 31°40' E 121°12'6622349.1
2017-Oct-18 01:00N 22°57' E 113°36'663140367.1
2017-Oct-18 01:00N 31°22' E 121°38'6631193605.0
2017-Oct-18 01:00N 22°56' E 113°36'9793523645.5
2017-Oct-18 01:00N 37°48' E 121°24'376135329.0
2017-Oct-18 01:00N 31°32' E 121°23'122437.6
2017-Oct-18 01:00N 31°40' E 121°13'66833858.5
2017-Oct-18 00:58N 22°52' E 113°33'667600256.0
2017-Oct-18 00:58N 31°22' E 121°35'672161344.9
2017-Oct-18 00:58N 22°54' E 113°21'111637.0
2017-Oct-18 00:58N 22°52' E 113°33'16709.2
2017-Oct-18 00:56N 23°06' E 113°25'193378.9
2017-Oct-18 00:56N 22°49' E 113°34'671142168.5
2017-Oct-18 00:56N 31°25' E 121°38'3377.9
2017-Oct-18 00:55N 31°24' E 121°34'10396.5
2017-Oct-18 00:54N 31°30' E 121°24'6573185.2
2017-Oct-18 00:41N 23°05' E 113°32'218.3
2017-Oct-18 00:35N 23°03' E 113°31'6609209.5
2017-Oct-18 00:30N 31°24' E 121°34'106983.2
2017-Oct-18 00:30N 31°30' E 121°26'6632385018.1
2017-Oct-18 00:30N 22°56' E 113°36'664478122.0
2017-Oct-18 00:30N 31°20' E 121°42'664796602.9
2017-Oct-18 00:30N 22°56' E 113°36'978880056.2
2017-Oct-18 00:30N 37°47' E 121°24'97172846.9
2017-Oct-18 00:29N 23°05' E 113°32'121184.3
2017-Oct-18 00:29N 22°55' E 113°25'83012.8
2017-Oct-18 00:28N 22°52' E 113°33'668343434.6
2017-Oct-18 00:28N 31°38' E 121°15'66863262.9
2017-Oct-18 00:28N 22°52' E 113°33'670402135.5
2017-Oct-18 00:28N 31°25' E 121°38'67153708.1
2017-Oct-18 00:27N 22°49' E 113°34'668480617.8
2017-Oct-18 00:27N 31°30' E 121°24'1214405.6
2017-Oct-18 00:27N 31°22' E 121°35'660296811.4
2017-Oct-18 00:27N 23°05' E 113°28'30249.2
2017-Oct-18 00:20N 22°40' E 113°46'665119638.8
2017-Oct-18 00:19N 31°18' E 121°33'13265.4
2017-Oct-18 00:16N 31°29' E 121°25'6662556.8
2017-Oct-18 00:01N 22°52' E 113°33'6672401725.5
2017-Oct-18 00:00N 31°28' E 121°28'665598937.8
2017-Oct-18 00:00N 22°53' E 113°34'667800219.7
2017-Oct-18 00:00N 31°17' E 121°45'6622382207.8
2017-Oct-18 00:00N 23°02' E 113°31'660198143.0
2017-Oct-18 00:00N 31°37' E 121°16'201378.1
2017-Oct-17 23:59N 31°24' E 121°34'658296097.1
2017-Oct-17 23:59N 23°05' E 113°32'661103392.6
2017-Oct-17 23:59N 31°25' E 121°38'1311305.2
2017-Oct-17 23:59N 31°30' E 121°24'121393.2
2017-Oct-17 23:58N 31°22' E 121°35'385231123.3
2017-Oct-17 23:58N 37°47' E 121°21'38777454.5
2017-Oct-17 23:58N 31°20' E 121°33'664796910.7
2017-Oct-17 23:58N 22°52' E 113°33'66636897.5
2017-Oct-17 23:57N 31°29' E 121°25'66763223.9
2017-Oct-17 23:56N 22°49' E 113°34'141571.7
2017-Oct-17 23:55N 22°40' E 113°46'979251783.9
2017-Oct-17 23:55N 37°42' E 121°09'96835553.6
2017-Oct-17 23:54N 22°56' E 113°36'6602002.3
2017-Oct-17 23:34N 31°24' E 121°31'13218.5
2017-Oct-17 23:30N 31°18' E 121°44'1554712.2
2017-Oct-17 23:30N 31°27' E 121°30'667600673.8
2017-Oct-17 23:30N 22°53' E 113°31'6681202334.6
2017-Oct-17 23:30N 31°24' E 121°34'668400629.9
2017-Oct-17 23:30N 22°53' E 113°32'982589226.8
2017-Oct-17 23:30N 37°47' E 121°22'984505926.9
2017-Oct-17 23:30N 22°49' E 113°36'71153.0
2017-Oct-17 23:30N 22°56' E 113°36'971437105.7
2017-Oct-17 23:29N 37°45' E 121°11'971129432.1
2017-Oct-17 23:29N 22°59' E 113°32'66235564.4
2017-Oct-17 23:28N 31°30' E 121°24'1243216.8
2017-Oct-17 23:28N 31°22' E 121°35'31968.9
2017-Oct-17 23:28N 31°25' E 121°38'670804271.0
2017-Oct-17 23:28N 22°52' E 113°33'284.8
2017-Oct-17 23:26N 22°49' E 113°34'66914677.1
2017-Oct-17 23:23N 31°36' E 121°18'163104.5
2017-Oct-17 23:23N 31°24' E 121°31'81595.8
2017-Oct-17 23:23N 31°29' E 121°25'103965.3
2017-Oct-17 23:22N 31°21' E 121°31'6674668.5
2017-Oct-17 23:14N 22°39' E 113°45'1775.3
2017-Oct-17 23:01N 22°52' E 113°33'667240203.3
2017-Oct-17 23:00N 31°35' E 121°19'6682404418.6
2017-Oct-17 23:00N 22°54' E 113°29'671805234.0
2017-Oct-17 23:00N 31°25' E 121°38'670301643.3
2017-Oct-17 23:00N 22°51' E 113°35'9841181289.2
2017-Oct-17 23:00N 37°47' E 121°25'382196678.6
2017-Oct-17 23:00N 31°25' E 121°32'664132788.5
2017-Oct-17 23:00N 22°55' E 113°33'6652394421.8
2017-Oct-17 23:00N 31°20' E 121°40'169750.1
2017-Oct-17 23:00N 31°29' E 121°25'102999.4
2017-Oct-17 22:59N 31°24' E 121°34'3905.4
2017-Oct-17 22:59N 31°24' E 121°31'81399.7
2017-Oct-17 22:59N 31°30' E 121°24'66813810.6
2017-Oct-17 22:56N 22°49' E 113°34'665108737.7
2017-Oct-17 22:56N 31°21' E 121°31'51786.1
2017-Oct-17 22:55N 31°24' E 121°36'661339763.1
2017-Oct-17 22:55N 23°03' E 113°31'27194.3
2017-Oct-17 22:47N 22°39' E 113°45'66912036.2
2017-Oct-17 22:44N 31°24' E 121°31'6653051.8
2017-Oct-17 22:31N 22°52' E 113°33'668481082.9
2017-Oct-17 22:30N 31°24' E 121°36'6671201384.1
2017-Oct-17 22:30N 22°52' E 113°34'6671200524.9
2017-Oct-17 22:30N 31°24' E 121°34'670482677.4
2017-Oct-17 22:30N 22°55' E 113°25'670602917.0
2017-Oct-17 22:30N 31°22' E 121°36'1720948.6
2017-Oct-17 22:30N 31°33' E 121°20'6682404331.8
2017-Oct-17 22:30N 22°48' E 113°37'987887929.9
2017-Oct-17 22:30N 37°48' E 121°25'378136121.1
2017-Oct-17 22:30N 31°30' E 121°24'66191569.1
2017-Oct-17 22:29N 22°56' E 113°36'658182318.8
2017-Oct-17 22:29N 31°21' E 121°31'7831.1
2017-Oct-17 22:29N 31°25' E 121°38'6348.5
2017-Oct-17 22:28N 31°24' E 121°31'8296.5
2017-Oct-17 22:26N 31°29' E 121°25'667171607.8
2017-Oct-17 22:26N 22°49' E 113°34'1517448.2
2017-Oct-17 22:26N 22°39' E 113°45'1739.6
2017-Oct-17 22:01N 22°52' E 113°33'666342549.7
2017-Oct-17 22:00N 31°31' E 121°22'666599437.7
2017-Oct-17 22:00N 22°51' E 113°34'666342607.7
2017-Oct-17 22:00N 31°28' E 121°26'667266675.3
2017-Oct-17 22:00N 22°49' E 113°36'66985962.9
2017-Oct-17 22:00N 31°24' E 121°36'663298418.5
2017-Oct-17 21:59N 22°56' E 113°36'6612378449.0
2017-Oct-17 21:59N 31°24' E 121°31'32290.0
2017-Oct-17 21:59N 31°24' E 121°34'674485226.0
2017-Oct-17 21:59N 22°53' E 113°20'991356787.3
2017-Oct-17 21:59N 37°50' E 121°31'38048832.1
2017-Oct-17 21:59N 31°30' E 121°24'13942.3
2017-Oct-17 21:58N 31°25' E 121°38'131251.3
2017-Oct-17 21:57N 31°30' E 121°24'106158.4
2017-Oct-17 21:57N 31°21' E 121°31'65620365.6
2017-Oct-17 21:55N 23°03' E 113°31'9130.4
2017-Oct-17 21:51N 22°54' E 113°35'3 8.2
2017-Oct-17 21:31N 22°52' E 113°33'668601344.2
2017-Oct-17 21:30N 31°24' E 121°36'11012.5
2017-Oct-17 21:30N 31°24' E 121°34'1037599.3
2017-Oct-17 21:30N 31°29' E 121°24'663596752.4
2017-Oct-17 21:30N 22°55' E 113°33'663217120.8
2017-Oct-17 21:30N 31°28' E 121°26'2648.8
2017-Oct-17 21:30N 31°30' E 121°24'664298594.1
2017-Oct-17 21:30N 22°54' E 113°35'161864.4
2017-Oct-17 21:29N 22°51' E 113°18'99581395.8
2017-Oct-17 21:29N 37°50' E 121°34'38538493.3
2017-Oct-17 21:28N 31°25' E 121°38'663596791.7
2017-Oct-17 21:28N 23°03' E 113°31'8313.6
2017-Oct-17 21:26N 22°56' E 113°36'6597255.2
2017-Oct-17 21:21N 31°21' E 121°33'13345.9
2017-Oct-17 21:19N 31°30' E 121°23'1992.8
2017-Oct-17 21:07N 31°20' E 121°41'6686666.1
2017-Oct-17 21:01N 22°52' E 113°33'668343665.8
2017-Oct-17 21:00N 31°21' E 121°40'38973712.7
2017-Oct-17 21:00N 37°50' E 121°34'9931786694.5
2017-Oct-17 21:00N 22°45' E 113°39'669141753.0
2017-Oct-17 21:00N 31°24' E 121°34'1311.1
2017-Oct-17 21:00N 31°24' E 121°36'665479081.2
2017-Oct-17 20:59N 22°54' E 113°35'22861.7
2017-Oct-17 20:59N 22°56' E 113°36'53508.2
2017-Oct-17 20:59N 22°59' E 113°31'661132172.4
2017-Oct-17 20:59N 31°30' E 121°23'14608.3
2017-Oct-17 20:58N 31°25' E 121°38'1322690.5
2017-Oct-17 20:58N 31°30' E 121°24'6591186264.7
2017-Oct-17 20:58N 23°03' E 113°31'65849386.6
2017-Oct-17 20:57N 31°28' E 121°25'563.5
2017-Oct-17 20:52N 31°32' E 121°21'515.5
2017-Oct-17 20:30N 31°28' E 121°25'73023.0
2017-Oct-17 20:30N 31°24' E 121°32'659593425.2
2017-Oct-17 20:30N 23°03' E 113°31'659790523.4
2017-Oct-17 20:30N 31°33' E 121°19'176170.4
2017-Oct-17 20:30N 31°23' E 121°35'114482.0
2017-Oct-17 20:30N 31°30' E 121°24'669240825.8
2017-Oct-17 20:30N 22°43' E 113°40'671120705.2
2017-Oct-17 20:29N 31°24' E 121°36'6631193673.8
2017-Oct-17 20:29N 22°56' E 113°36'2536.6
2017-Oct-17 20:29N 22°54' E 113°35'987107691.6
2017-Oct-17 20:29N 37°51' E 121°32'99915844.8
2017-Oct-17 20:25N 22°47' E 113°19'68213947.8
2017-Oct-17 20:22N 31°25' E 121°38'72861.6
2017-Oct-17 20:22N 31°21' E 121°31'2168.7
2017-Oct-17 20:03N 31°37' E 121°15'66714127.1
2017-Oct-17 20:00N 22°52' E 113°33'666184493.8
2017-Oct-17 20:00N 31°25' E 121°30'56204.7
2017-Oct-17 20:00N 31°24' E 121°36'87041.5
2017-Oct-17 20:00N 31°27' E 121°28'21951.9
2017-Oct-17 20:00N 31°28' E 121°25'658263395.1
2017-Oct-17 20:00N 23°03' E 113°31'218421.7
2017-Oct-17 20:00N 22°47' E 113°16'213114.0
2017-Oct-17 19:59N 22°56' E 113°36'2237.9
2017-Oct-17 19:59N 22°54' E 113°35'664398145.5
2017-Oct-17 19:59N 31°30' E 121°24'131507.4
2017-Oct-17 19:58N 31°25' E 121°38'385173351.1
2017-Oct-17 19:58N 37°50' E 121°33'99717425.6
2017-Oct-17 19:55N 22°48' E 113°20'677135430.0
2017-Oct-17 19:54N 31°38' E 121°14'67120125.1
2017-Oct-17 19:52N 22°41' E 113°42'6679876.1
2017-Oct-17 19:48N 31°21' E 121°31'6662487.1
2017-Oct-17 19:32N 22°43' E 113°41'11374.7
2017-Oct-17 19:30N 22°52' E 113°33'666399483.8
2017-Oct-17 19:30N 31°30' E 121°23'3712.1
2017-Oct-17 19:30N 31°29' E 121°26'679305702.5
2017-Oct-17 19:30N 22°47' E 113°18'679174562.0
2017-Oct-17 19:30N 31°30' E 121°24'659182515.4
2017-Oct-17 19:30N 23°03' E 113°31'82122.8
2017-Oct-17 19:29N 22°56' E 113°36'173927.6
2017-Oct-17 19:29N 22°40' E 113°43'161448.2
2017-Oct-17 19:28N 22°54' E 113°35'6651197686.4
2017-Oct-17 19:28N 31°24' E 121°36'284.4
2017-Oct-17 19:27N 31°25' E 121°38'113415.0
2017-Oct-17 19:27N 31°28' E 121°25'66811507.9
2017-Oct-17 19:23N 22°44' E 113°40'66611688.9
2017-Oct-17 19:20N 31°21' E 121°31'3888739.5
2017-Oct-17 19:17N 37°49' E 121°34'9893570.9
2017-Oct-17 19:00N 22°52' E 113°33'51272.5
2017-Oct-17 19:00N 22°48' E 113°37'9596.5
2017-Oct-17 18:59N 22°56' E 113°36'661158575.1
2017-Oct-17 18:59N 31°28' E 121°25'11471.0
2017-Oct-17 18:58N 31°25' E 121°38'13811.0
2017-Oct-17 18:57N 31°30' E 121°24'114095.2
2017-Oct-17 18:57N 31°24' E 121°36'17211.7
2017-Oct-17 18:52N 31°34' E 121°19'377271490.2
2017-Oct-17 18:52N 37°50' E 121°33'378170209.2
2017-Oct-17 18:51N 31°32' E 121°21'14424.4
2017-Oct-17 18:49N 31°21' E 121°31'66179273.6
2017-Oct-17 18:49N 22°54' E 113°35'3 9.1
2017-Oct-17 18:30N 22°52' E 113°33'1426.5
2017-Oct-17 18:30N 22°52' E 113°34'666141138.1
2017-Oct-17 18:30N 31°36' E 121°17'82772.2
2017-Oct-17 18:30N 31°30' E 121°24'143307.2
2017-Oct-17 18:30N 31°40' E 121°13'37042978.6
2017-Oct-17 18:29N 37°50' E 121°33'980320715.3
2017-Oct-17 18:29N 23°03' E 113°31'83942.4
2017-Oct-17 18:29N 22°56' E 113°36'663149209.2
2017-Oct-17 18:29N 31°24' E 121°36'66553230.5
2017-Oct-17 18:28N 22°54' E 113°35'66335098.4
2017-Oct-17 18:27N 31°28' E 121°25'11426.9
2017-Oct-17 18:25N 31°25' E 121°38'6701639.2
2017-Oct-17 18:01N 22°52' E 113°33'667300238.2
2017-Oct-17 18:00N 31°38' E 121°15'2252.3
2017-Oct-17 18:00N 31°39' E 121°14'2511261.8
2017-Oct-17 18:00N 31°25' E 121°38'1110245.0
2017-Oct-17 18:00N 31°28' E 121°25'10691.8
2017-Oct-17 17:59N 31°24' E 121°36'663341047.2
2017-Oct-17 17:59N 22°56' E 113°36'82505.6
2017-Oct-17 17:59N 23°03' E 113°31'92606.9
2017-Oct-17 17:58N 22°54' E 113°35'025.0
2017-Oct-17 17:57N 22°54' E 113°35'66564733.9
2017-Oct-17 17:57N 31°40' E 121°13'370121012.5
2017-Oct-17 17:57N 37°50' E 121°34'3783507.1
2017-Oct-17 17:50N 31°32' E 121°21'6662039.8
2017-Oct-17 17:31N 22°52' E 113°33'42526.9
2017-Oct-17 17:30N 22°55' E 113°35'1116.6
2017-Oct-17 17:30N 22°54' E 113°35'663113695.9
2017-Oct-17 17:30N 31°33' E 121°20'102074.7
2017-Oct-17 17:29N 31°40' E 121°12'66258152.0
2017-Oct-17 17:29N 22°56' E 113°36'665171058.4
2017-Oct-17 17:29N 31°25' E 121°38'11975.7
2017-Oct-17 17:28N 31°28' E 121°25'10642.2
2017-Oct-17 17:27N 31°24' E 121°36'38729014.8
2017-Oct-17 17:26N 37°51' E 121°33'9932338.1
2017-Oct-17 17:01N 22°46' E 113°38'74468.1
2017-Oct-17 17:00N 22°52' E 113°33'71104.8
2017-Oct-17 17:00N 22°46' E 113°38'1214038.4
2017-Oct-17 17:00N 22°57' E 113°37'4727.5
2017-Oct-17 17:00N 22°54' E 113°35'665133076.3
2017-Oct-17 16:59N 31°24' E 121°36'66355519.7
2017-Oct-17 16:59N 22°56' E 113°36'661396835.2
2017-Oct-17 16:59N 31°35' E 121°18'37645063.9
2017-Oct-17 16:58N 37°50' E 121°33'38224976.8
2017-Oct-17 16:57N 31°28' E 121°25'1140973.3
2017-Oct-17 16:57N 31°25' E 121°38'6637483.4
2017-Oct-17 16:52N 23°03' E 113°31'6601865.4
2017-Oct-17 16:31N 31°39' E 121°13'667184732.5
2017-Oct-17 16:30N 22°52' E 113°33'34080.7
2017-Oct-17 16:30N 22°49' E 113°36'5310.9
2017-Oct-17 16:29N 22°54' E 113°35'664398410.3
2017-Oct-17 16:29N 31°36' E 121°17'660263867.8
2017-Oct-17 16:29N 23°02' E 113°31'7942.1
2017-Oct-17 16:29N 22°56' E 113°36'663149210.2
2017-Oct-17 16:28N 31°24' E 121°36'10899.0
2017-Oct-17 16:28N 31°28' E 121°25'11758.9
2017-Oct-17 16:27N 31°25' E 121°38'38517772.1
2017-Oct-17 16:26N 37°50' E 121°32'98028693.6
2017-Oct-17 16:24N 22°59' E 113°37'1773.6
2017-Oct-17 16:10N 22°53' E 113°20'16107.8
2017-Oct-17 16:01N 23°05' E 113°32'133616.1
2017-Oct-17 16:00N 22°52' E 113°33'989187476.8
2017-Oct-17 16:00N 37°51' E 121°31'9881779186.8
2017-Oct-17 16:00N 22°52' E 113°34'81936.2
2017-Oct-17 16:00N 22°59' E 113°31'6494.1
2017-Oct-17 15:59N 22°54' E 113°35'2330.2
2017-Oct-17 15:59N 22°56' E 113°36'66146639.7
2017-Oct-17 15:58N 31°28' E 121°25'656236137.9
2017-Oct-17 15:58N 23°05' E 113°32'66181999.9
2017-Oct-17 15:57N 31°25' E 121°38'2232.9
2017-Oct-17 15:57N 31°24' E 121°36'22998.0
2017-Oct-17 15:55N 31°37' E 121°16'67125175.8
2017-Oct-17 15:54N 22°54' E 113°22'15136.1
2017-Oct-17 15:47N 22°59' E 113°37'725.3
2017-Oct-17 15:30N 22°57' E 113°30'3772.2
2017-Oct-17 15:30N 22°56' E 113°33'66595783.6
2017-Oct-17 15:30N 31°24' E 121°36'232552.2
2017-Oct-17 15:29N 31°38' E 121°15'244056.5
2017-Oct-17 15:29N 31°25' E 121°38'111050.8
2017-Oct-17 15:28N 31°28' E 121°25'666114127.1
2017-Oct-17 15:28N 22°52' E 113°33'7187.6
2017-Oct-17 15:26N 22°55' E 113°26'881.7
2017-Oct-17 15:20N 22°54' E 113°35'196166.8
2017-Oct-17 15:19N 22°35' E 113°36'213613.4
2017-Oct-17 15:19N 22°56' E 113°36'9143.7
2017-Oct-17 15:15N 23°05' E 113°32'791.4
2017-Oct-17 15:11N 22°59' E 113°37'66016971.2
2017-Oct-17 15:08N 31°40' E 121°14'6795145.1
2017-Oct-17 15:00N 22°37' E 113°35'2119270.1
2017-Oct-17 15:00N 22°58' E 113°32'75032.9
2017-Oct-17 15:00N 22°52' E 113°33'6681202478.6
2017-Oct-17 15:00N 31°40' E 121°14'668185112.2
2017-Oct-17 15:00N 22°54' E 113°29'666599625.4
2017-Oct-17 15:00N 31°28' E 121°25'66585563.0
2017-Oct-17 15:00N 22°54' E 113°31'668480905.5
2017-Oct-17 14:59N 31°24' E 121°36'2154.9
2017-Oct-17 14:59N 31°25' E 121°38'667240273.3
2017-Oct-17 14:58N 22°54' E 113°35'2387.6
2017-Oct-17 14:58N 22°56' E 113°36'9141.2
2017-Oct-17 14:54N 23°05' E 113°32'774.5
2017-Oct-17 14:49N 22°59' E 113°37'826.5
2017-Oct-17 14:30N 22°52' E 113°33'132420.8
2017-Oct-17 14:30N 23°05' E 113°32'205184201.8
2017-Oct-17 14:30N 21°17' E 110°25'20230271.9
2017-Oct-17 14:30N 23°02' E 113°31'65943155.1
2017-Oct-17 14:29N 31°28' E 121°25'666239755.7
2017-Oct-17 14:29N 22°53' E 113°31'4448.1
2017-Oct-17 14:28N 22°54' E 113°35'28403.1
2017-Oct-17 14:28N 22°56' E 113°36'52050.1
2017-Oct-17 14:28N 22°52' E 113°33'66819089.5
2017-Oct-17 14:26N 31°24' E 121°36'2143.8
2017-Oct-17 14:25N 31°25' E 121°38'261033.3
2017-Oct-17 14:23N 31°40' E 121°14'67846942.1
2017-Oct-17 14:23N 22°41' E 113°31'19894.9
2017-Oct-17 14:21N 22°59' E 113°37'6592026.3
2017-Oct-17 14:02N 31°40' E 121°12'67733392.9
2017-Oct-17 14:00N 22°42' E 113°29'2219450.8
2017-Oct-17 14:00N 23°04' E 113°29'135699.4
2017-Oct-17 14:00N 22°52' E 113°33'42561.8
2017-Oct-17 14:00N 22°54' E 113°30'51370.9
2017-Oct-17 14:00N 22°54' E 113°35'59598.9
2017-Oct-17 14:00N 22°59' E 113°37'1037320.9
2017-Oct-17 14:00N 22°49' E 113°36'668160312.2
2017-Oct-17 14:00N 31°40' E 121°12'263780.5
2017-Oct-17 13:59N 31°24' E 121°36'66328762.7
2017-Oct-17 13:58N 22°56' E 113°36'66148543.4
2017-Oct-17 13:57N 31°28' E 121°25'111951.4
2017-Oct-17 13:57N 31°25' E 121°38'6711524.8
2017-Oct-17 13:30N 22°54' E 113°28'621613.5
2017-Oct-17 13:30N 22°52' E 113°33'3312.2
2017-Oct-17 13:30N 22°54' E 113°35'122684.9
2017-Oct-17 13:29N 22°44' E 113°28'67548581.3
2017-Oct-17 13:29N 31°28' E 121°25'66151709.3
2017-Oct-17 13:28N 22°56' E 113°36'3576.5
2017-Oct-17 13:28N 22°59' E 113°37'660108022.9
2017-Oct-17 13:27N 31°24' E 121°36'65894818.0
2017-Oct-17 13:27N 23°05' E 113°32'6245.3
2017-Oct-17 13:25N 23°06' E 113°26'66323881.8
2017-Oct-17 13:24N 31°25' E 121°38'1879.2
2017-Oct-17 13:10N 31°34' E 121°20'6674110.5
2017-Oct-17 13:00N 22°52' E 113°33'666133148.3
2017-Oct-17 13:00N 31°28' E 121°25'6682405420.8
2017-Oct-17 13:00N 22°55' E 113°25'671127075.7
2017-Oct-17 13:00N 31°24' E 121°36'674404221.5
2017-Oct-17 13:00N 22°45' E 113°33'67686887.0
2017-Oct-17 12:59N 31°25' E 121°38'66532805.5
2017-Oct-17 12:58N 22°56' E 113°36'289.2
2017-Oct-17 12:56N 22°54' E 113°35'6619078.3
2017-Oct-17 12:52N 31°22' E 121°30'65431809.0
2017-Oct-17 12:51N 23°05' E 113°32'765.1
2017-Oct-17 12:44N 22°59' E 113°37'6556141.1
2017-Oct-17 12:38N 31°19' E 121°33'6675478.5
2017-Oct-17 12:30N 22°44' E 113°37'82914.6
2017-Oct-17 12:30N 22°52' E 113°33'66877590.0
2017-Oct-17 12:30N 31°24' E 121°36'108944.5
2017-Oct-17 12:30N 31°28' E 121°25'66366288.4
2017-Oct-17 12:29N 22°54' E 113°35'6611190056.0
2017-Oct-17 12:29N 31°21' E 121°32'656472316.0
2017-Oct-17 12:29N 22°59' E 113°37'20620002.7
2017-Oct-17 12:28N 21°17' E 110°25'19128626.9
2017-Oct-17 12:28N 22°54' E 113°22'135792.4
2017-Oct-17 12:28N 22°56' E 113°36'665598700.2
2017-Oct-17 12:28N 31°25' E 121°38'141119.3
2017-Oct-17 12:27N 31°31' E 121°23'14100.1
2017-Oct-17 12:19N 31°20' E 121°33'13217.8
2017-Oct-17 12:15N 31°30' E 121°22'65673763.9
2017-Oct-17 12:15N 23°05' E 113°32'562539.0
2017-Oct-17 12:13N 22°13' E 113°07'71375532.2
2017-Oct-17 12:13N 31°40' E 121°14'3734207.8
2017-Oct-17 12:07N 37°53' E 121°18'9898357.6
2017-Oct-17 12:00N 22°47' E 113°36'56107.2
2017-Oct-17 12:00N 22°52' E 113°33'668267264.5
2017-Oct-17 12:00N 31°24' E 121°36'2528.0
2017-Oct-17 12:00N 31°25' E 121°38'716286329.6
2017-Oct-17 12:00N 22°13' E 113°07'709102099.5
2017-Oct-17 11:59N 31°21' E 121°30'101145.7
2017-Oct-17 11:59N 31°29' E 121°24'6632386321.1
2017-Oct-17 11:59N 22°54' E 113°35'663170457.2
2017-Oct-17 11:59N 31°28' E 121°25'21858.2
2017-Oct-17 11:58N 31°30' E 121°25'66210836.8
2017-Oct-17 11:55N 22°56' E 113°36'16984.1
2017-Oct-17 11:54N 22°53' E 113°18'6757481.4
2017-Oct-17 11:48N 31°40' E 121°14'6682212.6
2017-Oct-17 11:30N 22°52' E 113°33'667150124.3
2017-Oct-17 11:30N 31°29' E 121°27'72507.9
2017-Oct-17 11:30N 31°24' E 121°32'711640237.2
2017-Oct-17 11:30N 22°13' E 113°07'71175326.3
2017-Oct-17 11:29N 31°28' E 121°25'11650.5
2017-Oct-17 11:28N 31°25' E 121°38'665114038.9
2017-Oct-17 11:28N 22°56' E 113°36'171599.2
2017-Oct-17 11:27N 22°51' E 113°18'6775217.8
2017-Oct-17 11:19N 31°40' E 121°14'25191.3
2017-Oct-17 11:12N 31°24' E 121°36'842.3
2017-Oct-17 11:00N 31°28' E 121°28'667200104.1
2017-Oct-17 11:00N 22°52' E 113°33'667400122.0
2017-Oct-17 11:00N 31°23' E 121°35'76496.2
2017-Oct-17 11:00N 31°26' E 121°28'3140.8
2017-Oct-17 10:59N 31°28' E 121°25'11661.0
2017-Oct-17 10:58N 31°25' E 121°38'67247431.2
2017-Oct-17 10:57N 22°48' E 113°36'448759.3
2017-Oct-17 10:57N 22°13' E 113°07'714151150.0
2017-Oct-17 10:56N 31°24' E 121°36'67832106.5
2017-Oct-17 10:55N 22°49' E 113°20'11563.1
2017-Oct-17 10:54N 22°45' E 113°31'12138.1
2017-Oct-17 10:49N 22°56' E 113°36'6612192.9
2017-Oct-17 10:31N 31°25' E 121°30'666149840.9
2017-Oct-17 10:30N 22°52' E 113°33'6671201425.3
2017-Oct-17 10:30N 31°21' E 121°38'41676.9
2017-Oct-17 10:30N 31°25' E 121°38'716117135.6
2017-Oct-17 10:30N 22°13' E 113°07'713171023.5
2017-Oct-17 10:29N 31°27' E 121°29'67697359.1
2017-Oct-17 10:29N 22°44' E 113°28'6772438270.3
2017-Oct-17 10:29N 31°24' E 121°36'66326823.9
2017-Oct-17 10:28N 22°56' E 113°36'66121237.6
2017-Oct-17 10:26N 31°28' E 121°25'232.7
2017-Oct-17 10:22N 31°29' E 121°23'6611830.7
2017-Oct-17 10:00N 22°56' E 113°36'663596652.3
2017-Oct-17 10:00N 31°20' E 121°41'668218615.7
2017-Oct-17 10:00N 22°52' E 113°33'1655964.1
2017-Oct-17 10:00N 22°47' E 113°17'354120.9
2017-Oct-17 10:00N 22°13' E 113°07'71645209.9
2017-Oct-17 09:59N 31°25' E 121°38'11683.0
2017-Oct-17 09:58N 31°28' E 121°25'6671873.4
2017-Oct-17 09:36N 22°47' E 113°38'765.2
2017-Oct-17 09:30N 22°52' E 113°33'667299999.6
2017-Oct-17 09:30N 31°25' E 121°31'137714.8
2017-Oct-17 09:30N 31°18' E 121°43'714142715.2
2017-Oct-17 09:30N 22°13' E 113°07'458439.2
2017-Oct-17 09:29N 22°48' E 113°37'9271.9
2017-Oct-17 09:27N 22°56' E 113°36'66572569.7
2017-Oct-17 09:27N 31°25' E 121°38'11440.6
2017-Oct-17 09:25N 31°28' E 121°25'775.1
2017-Oct-17 09:20N 31°24' E 121°31'67547661.1
2017-Oct-17 09:19N 22°48' E 113°21'863.4
2017-Oct-17 09:12N 22°46' E 113°13'21109.1
2017-Oct-17 09:00N 22°51' E 113°34'667800029.5
2017-Oct-17 09:00N 31°25' E 121°32'1425344.5
2017-Oct-17 09:00N 31°16' E 121°45'668343786.5
2017-Oct-17 09:00N 22°53' E 113°32'81612.6
2017-Oct-17 09:00N 22°45' E 113°32'4012985.4
2017-Oct-17 09:00N 22°13' E 113°07'361602.1
2017-Oct-17 08:58N 22°47' E 113°19'67812015.6
2017-Oct-17 08:55N 31°28' E 121°25'1140980.1
2017-Oct-17 08:55N 31°25' E 121°38'66559870.4
2017-Oct-17 08:54N 22°56' E 113°36'6617671.3
2017-Oct-17 08:49N 31°24' E 121°31'6762741.7
2017-Oct-17 08:34N 22°54' E 113°12'17264.5
2017-Oct-17 08:30N 22°54' E 113°31'668200382.3
2017-Oct-17 08:30N 31°18' E 121°43'89143.3
2017-Oct-17 08:30N 31°25' E 121°38'6712416132.2
2017-Oct-17 08:30N 22°54' E 113°28'667126300.1
2017-Oct-17 08:30N 31°28' E 121°25'711426848.9
2017-Oct-17 08:30N 22°13' E 113°07'511245.3
2017-Oct-17 08:27N 22°56' E 113°36'66123104.5
2017-Oct-17 08:26N 31°24' E 121°32'67535237.2
2017-Oct-17 08:24N 22°44' E 113°28'9882488.2
2017-Oct-17 08:01N 37°48' E 121°10'989444978.3
2017-Oct-17 08:00N 22°45' E 113°24'1526408.1
2017-Oct-17 08:00N 22°55' E 113°36'112468.0
2017-Oct-17 08:00N 22°54' E 113°24'6712417116.3
2017-Oct-17 08:00N 31°21' E 121°39'85912.6
2017-Oct-17 08:00N 31°25' E 121°30'712134864.4
2017-Oct-17 08:00N 22°13' E 113°07'71111135.2
2017-Oct-17 07:56N 31°28' E 121°25'662596194.5
2017-Oct-17 07:56N 22°58' E 113°30'97481508.7
2017-Oct-17 07:55N 37°47' E 121°10'38419485.2
2017-Oct-17 07:54N 31°24' E 121°36'2803.3
2017-Oct-17 07:54N 31°25' E 121°38'26125.1
2017-Oct-17 07:41N 31°40' E 121°14'3663090.5
2017-Oct-17 07:34N 37°45' E 121°10'98138389.0
2017-Oct-17 07:33N 22°54' E 113°15'19438.7
2017-Oct-17 07:30N 22°55' E 113°35'663298561.1
2017-Oct-17 07:30N 31°23' E 121°34'673606003.5
2017-Oct-17 07:30N 22°53' E 113°20'673484233.7
2017-Oct-17 07:30N 31°27' E 121°28'712128115.5
2017-Oct-17 07:30N 22°13' E 113°07'102178214.1
2017-Oct-17 07:29N 37°45' E 121°09'97142632.0
2017-Oct-17 07:28N 22°58' E 113°30'66757172.8
2017-Oct-17 07:27N 31°25' E 121°38'264179.5
2017-Oct-17 07:26N 31°40' E 121°14'151263.8
2017-Oct-17 07:26N 31°28' E 121°25'112782.6
2017-Oct-17 07:26N 31°22' E 121°36'677406219.9
2017-Oct-17 07:25N 22°48' E 113°21'1535.4
2017-Oct-17 07:00N 22°55' E 113°35'663170434.6
2017-Oct-17 07:00N 31°28' E 121°26'712134866.7
2017-Oct-17 07:00N 22°13' E 113°07'4023966.9
2017-Oct-17 07:00N 22°51' E 113°18'41317.4
2017-Oct-17 06:59N 22°47' E 113°17'67731640.5
2017-Oct-17 06:58N 31°23' E 121°30'71205.7
2017-Oct-17 06:58N 31°28' E 121°25'115122.5
2017-Oct-17 06:58N 31°25' E 121°38'667480254.7
2017-Oct-17 06:58N 22°58' E 113°30'66439173.0
2017-Oct-17 06:57N 31°22' E 121°36'2610303.9
2017-Oct-17 06:56N 31°40' E 121°14'6605551.3
2017-Oct-17 06:49N 22°59' E 113°37'16256.0
2017-Oct-17 06:46N 22°44' E 113°40'23505.5
2017-Oct-17 06:43N 22°53' E 113°18'1677.3
2017-Oct-17 06:30N 22°55' E 113°35'114270.3
2017-Oct-17 06:30N 22°44' E 113°38'6691204646.1
2017-Oct-17 06:30N 31°29' E 121°24'712213477.9
2017-Oct-17 06:30N 22°13' E 113°07'711853697.7
2017-Oct-17 06:30N 31°28' E 121°25'675220996.0
2017-Oct-17 06:30N 22°50' E 113°19'67738664.4
2017-Oct-17 06:29N 31°22' E 121°36'65974134.6
2017-Oct-17 06:28N 22°59' E 113°37'7870.9
2017-Oct-17 06:28N 22°58' E 113°30'66757172.8
2017-Oct-17 06:27N 31°25' E 121°38'67878719.2
2017-Oct-17 06:26N 22°53' E 113°18'6752430820.0
2017-Oct-17 06:26N 31°40' E 121°14'6741566.6
2017-Oct-17 06:01N 22°44' E 113°34'101983.5
2017-Oct-17 06:00N 22°55' E 113°35'157582.2
2017-Oct-17 06:00N 22°48' E 113°21'385887.3
2017-Oct-17 06:00N 22°13' E 113°07'71158206.3
2017-Oct-17 05:59N 31°28' E 121°25'672302402.3
2017-Oct-17 05:59N 22°53' E 113°20'67346620.0
2017-Oct-17 05:58N 31°22' E 121°36'3839.7
2017-Oct-17 05:58N 31°25' E 121°38'667218296.0
2017-Oct-17 05:58N 22°58' E 113°30'66213246.7
2017-Oct-17 05:55N 31°31' E 121°22'65813451.8
2017-Oct-17 05:52N 22°59' E 113°37'3697460.7
2017-Oct-17 05:49N 22°37' E 120°17'3711204.2
2017-Oct-17 05:30N 22°54' E 113°35'663298127.9
2017-Oct-17 05:30N 31°28' E 121°25'673269073.9
2017-Oct-17 05:30N 22°45' E 113°31'677243765.8
2017-Oct-17 05:30N 31°25' E 121°38'716858994.5
2017-Oct-17 05:30N 22°13' E 113°07'3518214.3
2017-Oct-17 05:30N 22°47' E 113°17'68044510.3
2017-Oct-17 05:29N 31°22' E 121°36'672127303.7
2017-Oct-17 05:28N 22°54' E 113°22'67319370.0
2017-Oct-17 05:26N 31°40' E 121°14'10549.8
2017-Oct-17 05:25N 31°32' E 121°21'6626036.8
2017-Oct-17 05:19N 22°58' E 113°30'37526992.5
2017-Oct-17 05:18N 22°37' E 120°16'5278465.6
2017-Oct-17 05:14N 31°19' E 121°33'18138.2
2017-Oct-17 05:06N 31°31' E 121°18'6736808.0
2017-Oct-17 05:00N 22°44' E 113°27'680122338.0
2017-Oct-17 05:00N 31°25' E 121°38'6852467748.0
2017-Oct-17 05:00N 22°47' E 113°13'38963631.1
2017-Oct-17 05:00N 22°37' E 120°15'528475103.6
2017-Oct-17 05:00N 31°21' E 121°32'32343.3
2017-Oct-17 05:00N 31°22' E 121°36'66285097.8
2017-Oct-17 04:59N 22°57' E 113°36'65920637.6
2017-Oct-17 04:57N 31°31' E 121°19'71094677.7
2017-Oct-17 04:57N 22°13' E 113°07'447230.6
2017-Oct-17 04:56N 22°54' E 113°24'66968821.8
2017-Oct-17 04:56N 31°28' E 121°25'66233121.9
2017-Oct-17 04:55N 22°58' E 113°30'66529537.5
2017-Oct-17 04:53N 31°40' E 121°14'9457.4
2017-Oct-17 04:52N 31°33' E 121°20'924.7
2017-Oct-17 04:30N 31°40' E 121°14'670602975.3
2017-Oct-17 04:30N 22°55' E 113°25'666149959.2
2017-Oct-17 04:30N 31°23' E 121°30'1424420.6
2017-Oct-17 04:30N 31°33' E 121°19'538484197.1
2017-Oct-17 04:30N 22°38' E 120°12'532147354.9
2017-Oct-17 04:30N 31°25' E 121°38'716858994.5
2017-Oct-17 04:30N 22°13' E 113°07'514704.8
2017-Oct-17 04:29N 22°57' E 113°36'232632.9
2017-Oct-17 04:29N 22°44' E 113°14'68374466.3
2017-Oct-17 04:28N 31°33' E 121°19'71968.1
2017-Oct-17 04:28N 31°28' E 121°25'662198731.5
2017-Oct-17 04:28N 22°58' E 113°30'66443446.1
2017-Oct-17 04:27N 31°22' E 121°36'6771548.6
2017-Oct-17 04:00N 22°47' E 113°22'67654060.0
2017-Oct-17 04:00N 31°28' E 121°25'9720.7
2017-Oct-17 03:59N 31°23' E 121°34'668801193.2
2017-Oct-17 03:59N 22°54' E 113°28'19600.9
2017-Oct-17 03:57N 22°44' E 113°11'689130571.8
2017-Oct-17 03:57N 31°25' E 121°38'262631.7
2017-Oct-17 03:56N 31°40' E 121°14'663795480.3
2017-Oct-17 03:56N 22°57' E 113°36'366109759.1
2017-Oct-17 03:56N 22°39' E 120°12'538161354.2
2017-Oct-17 03:56N 31°34' E 121°18'1913464.6
2017-Oct-17 03:56N 31°22' E 121°36'66440500.9
2017-Oct-17 03:55N 22°58' E 113°30'503461.1
2017-Oct-17 03:54N 22°13' E 113°07'71211711.6
2017-Oct-17 03:50N 31°36' E 121°17'65728843.0
2017-Oct-17 03:49N 23°04' E 113°32'18656.8
2017-Oct-17 03:47N 22°51' E 113°18'414.2
2017-Oct-17 03:30N 22°48' E 113°19'1242595.4
2017-Oct-17 03:30N 22°54' E 113°30'669141594.3
2017-Oct-17 03:30N 31°22' E 121°38'121032.4
2017-Oct-17 03:29N 31°28' E 121°25'53351900.0
2017-Oct-17 03:29N 22°39' E 120°12'36620929.6
2017-Oct-17 03:28N 22°54' E 113°35'66720537.1
2017-Oct-17 03:26N 31°25' E 121°38'6673923.6
2017-Oct-17 03:16N 22°58' E 113°30'517492.5
2017-Oct-17 03:16N 23°03' E 113°30'554671.6
2017-Oct-17 03:15N 22°13' E 113°07'714428268.7
2017-Oct-17 03:15N 31°40' E 121°14'252960.3
2017-Oct-17 03:14N 31°22' E 121°36'662170195.6
2017-Oct-17 03:14N 22°57' E 113°36'16239.4
2017-Oct-17 03:10N 22°49' E 113°20'6777249.8
2017-Oct-17 03:04N 31°38' E 121°14'66710132.7
2017-Oct-17 03:00N 22°53' E 113°32'31535.8
2017-Oct-17 03:00N 22°54' E 113°35'666184444.7
2017-Oct-17 03:00N 31°20' E 121°41'3027136.7
2017-Oct-17 03:00N 31°39' E 121°14'2510015.7
2017-Oct-17 03:00N 31°22' E 121°36'713427540.2
2017-Oct-17 03:00N 22°13' E 113°07'377463.7
2017-Oct-17 02:59N 22°48' E 113°21'516361.6
2017-Oct-17 02:59N 22°47' E 113°16'202499.9
2017-Oct-17 02:59N 22°57' E 113°36'66145736.2
2017-Oct-17 02:58N 31°28' E 121°25'531127404.3
2017-Oct-17 02:58N 22°41' E 120°13'529158635.4
2017-Oct-17 02:58N 31°25' E 121°38'667480231.1
2017-Oct-17 02:58N 22°58' E 113°30'6527.4
2017-Oct-17 02:57N 23°04' E 113°29'66032090.7
2017-Oct-17 02:56N 31°39' E 121°14'442.6
2017-Oct-17 02:49N 31°42' E 121°10'6682102.5
2017-Oct-17 02:30N 22°51' E 113°34'669218799.3
2017-Oct-17 02:30N 31°17' E 121°45'3410211.1
2017-Oct-17 02:30N 31°39' E 121°13'6642391460.3
2017-Oct-17 02:30N 22°54' E 113°35'4910279.3
2017-Oct-17 02:30N 22°13' E 113°07'713285026.8
2017-Oct-17 02:30N 31°22' E 121°36'66268078.7
2017-Oct-17 02:29N 22°57' E 113°36'36835800.4
2017-Oct-17 02:28N 22°40' E 120°14'53254708.5
2017-Oct-17 02:28N 31°28' E 121°25'662238467.5
2017-Oct-17 02:28N 22°58' E 113°30'66482451.1
2017-Oct-17 02:27N 31°40' E 121°12'274346.9
2017-Oct-17 02:27N 31°25' E 121°38'6869499.0
2017-Oct-17 02:22N 22°47' E 113°13'24560.8
2017-Oct-17 02:20N 23°03' E 113°32'6595854.0
2017-Oct-17 02:13N 31°42' E 121°09'39179.1
2017-Oct-17 02:00N 31°17' E 121°44'91438.6
2017-Oct-17 02:00N 31°22' E 121°36'3326.5
2017-Oct-17 01:59N 31°25' E 121°38'532159557.6
2017-Oct-17 01:59N 22°38' E 120°15'54334300.4
2017-Oct-17 01:58N 31°39' E 121°13'66849058.3
2017-Oct-17 01:57N 22°49' E 113°36'66646130.9
2017-Oct-17 01:56N 31°28' E 121°25'66333615.7
2017-Oct-17 01:55N 22°54' E 113°35'492818.5
2017-Oct-17 01:54N 22°13' E 113°07'712128247.4
2017-Oct-17 01:54N 31°36' E 121°17'585.1
2017-Oct-17 01:50N 31°32' E 121°22'12329.5
2017-Oct-17 01:48N 31°41' E 121°11'1194.2
2017-Oct-17 01:47N 31°41' E 121°10'2 6.2
2017-Oct-17 01:30N 31°40' E 121°12'1126.1
2017-Oct-17 01:30N 31°40' E 121°13'328989.5
2017-Oct-17 01:30N 31°19' E 121°42'71383.5
2017-Oct-17 01:29N 31°22' E 121°36'25886.4
2017-Oct-17 01:28N 31°39' E 121°13'5861.9
2017-Oct-17 01:27N 31°36' E 121°18'213.6
2017-Oct-17 01:20N 31°36' E 121°16'5426991.0
2017-Oct-17 01:16N 22°37' E 120°16'5442130.0
2017-Oct-17 01:00N 31°38' E 121°15'287877.8
2017-Oct-17 01:00N 31°20' E 121°40'221138.9
2017-Oct-17 00:59N 31°34' E 121°20'5284.2
2017-Oct-17 00:58N 31°37' E 121°16'386.6
2017-Oct-17 00:56N 31°39' E 121°14'335.0
2017-Oct-17 00:51N 31°37' E 121°16'232546.2
2017-Oct-17 00:51N 31°22' E 121°36'360.2
2017-Oct-17 00:47N 31°25' E 121°38'25906.9
2017-Oct-17 00:46N 31°39' E 121°14'14218.7
2017-Oct-17 00:42N 31°28' E 121°25'7117094.4
2017-Oct-17 00:36N 22°13' E 113°07'516357.1
2017-Oct-17 00:35N 22°57' E 113°35'61761.3
2017-Oct-17 00:35N 23°02' E 113°32'6618807.9
2017-Oct-17 00:31N 31°21' E 121°38'2414424.5
2017-Oct-17 00:30N 31°37' E 121°17'71359710.9
2017-Oct-17 00:30N 22°13' E 113°07'716858988.8
2017-Oct-17 00:30N 31°25' E 121°38'215031.2
2017-Oct-17 00:29N 31°36' E 121°17'662216684.2
2017-Oct-17 00:29N 22°57' E 113°35'63271.0
2017-Oct-17 00:29N 23°02' E 113°32'66071980.5
2017-Oct-17 00:29N 31°22' E 121°36'66434133.6
2017-Oct-17 00:27N 22°58' E 113°30'66264447.9
2017-Oct-17 00:27N 31°28' E 121°25'2252.6
2017-Oct-17 00:26N 31°31' E 121°25'10250.4
2017-Oct-17 00:24N 31°38' E 121°16'2107.5
2017-Oct-17 00:22N 31°39' E 121°13'68716601.9
2017-Oct-17 00:20N 22°47' E 113°04'6882130.6
2017-Oct-17 00:01N 31°22' E 121°36'208051.5
2017-Oct-17 00:00N 31°36' E 121°18'814248.7
2017-Oct-17 00:00N 31°30' E 121°25'725192.1
2017-Oct-17 00:00N 31°35' E 121°19'911065.2
2017-Oct-17 00:00N 31°29' E 121°27'91395.7
2017-Oct-17 00:00N 31°23' E 121°35'243390.7
2017-Oct-16 23:59N 31°39' E 121°13'41521.5
2017-Oct-16 23:59N 31°37' E 121°17'21522.0
2017-Oct-16 23:57N 31°25' E 121°38'66716114.5
2017-Oct-16 23:54N 22°58' E 113°30'66212959.7
2017-Oct-16 23:51N 31°28' E 121°25'66032129.0
2017-Oct-16 23:50N 22°57' E 113°35'6121.2
2017-Oct-16 23:47N 23°02' E 113°32'54404.2
2017-Oct-16 23:39N 22°13' E 113°07'7135100.3
2017-Oct-16 23:30N 31°33' E 121°20'83103.6
2017-Oct-16 23:30N 31°29' E 121°27'21146.3
2017-Oct-16 23:30N 31°27' E 121°29'4302.4
2017-Oct-16 23:29N 31°24' E 121°32'71188313.8
2017-Oct-16 23:29N 22°13' E 113°07'713233338.4
2017-Oct-16 23:29N 31°35' E 121°19'1913971.7
2017-Oct-16 23:29N 31°25' E 121°38'251375.9
2017-Oct-16 23:28N 31°39' E 121°14'251469.5
2017-Oct-16 23:27N 31°22' E 121°36'66274438.2
2017-Oct-16 23:26N 22°57' E 113°35'6602377531.8
2017-Oct-16 23:26N 31°28' E 121°25'66314919.3
2017-Oct-16 23:23N 22°54' E 113°35'928.6
2017-Oct-16 23:05N 23°02' E 113°32'694.6
2017-Oct-16 23:01N 22°59' E 113°37'659169516.5
2017-Oct-16 23:00N 31°22' E 121°36'51060.8
2017-Oct-16 23:00N 31°25' E 121°31'139214.1
2017-Oct-16 23:00N 31°34' E 121°20'105171.0
2017-Oct-16 23:00N 31°27' E 121°29'3791.9
2017-Oct-16 23:00N 31°28' E 121°25'1412360.9
2017-Oct-16 23:00N 31°38' E 121°14'6592372745.0
2017-Oct-16 23:00N 22°59' E 113°37'65681409.3
2017-Oct-16 22:59N 31°22' E 121°30'661264393.1
2017-Oct-16 22:59N 22°54' E 113°35'4829061.9
2017-Oct-16 22:59N 22°13' E 113°07'716143170.5
2017-Oct-16 22:59N 31°25' E 121°38'66561375.7
2017-Oct-16 22:58N 22°57' E 113°35'645.1
2017-Oct-16 22:50N 23°02' E 113°32'4247.5
2017-Oct-16 22:49N 22°58' E 113°30'6615859.2
2017-Oct-16 22:42N 31°20' E 121°33'4582485.4
2017-Oct-16 22:31N 24°19' E 118°07'46693134.4
2017-Oct-16 22:30N 31°32' E 121°22'22753.7
2017-Oct-16 22:30N 31°31' E 121°24'827858.7
2017-Oct-16 22:30N 31°26' E 121°30'66164294.4
2017-Oct-16 22:30N 22°57' E 113°37'661793328.9
2017-Oct-16 22:30N 31°38' E 121°14'71349345.0
2017-Oct-16 22:29N 22°13' E 113°07'4817437.2
2017-Oct-16 22:29N 22°54' E 113°35'92288.2
2017-Oct-16 22:29N 23°02' E 113°32'8710.0
2017-Oct-16 22:28N 22°55' E 113°35'263947504.2
2017-Oct-16 22:28N 24°19' E 118°07'46515944.2
2017-Oct-16 22:26N 31°32' E 121°22'5959.3
2017-Oct-16 22:26N 31°28' E 121°25'101728.6
2017-Oct-16 22:25N 31°24' E 121°35'6659849.6
2017-Oct-16 22:21N 22°58' E 113°30'66217394.6
2017-Oct-16 22:19N 31°24' E 121°31'6872319.1
2017-Oct-16 22:01N 22°50' E 112°59'342410.3
2017-Oct-16 22:00N 22°55' E 113°35'6621192208.6
2017-Oct-16 22:00N 31°30' E 121°23'28103.7
2017-Oct-16 22:00N 31°30' E 121°26'664796661.6
2017-Oct-16 22:00N 22°58' E 113°30'6631192953.9
2017-Oct-16 22:00N 31°24' E 121°31'0372.8
2017-Oct-16 22:00N 31°24' E 121°31'223963.4
2017-Oct-16 22:00N 31°40' E 121°13'71340748.3
2017-Oct-16 21:59N 22°13' E 113°07'547504.0
2017-Oct-16 21:58N 23°02' E 113°32'661396627.6
2017-Oct-16 21:58N 31°24' E 121°35'10939.1
2017-Oct-16 21:58N 31°28' E 121°25'6622384609.6
2017-Oct-16 21:58N 22°55' E 113°35'66740012.6
2017-Oct-16 21:57N 31°25' E 121°38'692355674.7
2017-Oct-16 21:57N 22°50' E 112°59'6881582.1
2017-Oct-16 21:31N 31°30' E 121°25'1034284.6
2017-Oct-16 21:31N 31°22' E 121°30'813595.2
2017-Oct-16 21:30N 31°29' E 121°27'27265.0
2017-Oct-16 21:30N 31°29' E 121°25'0185.6
2017-Oct-16 21:30N 31°29' E 121°25'4883.5
2017-Oct-16 21:30N 31°26' E 121°28'665797719.0
2017-Oct-16 21:30N 22°53' E 113°34'3115720.6
2017-Oct-16 21:30N 22°49' E 113°01'689225521.4
2017-Oct-16 21:30N 31°24' E 121°35'71450385.7
2017-Oct-16 21:29N 22°13' E 113°07'492492.1
2017-Oct-16 21:28N 22°55' E 113°35'1247.5
2017-Oct-16 21:28N 22°54' E 113°35'26372773.1
2017-Oct-16 21:27N 24°13' E 118°08'47076904.5
2017-Oct-16 21:27N 31°25' E 121°38'313147.8
2017-Oct-16 21:26N 31°43' E 121°08'6637988.1
2017-Oct-16 21:21N 22°58' E 113°30'430.6
2017-Oct-16 21:13N 23°02' E 113°32'6554528.8
2017-Oct-16 21:05N 31°18' E 121°33'12181.3
2017-Oct-16 21:01N 31°29' E 121°27'2473.9
2017-Oct-16 21:00N 31°28' E 121°28'667342888.5
2017-Oct-16 21:00N 22°51' E 113°35'666199798.8
2017-Oct-16 21:00N 31°28' E 121°26'115659.0
2017-Oct-16 21:00N 31°20' E 121°33'71044038.2
2017-Oct-16 20:59N 22°13' E 113°07'71480302.3
2017-Oct-16 20:58N 31°24' E 121°35'661198313.8
2017-Oct-16 20:58N 23°02' E 113°32'91144.1
2017-Oct-16 20:58N 22°54' E 113°35'663795695.6
2017-Oct-16 20:58N 31°28' E 121°25'662140269.0
2017-Oct-16 20:57N 22°58' E 113°30'667400175.7
2017-Oct-16 20:57N 31°25' E 121°38'8607.1
2017-Oct-16 20:56N 31°18' E 121°33'141197.2
2017-Oct-16 20:56N 31°30' E 121°24'66336158.1
2017-Oct-16 20:55N 22°54' E 113°35'30808.5
2017-Oct-16 20:52N 22°47' E 113°04'6871880.5
2017-Oct-16 20:31N 31°28' E 121°28'42899.9
2017-Oct-16 20:30N 31°30' E 121°24'664796252.6
2017-Oct-16 20:30N 22°54' E 113°35'42899.0
2017-Oct-16 20:30N 22°50' E 113°36'61529.5
2017-Oct-16 20:30N 22°56' E 113°36'66379595.4
2017-Oct-16 20:30N 31°24' E 121°35'51474.1
2017-Oct-16 20:29N 31°19' E 121°33'113415.6
2017-Oct-16 20:29N 31°28' E 121°25'32585.9
2017-Oct-16 20:29N 31°30' E 121°23'711426847.3
2017-Oct-16 20:29N 22°13' E 113°07'7161288534.5
2017-Oct-16 20:29N 31°25' E 121°38'72015.8
2017-Oct-16 20:29N 31°26' E 121°30'65910693.7
2017-Oct-16 20:25N 23°02' E 113°32'4362.2
2017-Oct-16 20:24N 22°58' E 113°30'25194.0
2017-Oct-16 20:17N 22°45' E 113°07'6872557.4
2017-Oct-16 20:01N 31°27' E 121°29'667480496.0
2017-Oct-16 20:00N 22°49' E 113°36'117836.3
2017-Oct-16 20:00N 22°58' E 113°30'662183411.5
2017-Oct-16 20:00N 31°31' E 121°22'663596747.6
2017-Oct-16 20:00N 22°54' E 113°35'66485373.5
2017-Oct-16 20:00N 31°25' E 121°31'1221020.7
2017-Oct-16 20:00N 31°32' E 121°20'685352381.7
2017-Oct-16 19:59N 22°45' E 113°09'323380.0
2017-Oct-16 19:59N 22°13' E 113°07'716257706.9
2017-Oct-16 19:59N 31°25' E 121°38'11683.0
2017-Oct-16 19:58N 31°28' E 121°25'65914544.0
2017-Oct-16 19:55N 23°02' E 113°32'661237976.6
2017-Oct-16 19:55N 31°24' E 121°35'6634783.3
2017-Oct-16 19:47N 22°57' E 113°36'6622478.1
2017-Oct-16 19:31N 31°26' E 121°31'23464.0
2017-Oct-16 19:30N 31°24' E 121°32'146377.5
2017-Oct-16 19:30N 31°33' E 121°19'684205296.6
2017-Oct-16 19:30N 22°44' E 113°12'242335.8
2017-Oct-16 19:30N 22°48' E 113°37'6681201608.4
2017-Oct-16 19:30N 31°35' E 121°18'95437.6
2017-Oct-16 19:29N 31°28' E 121°25'71185373.2
2017-Oct-16 19:29N 22°13' E 113°07'714160597.9
2017-Oct-16 19:29N 31°24' E 121°35'663397788.6
2017-Oct-16 19:29N 22°57' E 113°36'5299.0
2017-Oct-16 19:28N 22°58' E 113°30'66753356.8
2017-Oct-16 19:27N 31°25' E 121°38'668801071.8
2017-Oct-16 19:27N 22°54' E 113°35'9112.0
2017-Oct-16 19:22N 23°02' E 113°32'6572008.1
2017-Oct-16 19:02N 31°19' E 121°33'5181.7
2017-Oct-16 19:01N 31°25' E 121°32'664265468.6
2017-Oct-16 19:00N 22°58' E 113°30'663183720.3
2017-Oct-16 19:00N 31°36' E 121°17'66882939.7
2017-Oct-16 19:00N 22°47' E 113°38'71799.4
2017-Oct-16 18:59N 22°54' E 113°35'661594856.3
2017-Oct-16 18:59N 31°19' E 121°33'71405.5
2017-Oct-16 18:59N 31°25' E 121°38'716257708.6
2017-Oct-16 18:59N 22°13' E 113°07'3223179.3
2017-Oct-16 18:59N 22°44' E 113°14'234434.2
2017-Oct-16 18:59N 22°57' E 113°36'658592440.3
2017-Oct-16 18:58N 31°21' E 121°30'65669489.0
2017-Oct-16 18:58N 23°02' E 113°32'65943901.3
2017-Oct-16 18:57N 31°28' E 121°25'10402.1
2017-Oct-16 18:56N 31°24' E 121°35'6783994.6
2017-Oct-16 18:45N 22°44' E 113°27'1048.6
2017-Oct-16 18:33N 22°53' E 113°32'66414493.0
2017-Oct-16 18:30N 31°23' E 121°30'2177068.5
2017-Oct-16 18:30N 31°39' E 121°14'68342366.2
2017-Oct-16 18:29N 22°47' E 113°13'184055.7
2017-Oct-16 18:29N 22°53' E 113°31'664298810.7
2017-Oct-16 18:29N 31°19' E 121°34'709283743.6
2017-Oct-16 18:29N 22°13' E 113°07'517352.4
2017-Oct-16 18:28N 22°57' E 113°36'7580.0
2017-Oct-16 18:28N 23°02' E 113°32'663795744.8
2017-Oct-16 18:28N 31°25' E 121°38'113415.0
2017-Oct-16 18:28N 31°28' E 121°25'66326231.7
2017-Oct-16 18:26N 22°54' E 113°35'66564747.8
2017-Oct-16 18:25N 31°24' E 121°35'67811350.1
2017-Oct-16 18:22N 22°43' E 113°28'67310968.2
2017-Oct-16 18:18N 31°19' E 121°33'6606831.1
2017-Oct-16 18:12N 22°58' E 113°30'0 0.0
2017-Oct-16 18:00N 22°58' E 113°30'184520.6
2017-Oct-16 18:00N 22°47' E 113°15'678488101.8
2017-Oct-16 18:00N 31°21' E 121°32'10717.4
2017-Oct-16 17:59N 31°28' E 121°25'114553.3
2017-Oct-16 17:59N 31°25' E 121°38'7161288534.5
2017-Oct-16 17:59N 22°13' E 113°07'489686.3
2017-Oct-16 17:59N 22°54' E 113°35'665479137.3
2017-Oct-16 17:59N 31°24' E 121°35'5321.3
2017-Oct-16 17:58N 31°19' E 121°33'65817429.8
2017-Oct-16 17:55N 22°57' E 113°36'7528.5
2017-Oct-16 17:55N 23°02' E 113°32'66018998.0
2017-Oct-16 17:53N 31°41' E 121°10'66912039.4
2017-Oct-16 17:49N 22°55' E 113°26'1031.2
2017-Oct-16 17:30N 22°47' E 113°18'361582.4
2017-Oct-16 17:29N 22°13' E 113°07'709510121.8
2017-Oct-16 17:29N 31°18' E 121°33'76724.3
2017-Oct-16 17:29N 31°25' E 121°38'665126015.1
2017-Oct-16 17:28N 22°57' E 113°36'310254.7
2017-Oct-16 17:28N 22°54' E 113°35'66362818.5
2017-Oct-16 17:28N 31°28' E 121°25'10705.7
2017-Oct-16 17:27N 31°24' E 121°35'6613484.1
2017-Oct-16 17:16N 23°02' E 113°32'1977.4
2017-Oct-16 17:01N 22°43' E 113°28'671127145.3
2017-Oct-16 17:01N 31°16' E 121°33'671201401.8
2017-Oct-16 17:00N 22°48' E 113°21'68087466.8
2017-Oct-16 17:00N 31°25' E 121°38'111366.0
2017-Oct-16 16:59N 31°28' E 121°25'71194858.5
2017-Oct-16 16:59N 22°13' E 113°07'3632327.0
2017-Oct-16 16:59N 22°43' E 113°28'152272.9
2017-Oct-16 16:58N 22°57' E 113°36'3466.1
2017-Oct-16 16:58N 22°54' E 113°35'65567323.3
2017-Oct-16 16:57N 31°13' E 121°30'12934.7
2017-Oct-16 16:57N 31°24' E 121°35'5184.1
2017-Oct-16 16:55N 31°19' E 121°33'65762195.5
2017-Oct-16 16:55N 23°02' E 113°32'41647.7
2017-Oct-16 16:54N 22°58' E 113°30'6561648.7
2017-Oct-16 16:30N 31°15' E 121°31'4287.4
2017-Oct-16 16:30N 31°11' E 121°29'70158651.5
2017-Oct-16 16:29N 22°13' E 113°07'3632298.3
2017-Oct-16 16:29N 22°43' E 113°28'6762432240.7
2017-Oct-16 16:29N 31°28' E 121°25'66199087.4
2017-Oct-16 16:28N 22°57' E 113°36'3249.6
2017-Oct-16 16:28N 22°54' E 113°35'61498.0
2017-Oct-16 16:27N 22°58' E 113°30'43707.3
2017-Oct-16 16:27N 23°02' E 113°32'18885.4
2017-Oct-16 16:26N 22°47' E 113°21'681111395.4
2017-Oct-16 16:26N 31°25' E 121°38'7198.2
2017-Oct-16 16:24N 31°19' E 121°33'6611695.9
2017-Oct-16 16:00N 22°54' E 113°35'916027.2
2017-Oct-16 16:00N 23°02' E 113°32'6591185334.3
2017-Oct-16 16:00N 31°28' E 121°25'6621192286.5
2017-Oct-16 16:00N 22°58' E 113°30'654294426.5
2017-Oct-16 16:00N 31°14' E 121°30'13885.3
2017-Oct-16 15:59N 31°25' E 121°38'680188331.9
2017-Oct-16 15:59N 22°43' E 113°28'369228.1
2017-Oct-16 15:59N 22°13' E 113°07'516337.7
2017-Oct-16 15:58N 22°57' E 113°36'165842.0
2017-Oct-16 15:58N 22°47' E 113°21'67914988.4
2017-Oct-16 15:56N 31°24' E 121°35'5770.0
2017-Oct-16 15:55N 31°19' E 121°33'6741604.0
2017-Oct-16 15:30N 22°47' E 113°21'667133433.2
2017-Oct-16 15:30N 31°12' E 121°30'654784737.8
2017-Oct-16 15:30N 22°54' E 113°35'131004.1
2017-Oct-16 15:29N 22°43' E 113°28'67641224.4
2017-Oct-16 15:28N 31°28' E 121°25'66279485.8
2017-Oct-16 15:27N 22°58' E 113°30'667100043.9
2017-Oct-16 15:27N 31°25' E 121°38'2268.7
2017-Oct-16 15:26N 31°24' E 121°35'5133.0
2017-Oct-16 15:24N 31°19' E 121°33'65613130.0
2017-Oct-16 15:21N 23°02' E 113°32'6591901.1
2017-Oct-16 15:00N 31°28' E 121°25'662596143.2
2017-Oct-16 15:00N 22°58' E 113°30'41650.0
2017-Oct-16 15:00N 23°02' E 113°32'91281.4
2017-Oct-16 15:00N 22°54' E 113°35'483290.0
2017-Oct-16 14:59N 22°13' E 113°07'70991184.7
2017-Oct-16 14:58N 31°19' E 121°33'92145.8
2017-Oct-16 14:58N 31°11' E 121°28'66599817.5
2017-Oct-16 14:58N 22°47' E 113°21'68179054.8
2017-Oct-16 14:57N 31°25' E 121°38'68028468.8
2017-Oct-16 14:56N 22°43' E 113°28'678203397.9
2017-Oct-16 14:56N 31°24' E 121°35'6633107.7
2017-Oct-16 14:43N 22°57' E 113°36'731.1
2017-Oct-16 14:30N 23°02' E 113°32'647179033.2
2017-Oct-16 14:30N 31°10' E 121°28'65190125.5
2017-Oct-16 14:29N 22°54' E 113°35'148623.8
2017-Oct-16 14:29N 22°47' E 113°21'67686937.0
2017-Oct-16 14:29N 31°28' E 121°25'66137747.6
2017-Oct-16 14:28N 22°57' E 113°36'66522802.9
2017-Oct-16 14:26N 31°25' E 121°38'6806528.8
2017-Oct-16 14:20N 22°43' E 113°28'1134.1
2017-Oct-16 14:00N 22°54' E 113°31'66362835.0
2017-Oct-16 14:00N 31°19' E 121°33'70962274.5
2017-Oct-16 13:59N 22°13' E 113°07'71491769.6
2017-Oct-16 13:58N 31°24' E 121°35'6681395.6
2017-Oct-16 13:30N 22°52' E 113°33'66655723.3
2017-Oct-16 13:29N 31°28' E 121°25'711426863.3
2017-Oct-16 13:29N 22°13' E 113°07'4821794.2
2017-Oct-16 13:29N 22°54' E 113°35'141398.2
2017-Oct-16 13:28N 22°47' E 113°21'162247.4
2017-Oct-16 13:28N 22°57' E 113°36'65867728.6
2017-Oct-16 13:27N 31°19' E 121°33'657118173.1
2017-Oct-16 13:27N 23°02' E 113°32'663238721.7
2017-Oct-16 13:27N 31°25' E 121°38'2130.2
2017-Oct-16 13:26N 31°24' E 121°35'680174835.3
2017-Oct-16 13:25N 22°34' E 113°38'6803946.9
2017-Oct-16 13:15N 31°42' E 121°10'67735336.1
2017-Oct-16 13:14N 22°43' E 113°28'6613663.1
2017-Oct-16 13:03N 31°19' E 121°13'65214140.8
2017-Oct-16 13:00N 22°49' E 113°36'141644.9
2017-Oct-16 13:00N 22°47' E 113°21'66067916.0
2017-Oct-16 12:59N 31°05' E 121°28'695178784.0
2017-Oct-16 12:59N 22°13' E 113°07'711134798.0
2017-Oct-16 12:59N 31°28' E 121°25'1761332.9
2017-Oct-16 12:59N 31°41' E 121°11'665299207.1
2017-Oct-16 12:58N 22°54' E 113°35'661108156.5
2017-Oct-16 12:58N 31°19' E 121°33'65729178.5
2017-Oct-16 12:57N 23°02' E 113°32'66359680.4
2017-Oct-16 12:56N 31°25' E 121°38'22147.8
2017-Oct-16 12:56N 31°24' E 121°35'20453.4
2017-Oct-16 12:53N 31°18' E 121°12'66182050.6
2017-Oct-16 12:53N 22°43' E 113°28'15218.7
2017-Oct-16 12:49N 22°57' E 113°36'9683213.4
2017-Oct-16 12:31N 37°42' E 121°09'378113297.3
2017-Oct-16 12:30N 31°25' E 121°38'112927.2
2017-Oct-16 12:30N 31°28' E 121°25'141268.4
2017-Oct-16 12:29N 31°39' E 121°14'678135590.3
2017-Oct-16 12:29N 22°47' E 113°21'377769.6
2017-Oct-16 12:29N 22°13' E 113°07'709121582.6
2017-Oct-16 12:29N 31°19' E 121°33'66191516.4
2017-Oct-16 12:28N 22°54' E 113°35'64743125.3
2017-Oct-16 12:27N 31°17' E 121°11'64270068.4
2017-Oct-16 12:27N 23°02' E 113°32'7193.5
2017-Oct-16 12:25N 22°57' E 113°36'66336718.9
2017-Oct-16 12:24N 31°24' E 121°35'34172.4
2017-Oct-16 12:12N 31°46' E 121°05'67842799.3
2017-Oct-16 12:11N 22°43' E 113°28'6783911.5
2017-Oct-16 12:00N 31°24' E 121°35'2409.1
2017-Oct-16 12:00N 31°25' E 121°38'342162.7
2017-Oct-16 11:59N 31°45' E 121°06'714197644.4
2017-Oct-16 11:59N 22°13' E 113°07'376951.7
2017-Oct-16 11:59N 22°47' E 113°21'141078.0
2017-Oct-16 11:58N 22°54' E 113°35'663477417.4
2017-Oct-16 11:58N 31°28' E 121°25'661297259.9
2017-Oct-16 11:58N 22°57' E 113°36'7397.0
2017-Oct-16 11:57N 23°02' E 113°32'271971.9
2017-Oct-16 11:56N 22°36' E 113°27'6664869.6
2017-Oct-16 11:48N 31°17' E 121°11'203455.8
2017-Oct-16 11:47N 31°36' E 121°17'6652385.9
2017-Oct-16 11:30N 22°54' E 113°35'66558352.9
2017-Oct-16 11:30N 31°35' E 121°19'1917543.9
2017-Oct-16 11:30N 31°25' E 121°38'663132622.3
2017-Oct-16 11:29N 23°02' E 113°32'659158042.3
2017-Oct-16 11:29N 31°28' E 121°25'227164.9
2017-Oct-16 11:29N 31°44' E 121°07'714428107.0
2017-Oct-16 11:29N 22°13' E 113°07'2816936.3
2017-Oct-16 11:29N 22°37' E 113°23'10615.8
2017-Oct-16 11:28N 22°47' E 113°21'163894.7
2017-Oct-16 11:28N 22°57' E 113°36'66319725.3
2017-Oct-16 11:26N 31°24' E 121°35'537.7
2017-Oct-16 11:18N 31°22' E 121°30'171755.3
2017-Oct-16 11:17N 31°17' E 121°11'6594327.8
2017-Oct-16 11:08N 22°43' E 113°28'12269.6
2017-Oct-16 11:05N 22°55' E 113°25'9120.7
2017-Oct-16 11:01N 22°57' E 113°36'665598571.5
2017-Oct-16 11:00N 31°25' E 121°38'668133512.0
2017-Oct-16 11:00N 22°54' E 113°35'6461162772.9
2017-Oct-16 11:00N 31°17' E 121°11'1762313.8
2017-Oct-16 11:00N 31°22' E 121°30'142146.7
2017-Oct-16 11:00N 31°33' E 121°20'67781241.6
2017-Oct-16 10:59N 22°47' E 113°21'67987254.2
2017-Oct-16 10:59N 31°24' E 121°35'1034581.7
2017-Oct-16 10:59N 31°28' E 121°25'20906.2
2017-Oct-16 10:57N 31°43' E 121°09'66135491.5
2017-Oct-16 10:56N 23°02' E 113°31'6571182733.2
2017-Oct-16 10:56N 31°19' E 121°33'6651197466.0
2017-Oct-16 10:56N 22°55' E 113°27'11480.8
2017-Oct-16 10:55N 22°43' E 113°28'36198.4
2017-Oct-16 10:44N 22°13' E 113°07'6933099.2
2017-Oct-16 10:31N 31°17' E 121°08'64277056.2
2017-Oct-16 10:30N 22°57' E 113°36'662476797.0
2017-Oct-16 10:30N 31°42' E 121°10'665341875.2
2017-Oct-16 10:30N 22°54' E 113°35'5444.2
2017-Oct-16 10:29N 22°54' E 113°30'469714.0
2017-Oct-16 10:29N 22°13' E 113°07'7161288525.9
2017-Oct-16 10:29N 31°25' E 121°38'7723.5
2017-Oct-16 10:28N 31°19' E 121°33'67275600.4
2017-Oct-16 10:28N 22°44' E 113°29'85704.6
2017-Oct-16 10:28N 22°47' E 113°21'67755425.3
2017-Oct-16 10:27N 31°41' E 121°11'272424.5
2017-Oct-16 10:26N 31°24' E 121°35'10349.0
2017-Oct-16 10:25N 31°28' E 121°25'7185.5
2017-Oct-16 10:22N 31°22' E 121°30'6577512.9
2017-Oct-16 10:17N 23°01' E 113°32'25113.7
2017-Oct-16 10:04N 22°43' E 113°13'68211922.4
2017-Oct-16 10:00N 31°22' E 121°30'2137982.1
2017-Oct-16 10:00N 31°17' E 121°06'265224.8
2017-Oct-16 10:00N 31°24' E 121°35'663183596.0
2017-Oct-16 10:00N 22°57' E 113°36'662119233.8
2017-Oct-16 10:00N 31°41' E 121°11'665478764.7
2017-Oct-16 10:00N 22°54' E 113°35'663132616.9
2017-Oct-16 09:59N 31°28' E 121°25'665479141.5
2017-Oct-16 09:59N 22°52' E 113°33'6702411850.2
2017-Oct-16 09:59N 31°25' E 121°38'664183876.0
2017-Oct-16 09:59N 23°01' E 113°32'6611190168.6
2017-Oct-16 09:59N 31°41' E 121°11'67815645.8
2017-Oct-16 09:56N 22°47' E 113°21'376003.7
2017-Oct-16 09:56N 22°13' E 113°07'302655.0
2017-Oct-16 09:55N 22°42' E 113°12'6866770.0
2017-Oct-16 09:49N 31°32' E 121°23'6728260.1
2017-Oct-16 09:44N 22°44' E 113°34'6728634.8
2017-Oct-16 09:40N 31°33' E 121°20'427.1
2017-Oct-16 09:30N 31°31' E 121°24'663198940.4
2017-Oct-16 09:30N 22°55' E 113°35'66768563.9
2017-Oct-16 09:30N 31°25' E 121°38'691130834.7
2017-Oct-16 09:29N 22°44' E 113°09'687137498.9
2017-Oct-16 09:29N 31°40' E 121°13'661216401.3
2017-Oct-16 09:29N 23°01' E 113°32'1715074.3
2017-Oct-16 09:29N 22°47' E 113°21'6791221558.5
2017-Oct-16 09:29N 31°24' E 121°35'66322730.8
2017-Oct-16 09:27N 22°57' E 113°36'66117746.9
2017-Oct-16 09:25N 31°28' E 121°25'11290.6
2017-Oct-16 09:22N 31°19' E 121°33'70917488.0
2017-Oct-16 09:20N 22°13' E 113°07'70914107.4
2017-Oct-16 09:17N 31°22' E 121°30'66715188.0
2017-Oct-16 09:14N 22°45' E 113°38'6732937.3
2017-Oct-16 09:00N 31°25' E 121°38'681175050.0
2017-Oct-16 09:00N 22°47' E 113°21'6762434236.5
2017-Oct-16 09:00N 31°28' E 121°25'146438.2
2017-Oct-16 09:00N 31°39' E 121°14'688206502.5
2017-Oct-16 09:00N 22°46' E 113°05'689827285.0
2017-Oct-16 09:00N 31°24' E 121°35'6631193365.8
2017-Oct-16 09:00N 22°57' E 113°36'65879019.1
2017-Oct-16 08:59N 31°22' E 121°30'65755037.0
2017-Oct-16 08:59N 23°01' E 113°32'7969.6
2017-Oct-16 08:58N 22°55' E 113°35'663183528.3
2017-Oct-16 08:58N 31°30' E 121°24'136689.5
2017-Oct-16 08:58N 31°19' E 121°33'6642884.7
2017-Oct-16 08:44N 22°49' E 113°36'2 9.5
2017-Oct-16 08:31N 22°50' E 113°35'66889062.7
2017-Oct-16 08:30N 31°38' E 121°15'209051.9
2017-Oct-16 08:30N 31°22' E 121°30'65727202.4
2017-Oct-16 08:28N 23°01' E 113°32'659215808.6
2017-Oct-16 08:28N 31°28' E 121°25'115855.2
2017-Oct-16 08:28N 31°19' E 121°33'7955.8
2017-Oct-16 08:28N 31°25' E 121°38'136541.1
2017-Oct-16 08:28N 31°30' E 121°24'113064.2
2017-Oct-16 08:27N 31°24' E 121°35'66356826.9
2017-Oct-16 08:27N 22°57' E 113°36'1614608.3
2017-Oct-16 08:27N 22°47' E 113°21'15484.5
2017-Oct-16 08:25N 22°55' E 113°35'65927589.8
2017-Oct-16 08:23N 31°18' E 121°33'6631736.0
2017-Oct-16 08:00N 22°53' E 113°31'663340751.1
2017-Oct-16 08:00N 31°18' E 121°33'673173068.6
2017-Oct-16 08:00N 22°47' E 113°21'67453931.1
2017-Oct-16 07:59N 31°22' E 121°30'7287.4
2017-Oct-16 07:58N 31°28' E 121°25'113152.3
2017-Oct-16 07:58N 31°25' E 121°38'667266739.4
2017-Oct-16 07:57N 22°55' E 113°35'665149569.2
2017-Oct-16 07:57N 31°24' E 121°35'111373.6
2017-Oct-16 07:57N 31°30' E 121°24'661475913.9
2017-Oct-16 07:57N 22°57' E 113°36'658103066.0
2017-Oct-16 07:56N 31°19' E 121°33'23712.1
2017-Oct-16 07:54N 31°37' E 121°17'6617828.5
2017-Oct-16 07:49N 23°01' E 113°32'6622112.5
2017-Oct-16 07:31N 31°24' E 121°35'113064.2
2017-Oct-16 07:30N 31°30' E 121°24'8613.5
2017-Oct-16 07:29N 31°36' E 121°18'108818.8
2017-Oct-16 07:29N 31°28' E 121°25'78718.9
2017-Oct-16 07:29N 31°22' E 121°30'4608.5
2017-Oct-16 07:29N 31°19' E 121°33'66182032.8
2017-Oct-16 07:28N 22°58' E 113°30'13854.8
2017-Oct-16 07:28N 22°47' E 113°21'152331.4
2017-Oct-16 07:27N 22°55' E 113°35'66726380.6
2017-Oct-16 07:26N 31°25' E 121°38'66495620.5
2017-Oct-16 07:25N 23°01' E 113°32'569.8
2017-Oct-16 07:21N 22°57' E 113°36'6575872.2
2017-Oct-16 07:14N 31°18' E 121°33'2193.9
2017-Oct-16 07:01N 31°34' E 121°19'172982.9
2017-Oct-16 07:00N 31°24' E 121°35'112845.3
2017-Oct-16 07:00N 31°30' E 121°24'663397661.8
2017-Oct-16 07:00N 22°55' E 113°35'2349.8
2017-Oct-16 07:00N 22°57' E 113°36'66572554.6
2017-Oct-16 06:59N 31°25' E 121°38'75346.8
2017-Oct-16 06:59N 31°22' E 121°30'661182922.3
2017-Oct-16 06:59N 22°58' E 113°30'138070.1
2017-Oct-16 06:59N 22°47' E 113°21'171867.5
2017-Oct-16 06:58N 23°01' E 113°32'65938918.3
2017-Oct-16 06:57N 31°28' E 121°25'71247485.2
2017-Oct-16 06:56N 22°12' E 113°06'70916256.4
2017-Oct-16 06:53N 31°18' E 121°33'2 9.8
2017-Oct-16 06:44N 31°19' E 121°33'1877.6
2017-Oct-16 06:30N 31°33' E 121°20'67645069.4
2017-Oct-16 06:30N 22°50' E 113°19'171752.4
2017-Oct-16 06:29N 22°57' E 113°36'663170482.0
2017-Oct-16 06:29N 31°24' E 121°35'115690.7
2017-Oct-16 06:29N 31°30' E 121°24'132081.3
2017-Oct-16 06:28N 31°25' E 121°38'664119533.7
2017-Oct-16 06:28N 23°01' E 113°32'657147928.9
2017-Oct-16 06:28N 31°22' E 121°30'661198165.8
2017-Oct-16 06:27N 22°58' E 113°30'65936523.7
2017-Oct-16 06:26N 31°18' E 121°33'233.2
2017-Oct-16 06:24N 31°19' E 121°33'1195.4
2017-Oct-16 06:16N 31°28' E 121°25'0 0.0
2017-Oct-16 06:00N 31°28' E 121°25'41251.6
2017-Oct-16 06:00N 31°31' E 121°22'66346769.1
2017-Oct-16 05:59N 22°55' E 113°35'2524.8
2017-Oct-16 05:59N 22°57' E 113°36'66355505.8
2017-Oct-16 05:58N 31°24' E 121°35'676486510.4
2017-Oct-16 05:58N 22°53' E 113°18'18848257.1
2017-Oct-16 05:58N 21°17' E 110°25'202103962.6
2017-Oct-16 05:58N 23°01' E 113°32'656181765.2
2017-Oct-16 05:58N 31°18' E 121°33'2196.8
2017-Oct-16 05:57N 31°19' E 121°33'7520.6
2017-Oct-16 05:56N 31°25' E 121°38'7891.1
2017-Oct-16 05:56N 31°22' E 121°30'6619007.5
2017-Oct-16 05:51N 22°58' E 113°30'663103771.2
2017-Oct-16 05:51N 31°30' E 121°24'8515492.6
2017-Oct-16 05:42N 21°17' E 110°25'8504526.9
2017-Oct-16 05:31N 31°19' E 121°33'850765045.0
2017-Oct-16 05:30N 21°17' E 110°25'851278518.1
2017-Oct-16 05:30N 31°30' E 121°24'183.0
2017-Oct-16 05:30N 31°30' E 121°24'113619.3
2017-Oct-16 05:30N 31°24' E 121°35'51067.8
2017-Oct-16 05:29N 31°22' E 121°30'85092696.9
2017-Oct-16 05:29N 21°17' E 110°25'85752268.3
2017-Oct-16 05:28N 31°25' E 121°38'664265634.1
2017-Oct-16 05:28N 23°01' E 113°32'65629910.9
2017-Oct-16 05:26N 31°18' E 121°33'710116127.1
2017-Oct-16 05:26N 22°12' E 113°06'5116578.4
2017-Oct-16 05:26N 22°55' E 113°35'242.8
2017-Oct-16 05:23N 22°57' E 113°36'661158539.8
2017-Oct-16 05:23N 31°28' E 121°25'66331399.4
2017-Oct-16 05:21N 22°58' E 113°30'6621901.8
2017-Oct-16 05:01N 31°29' E 121°23'1517626.0
2017-Oct-16 05:00N 31°18' E 121°33'8491018876.2
2017-Oct-16 05:00N 21°17' E 110°25'8543075814.0
2017-Oct-16 05:00N 31°24' E 121°35'5549.8
2017-Oct-16 05:00N 31°22' E 121°30'71149212.6
2017-Oct-16 04:59N 22°12' E 113°06'5321008.7
2017-Oct-16 04:59N 22°57' E 113°36'2386.7
2017-Oct-16 04:59N 22°55' E 113°35'662264943.3
2017-Oct-16 04:58N 31°28' E 121°25'11294.8
2017-Oct-16 04:56N 31°25' E 121°38'131760.4
2017-Oct-16 04:56N 31°30' E 121°24'66035993.9
2017-Oct-16 04:55N 23°01' E 113°32'65773965.1
2017-Oct-16 04:54N 31°19' E 121°33'6571677.4
2017-Oct-16 04:30N 23°01' E 113°32'82364.9
2017-Oct-16 04:30N 22°55' E 113°26'194696699.0
2017-Oct-16 04:30N 21°19' E 110°25'850235255.0
2017-Oct-16 04:30N 31°28' E 121°25'135701.1
2017-Oct-16 04:30N 31°18' E 121°33'141355.0
2017-Oct-16 04:29N 31°30' E 121°24'66188132.8
2017-Oct-16 04:29N 22°57' E 113°36'2198.6
2017-Oct-16 04:28N 22°55' E 113°35'1241.7
2017-Oct-16 04:28N 22°56' E 113°36'663183676.2
2017-Oct-16 04:28N 31°24' E 121°35'12451.9
2017-Oct-16 04:26N 31°29' E 121°23'713641334.8
2017-Oct-16 04:26N 22°12' E 113°06'717161415.1
2017-Oct-16 04:26N 31°25' E 121°38'71484.8
2017-Oct-16 04:25N 31°22' E 121°30'6615650.7
2017-Oct-16 04:18N 22°58' E 113°30'15388.7
2017-Oct-16 04:16N 22°43' E 113°35'195750.4
2017-Oct-16 04:00N 21°19' E 110°25'20180353.3
2017-Oct-16 04:00N 23°01' E 113°32'725844.1
2017-Oct-16 04:00N 22°54' E 113°29'666399574.1
2017-Oct-16 04:00N 31°29' E 121°23'71340083.4
2017-Oct-16 03:59N 22°12' E 113°06'713285345.6
2017-Oct-16 03:59N 31°30' E 121°24'139191.5
2017-Oct-16 03:59N 31°25' E 121°38'6671201025.6
2017-Oct-16 03:59N 22°54' E 113°35'3818.2
2017-Oct-16 03:59N 22°57' E 113°36'65846482.2
2017-Oct-16 03:58N 31°22' E 121°30'72377.9
2017-Oct-16 03:58N 31°28' E 121°25'10665.0
2017-Oct-16 03:57N 31°24' E 121°35'6116.8
2017-Oct-16 03:53N 31°18' E 121°33'66043981.7
2017-Oct-16 03:53N 22°58' E 113°30'20736.6
2017-Oct-16 03:51N 22°40' E 113°41'66960176.8
2017-Oct-16 03:50N 31°19' E 121°33'67010584.0
2017-Oct-16 03:46N 22°45' E 113°31'11860.6
2017-Oct-16 03:46N 22°55' E 113°35'201788.0
2017-Oct-16 03:30N 21°19' E 110°25'19989537.8
2017-Oct-16 03:30N 22°53' E 113°34'22143.6
2017-Oct-16 03:30N 22°53' E 113°32'66391749.4
2017-Oct-16 03:30N 31°18' E 121°33'2233.2
2017-Oct-16 03:29N 31°19' E 121°33'113414.1
2017-Oct-16 03:29N 31°28' E 121°25'713213893.1
2017-Oct-16 03:29N 22°12' E 113°06'538594.5
2017-Oct-16 03:29N 22°57' E 113°36'54673.5
2017-Oct-16 03:29N 22°58' E 113°30'663795860.9
2017-Oct-16 03:29N 31°30' E 121°24'1243.2
2017-Oct-16 03:28N 31°29' E 121°23'66259577.6
2017-Oct-16 03:28N 22°55' E 113°35'7800.4
2017-Oct-16 03:27N 23°01' E 113°32'233257.8
2017-Oct-16 03:27N 22°40' E 113°41'673606127.8
2017-Oct-16 03:27N 31°24' E 121°35'5504.0
2017-Oct-16 03:26N 31°22' E 121°30'71670.9
2017-Oct-16 03:26N 31°25' E 121°38'6804894.4
2017-Oct-16 03:17N 22°44' E 113°27'189666.8
2017-Oct-16 03:00N 21°19' E 110°25'8473050917.7
2017-Oct-16 03:00N 31°18' E 121°33'519515.2
2017-Oct-16 03:00N 31°22' E 121°30'664398268.7
2017-Oct-16 03:00N 22°53' E 113°32'46703.8
2017-Oct-16 03:00N 22°55' E 113°35'662297883.7
2017-Oct-16 03:00N 31°29' E 121°23'664132804.4
2017-Oct-16 03:00N 22°53' E 113°34'66513675.9
2017-Oct-16 02:57N 31°30' E 121°24'115001.9
2017-Oct-16 02:57N 31°24' E 121°35'2128.3
2017-Oct-16 02:56N 31°25' E 121°38'66424148.2
2017-Oct-16 02:54N 23°01' E 113°32'65932083.3
2017-Oct-16 02:53N 31°28' E 121°25'66112516.3
2017-Oct-16 02:50N 22°57' E 113°36'1149.3
2017-Oct-16 02:36N 22°46' E 113°39'11123.0
2017-Oct-16 02:30N 22°56' E 113°36'71990.5
2017-Oct-16 02:30N 22°54' E 113°29'19563911.4
2017-Oct-16 02:30N 21°19' E 110°25'20165693.6
2017-Oct-16 02:30N 22°55' E 113°35'9644.9
2017-Oct-16 02:29N 22°46' E 113°38'111319.9
2017-Oct-16 02:29N 22°57' E 113°36'661148631.0
2017-Oct-16 02:28N 31°28' E 121°25'2598.9
2017-Oct-16 02:28N 31°30' E 121°24'137661.0
2017-Oct-16 02:28N 31°25' E 121°38'2277.1
2017-Oct-16 02:28N 31°24' E 121°35'678271280.7
2017-Oct-16 02:27N 22°48' E 113°21'161944.0
2017-Oct-16 02:27N 23°01' E 113°32'65756354.2
2017-Oct-16 02:26N 31°22' E 121°30'5342196.4
2017-Oct-16 02:12N 22°32' E 120°18'5412843.3
2017-Oct-16 02:00N 31°29' E 121°23'92226.0
2017-Oct-16 02:00N 31°22' E 121°30'664265698.5
2017-Oct-16 02:00N 22°49' E 113°36'61675.1
2017-Oct-16 02:00N 22°55' E 113°35'183590.6
2017-Oct-16 01:59N 22°47' E 113°18'117826.7
2017-Oct-16 01:59N 22°55' E 113°26'668133506.6
2017-Oct-16 01:59N 31°28' E 121°25'21501.6
2017-Oct-16 01:59N 31°30' E 121°24'13696.6
2017-Oct-16 01:58N 31°25' E 121°38'2781.7
2017-Oct-16 01:58N 31°24' E 121°35'66210638.7
2017-Oct-16 01:54N 23°01' E 113°32'574.2
2017-Oct-16 01:49N 22°57' E 113°36'65717660.6
2017-Oct-16 01:47N 31°18' E 121°33'8475084.8
2017-Oct-16 01:37N 21°19' E 110°25'1991752.9
2017-Oct-16 01:30N 22°52' E 113°34'199357597.9
2017-Oct-16 01:30N 21°19' E 110°25'85048542.9
2017-Oct-16 01:29N 31°28' E 121°25'662298061.2
2017-Oct-16 01:29N 22°55' E 113°35'74981.5
2017-Oct-16 01:29N 23°01' E 113°32'659474514.2
2017-Oct-16 01:29N 31°29' E 121°23'1526430.4
2017-Oct-16 01:29N 31°18' E 121°33'53896.0
2017-Oct-16 01:29N 31°22' E 121°30'71407.0
2017-Oct-16 01:29N 31°25' E 121°38'13851.4
2017-Oct-16 01:28N 31°30' E 121°24'11354.1
2017-Oct-16 01:26N 31°24' E 121°35'66311365.5
2017-Oct-16 01:22N 22°57' E 113°36'6584455.9
2017-Oct-16 01:13N 31°19' E 121°33'6565930.0
2017-Oct-16 01:07N 22°58' E 113°39'13591.2
2017-Oct-16 01:06N 22°45' E 113°39'2002350.0
2017-Oct-16 01:00N 21°19' E 110°25'20142636.2
2017-Oct-16 01:00N 22°55' E 113°36'666599611.9
2017-Oct-16 01:00N 31°25' E 121°38'114553.3
2017-Oct-16 01:00N 31°28' E 121°25'66241111.9
2017-Oct-16 00:59N 22°55' E 113°35'2188.4
2017-Oct-16 00:58N 22°57' E 113°36'65763960.1
2017-Oct-16 00:58N 31°18' E 121°33'143687.8
2017-Oct-16 00:57N 31°30' E 121°24'11345.1
2017-Oct-16 00:56N 31°24' E 121°35'66042435.2
2017-Oct-16 00:55N 22°58' E 113°39'65626821.1
2017-Oct-16 00:53N 31°22' E 121°30'66512870.0
2017-Oct-16 00:50N 22°46' E 113°38'1 9.5
2017-Oct-16 00:46N 22°47' E 113°38'6659688.2
2017-Oct-16 00:42N 31°19' E 121°33'28274.3
2017-Oct-16 00:36N 31°41' E 121°12'66110261.4
2017-Oct-16 00:32N 23°01' E 113°31'14511.7
2017-Oct-16 00:31N 22°48' E 113°37'664239209.9
2017-Oct-16 00:30N 31°22' E 121°30'664341649.1
2017-Oct-16 00:30N 22°49' E 113°36'95652.8
2017-Oct-16 00:30N 22°58' E 113°39'205246377.8
2017-Oct-16 00:30N 21°19' E 110°25'849611201.5
2017-Oct-16 00:30N 31°29' E 121°23'122833.5
2017-Oct-16 00:30N 31°24' E 121°35'66533237.1
2017-Oct-16 00:29N 22°55' E 113°35'2333.9
2017-Oct-16 00:28N 22°57' E 113°36'044.2
2017-Oct-16 00:28N 22°56' E 113°36'665217733.3
2017-Oct-16 00:28N 31°25' E 121°38'115122.5
2017-Oct-16 00:28N 31°28' E 121°25'115852.8
2017-Oct-16 00:27N 31°19' E 121°33'25575.9
2017-Oct-16 00:27N 31°18' E 121°33'308228.5
2017-Oct-16 00:27N 31°41' E 121°12'15844.8
2017-Oct-16 00:26N 31°30' E 121°24'66013572.7
2017-Oct-16 00:23N 23°01' E 113°31'201526.2
2017-Oct-16 00:00N 21°19' E 110°25'199357636.2
2017-Oct-16 00:00N 22°52' E 113°34'1305.2
2017-Oct-16 00:00N 22°51' E 113°34'67089343.4
2017-Oct-16 00:00N 31°25' E 121°38'6632388358.9
2017-Oct-16 00:00N 22°57' E 113°38'659131712.1
2017-Oct-15 23:59N 31°29' E 121°23'21131.8
2017-Oct-15 23:59N 31°28' E 121°25'66135494.0
2017-Oct-15 23:58N 22°57' E 113°36'65734801.6
2017-Oct-15 23:57N 31°18' E 121°33'658112731.0
2017-Oct-15 23:57N 22°56' E 113°36'66379586.0
2017-Oct-15 23:56N 31°24' E 121°35'662476578.9
2017-Oct-15 23:56N 23°01' E 113°31'660158349.5
2017-Oct-15 23:56N 31°30' E 121°24'66388365.4
2017-Oct-15 23:55N 22°55' E 113°35'6606406.9
2017-Oct-15 23:49N 31°22' E 121°30'445.5
2017-Oct-15 23:44N 31°19' E 121°33'8483881.3
2017-Oct-15 23:30N 21°19' E 110°25'20136094.8
2017-Oct-15 23:30N 22°54' E 113°35'665119706.6
2017-Oct-15 23:30N 31°24' E 121°35'6631194285.1
2017-Oct-15 23:30N 22°56' E 113°36'661264596.5
2017-Oct-15 23:30N 31°30' E 121°24'93570.5
2017-Oct-15 23:29N 31°22' E 121°30'660475385.4
2017-Oct-15 23:29N 22°55' E 113°35'3156.8
2017-Oct-15 23:28N 22°57' E 113°37'664217367.9
2017-Oct-15 23:28N 31°25' E 121°38'5382569808.5
2017-Oct-15 23:28N 49°18' W 123°02'5388387933.4
2017-Oct-15 23:27N 31°28' E 121°25'135067.6
2017-Oct-15 23:27N 31°18' E 121°33'154405.1
2017-Oct-15 23:26N 31°29' E 121°23'13259.0
2017-Oct-15 23:23N 31°19' E 121°33'6592371381.9
2017-Oct-15 23:23N 22°56' E 113°36'0 4.2
2017-Oct-15 23:19N 22°57' E 113°36'202653.7
2017-Oct-15 23:00N 21°19' E 110°25'20360896.4
2017-Oct-15 23:00N 22°57' E 113°37'660395884.5
2017-Oct-15 23:00N 31°28' E 121°25'22640.9
2017-Oct-15 23:00N 31°29' E 121°23'659296684.0
2017-Oct-15 23:00N 22°57' E 113°37'6582367275.1
2017-Oct-15 23:00N 31°19' E 121°33'538619391200.7
2017-Oct-15 23:00N 49°19' W 123°05'53853876961.4
2017-Oct-15 23:00N 31°30' E 121°24'131430.9
2017-Oct-15 22:59N 31°25' E 121°38'2277.1
2017-Oct-15 22:59N 31°24' E 121°35'6622382927.1
2017-Oct-15 22:59N 23°01' E 113°31'8728.5
2017-Oct-15 22:58N 22°55' E 113°35'96944168.5
2017-Oct-15 22:57N 37°42' E 121°09'96875746.2
2017-Oct-15 22:56N 22°56' E 113°36'014.8
2017-Oct-15 22:55N 22°57' E 113°36'224.9
2017-Oct-15 22:50N 22°55' E 113°35'659474569.2
2017-Oct-15 22:50N 31°18' E 121°33'8472623.3
2017-Oct-15 22:30N 21°19' E 110°25'20366433.4
2017-Oct-15 22:30N 22°57' E 113°37'61811171142.3
2017-Oct-15 22:30N 49°19' W 123°05'5081223046.6
2017-Oct-15 22:29N 37°45' E 121°12'971134511.0
2017-Oct-15 22:28N 22°57' E 113°37'664239104.7
2017-Oct-15 22:28N 31°25' E 121°38'665239430.3
2017-Oct-15 22:28N 22°57' E 113°36'6631193382.3
2017-Oct-15 22:28N 31°24' E 121°35'1139823.7
2017-Oct-15 22:28N 31°30' E 121°24'21955.2
2017-Oct-15 22:28N 31°28' E 121°25'662476632.3
2017-Oct-15 22:28N 22°55' E 113°36'662396959.8
2017-Oct-15 22:28N 31°29' E 121°23'13880.8
2017-Oct-15 22:27N 31°19' E 121°33'45061.5
2017-Oct-15 22:27N 31°22' E 121°30'65953896.8
2017-Oct-15 22:26N 22°56' E 113°36'2521.4
2017-Oct-15 22:26N 22°55' E 113°35'65935415.6
2017-Oct-15 22:24N 31°18' E 121°33'6562823.0
2017-Oct-15 22:11N 23°01' E 113°31'2011189.4
2017-Oct-15 22:00N 21°19' E 110°25'203730931.9
2017-Oct-15 22:00N 22°57' E 113°37'6180383557.9
2017-Oct-15 21:59N 49°18' W 123°08'53843876191.6
2017-Oct-15 21:59N 31°28' E 121°25'2495.2
2017-Oct-15 21:59N 31°29' E 121°23'65965901.6
2017-Oct-15 21:58N 23°01' E 113°31'662595740.0
2017-Oct-15 21:58N 31°24' E 121°35'6621191757.0
2017-Oct-15 21:58N 22°57' E 113°37'32395.7
2017-Oct-15 21:58N 22°55' E 113°35'66796025.5
2017-Oct-15 21:58N 31°25' E 121°38'665299287.9
2017-Oct-15 21:58N 22°57' E 113°36'2635.4
2017-Oct-15 21:58N 22°55' E 113°35'66261147.8
2017-Oct-15 21:57N 31°30' E 121°24'66128338.6
2017-Oct-15 21:56N 22°56' E 113°36'659107790.1
2017-Oct-15 21:55N 31°19' E 121°33'3923080.5
2017-Oct-15 21:48N 37°51' E 121°18'3892789.6
2017-Oct-15 21:39N 31°22' E 121°30'538237043.7
2017-Oct-15 21:30N 49°19' W 123°12'64127694120.9
2017-Oct-15 21:30N 21°19' E 110°25'850105459.9
2017-Oct-15 21:30N 31°28' E 121°25'660474978.5
2017-Oct-15 21:30N 22°57' E 113°37'6591186736.0
2017-Oct-15 21:30N 31°29' E 121°23'1326.3
2017-Oct-15 21:30N 31°30' E 121°24'660792256.7
2017-Oct-15 21:30N 22°57' E 113°37'662238389.8
2017-Oct-15 21:29N 31°24' E 121°35'51465.6
2017-Oct-15 21:29N 31°19' E 121°33'65940885.9
2017-Oct-15 21:28N 22°56' E 113°36'2369.3
2017-Oct-15 21:28N 22°55' E 113°35'667342948.2
2017-Oct-15 21:28N 31°25' E 121°38'665478860.6
2017-Oct-15 21:28N 22°57' E 113°36'2637.5
2017-Oct-15 21:28N 22°55' E 113°35'66043995.1
2017-Oct-15 21:27N 31°22' E 121°30'3806162.0
2017-Oct-15 21:23N 37°42' E 121°09'507813530.0
2017-Oct-15 21:00N 49°18' W 123°18'64085767182.0
2017-Oct-15 21:00N 21°19' E 110°25'20336546.1
2017-Oct-15 21:00N 22°57' E 113°37'66065980.7
2017-Oct-15 20:59N 31°28' E 121°25'21584.5
2017-Oct-15 20:59N 31°29' E 121°23'659474697.8
2017-Oct-15 20:59N 22°57' E 113°37'65891052.6
2017-Oct-15 20:59N 31°22' E 121°30'94002.2
2017-Oct-15 20:59N 31°30' E 121°24'66151748.5
2017-Oct-15 20:58N 22°56' E 113°36'2315.0
2017-Oct-15 20:58N 22°55' E 113°35'0413.2
2017-Oct-15 20:58N 22°55' E 113°35'973584067.2
2017-Oct-15 20:58N 37°46' E 121°10'38229870.8
2017-Oct-15 20:57N 31°25' E 121°38'2614.2
2017-Oct-15 20:57N 31°24' E 121°35'66322305.9
2017-Oct-15 20:55N 22°57' E 113°36'65840178.6
2017-Oct-15 20:54N 31°19' E 121°33'6672802.3
2017-Oct-15 20:39N 22°41' E 113°42'617841494.2
2017-Oct-15 20:31N 49°17' W 123°22'537519348746.6
2017-Oct-15 20:31N 31°19' E 121°33'660237686.5
2017-Oct-15 20:30N 22°55' E 113°35'201180696.0
2017-Oct-15 20:30N 21°19' E 110°25'203243643.8
2017-Oct-15 20:30N 22°57' E 113°37'6641195723.4
2017-Oct-15 20:30N 31°25' E 121°38'115854.3
2017-Oct-15 20:30N 31°28' E 121°25'72615.7
2017-Oct-15 20:30N 31°22' E 121°30'65832880.1
2017-Oct-15 20:29N 22°57' E 113°37'66274484.3
2017-Oct-15 20:28N 31°24' E 121°35'66388397.5
2017-Oct-15 20:28N 22°57' E 113°36'233.9
2017-Oct-15 20:25N 22°55' E 113°35'66222712.2
2017-Oct-15 20:23N 31°30' E 121°24'141050.8
2017-Oct-15 20:22N 31°18' E 121°33'6586197.3
2017-Oct-15 20:16N 22°56' E 113°36'13130.5
2017-Oct-15 20:10N 22°44' E 113°40'2001305.4
2017-Oct-15 20:00N 21°19' E 110°25'20373122.0
2017-Oct-15 20:00N 22°57' E 113°37'66499626.9
2017-Oct-15 20:00N 31°25' E 121°38'713366.9
2017-Oct-15 20:00N 31°22' E 121°30'658394627.9
2017-Oct-15 20:00N 22°57' E 113°37'659103212.4
2017-Oct-15 19:59N 31°29' E 121°23'121214.3
2017-Oct-15 19:59N 31°24' E 121°35'104323.9
2017-Oct-15 19:59N 31°28' E 121°25'11890.6
2017-Oct-15 19:58N 31°19' E 121°33'660148478.6
2017-Oct-15 19:58N 22°55' E 113°35'616711101436.1
2017-Oct-15 19:58N 49°16' W 123°27'61664439626.3
2017-Oct-15 19:57N 22°56' E 113°36'66121640.4
2017-Oct-15 19:56N 31°30' E 121°24'6619998.2
2017-Oct-15 19:52N 22°57' E 113°36'2162.8
2017-Oct-15 19:51N 22°55' E 113°35'9258.9
2017-Oct-15 19:49N 22°46' E 113°39'66417967.9
2017-Oct-15 19:47N 31°18' E 121°33'8473148.5
2017-Oct-15 19:30N 21°19' E 110°25'203365383.7
2017-Oct-15 19:30N 22°57' E 113°37'6601187653.4
2017-Oct-15 19:30N 31°28' E 121°25'23961.3
2017-Oct-15 19:30N 31°29' E 121°23'66259576.7
2017-Oct-15 19:30N 22°55' E 113°35'61655548197.5
2017-Oct-15 19:30N 49°16' W 123°32'5360494796.4
2017-Oct-15 19:29N 31°25' E 121°38'66433669.6
2017-Oct-15 19:28N 23°01' E 113°31'73908.2
2017-Oct-15 19:28N 22°57' E 113°36'21275.0
2017-Oct-15 19:28N 22°55' E 113°35'2419.1
2017-Oct-15 19:27N 22°57' E 113°37'6622383497.8
2017-Oct-15 19:27N 31°24' E 121°35'11447.7
2017-Oct-15 19:26N 31°30' E 121°24'9122.7
2017-Oct-15 19:21N 31°22' E 121°30'52435.0
2017-Oct-15 19:21N 31°18' E 121°33'658473473.6
2017-Oct-15 19:21N 22°56' E 113°36'65922584.6
2017-Oct-15 19:19N 31°19' E 121°33'8482677.1
2017-Oct-15 19:00N 21°19' E 110°25'20142574.6
2017-Oct-15 19:00N 22°55' E 113°35'22660.4
2017-Oct-15 19:00N 22°57' E 113°37'660297098.4
2017-Oct-15 19:00N 31°30' E 121°24'53631072680.9
2017-Oct-15 19:00N 49°15' W 123°36'61611167422.9
2017-Oct-15 18:59N 22°55' E 113°35'660125102.3
2017-Oct-15 18:59N 31°22' E 121°30'74359.4
2017-Oct-15 18:59N 31°28' E 121°25'2565.9
2017-Oct-15 18:59N 31°29' E 121°23'1416249.9
2017-Oct-15 18:59N 31°25' E 121°38'2199.8
2017-Oct-15 18:58N 31°24' E 121°35'58793.7
2017-Oct-15 18:58N 31°19' E 121°33'658182348.9
2017-Oct-15 18:58N 22°57' E 113°36'1153.5
2017-Oct-15 18:57N 22°57' E 113°37'11202.9
2017-Oct-15 18:54N 22°46' E 113°39'1112812.2
2017-Oct-15 18:54N 22°56' E 113°36'65826015.2
2017-Oct-15 18:52N 31°18' E 121°33'6563984.5
2017-Oct-15 18:43N 23°01' E 113°31'6593292.6
2017-Oct-15 18:31N 31°28' E 121°25'850764558.6
2017-Oct-15 18:30N 21°19' E 110°25'848610635.9
2017-Oct-15 18:30N 31°22' E 121°30'933389.5
2017-Oct-15 18:30N 31°29' E 121°23'662198478.5
2017-Oct-15 18:30N 22°55' E 113°36'2562.4
2017-Oct-15 18:30N 22°57' E 113°37'113529.0
2017-Oct-15 18:30N 22°46' E 113°39'1112987.5
2017-Oct-15 18:30N 22°57' E 113°37'662297937.2
2017-Oct-15 18:30N 31°24' E 121°35'112655.7
2017-Oct-15 18:29N 31°30' E 121°24'663140351.2
2017-Oct-15 18:29N 22°55' E 113°35'6158434664.2
2017-Oct-15 18:28N 49°14' W 123°41'53541070772.3
2017-Oct-15 18:28N 31°25' E 121°38'665199525.3
2017-Oct-15 18:28N 22°57' E 113°36'019.6
2017-Oct-15 18:27N 22°56' E 113°36'65910048.2
2017-Oct-15 18:23N 31°19' E 121°33'65728863.2
2017-Oct-15 18:21N 23°01' E 113°31'6567772.4
2017-Oct-15 18:16N 31°18' E 121°33'8473191.4
2017-Oct-15 18:00N 21°19' E 110°25'201360902.5
2017-Oct-15 18:00N 23°01' E 113°31'72914.6
2017-Oct-15 18:00N 22°57' E 113°37'61514428911.2
2017-Oct-15 18:00N 49°13' W 123°46'615411076938.2
2017-Oct-15 18:00N 22°55' E 113°36'9726.3
2017-Oct-15 17:59N 22°46' E 113°39'9802.6
2017-Oct-15 17:59N 22°55' E 113°35'3233.7
2017-Oct-15 17:58N 22°57' E 113°37'660791630.9
2017-Oct-15 17:58N 31°28' E 121°25'118196.0
2017-Oct-15 17:58N 31°25' E 121°38'141189.2
2017-Oct-15 17:57N 31°29' E 121°23'66057988.8
2017-Oct-15 17:57N 22°56' E 113°36'663170543.8
2017-Oct-15 17:56N 31°24' E 121°35'111244.5
2017-Oct-15 17:56N 31°30' E 121°24'13222.0
2017-Oct-15 17:52N 31°19' E 121°33'65867728.6
2017-Oct-15 17:52N 22°57' E 113°36'202571.1
2017-Oct-15 17:30N 21°19' E 110°25'20142584.9
2017-Oct-15 17:30N 22°55' E 113°36'21968.5
2017-Oct-15 17:30N 22°57' E 113°37'65991303.3
2017-Oct-15 17:30N 31°29' E 121°23'134845.8
2017-Oct-15 17:29N 31°19' E 121°33'66588646.4
2017-Oct-15 17:29N 22°46' E 113°39'668200261.4
2017-Oct-15 17:29N 31°30' E 121°24'66385213.2
2017-Oct-15 17:28N 22°55' E 113°35'66764882.1
2017-Oct-15 17:28N 31°25' E 121°38'665342043.3
2017-Oct-15 17:28N 22°57' E 113°36'6611189048.3
2017-Oct-15 17:28N 31°28' E 121°25'5354803119.3
2017-Oct-15 17:27N 49°12' W 123°51'5350256814.1
2017-Oct-15 17:26N 31°24' E 121°35'66227396.3
2017-Oct-15 17:24N 22°57' E 113°37'162.3
2017-Oct-15 17:23N 22°56' E 113°36'2619990.3
2017-Oct-15 17:22N 24°11' E 118°08'2642470.6
2017-Oct-15 17:15N 23°01' E 113°31'6627662.8
2017-Oct-15 17:10N 31°47' E 121°04'37229.1
2017-Oct-15 17:00N 31°19' E 121°33'462277192.5
2017-Oct-15 17:00N 24°14' E 118°09'463138799.6
2017-Oct-15 17:00N 21°19' E 110°25'85034760.6
2017-Oct-15 16:58N 31°30' E 121°24'660792262.5
2017-Oct-15 16:58N 22°57' E 113°37'61451701738.8
2017-Oct-15 16:58N 49°12' W 123°54'61482012140.8
2017-Oct-15 16:58N 22°55' E 113°35'2306.1
2017-Oct-15 16:58N 22°57' E 113°36'661237844.6
2017-Oct-15 16:57N 31°28' E 121°25'2567.5
2017-Oct-15 16:57N 31°29' E 121°23'66725809.4
2017-Oct-15 16:56N 22°46' E 113°39'669803263.7
2017-Oct-15 16:56N 31°24' E 121°35'296.5
2017-Oct-15 16:54N 31°25' E 121°38'664239103.0
2017-Oct-15 16:54N 22°57' E 113°37'181.0
2017-Oct-15 16:53N 22°56' E 113°36'6585859.9
2017-Oct-15 16:46N 31°18' E 121°33'8473184.4
2017-Oct-15 16:30N 21°19' E 110°25'203365269.5
2017-Oct-15 16:30N 22°57' E 113°37'664797154.6
2017-Oct-15 16:30N 31°25' E 121°38'667799810.0
2017-Oct-15 16:30N 22°55' E 113°35'264238000.9
2017-Oct-15 16:30N 24°18' E 118°09'464119427.0
2017-Oct-15 16:30N 31°29' E 121°24'0181.2
2017-Oct-15 16:30N 31°30' E 121°24'660216032.4
2017-Oct-15 16:30N 22°57' E 113°37'65967813.0
2017-Oct-15 16:29N 31°29' E 121°23'66766673.4
2017-Oct-15 16:28N 22°46' E 113°39'6151598479.8
2017-Oct-15 16:28N 49°11' W 123°57'61474425524.0
2017-Oct-15 16:28N 22°55' E 113°35'21836.7
2017-Oct-15 16:28N 22°57' E 113°36'65827888.3
2017-Oct-15 16:26N 31°19' E 121°33'5326.8
2017-Oct-15 16:25N 31°24' E 121°35'66315404.1
2017-Oct-15 16:23N 22°56' E 113°36'6631848.5
2017-Oct-15 16:01N 31°41' E 121°12'85066504.7
2017-Oct-15 16:00N 21°19' E 110°25'201240800.3
2017-Oct-15 16:00N 22°55' E 113°35'31019.8
2017-Oct-15 16:00N 22°57' E 113°37'030.2
2017-Oct-15 16:00N 22°57' E 113°37'2399.2
2017-Oct-15 16:00N 22°55' E 113°35'662340678.3
2017-Oct-15 16:00N 31°30' E 121°24'1137.7
2017-Oct-15 15:59N 31°29' E 121°23'143750.6
2017-Oct-15 15:59N 31°25' E 121°38'671604318.1
2017-Oct-15 15:59N 22°46' E 113°39'66579779.6
2017-Oct-15 15:58N 31°19' E 121°33'141743.8
2017-Oct-15 15:58N 31°30' E 121°24'12822.1
2017-Oct-15 15:57N 31°24' E 121°35'66325952.1
2017-Oct-15 15:55N 22°56' E 113°36'0 2.6
2017-Oct-15 15:49N 22°57' E 113°36'6634714.4
2017-Oct-15 15:40N 31°41' E 121°12'67115386.8
2017-Oct-15 15:38N 22°44' E 113°39'17556.3
2017-Oct-15 15:36N 22°59' E 113°31'16186.0
2017-Oct-15 15:31N 22°44' E 113°38'198142905.8
2017-Oct-15 15:30N 21°19' E 110°25'849382263.2
2017-Oct-15 15:30N 31°30' E 121°24'663159025.2
2017-Oct-15 15:30N 22°55' E 113°35'050.3
2017-Oct-15 15:30N 22°55' E 113°35'667184571.5
2017-Oct-15 15:29N 31°25' E 121°38'664217405.8
2017-Oct-15 15:29N 22°57' E 113°37'659791295.2
2017-Oct-15 15:29N 31°29' E 121°23'13589.6
2017-Oct-15 15:29N 31°30' E 121°24'66142507.7
2017-Oct-15 15:28N 22°56' E 113°36'65927256.3
2017-Oct-15 15:27N 31°19' E 121°33'2218.7
2017-Oct-15 15:26N 31°18' E 121°33'6519.6
2017-Oct-15 15:26N 31°24' E 121°35'66337884.6
2017-Oct-15 15:25N 22°57' E 113°36'530.5
2017-Oct-15 15:15N 22°59' E 113°31'1578.5
2017-Oct-15 15:03N 22°46' E 113°39'0 0.0
2017-Oct-15 15:00N 22°46' E 113°39'20039973.5
2017-Oct-15 15:00N 21°19' E 110°25'203365269.5
2017-Oct-15 15:00N 22°57' E 113°37'6621191949.3
2017-Oct-15 15:00N 31°24' E 121°35'2148.2
2017-Oct-15 14:59N 31°25' E 121°38'142566.2
2017-Oct-15 14:59N 31°29' E 121°23'151823.4
2017-Oct-15 14:58N 31°18' E 121°33'659395270.2
2017-Oct-15 14:58N 22°55' E 113°35'1439.5
2017-Oct-15 14:58N 22°56' E 113°36'661340063.6
2017-Oct-15 14:58N 31°30' E 121°24'67220664.8
2017-Oct-15 14:56N 22°44' E 113°34'671241724.3
2017-Oct-15 14:56N 31°30' E 121°24'142230.0
2017-Oct-15 14:55N 31°19' E 121°33'65884540.4
2017-Oct-15 14:55N 22°57' E 113°37'3127.5
2017-Oct-15 14:54N 22°55' E 113°35'83597.4
2017-Oct-15 14:54N 23°01' E 113°31'7199.0
2017-Oct-15 14:52N 22°57' E 113°36'1344.9
2017-Oct-15 14:34N 22°44' E 113°39'1323.3
2017-Oct-15 14:01N 22°57' E 113°36'202181682.5
2017-Oct-15 14:00N 21°19' E 110°25'203365280.0
2017-Oct-15 14:00N 22°57' E 113°37'664170817.6
2017-Oct-15 14:00N 31°25' E 121°38'144063.1
2017-Oct-15 14:00N 31°29' E 121°23'143333.7
2017-Oct-15 14:00N 31°19' E 121°33'62215.4
2017-Oct-15 14:00N 31°24' E 121°35'662119143.8
2017-Oct-15 13:59N 23°01' E 113°31'82399.8
2017-Oct-15 13:59N 22°55' E 113°35'31369.0
2017-Oct-15 13:59N 22°57' E 113°37'2179.0
2017-Oct-15 13:58N 22°55' E 113°36'113867.5
2017-Oct-15 13:58N 22°44' E 113°34'121513.0
2017-Oct-15 13:58N 22°56' E 113°36'66135527.7
2017-Oct-15 13:56N 31°30' E 121°24'114.8
2017-Oct-15 13:54N 31°30' E 121°23'66712779.8
2017-Oct-15 13:51N 22°46' E 113°39'487.1
2017-Oct-15 13:48N 22°44' E 113°35'6682342.7
2017-Oct-15 13:30N 31°19' E 121°33'848763121.0
2017-Oct-15 13:30N 21°19' E 110°25'203365285.1
2017-Oct-15 13:30N 22°57' E 113°37'659182605.2
2017-Oct-15 13:30N 31°29' E 121°23'121328.2
2017-Oct-15 13:30N 31°24' E 121°35'66270084.6
2017-Oct-15 13:29N 23°01' E 113°31'664183882.4
2017-Oct-15 13:29N 31°25' E 121°38'667266708.7
2017-Oct-15 13:29N 22°55' E 113°35'3406.3
2017-Oct-15 13:28N 22°57' E 113°37'2913.0
2017-Oct-15 13:28N 22°55' E 113°36'2142.9
2017-Oct-15 13:27N 22°57' E 113°36'11607.3
2017-Oct-15 13:26N 22°46' E 113°39'668133501.8
2017-Oct-15 13:26N 31°30' E 121°24'672268629.1
2017-Oct-15 13:26N 22°44' E 113°34'12430.2
2017-Oct-15 13:24N 22°56' E 113°36'66113756.7
2017-Oct-15 13:21N 31°30' E 121°23'66210981.1
2017-Oct-15 13:18N 22°59' E 113°31'517.4
2017-Oct-15 13:00N 22°57' E 113°36'12094.8
2017-Oct-15 13:00N 22°57' E 113°37'660103315.3
2017-Oct-15 13:00N 31°30' E 121°23'67163612.3
2017-Oct-15 12:59N 22°44' E 113°34'5978.9
2017-Oct-15 12:59N 22°46' E 113°39'669481951.5
2017-Oct-15 12:59N 31°24' E 121°35'662297937.3
2017-Oct-15 12:59N 22°57' E 113°37'3318.6
2017-Oct-15 12:58N 22°55' E 113°35'089.0
2017-Oct-15 12:58N 22°55' E 113°36'659103194.9
2017-Oct-15 12:58N 31°19' E 121°33'65865816.7
2017-Oct-15 12:57N 22°56' E 113°36'665299395.9
2017-Oct-15 12:57N 31°25' E 121°38'142321.8
2017-Oct-15 12:57N 31°29' E 121°23'6612380534.9
2017-Oct-15 12:57N 22°59' E 113°31'66241092.2
2017-Oct-15 12:56N 31°30' E 121°24'6604481.6
2017-Oct-15 12:47N 23°01' E 113°31'66111177.0
2017-Oct-15 12:43N 31°41' E 121°12'30892.1
2017-Oct-15 12:41N 31°18' E 121°33'8474650.4
2017-Oct-15 12:30N 21°19' E 110°25'202242236.1
2017-Oct-15 12:30N 22°57' E 113°36'65881672.6
2017-Oct-15 12:30N 31°19' E 121°33'668126643.2
2017-Oct-15 12:30N 22°44' E 113°34'671402878.2
2017-Oct-15 12:29N 31°30' E 121°23'660792084.1
2017-Oct-15 12:29N 22°57' E 113°37'0106.4
2017-Oct-15 12:29N 22°57' E 113°37'71058.6
2017-Oct-15 12:29N 23°01' E 113°31'65960830.9
2017-Oct-15 12:28N 31°29' E 121°23'662340241.4
2017-Oct-15 12:28N 22°55' E 113°36'0154.7
2017-Oct-15 12:28N 22°55' E 113°35'66561352.5
2017-Oct-15 12:27N 31°24' E 121°35'2215.0
2017-Oct-15 12:27N 31°25' E 121°38'281245.1
2017-Oct-15 12:25N 31°41' E 121°12'30408.5
2017-Oct-15 12:21N 31°18' E 121°33'659103076.6
2017-Oct-15 12:21N 22°59' E 113°31'551.6
2017-Oct-15 12:15N 22°56' E 113°36'11630.1
2017-Oct-15 12:14N 22°46' E 113°39'200906.2
2017-Oct-15 12:00N 21°19' E 110°25'849305582.3
2017-Oct-15 12:00N 31°29' E 121°23'1311.0
2017-Oct-15 12:00N 31°30' E 121°24'138.1
2017-Oct-15 11:59N 31°30' E 121°23'66288299.0
2017-Oct-15 11:59N 22°55' E 113°36'664183886.3
2017-Oct-15 11:58N 31°41' E 121°12'2812449.2
2017-Oct-15 11:58N 31°25' E 121°38'664265714.4
2017-Oct-15 11:58N 22°57' E 113°37'026.6
2017-Oct-15 11:58N 22°57' E 113°37'31872.4
2017-Oct-15 11:58N 22°55' E 113°35'665125940.3
2017-Oct-15 11:57N 31°24' E 121°35'663340959.3
2017-Oct-15 11:57N 22°57' E 113°36'024.5
2017-Oct-15 11:57N 22°56' E 113°36'111478.3
2017-Oct-15 11:56N 22°46' E 113°39'546.6
2017-Oct-15 11:50N 22°44' E 113°34'66820051.8
2017-Oct-15 11:48N 31°19' E 121°33'115.1
2017-Oct-15 11:45N 31°18' E 121°33'6682798.9
2017-Oct-15 11:30N 22°44' E 113°34'19570284.2
2017-Oct-15 11:30N 21°19' E 110°25'203365263.8
2017-Oct-15 11:30N 22°57' E 113°37'34533.6
2017-Oct-15 11:30N 22°55' E 113°35'6936.7
2017-Oct-15 11:30N 22°59' E 113°31'666218043.3
2017-Oct-15 11:29N 31°25' E 121°38'66630759.2
2017-Oct-15 11:28N 22°55' E 113°36'66282122.5
2017-Oct-15 11:28N 31°29' E 121°23'152943.9
2017-Oct-15 11:27N 31°18' E 121°33'657338072.2
2017-Oct-15 11:27N 22°57' E 113°36'66361197.8
2017-Oct-15 11:27N 31°24' E 121°35'11678.6
2017-Oct-15 11:26N 31°30' E 121°24'153278.8
2017-Oct-15 11:25N 31°41' E 121°12'662183256.1
2017-Oct-15 11:25N 22°57' E 113°37'116486.6
2017-Oct-15 11:25N 22°46' E 113°39'66439857.3
2017-Oct-15 11:24N 31°19' E 121°33'14181.9
2017-Oct-15 11:19N 31°30' E 121°23'6602092.3
2017-Oct-15 11:00N 22°57' E 113°37'135645.0
2017-Oct-15 11:00N 22°44' E 113°34'139170.9
2017-Oct-15 11:00N 22°57' E 113°37'2886.8
2017-Oct-15 11:00N 22°55' E 113°35'20190347.7
2017-Oct-15 11:00N 21°19' E 110°25'19939786.7
2017-Oct-15 11:00N 22°59' E 113°31'661140031.5
2017-Oct-15 10:59N 31°29' E 121°23'1133.0
2017-Oct-15 10:59N 31°30' E 121°23'141584.8
2017-Oct-15 10:59N 31°19' E 121°33'65946537.6
2017-Oct-15 10:58N 22°55' E 113°36'65930403.1
2017-Oct-15 10:56N 31°18' E 121°33'84749.1
2017-Oct-15 10:56N 31°25' E 121°38'67125715.7
2017-Oct-15 10:55N 22°46' E 113°39'66813425.0
2017-Oct-15 10:52N 31°30' E 121°24'66111439.9
2017-Oct-15 10:48N 22°57' E 113°36'0 4.2
2017-Oct-15 10:44N 22°56' E 113°36'66376979.7
2017-Oct-15 10:43N 31°41' E 121°12'6616522.6
2017-Oct-15 10:37N 23°01' E 113°31'763.5
2017-Oct-15 10:30N 22°57' E 113°37'137635.3
2017-Oct-15 10:30N 22°44' E 113°34'1211243.7
2017-Oct-15 10:30N 22°57' E 113°36'34500.2
2017-Oct-15 10:30N 22°54' E 113°35'200120206.3
2017-Oct-15 10:30N 21°19' E 110°25'20236298.9
2017-Oct-15 10:30N 22°56' E 113°36'11749.6
2017-Oct-15 10:30N 22°55' E 113°36'028.4
2017-Oct-15 10:29N 22°55' E 113°35'65945618.0
2017-Oct-15 10:28N 31°18' E 121°33'1169.6
2017-Oct-15 10:28N 31°19' E 121°33'141579.8
2017-Oct-15 10:28N 31°30' E 121°24'154.0
2017-Oct-15 10:27N 31°29' E 121°23'14840.6
2017-Oct-15 10:26N 31°25' E 121°38'66456917.2
2017-Oct-15 10:25N 23°01' E 113°31'3100.4
2017-Oct-15 10:24N 22°59' E 113°31'66431025.1
2017-Oct-15 10:22N 31°41' E 121°12'26564.0
2017-Oct-15 10:20N 31°24' E 121°35'6682092.3
2017-Oct-15 10:00N 22°52' E 113°34'620263.1
2017-Oct-15 10:00N 22°57' E 113°37'660792116.0
2017-Oct-15 10:00N 31°30' E 121°24'661396518.4
2017-Oct-15 10:00N 22°57' E 113°36'20226905.9
2017-Oct-15 10:00N 21°19' E 110°25'201241151.7
2017-Oct-15 10:00N 22°55' E 113°36'114294.8
2017-Oct-15 10:00N 22°44' E 113°34'668104617.6
2017-Oct-15 09:59N 31°19' E 121°33'1324297.3
2017-Oct-15 09:59N 31°30' E 121°24'663265036.7